<?xml version="1.0" encoding="UTF-8" standalone="no" ?>
<gpx xmlns="http://www.topografix.com/GPX/1/1" xmlns:xsi="http://www.w3.org/2001/XMLSchema-instance" xsi:schemaLocation="http://www.topografix.com/GPX/1/1 http://www.topografix.com/GPX/1/1/gpx.xsd" version="1.1" creator="VisuGPX - https://www.visugpx.com">
  <metadata>
    <name>Forêt de Saint-Germain</name>
  </metadata>
  <trk>
    <name><![CDATA[Forêt de Saint-Germain_1]]></name>
    <extensions>
      <line xmlns="http://www.topografix.com/GPX/gpx_style/0/2">
        <color>0000FF</color>
        <width>4</width>
      </line>
    </extensions>
    <trkseg>
      <trkpt lat="48.89813" lon="2.09521">
        <ele>141.3</ele>
        <time>2022-08-24T07:34:51Z</time>
      </trkpt>
      <trkpt lat="48.89819" lon="2.09524">
        <ele>138.5</ele>
        <time>2022-08-24T07:36:36Z</time>
      </trkpt>
      <trkpt lat="48.89818" lon="2.09524">
        <ele>138.6</ele>
        <time>2022-08-24T07:36:41Z</time>
      </trkpt>
      <trkpt lat="48.89819" lon="2.09527">
        <ele>143.7</ele>
        <time>2022-08-24T07:38:20Z</time>
      </trkpt>
      <trkpt lat="48.89819" lon="2.09528">
        <ele>143.8</ele>
        <time>2022-08-24T07:38:26Z</time>
      </trkpt>
      <trkpt lat="48.8982" lon="2.09527">
        <ele>144.2</ele>
        <time>2022-08-24T07:38:43Z</time>
      </trkpt>
      <trkpt lat="48.89819" lon="2.09527">
        <ele>144.4</ele>
        <time>2022-08-24T07:38:53Z</time>
      </trkpt>
      <trkpt lat="48.89819" lon="2.09526">
        <ele>144.4</ele>
        <time>2022-08-24T07:38:59Z</time>
      </trkpt>
      <trkpt lat="48.89819" lon="2.09525">
        <ele>144.4</ele>
        <time>2022-08-24T07:39:04Z</time>
      </trkpt>
      <trkpt lat="48.89819" lon="2.09524">
        <ele>143.9</ele>
        <time>2022-08-24T07:39:10Z</time>
      </trkpt>
      <trkpt lat="48.89821" lon="2.09522">
        <ele>143.5</ele>
        <time>2022-08-24T07:39:15Z</time>
      </trkpt>
      <trkpt lat="48.89825" lon="2.09526">
        <ele>143.1</ele>
        <time>2022-08-24T07:39:21Z</time>
      </trkpt>
      <trkpt lat="48.89829" lon="2.09538">
        <ele>142.8</ele>
        <time>2022-08-24T07:39:27Z</time>
      </trkpt>
      <trkpt lat="48.89832" lon="2.09549">
        <ele>142.7</ele>
        <time>2022-08-24T07:39:32Z</time>
      </trkpt>
      <trkpt lat="48.89835" lon="2.0956">
        <ele>142.8</ele>
        <time>2022-08-24T07:39:37Z</time>
      </trkpt>
      <trkpt lat="48.89839" lon="2.0957">
        <ele>143</ele>
        <time>2022-08-24T07:39:43Z</time>
      </trkpt>
      <trkpt lat="48.89843" lon="2.0958">
        <ele>143.2</ele>
        <time>2022-08-24T07:39:49Z</time>
      </trkpt>
      <trkpt lat="48.89847" lon="2.09591">
        <ele>143.3</ele>
        <time>2022-08-24T07:39:55Z</time>
      </trkpt>
      <trkpt lat="48.8985" lon="2.09601">
        <ele>143.4</ele>
        <time>2022-08-24T07:40:00Z</time>
      </trkpt>
      <trkpt lat="48.89854" lon="2.09613">
        <ele>143.5</ele>
        <time>2022-08-24T07:40:06Z</time>
      </trkpt>
      <trkpt lat="48.89857" lon="2.09625">
        <ele>143.5</ele>
        <time>2022-08-24T07:40:12Z</time>
      </trkpt>
      <trkpt lat="48.89859" lon="2.09635">
        <ele>143.5</ele>
        <time>2022-08-24T07:40:17Z</time>
      </trkpt>
      <trkpt lat="48.89862" lon="2.09648">
        <ele>143.4</ele>
        <time>2022-08-24T07:40:23Z</time>
      </trkpt>
      <trkpt lat="48.89863" lon="2.09659">
        <ele>143.4</ele>
        <time>2022-08-24T07:40:28Z</time>
      </trkpt>
      <trkpt lat="48.89865" lon="2.09673">
        <ele>143.2</ele>
        <time>2022-08-24T07:40:34Z</time>
      </trkpt>
      <trkpt lat="48.89867" lon="2.09687">
        <ele>142.9</ele>
        <time>2022-08-24T07:40:40Z</time>
      </trkpt>
      <trkpt lat="48.89867" lon="2.09703">
        <ele>142.5</ele>
        <time>2022-08-24T07:40:46Z</time>
      </trkpt>
      <trkpt lat="48.89872" lon="2.09715">
        <ele>142.1</ele>
        <time>2022-08-24T07:40:52Z</time>
      </trkpt>
      <trkpt lat="48.8988" lon="2.09725">
        <ele>141.6</ele>
        <time>2022-08-24T07:40:58Z</time>
      </trkpt>
      <trkpt lat="48.89885" lon="2.09731">
        <ele>141</ele>
        <time>2022-08-24T07:41:04Z</time>
      </trkpt>
      <trkpt lat="48.89886" lon="2.09741">
        <ele>140.8</ele>
        <time>2022-08-24T07:41:09Z</time>
      </trkpt>
      <trkpt lat="48.89884" lon="2.09752">
        <ele>140.5</ele>
        <time>2022-08-24T07:41:15Z</time>
      </trkpt>
      <trkpt lat="48.89884" lon="2.09764">
        <ele>140</ele>
        <time>2022-08-24T07:41:21Z</time>
      </trkpt>
      <trkpt lat="48.89886" lon="2.09771">
        <ele>139.7</ele>
        <time>2022-08-24T07:41:26Z</time>
      </trkpt>
      <trkpt lat="48.89887" lon="2.09783">
        <ele>139.5</ele>
        <time>2022-08-24T07:41:32Z</time>
      </trkpt>
      <trkpt lat="48.89888" lon="2.09794">
        <ele>139.6</ele>
        <time>2022-08-24T07:41:37Z</time>
      </trkpt>
      <trkpt lat="48.89888" lon="2.09808">
        <ele>139.4</ele>
        <time>2022-08-24T07:41:43Z</time>
      </trkpt>
      <trkpt lat="48.89889" lon="2.09824">
        <ele>139.2</ele>
        <time>2022-08-24T07:41:49Z</time>
      </trkpt>
      <trkpt lat="48.89888" lon="2.09835">
        <ele>139.2</ele>
        <time>2022-08-24T07:41:54Z</time>
      </trkpt>
      <trkpt lat="48.89889" lon="2.09846">
        <ele>139.4</ele>
        <time>2022-08-24T07:41:59Z</time>
      </trkpt>
      <trkpt lat="48.89888" lon="2.09858">
        <ele>139.7</ele>
        <time>2022-08-24T07:42:05Z</time>
      </trkpt>
      <trkpt lat="48.89887" lon="2.09872">
        <ele>139.8</ele>
        <time>2022-08-24T07:42:11Z</time>
      </trkpt>
      <trkpt lat="48.89886" lon="2.09886">
        <ele>140.4</ele>
        <time>2022-08-24T07:42:17Z</time>
      </trkpt>
      <trkpt lat="48.89886" lon="2.09899">
        <ele>140.9</ele>
        <time>2022-08-24T07:42:23Z</time>
      </trkpt>
      <trkpt lat="48.89887" lon="2.09914">
        <ele>141.1</ele>
        <time>2022-08-24T07:42:29Z</time>
      </trkpt>
      <trkpt lat="48.89887" lon="2.09925">
        <ele>141.3</ele>
        <time>2022-08-24T07:42:34Z</time>
      </trkpt>
      <trkpt lat="48.89888" lon="2.09938">
        <ele>141.5</ele>
        <time>2022-08-24T07:42:40Z</time>
      </trkpt>
      <trkpt lat="48.89889" lon="2.09948">
        <ele>141.6</ele>
        <time>2022-08-24T07:42:45Z</time>
      </trkpt>
      <trkpt lat="48.89889" lon="2.09958">
        <ele>141.8</ele>
        <time>2022-08-24T07:42:51Z</time>
      </trkpt>
      <trkpt lat="48.89889" lon="2.09974">
        <ele>141.8</ele>
        <time>2022-08-24T07:42:57Z</time>
      </trkpt>
      <trkpt lat="48.8989" lon="2.09989">
        <ele>141.5</ele>
        <time>2022-08-24T07:43:03Z</time>
      </trkpt>
      <trkpt lat="48.89892" lon="2.10003">
        <ele>141.2</ele>
        <time>2022-08-24T07:43:09Z</time>
      </trkpt>
      <trkpt lat="48.89892" lon="2.10016">
        <ele>140.7</ele>
        <time>2022-08-24T07:43:15Z</time>
      </trkpt>
      <trkpt lat="48.89893" lon="2.10026">
        <ele>140.2</ele>
        <time>2022-08-24T07:43:20Z</time>
      </trkpt>
      <trkpt lat="48.89893" lon="2.10036">
        <ele>139.6</ele>
        <time>2022-08-24T07:43:25Z</time>
      </trkpt>
      <trkpt lat="48.8989" lon="2.10048">
        <ele>139</ele>
        <time>2022-08-24T07:43:31Z</time>
      </trkpt>
      <trkpt lat="48.89885" lon="2.10062">
        <ele>138.6</ele>
        <time>2022-08-24T07:43:37Z</time>
      </trkpt>
      <trkpt lat="48.89886" lon="2.10075">
        <ele>138.1</ele>
        <time>2022-08-24T07:43:43Z</time>
      </trkpt>
      <trkpt lat="48.89892" lon="2.10084">
        <ele>137.5</ele>
        <time>2022-08-24T07:43:48Z</time>
      </trkpt>
      <trkpt lat="48.89896" lon="2.10094">
        <ele>137</ele>
        <time>2022-08-24T07:43:54Z</time>
      </trkpt>
      <trkpt lat="48.89905" lon="2.10097">
        <ele>136.4</ele>
        <time>2022-08-24T07:44:00Z</time>
      </trkpt>
      <trkpt lat="48.89914" lon="2.10095">
        <ele>136</ele>
        <time>2022-08-24T07:44:06Z</time>
      </trkpt>
      <trkpt lat="48.89921" lon="2.10094">
        <ele>135.6</ele>
        <time>2022-08-24T07:44:12Z</time>
      </trkpt>
      <trkpt lat="48.89928" lon="2.10095">
        <ele>135.3</ele>
        <time>2022-08-24T07:44:17Z</time>
      </trkpt>
      <trkpt lat="48.89938" lon="2.10096">
        <ele>134.7</ele>
        <time>2022-08-24T07:44:23Z</time>
      </trkpt>
      <trkpt lat="48.89946" lon="2.10095">
        <ele>134.3</ele>
        <time>2022-08-24T07:44:28Z</time>
      </trkpt>
      <trkpt lat="48.89954" lon="2.10093">
        <ele>133.8</ele>
        <time>2022-08-24T07:44:34Z</time>
      </trkpt>
      <trkpt lat="48.89962" lon="2.10091">
        <ele>133.2</ele>
        <time>2022-08-24T07:44:40Z</time>
      </trkpt>
      <trkpt lat="48.8997" lon="2.1009">
        <ele>132.4</ele>
        <time>2022-08-24T07:44:45Z</time>
      </trkpt>
      <trkpt lat="48.89978" lon="2.10091">
        <ele>131.7</ele>
        <time>2022-08-24T07:44:51Z</time>
      </trkpt>
      <trkpt lat="48.89984" lon="2.10092">
        <ele>131.3</ele>
        <time>2022-08-24T07:44:56Z</time>
      </trkpt>
      <trkpt lat="48.89993" lon="2.10092">
        <ele>130.9</ele>
        <time>2022-08-24T07:45:02Z</time>
      </trkpt>
      <trkpt lat="48.9" lon="2.10092">
        <ele>130.7</ele>
        <time>2022-08-24T07:45:07Z</time>
      </trkpt>
      <trkpt lat="48.9001" lon="2.1009">
        <ele>130.8</ele>
        <time>2022-08-24T07:45:13Z</time>
      </trkpt>
      <trkpt lat="48.90021" lon="2.10091">
        <ele>131.1</ele>
        <time>2022-08-24T07:45:19Z</time>
      </trkpt>
      <trkpt lat="48.90029" lon="2.10092">
        <ele>131.3</ele>
        <time>2022-08-24T07:45:24Z</time>
      </trkpt>
      <trkpt lat="48.90038" lon="2.10091">
        <ele>131.6</ele>
        <time>2022-08-24T07:45:30Z</time>
      </trkpt>
      <trkpt lat="48.90046" lon="2.10092">
        <ele>131.7</ele>
        <time>2022-08-24T07:45:35Z</time>
      </trkpt>
      <trkpt lat="48.90055" lon="2.10092">
        <ele>131.7</ele>
        <time>2022-08-24T07:45:41Z</time>
      </trkpt>
      <trkpt lat="48.90059" lon="2.10094">
        <ele>131.8</ele>
        <time>2022-08-24T07:45:47Z</time>
      </trkpt>
      <trkpt lat="48.90063" lon="2.10105">
        <ele>131.8</ele>
        <time>2022-08-24T07:45:53Z</time>
      </trkpt>
      <trkpt lat="48.90069" lon="2.10116">
        <ele>131.5</ele>
        <time>2022-08-24T07:45:59Z</time>
      </trkpt>
      <trkpt lat="48.90075" lon="2.10126">
        <ele>131</ele>
        <time>2022-08-24T07:46:04Z</time>
      </trkpt>
      <trkpt lat="48.90083" lon="2.10133">
        <ele>130.3</ele>
        <time>2022-08-24T07:46:10Z</time>
      </trkpt>
      <trkpt lat="48.9009" lon="2.10137">
        <ele>129.7</ele>
        <time>2022-08-24T07:46:15Z</time>
      </trkpt>
      <trkpt lat="48.90099" lon="2.10142">
        <ele>129.1</ele>
        <time>2022-08-24T07:46:21Z</time>
      </trkpt>
      <trkpt lat="48.90104" lon="2.10144">
        <ele>129</ele>
        <time>2022-08-24T07:46:26Z</time>
      </trkpt>
      <trkpt lat="48.90112" lon="2.10145">
        <ele>129</ele>
        <time>2022-08-24T07:46:31Z</time>
      </trkpt>
      <trkpt lat="48.9012" lon="2.10143">
        <ele>128.9</ele>
        <time>2022-08-24T07:46:36Z</time>
      </trkpt>
      <trkpt lat="48.9013" lon="2.10138">
        <ele>128.6</ele>
        <time>2022-08-24T07:46:42Z</time>
      </trkpt>
      <trkpt lat="48.90137" lon="2.10133">
        <ele>128.5</ele>
        <time>2022-08-24T07:46:47Z</time>
      </trkpt>
      <trkpt lat="48.90143" lon="2.10127">
        <ele>128.5</ele>
        <time>2022-08-24T07:46:52Z</time>
      </trkpt>
      <trkpt lat="48.9015" lon="2.10116">
        <ele>128.4</ele>
        <time>2022-08-24T07:46:58Z</time>
      </trkpt>
      <trkpt lat="48.90155" lon="2.10114">
        <ele>128.7</ele>
        <time>2022-08-24T07:47:04Z</time>
      </trkpt>
      <trkpt lat="48.9016" lon="2.10116">
        <ele>129.1</ele>
        <time>2022-08-24T07:47:09Z</time>
      </trkpt>
      <trkpt lat="48.90168" lon="2.10121">
        <ele>129.8</ele>
        <time>2022-08-24T07:47:15Z</time>
      </trkpt>
      <trkpt lat="48.90174" lon="2.10125">
        <ele>130.2</ele>
        <time>2022-08-24T07:47:20Z</time>
      </trkpt>
      <trkpt lat="48.90183" lon="2.10131">
        <ele>130.3</ele>
        <time>2022-08-24T07:47:26Z</time>
      </trkpt>
      <trkpt lat="48.90189" lon="2.10136">
        <ele>130.2</ele>
        <time>2022-08-24T07:47:31Z</time>
      </trkpt>
      <trkpt lat="48.90196" lon="2.10138">
        <ele>130</ele>
        <time>2022-08-24T07:47:36Z</time>
      </trkpt>
      <trkpt lat="48.90205" lon="2.10144">
        <ele>129.7</ele>
        <time>2022-08-24T07:47:42Z</time>
      </trkpt>
      <trkpt lat="48.90214" lon="2.10148">
        <ele>129.5</ele>
        <time>2022-08-24T07:47:48Z</time>
      </trkpt>
      <trkpt lat="48.90223" lon="2.10152">
        <ele>129.4</ele>
        <time>2022-08-24T07:47:54Z</time>
      </trkpt>
      <trkpt lat="48.90232" lon="2.10158">
        <ele>129.4</ele>
        <time>2022-08-24T07:48:00Z</time>
      </trkpt>
      <trkpt lat="48.9024" lon="2.10161">
        <ele>129.2</ele>
        <time>2022-08-24T07:48:06Z</time>
      </trkpt>
      <trkpt lat="48.90248" lon="2.10165">
        <ele>129.1</ele>
        <time>2022-08-24T07:48:11Z</time>
      </trkpt>
      <trkpt lat="48.90257" lon="2.10168">
        <ele>129</ele>
        <time>2022-08-24T07:48:17Z</time>
      </trkpt>
      <trkpt lat="48.90266" lon="2.10173">
        <ele>128.7</ele>
        <time>2022-08-24T07:48:23Z</time>
      </trkpt>
      <trkpt lat="48.90275" lon="2.10176">
        <ele>128.5</ele>
        <time>2022-08-24T07:48:29Z</time>
      </trkpt>
      <trkpt lat="48.90282" lon="2.1018">
        <ele>128.4</ele>
        <time>2022-08-24T07:48:34Z</time>
      </trkpt>
      <trkpt lat="48.90291" lon="2.10182">
        <ele>128.2</ele>
        <time>2022-08-24T07:48:40Z</time>
      </trkpt>
      <trkpt lat="48.903" lon="2.10185">
        <ele>127.8</ele>
        <time>2022-08-24T07:48:46Z</time>
      </trkpt>
      <trkpt lat="48.90307" lon="2.10189">
        <ele>127.5</ele>
        <time>2022-08-24T07:48:52Z</time>
      </trkpt>
      <trkpt lat="48.90315" lon="2.10195">
        <ele>127.3</ele>
        <time>2022-08-24T07:48:58Z</time>
      </trkpt>
      <trkpt lat="48.90323" lon="2.10199">
        <ele>127.3</ele>
        <time>2022-08-24T07:49:03Z</time>
      </trkpt>
      <trkpt lat="48.90333" lon="2.10207">
        <ele>127.5</ele>
        <time>2022-08-24T07:49:09Z</time>
      </trkpt>
      <trkpt lat="48.9034" lon="2.10214">
        <ele>127.8</ele>
        <time>2022-08-24T07:49:14Z</time>
      </trkpt>
      <trkpt lat="48.90349" lon="2.10216">
        <ele>128.3</ele>
        <time>2022-08-24T07:49:20Z</time>
      </trkpt>
      <trkpt lat="48.90357" lon="2.10217">
        <ele>128.8</ele>
        <time>2022-08-24T07:49:26Z</time>
      </trkpt>
      <trkpt lat="48.90367" lon="2.10223">
        <ele>128.9</ele>
        <time>2022-08-24T07:49:32Z</time>
      </trkpt>
      <trkpt lat="48.90374" lon="2.10227">
        <ele>128.6</ele>
        <time>2022-08-24T07:49:37Z</time>
      </trkpt>
      <trkpt lat="48.90383" lon="2.10231">
        <ele>128.2</ele>
        <time>2022-08-24T07:49:43Z</time>
      </trkpt>
      <trkpt lat="48.90391" lon="2.10235">
        <ele>128</ele>
        <time>2022-08-24T07:49:48Z</time>
      </trkpt>
      <trkpt lat="48.904" lon="2.10243">
        <ele>127.9</ele>
        <time>2022-08-24T07:49:54Z</time>
      </trkpt>
      <trkpt lat="48.90408" lon="2.10243">
        <ele>127.9</ele>
        <time>2022-08-24T07:50:00Z</time>
      </trkpt>
      <trkpt lat="48.90416" lon="2.10244">
        <ele>127.9</ele>
        <time>2022-08-24T07:50:05Z</time>
      </trkpt>
      <trkpt lat="48.90426" lon="2.10248">
        <ele>128</ele>
        <time>2022-08-24T07:50:11Z</time>
      </trkpt>
      <trkpt lat="48.90435" lon="2.10252">
        <ele>128</ele>
        <time>2022-08-24T07:50:17Z</time>
      </trkpt>
      <trkpt lat="48.90444" lon="2.10256">
        <ele>127.8</ele>
        <time>2022-08-24T07:50:23Z</time>
      </trkpt>
      <trkpt lat="48.90452" lon="2.10261">
        <ele>127.9</ele>
        <time>2022-08-24T07:50:28Z</time>
      </trkpt>
      <trkpt lat="48.9046" lon="2.10264">
        <ele>127.9</ele>
        <time>2022-08-24T07:50:34Z</time>
      </trkpt>
      <trkpt lat="48.90466" lon="2.10269">
        <ele>128</ele>
        <time>2022-08-24T07:50:39Z</time>
      </trkpt>
      <trkpt lat="48.90474" lon="2.10274">
        <ele>128.2</ele>
        <time>2022-08-24T07:50:44Z</time>
      </trkpt>
      <trkpt lat="48.90483" lon="2.10278">
        <ele>128.2</ele>
        <time>2022-08-24T07:50:50Z</time>
      </trkpt>
      <trkpt lat="48.90491" lon="2.10282">
        <ele>128</ele>
        <time>2022-08-24T07:50:56Z</time>
      </trkpt>
      <trkpt lat="48.90501" lon="2.10286">
        <ele>128</ele>
        <time>2022-08-24T07:51:02Z</time>
      </trkpt>
      <trkpt lat="48.90508" lon="2.10289">
        <ele>128.1</ele>
        <time>2022-08-24T07:51:07Z</time>
      </trkpt>
      <trkpt lat="48.90515" lon="2.10293">
        <ele>128.2</ele>
        <time>2022-08-24T07:51:12Z</time>
      </trkpt>
      <trkpt lat="48.90524" lon="2.10298">
        <ele>128.5</ele>
        <time>2022-08-24T07:51:18Z</time>
      </trkpt>
      <trkpt lat="48.90533" lon="2.10302">
        <ele>128.7</ele>
        <time>2022-08-24T07:51:24Z</time>
      </trkpt>
      <trkpt lat="48.90542" lon="2.10307">
        <ele>128.9</ele>
        <time>2022-08-24T07:51:30Z</time>
      </trkpt>
      <trkpt lat="48.90551" lon="2.10311">
        <ele>128.9</ele>
        <time>2022-08-24T07:51:36Z</time>
      </trkpt>
      <trkpt lat="48.90558" lon="2.10316">
        <ele>128.9</ele>
        <time>2022-08-24T07:51:41Z</time>
      </trkpt>
      <trkpt lat="48.90565" lon="2.10322">
        <ele>129</ele>
        <time>2022-08-24T07:51:46Z</time>
      </trkpt>
      <trkpt lat="48.90574" lon="2.10325">
        <ele>128.9</ele>
        <time>2022-08-24T07:51:52Z</time>
      </trkpt>
      <trkpt lat="48.90583" lon="2.10328">
        <ele>128.9</ele>
        <time>2022-08-24T07:51:58Z</time>
      </trkpt>
      <trkpt lat="48.90592" lon="2.10331">
        <ele>128.8</ele>
        <time>2022-08-24T07:52:04Z</time>
      </trkpt>
      <trkpt lat="48.90599" lon="2.10335">
        <ele>128.6</ele>
        <time>2022-08-24T07:52:09Z</time>
      </trkpt>
      <trkpt lat="48.90608" lon="2.10339">
        <ele>128.3</ele>
        <time>2022-08-24T07:52:15Z</time>
      </trkpt>
      <trkpt lat="48.90616" lon="2.10343">
        <ele>127.9</ele>
        <time>2022-08-24T07:52:20Z</time>
      </trkpt>
      <trkpt lat="48.90623" lon="2.10345">
        <ele>127.5</ele>
        <time>2022-08-24T07:52:26Z</time>
      </trkpt>
      <trkpt lat="48.90633" lon="2.10351">
        <ele>127.2</ele>
        <time>2022-08-24T07:52:32Z</time>
      </trkpt>
      <trkpt lat="48.90641" lon="2.10356">
        <ele>127.1</ele>
        <time>2022-08-24T07:52:38Z</time>
      </trkpt>
      <trkpt lat="48.90651" lon="2.10363">
        <ele>126.8</ele>
        <time>2022-08-24T07:52:44Z</time>
      </trkpt>
      <trkpt lat="48.90658" lon="2.10367">
        <ele>126.5</ele>
        <time>2022-08-24T07:52:49Z</time>
      </trkpt>
      <trkpt lat="48.90667" lon="2.10371">
        <ele>126.3</ele>
        <time>2022-08-24T07:52:55Z</time>
      </trkpt>
      <trkpt lat="48.90675" lon="2.10374">
        <ele>126.1</ele>
        <time>2022-08-24T07:53:01Z</time>
      </trkpt>
      <trkpt lat="48.90683" lon="2.10378">
        <ele>125.8</ele>
        <time>2022-08-24T07:53:06Z</time>
      </trkpt>
      <trkpt lat="48.90692" lon="2.10381">
        <ele>125.6</ele>
        <time>2022-08-24T07:53:12Z</time>
      </trkpt>
      <trkpt lat="48.907" lon="2.10386">
        <ele>125.4</ele>
        <time>2022-08-24T07:53:18Z</time>
      </trkpt>
      <trkpt lat="48.90709" lon="2.10393">
        <ele>125.3</ele>
        <time>2022-08-24T07:53:23Z</time>
      </trkpt>
      <trkpt lat="48.90717" lon="2.10397">
        <ele>125.4</ele>
        <time>2022-08-24T07:53:29Z</time>
      </trkpt>
      <trkpt lat="48.90725" lon="2.10396">
        <ele>125.4</ele>
        <time>2022-08-24T07:53:34Z</time>
      </trkpt>
      <trkpt lat="48.90733" lon="2.104">
        <ele>125.3</ele>
        <time>2022-08-24T07:53:40Z</time>
      </trkpt>
      <trkpt lat="48.9074" lon="2.10406">
        <ele>125.2</ele>
        <time>2022-08-24T07:53:45Z</time>
      </trkpt>
      <trkpt lat="48.90749" lon="2.1041">
        <ele>125.1</ele>
        <time>2022-08-24T07:53:51Z</time>
      </trkpt>
      <trkpt lat="48.90756" lon="2.10411">
        <ele>125.1</ele>
        <time>2022-08-24T07:53:56Z</time>
      </trkpt>
      <trkpt lat="48.90764" lon="2.10415">
        <ele>124.9</ele>
        <time>2022-08-24T07:54:02Z</time>
      </trkpt>
      <trkpt lat="48.90772" lon="2.10421">
        <ele>124.8</ele>
        <time>2022-08-24T07:54:07Z</time>
      </trkpt>
      <trkpt lat="48.90782" lon="2.10425">
        <ele>124.8</ele>
        <time>2022-08-24T07:54:13Z</time>
      </trkpt>
      <trkpt lat="48.9079" lon="2.1043">
        <ele>124.7</ele>
        <time>2022-08-24T07:54:19Z</time>
      </trkpt>
      <trkpt lat="48.90797" lon="2.10435">
        <ele>124.5</ele>
        <time>2022-08-24T07:54:24Z</time>
      </trkpt>
      <trkpt lat="48.90806" lon="2.1044">
        <ele>124.3</ele>
        <time>2022-08-24T07:54:30Z</time>
      </trkpt>
      <trkpt lat="48.90812" lon="2.10444">
        <ele>124.2</ele>
        <time>2022-08-24T07:54:35Z</time>
      </trkpt>
      <trkpt lat="48.90823" lon="2.10446">
        <ele>124.4</ele>
        <time>2022-08-24T07:54:41Z</time>
      </trkpt>
      <trkpt lat="48.90831" lon="2.10449">
        <ele>124.8</ele>
        <time>2022-08-24T07:54:46Z</time>
      </trkpt>
      <trkpt lat="48.9084" lon="2.10453">
        <ele>125.1</ele>
        <time>2022-08-24T07:54:52Z</time>
      </trkpt>
      <trkpt lat="48.90848" lon="2.10455">
        <ele>125.4</ele>
        <time>2022-08-24T07:54:58Z</time>
      </trkpt>
      <trkpt lat="48.90855" lon="2.10456">
        <ele>125.4</ele>
        <time>2022-08-24T07:55:03Z</time>
      </trkpt>
      <trkpt lat="48.90863" lon="2.10462">
        <ele>125.3</ele>
        <time>2022-08-24T07:55:09Z</time>
      </trkpt>
      <trkpt lat="48.9087" lon="2.10466">
        <ele>125.2</ele>
        <time>2022-08-24T07:55:14Z</time>
      </trkpt>
      <trkpt lat="48.9088" lon="2.10471">
        <ele>125.1</ele>
        <time>2022-08-24T07:55:20Z</time>
      </trkpt>
      <trkpt lat="48.9089" lon="2.10478">
        <ele>125.3</ele>
        <time>2022-08-24T07:55:26Z</time>
      </trkpt>
      <trkpt lat="48.909" lon="2.10484">
        <ele>125.6</ele>
        <time>2022-08-24T07:55:32Z</time>
      </trkpt>
      <trkpt lat="48.90908" lon="2.10488">
        <ele>125.8</ele>
        <time>2022-08-24T07:55:37Z</time>
      </trkpt>
      <trkpt lat="48.90917" lon="2.1049">
        <ele>125.9</ele>
        <time>2022-08-24T07:55:43Z</time>
      </trkpt>
      <trkpt lat="48.90925" lon="2.10496">
        <ele>126</ele>
        <time>2022-08-24T07:55:48Z</time>
      </trkpt>
      <trkpt lat="48.90933" lon="2.10501">
        <ele>126.2</ele>
        <time>2022-08-24T07:55:54Z</time>
      </trkpt>
      <trkpt lat="48.90941" lon="2.10504">
        <ele>126.1</ele>
        <time>2022-08-24T07:56:00Z</time>
      </trkpt>
      <trkpt lat="48.90951" lon="2.10508">
        <ele>125.9</ele>
        <time>2022-08-24T07:56:06Z</time>
      </trkpt>
      <trkpt lat="48.90961" lon="2.10516">
        <ele>125.8</ele>
        <time>2022-08-24T07:56:12Z</time>
      </trkpt>
      <trkpt lat="48.9097" lon="2.10522">
        <ele>125.5</ele>
        <time>2022-08-24T07:56:17Z</time>
      </trkpt>
      <trkpt lat="48.90978" lon="2.10525">
        <ele>125.3</ele>
        <time>2022-08-24T07:56:22Z</time>
      </trkpt>
      <trkpt lat="48.90988" lon="2.1053">
        <ele>124.9</ele>
        <time>2022-08-24T07:56:28Z</time>
      </trkpt>
      <trkpt lat="48.90997" lon="2.10535">
        <ele>124.6</ele>
        <time>2022-08-24T07:56:34Z</time>
      </trkpt>
      <trkpt lat="48.91005" lon="2.10538">
        <ele>124.1</ele>
        <time>2022-08-24T07:56:39Z</time>
      </trkpt>
      <trkpt lat="48.91014" lon="2.10542">
        <ele>123.3</ele>
        <time>2022-08-24T07:56:44Z</time>
      </trkpt>
      <trkpt lat="48.91022" lon="2.10547">
        <ele>122.4</ele>
        <time>2022-08-24T07:56:50Z</time>
      </trkpt>
      <trkpt lat="48.91029" lon="2.10553">
        <ele>122.1</ele>
        <time>2022-08-24T07:56:56Z</time>
      </trkpt>
      <trkpt lat="48.91036" lon="2.1056">
        <ele>122.2</ele>
        <time>2022-08-24T07:57:02Z</time>
      </trkpt>
      <trkpt lat="48.91043" lon="2.10566">
        <ele>122.2</ele>
        <time>2022-08-24T07:57:07Z</time>
      </trkpt>
      <trkpt lat="48.91054" lon="2.1057">
        <ele>122.3</ele>
        <time>2022-08-24T07:57:13Z</time>
      </trkpt>
      <trkpt lat="48.91064" lon="2.10571">
        <ele>122.1</ele>
        <time>2022-08-24T07:57:18Z</time>
      </trkpt>
      <trkpt lat="48.91073" lon="2.10573">
        <ele>121.5</ele>
        <time>2022-08-24T07:57:23Z</time>
      </trkpt>
      <trkpt lat="48.91083" lon="2.10575">
        <ele>120.8</ele>
        <time>2022-08-24T07:57:29Z</time>
      </trkpt>
      <trkpt lat="48.91089" lon="2.10578">
        <ele>120.5</ele>
        <time>2022-08-24T07:57:34Z</time>
      </trkpt>
      <trkpt lat="48.911" lon="2.10583">
        <ele>120.5</ele>
        <time>2022-08-24T07:57:40Z</time>
      </trkpt>
      <trkpt lat="48.91108" lon="2.10589">
        <ele>120.5</ele>
        <time>2022-08-24T07:57:46Z</time>
      </trkpt>
      <trkpt lat="48.91117" lon="2.10593">
        <ele>120.4</ele>
        <time>2022-08-24T07:57:52Z</time>
      </trkpt>
      <trkpt lat="48.91126" lon="2.10596">
        <ele>120.4</ele>
        <time>2022-08-24T07:57:58Z</time>
      </trkpt>
      <trkpt lat="48.91134" lon="2.10602">
        <ele>120.3</ele>
        <time>2022-08-24T07:58:04Z</time>
      </trkpt>
      <trkpt lat="48.91141" lon="2.10606">
        <ele>120.3</ele>
        <time>2022-08-24T07:58:10Z</time>
      </trkpt>
      <trkpt lat="48.91149" lon="2.1061">
        <ele>120.2</ele>
        <time>2022-08-24T07:58:16Z</time>
      </trkpt>
      <trkpt lat="48.91156" lon="2.10614">
        <ele>120.4</ele>
        <time>2022-08-24T07:58:22Z</time>
      </trkpt>
      <trkpt lat="48.91163" lon="2.10618">
        <ele>120.7</ele>
        <time>2022-08-24T07:58:27Z</time>
      </trkpt>
      <trkpt lat="48.91173" lon="2.10622">
        <ele>121</ele>
        <time>2022-08-24T07:58:33Z</time>
      </trkpt>
      <trkpt lat="48.91182" lon="2.10627">
        <ele>121.1</ele>
        <time>2022-08-24T07:58:39Z</time>
      </trkpt>
      <trkpt lat="48.91191" lon="2.10633">
        <ele>121.1</ele>
        <time>2022-08-24T07:58:45Z</time>
      </trkpt>
      <trkpt lat="48.91198" lon="2.10638">
        <ele>121.3</ele>
        <time>2022-08-24T07:58:50Z</time>
      </trkpt>
      <trkpt lat="48.91209" lon="2.10642">
        <ele>121.1</ele>
        <time>2022-08-24T07:58:56Z</time>
      </trkpt>
      <trkpt lat="48.91219" lon="2.10645">
        <ele>120.6</ele>
        <time>2022-08-24T07:59:02Z</time>
      </trkpt>
      <trkpt lat="48.91226" lon="2.10648">
        <ele>120</ele>
        <time>2022-08-24T07:59:07Z</time>
      </trkpt>
      <trkpt lat="48.91235" lon="2.10651">
        <ele>119.4</ele>
        <time>2022-08-24T07:59:13Z</time>
      </trkpt>
      <trkpt lat="48.91245" lon="2.10656">
        <ele>118.7</ele>
        <time>2022-08-24T07:59:19Z</time>
      </trkpt>
      <trkpt lat="48.91255" lon="2.10658">
        <ele>117.9</ele>
        <time>2022-08-24T07:59:25Z</time>
      </trkpt>
      <trkpt lat="48.91262" lon="2.10662">
        <ele>117.4</ele>
        <time>2022-08-24T07:59:30Z</time>
      </trkpt>
      <trkpt lat="48.91271" lon="2.10668">
        <ele>117</ele>
        <time>2022-08-24T07:59:36Z</time>
      </trkpt>
      <trkpt lat="48.9128" lon="2.10675">
        <ele>116.7</ele>
        <time>2022-08-24T07:59:42Z</time>
      </trkpt>
      <trkpt lat="48.91285" lon="2.10681">
        <ele>116.5</ele>
        <time>2022-08-24T07:59:47Z</time>
      </trkpt>
      <trkpt lat="48.91293" lon="2.10685">
        <ele>116.1</ele>
        <time>2022-08-24T07:59:53Z</time>
      </trkpt>
      <trkpt lat="48.91302" lon="2.10688">
        <ele>116.2</ele>
        <time>2022-08-24T07:59:59Z</time>
      </trkpt>
      <trkpt lat="48.91312" lon="2.10692">
        <ele>116.1</ele>
        <time>2022-08-24T08:00:05Z</time>
      </trkpt>
      <trkpt lat="48.91322" lon="2.10695">
        <ele>116.2</ele>
        <time>2022-08-24T08:00:11Z</time>
      </trkpt>
      <trkpt lat="48.91332" lon="2.10698">
        <ele>116.1</ele>
        <time>2022-08-24T08:00:17Z</time>
      </trkpt>
      <trkpt lat="48.91338" lon="2.10702">
        <ele>115.9</ele>
        <time>2022-08-24T08:00:22Z</time>
      </trkpt>
      <trkpt lat="48.91349" lon="2.10707">
        <ele>115.9</ele>
        <time>2022-08-24T08:00:28Z</time>
      </trkpt>
      <trkpt lat="48.91359" lon="2.10712">
        <ele>115.9</ele>
        <time>2022-08-24T08:00:34Z</time>
      </trkpt>
      <trkpt lat="48.91365" lon="2.10717">
        <ele>116</ele>
        <time>2022-08-24T08:00:39Z</time>
      </trkpt>
      <trkpt lat="48.91372" lon="2.10723">
        <ele>116.2</ele>
        <time>2022-08-24T08:00:45Z</time>
      </trkpt>
      <trkpt lat="48.9138" lon="2.10727">
        <ele>116.5</ele>
        <time>2022-08-24T08:00:50Z</time>
      </trkpt>
      <trkpt lat="48.91389" lon="2.10729">
        <ele>116.6</ele>
        <time>2022-08-24T08:00:56Z</time>
      </trkpt>
      <trkpt lat="48.91397" lon="2.10733">
        <ele>116.8</ele>
        <time>2022-08-24T08:01:02Z</time>
      </trkpt>
      <trkpt lat="48.91406" lon="2.10736">
        <ele>116.9</ele>
        <time>2022-08-24T08:01:07Z</time>
      </trkpt>
      <trkpt lat="48.91416" lon="2.10741">
        <ele>117</ele>
        <time>2022-08-24T08:01:13Z</time>
      </trkpt>
      <trkpt lat="48.91422" lon="2.10745">
        <ele>117.1</ele>
        <time>2022-08-24T08:01:18Z</time>
      </trkpt>
      <trkpt lat="48.91431" lon="2.1075">
        <ele>117.2</ele>
        <time>2022-08-24T08:01:24Z</time>
      </trkpt>
      <trkpt lat="48.9144" lon="2.10754">
        <ele>117.5</ele>
        <time>2022-08-24T08:01:30Z</time>
      </trkpt>
      <trkpt lat="48.91449" lon="2.1076">
        <ele>117.5</ele>
        <time>2022-08-24T08:01:36Z</time>
      </trkpt>
      <trkpt lat="48.9146" lon="2.10764">
        <ele>117.3</ele>
        <time>2022-08-24T08:01:42Z</time>
      </trkpt>
      <trkpt lat="48.91466" lon="2.10769">
        <ele>117.5</ele>
        <time>2022-08-24T08:01:48Z</time>
      </trkpt>
      <trkpt lat="48.91472" lon="2.10773">
        <ele>117.8</ele>
        <time>2022-08-24T08:01:53Z</time>
      </trkpt>
      <trkpt lat="48.91479" lon="2.10778">
        <ele>118</ele>
        <time>2022-08-24T08:01:58Z</time>
      </trkpt>
      <trkpt lat="48.91486" lon="2.10783">
        <ele>118.3</ele>
        <time>2022-08-24T08:02:04Z</time>
      </trkpt>
      <trkpt lat="48.91496" lon="2.10785">
        <ele>118.6</ele>
        <time>2022-08-24T08:02:10Z</time>
      </trkpt>
      <trkpt lat="48.91506" lon="2.10789">
        <ele>118.9</ele>
        <time>2022-08-24T08:02:16Z</time>
      </trkpt>
      <trkpt lat="48.91515" lon="2.10792">
        <ele>119.2</ele>
        <time>2022-08-24T08:02:21Z</time>
      </trkpt>
      <trkpt lat="48.91525" lon="2.10797">
        <ele>119.2</ele>
        <time>2022-08-24T08:02:27Z</time>
      </trkpt>
      <trkpt lat="48.91532" lon="2.10802">
        <ele>119</ele>
        <time>2022-08-24T08:02:32Z</time>
      </trkpt>
      <trkpt lat="48.91541" lon="2.10807">
        <ele>118.9</ele>
        <time>2022-08-24T08:02:38Z</time>
      </trkpt>
      <trkpt lat="48.91549" lon="2.10812">
        <ele>118.9</ele>
        <time>2022-08-24T08:02:44Z</time>
      </trkpt>
      <trkpt lat="48.91557" lon="2.10816">
        <ele>118.7</ele>
        <time>2022-08-24T08:02:50Z</time>
      </trkpt>
      <trkpt lat="48.91564" lon="2.1082">
        <ele>118.5</ele>
        <time>2022-08-24T08:02:56Z</time>
      </trkpt>
      <trkpt lat="48.91572" lon="2.10824">
        <ele>118.4</ele>
        <time>2022-08-24T08:03:02Z</time>
      </trkpt>
      <trkpt lat="48.91578" lon="2.10827">
        <ele>118.3</ele>
        <time>2022-08-24T08:03:07Z</time>
      </trkpt>
      <trkpt lat="48.91584" lon="2.10833">
        <ele>118.4</ele>
        <time>2022-08-24T08:03:12Z</time>
      </trkpt>
      <trkpt lat="48.91595" lon="2.10832">
        <ele>118.4</ele>
        <time>2022-08-24T08:03:18Z</time>
      </trkpt>
      <trkpt lat="48.91603" lon="2.10833">
        <ele>118</ele>
        <time>2022-08-24T08:03:24Z</time>
      </trkpt>
      <trkpt lat="48.91612" lon="2.10835">
        <ele>117.4</ele>
        <time>2022-08-24T08:03:30Z</time>
      </trkpt>
      <trkpt lat="48.91619" lon="2.10841">
        <ele>117.1</ele>
        <time>2022-08-24T08:03:35Z</time>
      </trkpt>
      <trkpt lat="48.91626" lon="2.10847">
        <ele>117.2</ele>
        <time>2022-08-24T08:03:40Z</time>
      </trkpt>
      <trkpt lat="48.91636" lon="2.10852">
        <ele>117.5</ele>
        <time>2022-08-24T08:03:46Z</time>
      </trkpt>
      <trkpt lat="48.91645" lon="2.10855">
        <ele>117.9</ele>
        <time>2022-08-24T08:03:51Z</time>
      </trkpt>
      <trkpt lat="48.91655" lon="2.1086">
        <ele>118.3</ele>
        <time>2022-08-24T08:03:57Z</time>
      </trkpt>
      <trkpt lat="48.91663" lon="2.10865">
        <ele>118.7</ele>
        <time>2022-08-24T08:04:03Z</time>
      </trkpt>
      <trkpt lat="48.9167" lon="2.10871">
        <ele>118.6</ele>
        <time>2022-08-24T08:04:09Z</time>
      </trkpt>
      <trkpt lat="48.9168" lon="2.10874">
        <ele>118.4</ele>
        <time>2022-08-24T08:04:15Z</time>
      </trkpt>
      <trkpt lat="48.91689" lon="2.10876">
        <ele>118.2</ele>
        <time>2022-08-24T08:04:20Z</time>
      </trkpt>
      <trkpt lat="48.91699" lon="2.10881">
        <ele>118.1</ele>
        <time>2022-08-24T08:04:26Z</time>
      </trkpt>
      <trkpt lat="48.91707" lon="2.10885">
        <ele>117.9</ele>
        <time>2022-08-24T08:04:32Z</time>
      </trkpt>
      <trkpt lat="48.91713" lon="2.10888">
        <ele>117.9</ele>
        <time>2022-08-24T08:04:37Z</time>
      </trkpt>
      <trkpt lat="48.91721" lon="2.10891">
        <ele>118</ele>
        <time>2022-08-24T08:04:43Z</time>
      </trkpt>
      <trkpt lat="48.91726" lon="2.10892">
        <ele>118.2</ele>
        <time>2022-08-24T08:04:49Z</time>
      </trkpt>
      <trkpt lat="48.91728" lon="2.10899">
        <ele>118</ele>
        <time>2022-08-24T08:04:55Z</time>
      </trkpt>
      <trkpt lat="48.91722" lon="2.10903">
        <ele>117.8</ele>
        <time>2022-08-24T08:05:00Z</time>
      </trkpt>
      <trkpt lat="48.91713" lon="2.10896">
        <ele>117.4</ele>
        <time>2022-08-24T08:05:07Z</time>
      </trkpt>
      <trkpt lat="48.91709" lon="2.10894">
        <ele>117.4</ele>
        <time>2022-08-24T08:05:13Z</time>
      </trkpt>
      <trkpt lat="48.91709" lon="2.10893">
        <ele>117.5</ele>
        <time>2022-08-24T08:05:23Z</time>
      </trkpt>
      <trkpt lat="48.91708" lon="2.10893">
        <ele>117.4</ele>
        <time>2022-08-24T08:05:34Z</time>
      </trkpt>
      <trkpt lat="48.91707" lon="2.10893">
        <ele>117.4</ele>
        <time>2022-08-24T08:05:40Z</time>
      </trkpt>
      <trkpt lat="48.91708" lon="2.10894">
        <ele>117.4</ele>
        <time>2022-08-24T08:05:45Z</time>
      </trkpt>
      <trkpt lat="48.91708" lon="2.10895">
        <ele>117.4</ele>
        <time>2022-08-24T08:05:51Z</time>
      </trkpt>
      <trkpt lat="48.91708" lon="2.10897">
        <ele>116.9</ele>
        <time>2022-08-24T08:06:08Z</time>
      </trkpt>
      <trkpt lat="48.91707" lon="2.10898">
        <ele>116.8</ele>
        <time>2022-08-24T08:06:14Z</time>
      </trkpt>
      <trkpt lat="48.91707" lon="2.10897">
        <ele>116.8</ele>
        <time>2022-08-24T08:06:19Z</time>
      </trkpt>
      <trkpt lat="48.91708" lon="2.10897">
        <ele>117.1</ele>
        <time>2022-08-24T08:06:31Z</time>
      </trkpt>
      <trkpt lat="48.91708" lon="2.10896">
        <ele>117.1</ele>
        <time>2022-08-24T08:06:42Z</time>
      </trkpt>
      <trkpt lat="48.91711" lon="2.10893">
        <ele>116.9</ele>
        <time>2022-08-24T08:06:53Z</time>
      </trkpt>
      <trkpt lat="48.91711" lon="2.10892">
        <ele>117.1</ele>
        <time>2022-08-24T08:06:59Z</time>
      </trkpt>
      <trkpt lat="48.91712" lon="2.10892">
        <ele>117.1</ele>
        <time>2022-08-24T08:07:05Z</time>
      </trkpt>
      <trkpt lat="48.91706" lon="2.10891">
        <ele>117.1</ele>
        <time>2022-08-24T08:07:16Z</time>
      </trkpt>
      <trkpt lat="48.91702" lon="2.10897">
        <ele>116.8</ele>
        <time>2022-08-24T08:07:21Z</time>
      </trkpt>
      <trkpt lat="48.91707" lon="2.10906">
        <ele>116.4</ele>
        <time>2022-08-24T08:07:27Z</time>
      </trkpt>
      <trkpt lat="48.91714" lon="2.10913">
        <ele>115.7</ele>
        <time>2022-08-24T08:07:33Z</time>
      </trkpt>
      <trkpt lat="48.91722" lon="2.10921">
        <ele>114.3</ele>
        <time>2022-08-24T08:07:39Z</time>
      </trkpt>
      <trkpt lat="48.91723" lon="2.10935">
        <ele>113.4</ele>
        <time>2022-08-24T08:07:45Z</time>
      </trkpt>
      <trkpt lat="48.91725" lon="2.10945">
        <ele>112.6</ele>
        <time>2022-08-24T08:07:50Z</time>
      </trkpt>
      <trkpt lat="48.91728" lon="2.10955">
        <ele>111.5</ele>
        <time>2022-08-24T08:07:56Z</time>
      </trkpt>
      <trkpt lat="48.9173" lon="2.10956">
        <ele>111.1</ele>
        <time>2022-08-24T08:08:01Z</time>
      </trkpt>
      <trkpt lat="48.91732" lon="2.1096">
        <ele>110.7</ele>
        <time>2022-08-24T08:08:06Z</time>
      </trkpt>
      <trkpt lat="48.91737" lon="2.10967">
        <ele>109.9</ele>
        <time>2022-08-24T08:08:12Z</time>
      </trkpt>
      <trkpt lat="48.91741" lon="2.10974">
        <ele>109.2</ele>
        <time>2022-08-24T08:08:18Z</time>
      </trkpt>
      <trkpt lat="48.91747" lon="2.1098">
        <ele>109</ele>
        <time>2022-08-24T08:08:23Z</time>
      </trkpt>
      <trkpt lat="48.91753" lon="2.10987">
        <ele>108.8</ele>
        <time>2022-08-24T08:08:28Z</time>
      </trkpt>
      <trkpt lat="48.9176" lon="2.10994">
        <ele>108.7</ele>
        <time>2022-08-24T08:08:34Z</time>
      </trkpt>
      <trkpt lat="48.91768" lon="2.10999">
        <ele>108.4</ele>
        <time>2022-08-24T08:08:39Z</time>
      </trkpt>
      <trkpt lat="48.91774" lon="2.11001">
        <ele>108.1</ele>
        <time>2022-08-24T08:08:45Z</time>
      </trkpt>
      <trkpt lat="48.9178" lon="2.11007">
        <ele>107.8</ele>
        <time>2022-08-24T08:08:51Z</time>
      </trkpt>
      <trkpt lat="48.91788" lon="2.11014">
        <ele>107.6</ele>
        <time>2022-08-24T08:08:57Z</time>
      </trkpt>
      <trkpt lat="48.91797" lon="2.11021">
        <ele>107.5</ele>
        <time>2022-08-24T08:09:03Z</time>
      </trkpt>
      <trkpt lat="48.91805" lon="2.11028">
        <ele>107.4</ele>
        <time>2022-08-24T08:09:08Z</time>
      </trkpt>
      <trkpt lat="48.9181" lon="2.11035">
        <ele>107.3</ele>
        <time>2022-08-24T08:09:13Z</time>
      </trkpt>
      <trkpt lat="48.91815" lon="2.11043">
        <ele>107.1</ele>
        <time>2022-08-24T08:09:19Z</time>
      </trkpt>
      <trkpt lat="48.91822" lon="2.11048">
        <ele>106.7</ele>
        <time>2022-08-24T08:09:25Z</time>
      </trkpt>
      <trkpt lat="48.91827" lon="2.11054">
        <ele>106.3</ele>
        <time>2022-08-24T08:09:30Z</time>
      </trkpt>
      <trkpt lat="48.91835" lon="2.1106">
        <ele>105.7</ele>
        <time>2022-08-24T08:09:36Z</time>
      </trkpt>
      <trkpt lat="48.91843" lon="2.11064">
        <ele>105.1</ele>
        <time>2022-08-24T08:09:42Z</time>
      </trkpt>
      <trkpt lat="48.91851" lon="2.11068">
        <ele>104.6</ele>
        <time>2022-08-24T08:09:48Z</time>
      </trkpt>
      <trkpt lat="48.91859" lon="2.11072">
        <ele>104.3</ele>
        <time>2022-08-24T08:09:54Z</time>
      </trkpt>
      <trkpt lat="48.91866" lon="2.11075">
        <ele>104.4</ele>
        <time>2022-08-24T08:10:00Z</time>
      </trkpt>
      <trkpt lat="48.91873" lon="2.1108">
        <ele>104.6</ele>
        <time>2022-08-24T08:10:06Z</time>
      </trkpt>
      <trkpt lat="48.91882" lon="2.11089">
        <ele>104.3</ele>
        <time>2022-08-24T08:10:12Z</time>
      </trkpt>
      <trkpt lat="48.91889" lon="2.11097">
        <ele>104</ele>
        <time>2022-08-24T08:10:18Z</time>
      </trkpt>
      <trkpt lat="48.91896" lon="2.11103">
        <ele>103.7</ele>
        <time>2022-08-24T08:10:23Z</time>
      </trkpt>
      <trkpt lat="48.91903" lon="2.11106">
        <ele>103.4</ele>
        <time>2022-08-24T08:10:28Z</time>
      </trkpt>
      <trkpt lat="48.9191" lon="2.11109">
        <ele>103.2</ele>
        <time>2022-08-24T08:10:33Z</time>
      </trkpt>
      <trkpt lat="48.91915" lon="2.11111">
        <ele>103.4</ele>
        <time>2022-08-24T08:10:39Z</time>
      </trkpt>
      <trkpt lat="48.91917" lon="2.11112">
        <ele>103.6</ele>
        <time>2022-08-24T08:10:44Z</time>
      </trkpt>
      <trkpt lat="48.91924" lon="2.11114">
        <ele>103.3</ele>
        <time>2022-08-24T08:10:50Z</time>
      </trkpt>
      <trkpt lat="48.9193" lon="2.11119">
        <ele>103</ele>
        <time>2022-08-24T08:10:55Z</time>
      </trkpt>
      <trkpt lat="48.91935" lon="2.11122">
        <ele>102.3</ele>
        <time>2022-08-24T08:11:00Z</time>
      </trkpt>
      <trkpt lat="48.91941" lon="2.11125">
        <ele>101.3</ele>
        <time>2022-08-24T08:11:06Z</time>
      </trkpt>
      <trkpt lat="48.91947" lon="2.11126">
        <ele>100.9</ele>
        <time>2022-08-24T08:11:12Z</time>
      </trkpt>
      <trkpt lat="48.91951" lon="2.11119">
        <ele>100.7</ele>
        <time>2022-08-24T08:11:18Z</time>
      </trkpt>
      <trkpt lat="48.91952" lon="2.11111">
        <ele>100.7</ele>
        <time>2022-08-24T08:11:24Z</time>
      </trkpt>
      <trkpt lat="48.91952" lon="2.11101">
        <ele>100.8</ele>
        <time>2022-08-24T08:11:29Z</time>
      </trkpt>
      <trkpt lat="48.91954" lon="2.11087">
        <ele>101.3</ele>
        <time>2022-08-24T08:11:35Z</time>
      </trkpt>
      <trkpt lat="48.91957" lon="2.11079">
        <ele>101.5</ele>
        <time>2022-08-24T08:11:41Z</time>
      </trkpt>
      <trkpt lat="48.91961" lon="2.11071">
        <ele>101.7</ele>
        <time>2022-08-24T08:11:47Z</time>
      </trkpt>
      <trkpt lat="48.91963" lon="2.11063">
        <ele>102.1</ele>
        <time>2022-08-24T08:11:53Z</time>
      </trkpt>
      <trkpt lat="48.91966" lon="2.11053">
        <ele>102.1</ele>
        <time>2022-08-24T08:11:58Z</time>
      </trkpt>
      <trkpt lat="48.91966" lon="2.11047">
        <ele>102.2</ele>
        <time>2022-08-24T08:12:03Z</time>
      </trkpt>
      <trkpt lat="48.91969" lon="2.11031">
        <ele>102.7</ele>
        <time>2022-08-24T08:12:09Z</time>
      </trkpt>
      <trkpt lat="48.91969" lon="2.1102">
        <ele>103.1</ele>
        <time>2022-08-24T08:12:15Z</time>
      </trkpt>
      <trkpt lat="48.91968" lon="2.11015">
        <ele>103.2</ele>
        <time>2022-08-24T08:12:20Z</time>
      </trkpt>
      <trkpt lat="48.91967" lon="2.11004">
        <ele>103.5</ele>
        <time>2022-08-24T08:12:26Z</time>
      </trkpt>
      <trkpt lat="48.91966" lon="2.10995">
        <ele>103.8</ele>
        <time>2022-08-24T08:12:32Z</time>
      </trkpt>
      <trkpt lat="48.91969" lon="2.10983">
        <ele>104.1</ele>
        <time>2022-08-24T08:12:38Z</time>
      </trkpt>
      <trkpt lat="48.91972" lon="2.10967">
        <ele>104.1</ele>
        <time>2022-08-24T08:12:44Z</time>
      </trkpt>
      <trkpt lat="48.91971" lon="2.10955">
        <ele>104</ele>
        <time>2022-08-24T08:12:50Z</time>
      </trkpt>
      <trkpt lat="48.9197" lon="2.10951">
        <ele>104.2</ele>
        <time>2022-08-24T08:12:56Z</time>
      </trkpt>
      <trkpt lat="48.91968" lon="2.10953">
        <ele>104.4</ele>
        <time>2022-08-24T08:13:02Z</time>
      </trkpt>
      <trkpt lat="48.91963" lon="2.10944">
        <ele>104.2</ele>
        <time>2022-08-24T08:13:08Z</time>
      </trkpt>
      <trkpt lat="48.9196" lon="2.10931">
        <ele>103.7</ele>
        <time>2022-08-24T08:13:14Z</time>
      </trkpt>
      <trkpt lat="48.91956" lon="2.10917">
        <ele>103.5</ele>
        <time>2022-08-24T08:13:20Z</time>
      </trkpt>
      <trkpt lat="48.91953" lon="2.10908">
        <ele>103.4</ele>
        <time>2022-08-24T08:13:26Z</time>
      </trkpt>
      <trkpt lat="48.91952" lon="2.10905">
        <ele>103.2</ele>
        <time>2022-08-24T08:13:31Z</time>
      </trkpt>
      <trkpt lat="48.9195" lon="2.10901">
        <ele>102.8</ele>
        <time>2022-08-24T08:13:36Z</time>
      </trkpt>
      <trkpt lat="48.91945" lon="2.10896">
        <ele>102.3</ele>
        <time>2022-08-24T08:13:42Z</time>
      </trkpt>
      <trkpt lat="48.91938" lon="2.10891">
        <ele>101.6</ele>
        <time>2022-08-24T08:13:48Z</time>
      </trkpt>
      <trkpt lat="48.91933" lon="2.10885">
        <ele>101</ele>
        <time>2022-08-24T08:13:53Z</time>
      </trkpt>
      <trkpt lat="48.91927" lon="2.10877">
        <ele>100.5</ele>
        <time>2022-08-24T08:13:59Z</time>
      </trkpt>
      <trkpt lat="48.91922" lon="2.1087">
        <ele>99.9</ele>
        <time>2022-08-24T08:14:05Z</time>
      </trkpt>
      <trkpt lat="48.91915" lon="2.10866">
        <ele>99.2</ele>
        <time>2022-08-24T08:14:11Z</time>
      </trkpt>
      <trkpt lat="48.91907" lon="2.10858">
        <ele>98.8</ele>
        <time>2022-08-24T08:14:16Z</time>
      </trkpt>
      <trkpt lat="48.91899" lon="2.10848">
        <ele>98.4</ele>
        <time>2022-08-24T08:14:21Z</time>
      </trkpt>
      <trkpt lat="48.91892" lon="2.10836">
        <ele>98.3</ele>
        <time>2022-08-24T08:14:27Z</time>
      </trkpt>
      <trkpt lat="48.91885" lon="2.10826">
        <ele>98.5</ele>
        <time>2022-08-24T08:14:32Z</time>
      </trkpt>
      <trkpt lat="48.9188" lon="2.10816">
        <ele>98.7</ele>
        <time>2022-08-24T08:14:37Z</time>
      </trkpt>
      <trkpt lat="48.91875" lon="2.10807">
        <ele>98.8</ele>
        <time>2022-08-24T08:14:42Z</time>
      </trkpt>
      <trkpt lat="48.91871" lon="2.10801">
        <ele>98.7</ele>
        <time>2022-08-24T08:14:47Z</time>
      </trkpt>
      <trkpt lat="48.91867" lon="2.10796">
        <ele>98.5</ele>
        <time>2022-08-24T08:14:53Z</time>
      </trkpt>
      <trkpt lat="48.91864" lon="2.10792">
        <ele>98.6</ele>
        <time>2022-08-24T08:14:59Z</time>
      </trkpt>
      <trkpt lat="48.9186" lon="2.10787">
        <ele>99</ele>
        <time>2022-08-24T08:15:04Z</time>
      </trkpt>
      <trkpt lat="48.91857" lon="2.10784">
        <ele>99.3</ele>
        <time>2022-08-24T08:15:10Z</time>
      </trkpt>
      <trkpt lat="48.91855" lon="2.10783">
        <ele>99.6</ele>
        <time>2022-08-24T08:15:15Z</time>
      </trkpt>
      <trkpt lat="48.91853" lon="2.10782">
        <ele>99.8</ele>
        <time>2022-08-24T08:15:21Z</time>
      </trkpt>
      <trkpt lat="48.91851" lon="2.10782">
        <ele>100.4</ele>
        <time>2022-08-24T08:15:27Z</time>
      </trkpt>
      <trkpt lat="48.91851" lon="2.10783">
        <ele>100.8</ele>
        <time>2022-08-24T08:15:32Z</time>
      </trkpt>
      <trkpt lat="48.91851" lon="2.10782">
        <ele>101.1</ele>
        <time>2022-08-24T08:15:38Z</time>
      </trkpt>
      <trkpt lat="48.91851" lon="2.10783">
        <ele>101.4</ele>
        <time>2022-08-24T08:15:48Z</time>
      </trkpt>
      <trkpt lat="48.91849" lon="2.10784">
        <ele>101.4</ele>
        <time>2022-08-24T08:15:53Z</time>
      </trkpt>
      <trkpt lat="48.91847" lon="2.10784">
        <ele>101.5</ele>
        <time>2022-08-24T08:15:59Z</time>
      </trkpt>
      <trkpt lat="48.91847" lon="2.10785">
        <ele>101.6</ele>
        <time>2022-08-24T08:16:05Z</time>
      </trkpt>
      <trkpt lat="48.91847" lon="2.10787">
        <ele>102.8</ele>
        <time>2022-08-24T08:16:22Z</time>
      </trkpt>
      <trkpt lat="48.91849" lon="2.10791">
        <ele>103.4</ele>
        <time>2022-08-24T08:16:28Z</time>
      </trkpt>
      <trkpt lat="48.91853" lon="2.10794">
        <ele>104.2</ele>
        <time>2022-08-24T08:16:34Z</time>
      </trkpt>
      <trkpt lat="48.91855" lon="2.10796">
        <ele>104.8</ele>
        <time>2022-08-24T08:16:40Z</time>
      </trkpt>
      <trkpt lat="48.91859" lon="2.10798">
        <ele>106</ele>
        <time>2022-08-24T08:16:46Z</time>
      </trkpt>
      <trkpt lat="48.9186" lon="2.10797">
        <ele>106.3</ele>
        <time>2022-08-24T08:16:52Z</time>
      </trkpt>
      <trkpt lat="48.9186" lon="2.10796">
        <ele>106.5</ele>
        <time>2022-08-24T08:16:58Z</time>
      </trkpt>
      <trkpt lat="48.91861" lon="2.10798">
        <ele>108</ele>
        <time>2022-08-24T08:17:10Z</time>
      </trkpt>
      <trkpt lat="48.9186" lon="2.10797">
        <ele>108.1</ele>
        <time>2022-08-24T08:17:15Z</time>
      </trkpt>
      <trkpt lat="48.9186" lon="2.10796">
        <ele>108.9</ele>
        <time>2022-08-24T08:17:20Z</time>
      </trkpt>
      <trkpt lat="48.91862" lon="2.1079">
        <ele>109.7</ele>
        <time>2022-08-24T08:17:26Z</time>
      </trkpt>
      <trkpt lat="48.91867" lon="2.10782">
        <ele>110.1</ele>
        <time>2022-08-24T08:17:31Z</time>
      </trkpt>
      <trkpt lat="48.91871" lon="2.10775">
        <ele>109.9</ele>
        <time>2022-08-24T08:17:37Z</time>
      </trkpt>
      <trkpt lat="48.91874" lon="2.10769">
        <ele>109.4</ele>
        <time>2022-08-24T08:17:42Z</time>
      </trkpt>
      <trkpt lat="48.91877" lon="2.10764">
        <ele>108.6</ele>
        <time>2022-08-24T08:17:48Z</time>
      </trkpt>
      <trkpt lat="48.91882" lon="2.10758">
        <ele>107.8</ele>
        <time>2022-08-24T08:17:53Z</time>
      </trkpt>
      <trkpt lat="48.91888" lon="2.10752">
        <ele>106.9</ele>
        <time>2022-08-24T08:17:59Z</time>
      </trkpt>
      <trkpt lat="48.91893" lon="2.10747">
        <ele>106.2</ele>
        <time>2022-08-24T08:18:04Z</time>
      </trkpt>
      <trkpt lat="48.91898" lon="2.10742">
        <ele>105.4</ele>
        <time>2022-08-24T08:18:09Z</time>
      </trkpt>
      <trkpt lat="48.91905" lon="2.10734">
        <ele>104.1</ele>
        <time>2022-08-24T08:18:15Z</time>
      </trkpt>
      <trkpt lat="48.91911" lon="2.10728">
        <ele>102.6</ele>
        <time>2022-08-24T08:18:20Z</time>
      </trkpt>
      <trkpt lat="48.91916" lon="2.10722">
        <ele>101</ele>
        <time>2022-08-24T08:18:25Z</time>
      </trkpt>
      <trkpt lat="48.91922" lon="2.10715">
        <ele>99</ele>
        <time>2022-08-24T08:18:31Z</time>
      </trkpt>
      <trkpt lat="48.91926" lon="2.1071">
        <ele>97.6</ele>
        <time>2022-08-24T08:18:36Z</time>
      </trkpt>
      <trkpt lat="48.91931" lon="2.10704">
        <ele>95.8</ele>
        <time>2022-08-24T08:18:42Z</time>
      </trkpt>
      <trkpt lat="48.91936" lon="2.10698">
        <ele>94.1</ele>
        <time>2022-08-24T08:18:47Z</time>
      </trkpt>
      <trkpt lat="48.91942" lon="2.10691">
        <ele>92.2</ele>
        <time>2022-08-24T08:18:53Z</time>
      </trkpt>
      <trkpt lat="48.91949" lon="2.10688">
        <ele>90.8</ele>
        <time>2022-08-24T08:18:58Z</time>
      </trkpt>
      <trkpt lat="48.91956" lon="2.10689">
        <ele>89.2</ele>
        <time>2022-08-24T08:19:04Z</time>
      </trkpt>
      <trkpt lat="48.91963" lon="2.10692">
        <ele>87.8</ele>
        <time>2022-08-24T08:19:09Z</time>
      </trkpt>
      <trkpt lat="48.91971" lon="2.10696">
        <ele>86.5</ele>
        <time>2022-08-24T08:19:14Z</time>
      </trkpt>
      <trkpt lat="48.9198" lon="2.10701">
        <ele>85</ele>
        <time>2022-08-24T08:19:20Z</time>
      </trkpt>
      <trkpt lat="48.91987" lon="2.10707">
        <ele>83.5</ele>
        <time>2022-08-24T08:19:26Z</time>
      </trkpt>
      <trkpt lat="48.9199" lon="2.1071">
        <ele>82.2</ele>
        <time>2022-08-24T08:19:31Z</time>
      </trkpt>
      <trkpt lat="48.91995" lon="2.10713">
        <ele>80.3</ele>
        <time>2022-08-24T08:19:37Z</time>
      </trkpt>
      <trkpt lat="48.92" lon="2.10716">
        <ele>78.5</ele>
        <time>2022-08-24T08:19:43Z</time>
      </trkpt>
      <trkpt lat="48.92003" lon="2.10714">
        <ele>76.9</ele>
        <time>2022-08-24T08:19:49Z</time>
      </trkpt>
      <trkpt lat="48.92006" lon="2.10708">
        <ele>76</ele>
        <time>2022-08-24T08:19:55Z</time>
      </trkpt>
      <trkpt lat="48.92007" lon="2.107">
        <ele>75.7</ele>
        <time>2022-08-24T08:20:01Z</time>
      </trkpt>
      <trkpt lat="48.92008" lon="2.10693">
        <ele>75.8</ele>
        <time>2022-08-24T08:20:07Z</time>
      </trkpt>
      <trkpt lat="48.92008" lon="2.10685">
        <ele>76.5</ele>
        <time>2022-08-24T08:20:12Z</time>
      </trkpt>
      <trkpt lat="48.9201" lon="2.10675">
        <ele>77.2</ele>
        <time>2022-08-24T08:20:18Z</time>
      </trkpt>
      <trkpt lat="48.92012" lon="2.10666">
        <ele>77.7</ele>
        <time>2022-08-24T08:20:23Z</time>
      </trkpt>
      <trkpt lat="48.92014" lon="2.10658">
        <ele>78.4</ele>
        <time>2022-08-24T08:20:29Z</time>
      </trkpt>
      <trkpt lat="48.92015" lon="2.10652">
        <ele>79</ele>
        <time>2022-08-24T08:20:34Z</time>
      </trkpt>
      <trkpt lat="48.92017" lon="2.10647">
        <ele>79.7</ele>
        <time>2022-08-24T08:20:40Z</time>
      </trkpt>
      <trkpt lat="48.9202" lon="2.10641">
        <ele>80.6</ele>
        <time>2022-08-24T08:20:46Z</time>
      </trkpt>
      <trkpt lat="48.92028" lon="2.10637">
        <ele>81.4</ele>
        <time>2022-08-24T08:20:52Z</time>
      </trkpt>
      <trkpt lat="48.92036" lon="2.10635">
        <ele>82.1</ele>
        <time>2022-08-24T08:20:57Z</time>
      </trkpt>
      <trkpt lat="48.92047" lon="2.10631">
        <ele>83.1</ele>
        <time>2022-08-24T08:21:03Z</time>
      </trkpt>
      <trkpt lat="48.92055" lon="2.10627">
        <ele>84</ele>
        <time>2022-08-24T08:21:08Z</time>
      </trkpt>
      <trkpt lat="48.92062" lon="2.1062">
        <ele>85.2</ele>
        <time>2022-08-24T08:21:14Z</time>
      </trkpt>
      <trkpt lat="48.92068" lon="2.10613">
        <ele>86.3</ele>
        <time>2022-08-24T08:21:19Z</time>
      </trkpt>
      <trkpt lat="48.92076" lon="2.10606">
        <ele>87.8</ele>
        <time>2022-08-24T08:21:25Z</time>
      </trkpt>
      <trkpt lat="48.92084" lon="2.10599">
        <ele>89.3</ele>
        <time>2022-08-24T08:21:31Z</time>
      </trkpt>
      <trkpt lat="48.9209" lon="2.10594">
        <ele>90.5</ele>
        <time>2022-08-24T08:21:37Z</time>
      </trkpt>
      <trkpt lat="48.92091" lon="2.10593">
        <ele>90.9</ele>
        <time>2022-08-24T08:21:42Z</time>
      </trkpt>
      <trkpt lat="48.92091" lon="2.10592">
        <ele>91.6</ele>
        <time>2022-08-24T08:21:48Z</time>
      </trkpt>
      <trkpt lat="48.92093" lon="2.10588">
        <ele>92.6</ele>
        <time>2022-08-24T08:21:59Z</time>
      </trkpt>
      <trkpt lat="48.92098" lon="2.1058">
        <ele>93.5</ele>
        <time>2022-08-24T08:22:05Z</time>
      </trkpt>
      <trkpt lat="48.92105" lon="2.10575">
        <ele>94.2</ele>
        <time>2022-08-24T08:22:10Z</time>
      </trkpt>
      <trkpt lat="48.92115" lon="2.10571">
        <ele>95</ele>
        <time>2022-08-24T08:22:16Z</time>
      </trkpt>
      <trkpt lat="48.92124" lon="2.10568">
        <ele>95.8</ele>
        <time>2022-08-24T08:22:22Z</time>
      </trkpt>
      <trkpt lat="48.92131" lon="2.10564">
        <ele>96.8</ele>
        <time>2022-08-24T08:22:28Z</time>
      </trkpt>
      <trkpt lat="48.92135" lon="2.10562">
        <ele>97.4</ele>
        <time>2022-08-24T08:22:33Z</time>
      </trkpt>
      <trkpt lat="48.92141" lon="2.10559">
        <ele>98.3</ele>
        <time>2022-08-24T08:22:39Z</time>
      </trkpt>
      <trkpt lat="48.92149" lon="2.10554">
        <ele>99.4</ele>
        <time>2022-08-24T08:22:45Z</time>
      </trkpt>
      <trkpt lat="48.92156" lon="2.10548">
        <ele>100.4</ele>
        <time>2022-08-24T08:22:51Z</time>
      </trkpt>
      <trkpt lat="48.92164" lon="2.10542">
        <ele>101.5</ele>
        <time>2022-08-24T08:22:57Z</time>
      </trkpt>
      <trkpt lat="48.9217" lon="2.10534">
        <ele>102.2</ele>
        <time>2022-08-24T08:23:03Z</time>
      </trkpt>
      <trkpt lat="48.92174" lon="2.10529">
        <ele>102.6</ele>
        <time>2022-08-24T08:23:09Z</time>
      </trkpt>
      <trkpt lat="48.92178" lon="2.10525">
        <ele>103.1</ele>
        <time>2022-08-24T08:23:14Z</time>
      </trkpt>
      <trkpt lat="48.92183" lon="2.1052">
        <ele>103.5</ele>
        <time>2022-08-24T08:23:20Z</time>
      </trkpt>
      <trkpt lat="48.9219" lon="2.10514">
        <ele>104</ele>
        <time>2022-08-24T08:23:26Z</time>
      </trkpt>
      <trkpt lat="48.92196" lon="2.10508">
        <ele>104.3</ele>
        <time>2022-08-24T08:23:31Z</time>
      </trkpt>
      <trkpt lat="48.92204" lon="2.10502">
        <ele>104.5</ele>
        <time>2022-08-24T08:23:37Z</time>
      </trkpt>
      <trkpt lat="48.92212" lon="2.10498">
        <ele>104.6</ele>
        <time>2022-08-24T08:23:43Z</time>
      </trkpt>
      <trkpt lat="48.92217" lon="2.10494">
        <ele>104.7</ele>
        <time>2022-08-24T08:23:48Z</time>
      </trkpt>
      <trkpt lat="48.9222" lon="2.1049">
        <ele>104.7</ele>
        <time>2022-08-24T08:23:54Z</time>
      </trkpt>
      <trkpt lat="48.92223" lon="2.10487">
        <ele>104.5</ele>
        <time>2022-08-24T08:23:59Z</time>
      </trkpt>
      <trkpt lat="48.92225" lon="2.10483">
        <ele>104.4</ele>
        <time>2022-08-24T08:24:04Z</time>
      </trkpt>
      <trkpt lat="48.9223" lon="2.10475">
        <ele>104.3</ele>
        <time>2022-08-24T08:24:10Z</time>
      </trkpt>
      <trkpt lat="48.92236" lon="2.10468">
        <ele>104.7</ele>
        <time>2022-08-24T08:24:16Z</time>
      </trkpt>
      <trkpt lat="48.92242" lon="2.10462">
        <ele>104.9</ele>
        <time>2022-08-24T08:24:21Z</time>
      </trkpt>
      <trkpt lat="48.9225" lon="2.10454">
        <ele>105.1</ele>
        <time>2022-08-24T08:24:26Z</time>
      </trkpt>
      <trkpt lat="48.92259" lon="2.10444">
        <ele>105.3</ele>
        <time>2022-08-24T08:24:32Z</time>
      </trkpt>
      <trkpt lat="48.92269" lon="2.10437">
        <ele>105.3</ele>
        <time>2022-08-24T08:24:38Z</time>
      </trkpt>
      <trkpt lat="48.92277" lon="2.1043">
        <ele>105</ele>
        <time>2022-08-24T08:24:43Z</time>
      </trkpt>
      <trkpt lat="48.92286" lon="2.10422">
        <ele>104.9</ele>
        <time>2022-08-24T08:24:49Z</time>
      </trkpt>
      <trkpt lat="48.92291" lon="2.10417">
        <ele>104.8</ele>
        <time>2022-08-24T08:24:54Z</time>
      </trkpt>
      <trkpt lat="48.92297" lon="2.10413">
        <ele>104.5</ele>
        <time>2022-08-24T08:25:00Z</time>
      </trkpt>
      <trkpt lat="48.92301" lon="2.10407">
        <ele>103.9</ele>
        <time>2022-08-24T08:25:06Z</time>
      </trkpt>
      <trkpt lat="48.92304" lon="2.10402">
        <ele>103.5</ele>
        <time>2022-08-24T08:25:11Z</time>
      </trkpt>
      <trkpt lat="48.92312" lon="2.10393">
        <ele>103.4</ele>
        <time>2022-08-24T08:25:17Z</time>
      </trkpt>
      <trkpt lat="48.9232" lon="2.10384">
        <ele>103.3</ele>
        <time>2022-08-24T08:25:23Z</time>
      </trkpt>
      <trkpt lat="48.92327" lon="2.10378">
        <ele>103.4</ele>
        <time>2022-08-24T08:25:28Z</time>
      </trkpt>
      <trkpt lat="48.92334" lon="2.10371">
        <ele>103.5</ele>
        <time>2022-08-24T08:25:34Z</time>
      </trkpt>
      <trkpt lat="48.92342" lon="2.10363">
        <ele>103.5</ele>
        <time>2022-08-24T08:25:40Z</time>
      </trkpt>
      <trkpt lat="48.92349" lon="2.10355">
        <ele>103.9</ele>
        <time>2022-08-24T08:25:45Z</time>
      </trkpt>
      <trkpt lat="48.92357" lon="2.10343">
        <ele>104.6</ele>
        <time>2022-08-24T08:25:51Z</time>
      </trkpt>
      <trkpt lat="48.92362" lon="2.10328">
        <ele>105.6</ele>
        <time>2022-08-24T08:25:57Z</time>
      </trkpt>
      <trkpt lat="48.92365" lon="2.10317">
        <ele>106.5</ele>
        <time>2022-08-24T08:26:02Z</time>
      </trkpt>
      <trkpt lat="48.92368" lon="2.10306">
        <ele>107.3</ele>
        <time>2022-08-24T08:26:08Z</time>
      </trkpt>
      <trkpt lat="48.92374" lon="2.10298">
        <ele>108</ele>
        <time>2022-08-24T08:26:14Z</time>
      </trkpt>
      <trkpt lat="48.92379" lon="2.10292">
        <ele>108.4</ele>
        <time>2022-08-24T08:26:19Z</time>
      </trkpt>
      <trkpt lat="48.92386" lon="2.10283">
        <ele>108.9</ele>
        <time>2022-08-24T08:26:25Z</time>
      </trkpt>
      <trkpt lat="48.92391" lon="2.10273">
        <ele>109</ele>
        <time>2022-08-24T08:26:30Z</time>
      </trkpt>
      <trkpt lat="48.92393" lon="2.1026">
        <ele>109.3</ele>
        <time>2022-08-24T08:26:36Z</time>
      </trkpt>
      <trkpt lat="48.92395" lon="2.1025">
        <ele>109.5</ele>
        <time>2022-08-24T08:26:41Z</time>
      </trkpt>
      <trkpt lat="48.92397" lon="2.10237">
        <ele>109.8</ele>
        <time>2022-08-24T08:26:47Z</time>
      </trkpt>
      <trkpt lat="48.92399" lon="2.10224">
        <ele>110</ele>
        <time>2022-08-24T08:26:52Z</time>
      </trkpt>
      <trkpt lat="48.92399" lon="2.1021">
        <ele>110</ele>
        <time>2022-08-24T08:26:58Z</time>
      </trkpt>
      <trkpt lat="48.92401" lon="2.10198">
        <ele>110.1</ele>
        <time>2022-08-24T08:27:04Z</time>
      </trkpt>
      <trkpt lat="48.92403" lon="2.10189">
        <ele>110.3</ele>
        <time>2022-08-24T08:27:09Z</time>
      </trkpt>
      <trkpt lat="48.92406" lon="2.10177">
        <ele>110.4</ele>
        <time>2022-08-24T08:27:15Z</time>
      </trkpt>
      <trkpt lat="48.92409" lon="2.10166">
        <ele>110.5</ele>
        <time>2022-08-24T08:27:20Z</time>
      </trkpt>
      <trkpt lat="48.92411" lon="2.10162">
        <ele>110.5</ele>
        <time>2022-08-24T08:27:25Z</time>
      </trkpt>
      <trkpt lat="48.92412" lon="2.1016">
        <ele>110.9</ele>
        <time>2022-08-24T08:27:31Z</time>
      </trkpt>
      <trkpt lat="48.92412" lon="2.10162">
        <ele>112.2</ele>
        <time>2022-08-24T08:27:43Z</time>
      </trkpt>
      <trkpt lat="48.92413" lon="2.10162">
        <ele>112.7</ele>
        <time>2022-08-24T08:27:49Z</time>
      </trkpt>
      <trkpt lat="48.92416" lon="2.1016">
        <ele>113.3</ele>
        <time>2022-08-24T08:27:55Z</time>
      </trkpt>
      <trkpt lat="48.9242" lon="2.1015">
        <ele>114</ele>
        <time>2022-08-24T08:28:00Z</time>
      </trkpt>
      <trkpt lat="48.92423" lon="2.1014">
        <ele>114.6</ele>
        <time>2022-08-24T08:28:06Z</time>
      </trkpt>
      <trkpt lat="48.92425" lon="2.10128">
        <ele>114.9</ele>
        <time>2022-08-24T08:28:12Z</time>
      </trkpt>
      <trkpt lat="48.92426" lon="2.10121">
        <ele>115.2</ele>
        <time>2022-08-24T08:28:17Z</time>
      </trkpt>
      <trkpt lat="48.92424" lon="2.10107">
        <ele>115.1</ele>
        <time>2022-08-24T08:28:23Z</time>
      </trkpt>
      <trkpt lat="48.92424" lon="2.10092">
        <ele>114.8</ele>
        <time>2022-08-24T08:28:29Z</time>
      </trkpt>
      <trkpt lat="48.92426" lon="2.1008">
        <ele>114.2</ele>
        <time>2022-08-24T08:28:34Z</time>
      </trkpt>
      <trkpt lat="48.92428" lon="2.10067">
        <ele>113.5</ele>
        <time>2022-08-24T08:28:40Z</time>
      </trkpt>
      <trkpt lat="48.9243" lon="2.10056">
        <ele>113</ele>
        <time>2022-08-24T08:28:46Z</time>
      </trkpt>
      <trkpt lat="48.92431" lon="2.10044">
        <ele>112.9</ele>
        <time>2022-08-24T08:28:52Z</time>
      </trkpt>
      <trkpt lat="48.92429" lon="2.10033">
        <ele>112.8</ele>
        <time>2022-08-24T08:28:58Z</time>
      </trkpt>
      <trkpt lat="48.92431" lon="2.10023">
        <ele>112.6</ele>
        <time>2022-08-24T08:29:03Z</time>
      </trkpt>
      <trkpt lat="48.92436" lon="2.10019">
        <ele>112.1</ele>
        <time>2022-08-24T08:29:08Z</time>
      </trkpt>
      <trkpt lat="48.92443" lon="2.10017">
        <ele>111.5</ele>
        <time>2022-08-24T08:29:14Z</time>
      </trkpt>
      <trkpt lat="48.92454" lon="2.10017">
        <ele>110.5</ele>
        <time>2022-08-24T08:29:20Z</time>
      </trkpt>
      <trkpt lat="48.92464" lon="2.10018">
        <ele>109.8</ele>
        <time>2022-08-24T08:29:25Z</time>
      </trkpt>
      <trkpt lat="48.92473" lon="2.10019">
        <ele>108.7</ele>
        <time>2022-08-24T08:29:31Z</time>
      </trkpt>
      <trkpt lat="48.92481" lon="2.10019">
        <ele>107.8</ele>
        <time>2022-08-24T08:29:36Z</time>
      </trkpt>
      <trkpt lat="48.92491" lon="2.10019">
        <ele>107.3</ele>
        <time>2022-08-24T08:29:42Z</time>
      </trkpt>
      <trkpt lat="48.92499" lon="2.10019">
        <ele>107.1</ele>
        <time>2022-08-24T08:29:47Z</time>
      </trkpt>
      <trkpt lat="48.92509" lon="2.1002">
        <ele>107.2</ele>
        <time>2022-08-24T08:29:53Z</time>
      </trkpt>
      <trkpt lat="48.92515" lon="2.10022">
        <ele>107.3</ele>
        <time>2022-08-24T08:29:58Z</time>
      </trkpt>
      <trkpt lat="48.92524" lon="2.10023">
        <ele>107.6</ele>
        <time>2022-08-24T08:30:04Z</time>
      </trkpt>
      <trkpt lat="48.92531" lon="2.10022">
        <ele>107.8</ele>
        <time>2022-08-24T08:30:09Z</time>
      </trkpt>
      <trkpt lat="48.9254" lon="2.10021">
        <ele>107.9</ele>
        <time>2022-08-24T08:30:15Z</time>
      </trkpt>
      <trkpt lat="48.92548" lon="2.1002">
        <ele>107.8</ele>
        <time>2022-08-24T08:30:20Z</time>
      </trkpt>
      <trkpt lat="48.92556" lon="2.1002">
        <ele>107.7</ele>
        <time>2022-08-24T08:30:26Z</time>
      </trkpt>
      <trkpt lat="48.92563" lon="2.10019">
        <ele>107.5</ele>
        <time>2022-08-24T08:30:31Z</time>
      </trkpt>
      <trkpt lat="48.92572" lon="2.10019">
        <ele>107.4</ele>
        <time>2022-08-24T08:30:36Z</time>
      </trkpt>
      <trkpt lat="48.92582" lon="2.10019">
        <ele>107.6</ele>
        <time>2022-08-24T08:30:42Z</time>
      </trkpt>
      <trkpt lat="48.92591" lon="2.10018">
        <ele>107.8</ele>
        <time>2022-08-24T08:30:47Z</time>
      </trkpt>
      <trkpt lat="48.926" lon="2.10019">
        <ele>108.1</ele>
        <time>2022-08-24T08:30:53Z</time>
      </trkpt>
      <trkpt lat="48.92608" lon="2.1002">
        <ele>108.4</ele>
        <time>2022-08-24T08:30:58Z</time>
      </trkpt>
      <trkpt lat="48.92617" lon="2.1002">
        <ele>108.8</ele>
        <time>2022-08-24T08:31:04Z</time>
      </trkpt>
      <trkpt lat="48.92627" lon="2.10019">
        <ele>108.8</ele>
        <time>2022-08-24T08:31:10Z</time>
      </trkpt>
      <trkpt lat="48.92635" lon="2.1002">
        <ele>109.1</ele>
        <time>2022-08-24T08:31:16Z</time>
      </trkpt>
      <trkpt lat="48.92644" lon="2.1002">
        <ele>109.5</ele>
        <time>2022-08-24T08:31:22Z</time>
      </trkpt>
      <trkpt lat="48.92653" lon="2.10019">
        <ele>110</ele>
        <time>2022-08-24T08:31:27Z</time>
      </trkpt>
      <trkpt lat="48.92663" lon="2.10019">
        <ele>110.6</ele>
        <time>2022-08-24T08:31:32Z</time>
      </trkpt>
      <trkpt lat="48.92674" lon="2.10019">
        <ele>111.4</ele>
        <time>2022-08-24T08:31:38Z</time>
      </trkpt>
      <trkpt lat="48.92683" lon="2.10018">
        <ele>112.2</ele>
        <time>2022-08-24T08:31:44Z</time>
      </trkpt>
      <trkpt lat="48.92689" lon="2.10017">
        <ele>112.8</ele>
        <time>2022-08-24T08:31:49Z</time>
      </trkpt>
      <trkpt lat="48.92697" lon="2.10016">
        <ele>113.2</ele>
        <time>2022-08-24T08:31:55Z</time>
      </trkpt>
      <trkpt lat="48.92704" lon="2.10012">
        <ele>113.4</ele>
        <time>2022-08-24T08:32:00Z</time>
      </trkpt>
      <trkpt lat="48.92712" lon="2.10007">
        <ele>113.7</ele>
        <time>2022-08-24T08:32:06Z</time>
      </trkpt>
      <trkpt lat="48.92719" lon="2.1">
        <ele>114</ele>
        <time>2022-08-24T08:32:12Z</time>
      </trkpt>
      <trkpt lat="48.92726" lon="2.09995">
        <ele>114.1</ele>
        <time>2022-08-24T08:32:18Z</time>
      </trkpt>
      <trkpt lat="48.9273" lon="2.09989">
        <ele>114.4</ele>
        <time>2022-08-24T08:32:23Z</time>
      </trkpt>
      <trkpt lat="48.92735" lon="2.09983">
        <ele>114.6</ele>
        <time>2022-08-24T08:32:28Z</time>
      </trkpt>
      <trkpt lat="48.92739" lon="2.09976">
        <ele>114.7</ele>
        <time>2022-08-24T08:32:34Z</time>
      </trkpt>
      <trkpt lat="48.92745" lon="2.09968">
        <ele>114.7</ele>
        <time>2022-08-24T08:32:40Z</time>
      </trkpt>
      <trkpt lat="48.9275" lon="2.09962">
        <ele>114.7</ele>
        <time>2022-08-24T08:32:45Z</time>
      </trkpt>
      <trkpt lat="48.92758" lon="2.09955">
        <ele>114.8</ele>
        <time>2022-08-24T08:32:51Z</time>
      </trkpt>
      <trkpt lat="48.92764" lon="2.09949">
        <ele>114.9</ele>
        <time>2022-08-24T08:32:56Z</time>
      </trkpt>
      <trkpt lat="48.92771" lon="2.09942">
        <ele>114.9</ele>
        <time>2022-08-24T08:33:02Z</time>
      </trkpt>
      <trkpt lat="48.92775" lon="2.09936">
        <ele>114.9</ele>
        <time>2022-08-24T08:33:07Z</time>
      </trkpt>
      <trkpt lat="48.92782" lon="2.09928">
        <ele>114.8</ele>
        <time>2022-08-24T08:33:13Z</time>
      </trkpt>
      <trkpt lat="48.92789" lon="2.09922">
        <ele>114.5</ele>
        <time>2022-08-24T08:33:18Z</time>
      </trkpt>
      <trkpt lat="48.92796" lon="2.09915">
        <ele>114.2</ele>
        <time>2022-08-24T08:33:23Z</time>
      </trkpt>
      <trkpt lat="48.92804" lon="2.09907">
        <ele>114</ele>
        <time>2022-08-24T08:33:29Z</time>
      </trkpt>
      <trkpt lat="48.92814" lon="2.09898">
        <ele>114.1</ele>
        <time>2022-08-24T08:33:35Z</time>
      </trkpt>
      <trkpt lat="48.92823" lon="2.09897">
        <ele>114.2</ele>
        <time>2022-08-24T08:33:41Z</time>
      </trkpt>
      <trkpt lat="48.92829" lon="2.09901">
        <ele>114.2</ele>
        <time>2022-08-24T08:33:46Z</time>
      </trkpt>
      <trkpt lat="48.92835" lon="2.0991">
        <ele>113.9</ele>
        <time>2022-08-24T08:33:52Z</time>
      </trkpt>
      <trkpt lat="48.92838" lon="2.09924">
        <ele>113.3</ele>
        <time>2022-08-24T08:33:58Z</time>
      </trkpt>
      <trkpt lat="48.92839" lon="2.09933">
        <ele>112.6</ele>
        <time>2022-08-24T08:34:03Z</time>
      </trkpt>
      <trkpt lat="48.9284" lon="2.09942">
        <ele>111.4</ele>
        <time>2022-08-24T08:34:09Z</time>
      </trkpt>
      <trkpt lat="48.92843" lon="2.09951">
        <ele>110.3</ele>
        <time>2022-08-24T08:34:14Z</time>
      </trkpt>
      <trkpt lat="48.92846" lon="2.09962">
        <ele>109</ele>
        <time>2022-08-24T08:34:20Z</time>
      </trkpt>
      <trkpt lat="48.92848" lon="2.09975">
        <ele>107.7</ele>
        <time>2022-08-24T08:34:26Z</time>
      </trkpt>
      <trkpt lat="48.92849" lon="2.09985">
        <ele>106.7</ele>
        <time>2022-08-24T08:34:31Z</time>
      </trkpt>
      <trkpt lat="48.9285" lon="2.09994">
        <ele>105.9</ele>
        <time>2022-08-24T08:34:36Z</time>
      </trkpt>
      <trkpt lat="48.92851" lon="2.10003">
        <ele>104.6</ele>
        <time>2022-08-24T08:34:42Z</time>
      </trkpt>
      <trkpt lat="48.92853" lon="2.10013">
        <ele>103.6</ele>
        <time>2022-08-24T08:34:47Z</time>
      </trkpt>
      <trkpt lat="48.92857" lon="2.10027">
        <ele>102.6</ele>
        <time>2022-08-24T08:34:53Z</time>
      </trkpt>
      <trkpt lat="48.92858" lon="2.10037">
        <ele>101.6</ele>
        <time>2022-08-24T08:34:58Z</time>
      </trkpt>
      <trkpt lat="48.9286" lon="2.10049">
        <ele>100.2</ele>
        <time>2022-08-24T08:35:04Z</time>
      </trkpt>
      <trkpt lat="48.92862" lon="2.1006">
        <ele>98.7</ele>
        <time>2022-08-24T08:35:10Z</time>
      </trkpt>
      <trkpt lat="48.92864" lon="2.1007">
        <ele>97.4</ele>
        <time>2022-08-24T08:35:15Z</time>
      </trkpt>
      <trkpt lat="48.92866" lon="2.1008">
        <ele>95.5</ele>
        <time>2022-08-24T08:35:21Z</time>
      </trkpt>
      <trkpt lat="48.92868" lon="2.10091">
        <ele>93.9</ele>
        <time>2022-08-24T08:35:26Z</time>
      </trkpt>
      <trkpt lat="48.92871" lon="2.10104">
        <ele>92.4</ele>
        <time>2022-08-24T08:35:32Z</time>
      </trkpt>
      <trkpt lat="48.92874" lon="2.10114">
        <ele>90.9</ele>
        <time>2022-08-24T08:35:37Z</time>
      </trkpt>
      <trkpt lat="48.92876" lon="2.10125">
        <ele>89.1</ele>
        <time>2022-08-24T08:35:43Z</time>
      </trkpt>
      <trkpt lat="48.92878" lon="2.10135">
        <ele>87.5</ele>
        <time>2022-08-24T08:35:49Z</time>
      </trkpt>
      <trkpt lat="48.9288" lon="2.10145">
        <ele>85.9</ele>
        <time>2022-08-24T08:35:55Z</time>
      </trkpt>
      <trkpt lat="48.92882" lon="2.10152">
        <ele>83.8</ele>
        <time>2022-08-24T08:36:01Z</time>
      </trkpt>
      <trkpt lat="48.92883" lon="2.10157">
        <ele>81.6</ele>
        <time>2022-08-24T08:36:06Z</time>
      </trkpt>
      <trkpt lat="48.92884" lon="2.1016">
        <ele>79.7</ele>
        <time>2022-08-24T08:36:11Z</time>
      </trkpt>
      <trkpt lat="48.92885" lon="2.10166">
        <ele>77.3</ele>
        <time>2022-08-24T08:36:16Z</time>
      </trkpt>
      <trkpt lat="48.92886" lon="2.10184">
        <ele>74.8</ele>
        <time>2022-08-24T08:36:22Z</time>
      </trkpt>
      <trkpt lat="48.92887" lon="2.10201">
        <ele>73.3</ele>
        <time>2022-08-24T08:36:27Z</time>
      </trkpt>
      <trkpt lat="48.92888" lon="2.10221">
        <ele>71.9</ele>
        <time>2022-08-24T08:36:33Z</time>
      </trkpt>
      <trkpt lat="48.9289" lon="2.10242">
        <ele>71.4</ele>
        <time>2022-08-24T08:36:39Z</time>
      </trkpt>
      <trkpt lat="48.92892" lon="2.1026">
        <ele>71.6</ele>
        <time>2022-08-24T08:36:44Z</time>
      </trkpt>
      <trkpt lat="48.92893" lon="2.10276">
        <ele>72</ele>
        <time>2022-08-24T08:36:50Z</time>
      </trkpt>
      <trkpt lat="48.92895" lon="2.10291">
        <ele>72.2</ele>
        <time>2022-08-24T08:36:56Z</time>
      </trkpt>
      <trkpt lat="48.92897" lon="2.10303">
        <ele>72.5</ele>
        <time>2022-08-24T08:37:02Z</time>
      </trkpt>
      <trkpt lat="48.92901" lon="2.1032">
        <ele>73.3</ele>
        <time>2022-08-24T08:37:08Z</time>
      </trkpt>
      <trkpt lat="48.92904" lon="2.10334">
        <ele>74.2</ele>
        <time>2022-08-24T08:37:14Z</time>
      </trkpt>
      <trkpt lat="48.92906" lon="2.10346">
        <ele>75</ele>
        <time>2022-08-24T08:37:19Z</time>
      </trkpt>
      <trkpt lat="48.92907" lon="2.10358">
        <ele>76</ele>
        <time>2022-08-24T08:37:25Z</time>
      </trkpt>
      <trkpt lat="48.92908" lon="2.1037">
        <ele>77</ele>
        <time>2022-08-24T08:37:31Z</time>
      </trkpt>
      <trkpt lat="48.92909" lon="2.10382">
        <ele>77.5</ele>
        <time>2022-08-24T08:37:37Z</time>
      </trkpt>
      <trkpt lat="48.92911" lon="2.10394">
        <ele>77.7</ele>
        <time>2022-08-24T08:37:42Z</time>
      </trkpt>
      <trkpt lat="48.92916" lon="2.10406">
        <ele>78.1</ele>
        <time>2022-08-24T08:37:48Z</time>
      </trkpt>
      <trkpt lat="48.9292" lon="2.10419">
        <ele>78.4</ele>
        <time>2022-08-24T08:37:54Z</time>
      </trkpt>
      <trkpt lat="48.92923" lon="2.1043">
        <ele>78.8</ele>
        <time>2022-08-24T08:38:00Z</time>
      </trkpt>
      <trkpt lat="48.92926" lon="2.10442">
        <ele>79.3</ele>
        <time>2022-08-24T08:38:06Z</time>
      </trkpt>
      <trkpt lat="48.92927" lon="2.10453">
        <ele>79.5</ele>
        <time>2022-08-24T08:38:11Z</time>
      </trkpt>
      <trkpt lat="48.92928" lon="2.10465">
        <ele>79.5</ele>
        <time>2022-08-24T08:38:17Z</time>
      </trkpt>
      <trkpt lat="48.9293" lon="2.10479">
        <ele>79.7</ele>
        <time>2022-08-24T08:38:22Z</time>
      </trkpt>
      <trkpt lat="48.92934" lon="2.10496">
        <ele>80.1</ele>
        <time>2022-08-24T08:38:28Z</time>
      </trkpt>
      <trkpt lat="48.92936" lon="2.10509">
        <ele>80.6</ele>
        <time>2022-08-24T08:38:34Z</time>
      </trkpt>
      <trkpt lat="48.92937" lon="2.1052">
        <ele>81</ele>
        <time>2022-08-24T08:38:40Z</time>
      </trkpt>
      <trkpt lat="48.92938" lon="2.10529">
        <ele>81.2</ele>
        <time>2022-08-24T08:38:46Z</time>
      </trkpt>
      <trkpt lat="48.9294" lon="2.10541">
        <ele>81.5</ele>
        <time>2022-08-24T08:38:51Z</time>
      </trkpt>
      <trkpt lat="48.92944" lon="2.10554">
        <ele>81.7</ele>
        <time>2022-08-24T08:38:57Z</time>
      </trkpt>
      <trkpt lat="48.92948" lon="2.10567">
        <ele>81.8</ele>
        <time>2022-08-24T08:39:02Z</time>
      </trkpt>
      <trkpt lat="48.92952" lon="2.1058">
        <ele>81.9</ele>
        <time>2022-08-24T08:39:08Z</time>
      </trkpt>
      <trkpt lat="48.92955" lon="2.10595">
        <ele>82.1</ele>
        <time>2022-08-24T08:39:14Z</time>
      </trkpt>
      <trkpt lat="48.92956" lon="2.10607">
        <ele>81.9</ele>
        <time>2022-08-24T08:39:19Z</time>
      </trkpt>
      <trkpt lat="48.92961" lon="2.10621">
        <ele>81.7</ele>
        <time>2022-08-24T08:39:25Z</time>
      </trkpt>
      <trkpt lat="48.92967" lon="2.10634">
        <ele>82.2</ele>
        <time>2022-08-24T08:39:31Z</time>
      </trkpt>
      <trkpt lat="48.92973" lon="2.10643">
        <ele>83.2</ele>
        <time>2022-08-24T08:39:36Z</time>
      </trkpt>
      <trkpt lat="48.92982" lon="2.10651">
        <ele>84.4</ele>
        <time>2022-08-24T08:39:42Z</time>
      </trkpt>
      <trkpt lat="48.9299" lon="2.10657">
        <ele>85.2</ele>
        <time>2022-08-24T08:39:48Z</time>
      </trkpt>
      <trkpt lat="48.92997" lon="2.10663">
        <ele>86.1</ele>
        <time>2022-08-24T08:39:53Z</time>
      </trkpt>
      <trkpt lat="48.93006" lon="2.1067">
        <ele>87.5</ele>
        <time>2022-08-24T08:39:59Z</time>
      </trkpt>
      <trkpt lat="48.93015" lon="2.10675">
        <ele>88.8</ele>
        <time>2022-08-24T08:40:04Z</time>
      </trkpt>
      <trkpt lat="48.93022" lon="2.10682">
        <ele>89.7</ele>
        <time>2022-08-24T08:40:10Z</time>
      </trkpt>
      <trkpt lat="48.93027" lon="2.10688">
        <ele>90.4</ele>
        <time>2022-08-24T08:40:16Z</time>
      </trkpt>
      <trkpt lat="48.93031" lon="2.10694">
        <ele>90.6</ele>
        <time>2022-08-24T08:40:21Z</time>
      </trkpt>
      <trkpt lat="48.93036" lon="2.10703">
        <ele>90.7</ele>
        <time>2022-08-24T08:40:27Z</time>
      </trkpt>
      <trkpt lat="48.93041" lon="2.10711">
        <ele>91</ele>
        <time>2022-08-24T08:40:32Z</time>
      </trkpt>
      <trkpt lat="48.93047" lon="2.1072">
        <ele>91.4</ele>
        <time>2022-08-24T08:40:38Z</time>
      </trkpt>
      <trkpt lat="48.93051" lon="2.10729">
        <ele>91.6</ele>
        <time>2022-08-24T08:40:44Z</time>
      </trkpt>
      <trkpt lat="48.93054" lon="2.10737">
        <ele>91.5</ele>
        <time>2022-08-24T08:40:49Z</time>
      </trkpt>
      <trkpt lat="48.93058" lon="2.10746">
        <ele>91</ele>
        <time>2022-08-24T08:40:54Z</time>
      </trkpt>
      <trkpt lat="48.93063" lon="2.10758">
        <ele>90.5</ele>
        <time>2022-08-24T08:41:00Z</time>
      </trkpt>
      <trkpt lat="48.93068" lon="2.10768">
        <ele>89.7</ele>
        <time>2022-08-24T08:41:06Z</time>
      </trkpt>
      <trkpt lat="48.93072" lon="2.10778">
        <ele>88.6</ele>
        <time>2022-08-24T08:41:12Z</time>
      </trkpt>
      <trkpt lat="48.93074" lon="2.10787">
        <ele>87.7</ele>
        <time>2022-08-24T08:41:17Z</time>
      </trkpt>
      <trkpt lat="48.93077" lon="2.10799">
        <ele>86.6</ele>
        <time>2022-08-24T08:41:23Z</time>
      </trkpt>
      <trkpt lat="48.93079" lon="2.10809">
        <ele>85.7</ele>
        <time>2022-08-24T08:41:28Z</time>
      </trkpt>
      <trkpt lat="48.9308" lon="2.10818">
        <ele>84.8</ele>
        <time>2022-08-24T08:41:34Z</time>
      </trkpt>
      <trkpt lat="48.93082" lon="2.10826">
        <ele>83.8</ele>
        <time>2022-08-24T08:41:39Z</time>
      </trkpt>
      <trkpt lat="48.93085" lon="2.10838">
        <ele>82.8</ele>
        <time>2022-08-24T08:41:45Z</time>
      </trkpt>
      <trkpt lat="48.93088" lon="2.10849">
        <ele>82</ele>
        <time>2022-08-24T08:41:50Z</time>
      </trkpt>
      <trkpt lat="48.93091" lon="2.10862">
        <ele>80.9</ele>
        <time>2022-08-24T08:41:56Z</time>
      </trkpt>
      <trkpt lat="48.93096" lon="2.10874">
        <ele>79.8</ele>
        <time>2022-08-24T08:42:01Z</time>
      </trkpt>
      <trkpt lat="48.93102" lon="2.10886">
        <ele>78.8</ele>
        <time>2022-08-24T08:42:07Z</time>
      </trkpt>
      <trkpt lat="48.93106" lon="2.10896">
        <ele>78.1</ele>
        <time>2022-08-24T08:42:13Z</time>
      </trkpt>
      <trkpt lat="48.9311" lon="2.10905">
        <ele>78.1</ele>
        <time>2022-08-24T08:42:18Z</time>
      </trkpt>
      <trkpt lat="48.93114" lon="2.10912">
        <ele>79.3</ele>
        <time>2022-08-24T08:42:24Z</time>
      </trkpt>
      <trkpt lat="48.93117" lon="2.10917">
        <ele>80.3</ele>
        <time>2022-08-24T08:42:30Z</time>
      </trkpt>
      <trkpt lat="48.93119" lon="2.10922">
        <ele>81.4</ele>
        <time>2022-08-24T08:42:36Z</time>
      </trkpt>
      <trkpt lat="48.93124" lon="2.10928">
        <ele>83.1</ele>
        <time>2022-08-24T08:42:42Z</time>
      </trkpt>
      <trkpt lat="48.93129" lon="2.10931">
        <ele>84</ele>
        <time>2022-08-24T08:42:48Z</time>
      </trkpt>
      <trkpt lat="48.93133" lon="2.10933">
        <ele>84.1</ele>
        <time>2022-08-24T08:42:54Z</time>
      </trkpt>
      <trkpt lat="48.93135" lon="2.10933">
        <ele>84.2</ele>
        <time>2022-08-24T08:43:00Z</time>
      </trkpt>
      <trkpt lat="48.93136" lon="2.10934">
        <ele>86.5</ele>
        <time>2022-08-24T08:43:15Z</time>
      </trkpt>
      <trkpt lat="48.93136" lon="2.10933">
        <ele>88.1</ele>
        <time>2022-08-24T08:43:26Z</time>
      </trkpt>
      <trkpt lat="48.93136" lon="2.10929">
        <ele>88.9</ele>
        <time>2022-08-24T08:43:32Z</time>
      </trkpt>
      <trkpt lat="48.93136" lon="2.10927">
        <ele>89</ele>
        <time>2022-08-24T08:43:37Z</time>
      </trkpt>
      <trkpt lat="48.93136" lon="2.10926">
        <ele>89.1</ele>
        <time>2022-08-24T08:43:43Z</time>
      </trkpt>
      <trkpt lat="48.93135" lon="2.10925">
        <ele>89.2</ele>
        <time>2022-08-24T08:43:48Z</time>
      </trkpt>
      <trkpt lat="48.93135" lon="2.10926">
        <ele>89.6</ele>
        <time>2022-08-24T08:43:59Z</time>
      </trkpt>
      <trkpt lat="48.93136" lon="2.10925">
        <ele>90.1</ele>
        <time>2022-08-24T08:44:11Z</time>
      </trkpt>
      <trkpt lat="48.93136" lon="2.10924">
        <ele>90.3</ele>
        <time>2022-08-24T08:44:17Z</time>
      </trkpt>
      <trkpt lat="48.93137" lon="2.10923">
        <ele>91.8</ele>
        <time>2022-08-24T08:44:29Z</time>
      </trkpt>
      <trkpt lat="48.93137" lon="2.10922">
        <ele>92.1</ele>
        <time>2022-08-24T08:44:35Z</time>
      </trkpt>
      <trkpt lat="48.93137" lon="2.10921">
        <ele>92.5</ele>
        <time>2022-08-24T08:44:47Z</time>
      </trkpt>
      <trkpt lat="48.93141" lon="2.10924">
        <ele>94.1</ele>
        <time>2022-08-24T08:45:10Z</time>
      </trkpt>
      <trkpt lat="48.93147" lon="2.10927">
        <ele>95</ele>
        <time>2022-08-24T08:45:15Z</time>
      </trkpt>
      <trkpt lat="48.93153" lon="2.10931">
        <ele>95.9</ele>
        <time>2022-08-24T08:45:21Z</time>
      </trkpt>
      <trkpt lat="48.93161" lon="2.10936">
        <ele>97.1</ele>
        <time>2022-08-24T08:45:27Z</time>
      </trkpt>
      <trkpt lat="48.93168" lon="2.1094">
        <ele>98.4</ele>
        <time>2022-08-24T08:45:33Z</time>
      </trkpt>
      <trkpt lat="48.93177" lon="2.10946">
        <ele>99.6</ele>
        <time>2022-08-24T08:45:39Z</time>
      </trkpt>
      <trkpt lat="48.93185" lon="2.10949">
        <ele>100.8</ele>
        <time>2022-08-24T08:45:45Z</time>
      </trkpt>
      <trkpt lat="48.93191" lon="2.10949">
        <ele>102</ele>
        <time>2022-08-24T08:45:50Z</time>
      </trkpt>
      <trkpt lat="48.932" lon="2.10947">
        <ele>103.6</ele>
        <time>2022-08-24T08:45:56Z</time>
      </trkpt>
      <trkpt lat="48.93208" lon="2.10942">
        <ele>105</ele>
        <time>2022-08-24T08:46:02Z</time>
      </trkpt>
      <trkpt lat="48.93215" lon="2.10936">
        <ele>106</ele>
        <time>2022-08-24T08:46:08Z</time>
      </trkpt>
      <trkpt lat="48.93221" lon="2.10931">
        <ele>106.8</ele>
        <time>2022-08-24T08:46:14Z</time>
      </trkpt>
      <trkpt lat="48.93228" lon="2.10926">
        <ele>107.4</ele>
        <time>2022-08-24T08:46:19Z</time>
      </trkpt>
      <trkpt lat="48.93235" lon="2.10922">
        <ele>107.8</ele>
        <time>2022-08-24T08:46:24Z</time>
      </trkpt>
      <trkpt lat="48.93244" lon="2.10917">
        <ele>107.8</ele>
        <time>2022-08-24T08:46:30Z</time>
      </trkpt>
      <trkpt lat="48.93251" lon="2.10915">
        <ele>107.8</ele>
        <time>2022-08-24T08:46:35Z</time>
      </trkpt>
      <trkpt lat="48.93258" lon="2.10914">
        <ele>108.1</ele>
        <time>2022-08-24T08:46:41Z</time>
      </trkpt>
      <trkpt lat="48.93266" lon="2.10914">
        <ele>108.6</ele>
        <time>2022-08-24T08:46:46Z</time>
      </trkpt>
      <trkpt lat="48.93277" lon="2.10916">
        <ele>109</ele>
        <time>2022-08-24T08:46:52Z</time>
      </trkpt>
      <trkpt lat="48.93286" lon="2.10919">
        <ele>109</ele>
        <time>2022-08-24T08:46:58Z</time>
      </trkpt>
      <trkpt lat="48.93294" lon="2.10921">
        <ele>108.7</ele>
        <time>2022-08-24T08:47:03Z</time>
      </trkpt>
      <trkpt lat="48.93304" lon="2.10927">
        <ele>108.4</ele>
        <time>2022-08-24T08:47:09Z</time>
      </trkpt>
      <trkpt lat="48.93314" lon="2.10932">
        <ele>108</ele>
        <time>2022-08-24T08:47:15Z</time>
      </trkpt>
      <trkpt lat="48.93319" lon="2.10937">
        <ele>107.8</ele>
        <time>2022-08-24T08:47:20Z</time>
      </trkpt>
      <trkpt lat="48.93324" lon="2.1094">
        <ele>107.3</ele>
        <time>2022-08-24T08:47:25Z</time>
      </trkpt>
      <trkpt lat="48.93332" lon="2.10943">
        <ele>106.9</ele>
        <time>2022-08-24T08:47:31Z</time>
      </trkpt>
      <trkpt lat="48.9334" lon="2.10945">
        <ele>106.5</ele>
        <time>2022-08-24T08:47:37Z</time>
      </trkpt>
      <trkpt lat="48.93348" lon="2.10949">
        <ele>106.2</ele>
        <time>2022-08-24T08:47:43Z</time>
      </trkpt>
      <trkpt lat="48.93352" lon="2.10949">
        <ele>106</ele>
        <time>2022-08-24T08:47:48Z</time>
      </trkpt>
      <trkpt lat="48.93359" lon="2.1095">
        <ele>105.8</ele>
        <time>2022-08-24T08:47:54Z</time>
      </trkpt>
      <trkpt lat="48.93365" lon="2.10952">
        <ele>105.3</ele>
        <time>2022-08-24T08:47:59Z</time>
      </trkpt>
      <trkpt lat="48.93371" lon="2.10958">
        <ele>104.5</ele>
        <time>2022-08-24T08:48:04Z</time>
      </trkpt>
      <trkpt lat="48.93374" lon="2.10968">
        <ele>103.3</ele>
        <time>2022-08-24T08:48:10Z</time>
      </trkpt>
      <trkpt lat="48.93375" lon="2.10977">
        <ele>102.3</ele>
        <time>2022-08-24T08:48:15Z</time>
      </trkpt>
      <trkpt lat="48.93374" lon="2.10987">
        <ele>101.1</ele>
        <time>2022-08-24T08:48:21Z</time>
      </trkpt>
      <trkpt lat="48.93372" lon="2.10993">
        <ele>100</ele>
        <time>2022-08-24T08:48:26Z</time>
      </trkpt>
      <trkpt lat="48.93369" lon="2.11001">
        <ele>99</ele>
        <time>2022-08-24T08:48:31Z</time>
      </trkpt>
      <trkpt lat="48.93366" lon="2.11015">
        <ele>97.6</ele>
        <time>2022-08-24T08:48:37Z</time>
      </trkpt>
      <trkpt lat="48.93364" lon="2.11027">
        <ele>96.3</ele>
        <time>2022-08-24T08:48:42Z</time>
      </trkpt>
      <trkpt lat="48.93361" lon="2.11039">
        <ele>94.9</ele>
        <time>2022-08-24T08:48:47Z</time>
      </trkpt>
      <trkpt lat="48.93359" lon="2.11055">
        <ele>93.6</ele>
        <time>2022-08-24T08:48:53Z</time>
      </trkpt>
      <trkpt lat="48.93356" lon="2.11069">
        <ele>92.5</ele>
        <time>2022-08-24T08:48:59Z</time>
      </trkpt>
      <trkpt lat="48.93355" lon="2.11081">
        <ele>91.9</ele>
        <time>2022-08-24T08:49:04Z</time>
      </trkpt>
      <trkpt lat="48.93356" lon="2.11097">
        <ele>91.8</ele>
        <time>2022-08-24T08:49:10Z</time>
      </trkpt>
      <trkpt lat="48.93356" lon="2.11112">
        <ele>91.8</ele>
        <time>2022-08-24T08:49:16Z</time>
      </trkpt>
      <trkpt lat="48.93356" lon="2.11129">
        <ele>91.8</ele>
        <time>2022-08-24T08:49:22Z</time>
      </trkpt>
      <trkpt lat="48.93356" lon="2.11143">
        <ele>91.8</ele>
        <time>2022-08-24T08:49:27Z</time>
      </trkpt>
      <trkpt lat="48.93355" lon="2.11158">
        <ele>91.9</ele>
        <time>2022-08-24T08:49:33Z</time>
      </trkpt>
      <trkpt lat="48.93354" lon="2.1117">
        <ele>91.9</ele>
        <time>2022-08-24T08:49:38Z</time>
      </trkpt>
      <trkpt lat="48.93353" lon="2.11184">
        <ele>91.9</ele>
        <time>2022-08-24T08:49:44Z</time>
      </trkpt>
      <trkpt lat="48.93353" lon="2.11196">
        <ele>92</ele>
        <time>2022-08-24T08:49:49Z</time>
      </trkpt>
      <trkpt lat="48.93352" lon="2.11207">
        <ele>92</ele>
        <time>2022-08-24T08:49:54Z</time>
      </trkpt>
      <trkpt lat="48.93351" lon="2.1122">
        <ele>92.3</ele>
        <time>2022-08-24T08:50:00Z</time>
      </trkpt>
      <trkpt lat="48.93349" lon="2.11234">
        <ele>92.6</ele>
        <time>2022-08-24T08:50:06Z</time>
      </trkpt>
      <trkpt lat="48.93347" lon="2.11249">
        <ele>92.8</ele>
        <time>2022-08-24T08:50:12Z</time>
      </trkpt>
      <trkpt lat="48.93346" lon="2.1126">
        <ele>92.9</ele>
        <time>2022-08-24T08:50:17Z</time>
      </trkpt>
      <trkpt lat="48.93344" lon="2.11273">
        <ele>93</ele>
        <time>2022-08-24T08:50:23Z</time>
      </trkpt>
      <trkpt lat="48.93343" lon="2.11283">
        <ele>92.8</ele>
        <time>2022-08-24T08:50:29Z</time>
      </trkpt>
      <trkpt lat="48.93341" lon="2.11292">
        <ele>92.3</ele>
        <time>2022-08-24T08:50:35Z</time>
      </trkpt>
      <trkpt lat="48.9334" lon="2.11302">
        <ele>91.3</ele>
        <time>2022-08-24T08:50:41Z</time>
      </trkpt>
      <trkpt lat="48.9334" lon="2.11312">
        <ele>90.2</ele>
        <time>2022-08-24T08:50:46Z</time>
      </trkpt>
      <trkpt lat="48.93339" lon="2.11328">
        <ele>89.6</ele>
        <time>2022-08-24T08:50:51Z</time>
      </trkpt>
      <trkpt lat="48.93339" lon="2.11344">
        <ele>89.4</ele>
        <time>2022-08-24T08:50:56Z</time>
      </trkpt>
      <trkpt lat="48.93339" lon="2.1136">
        <ele>89.1</ele>
        <time>2022-08-24T08:51:02Z</time>
      </trkpt>
      <trkpt lat="48.93338" lon="2.11374">
        <ele>88.8</ele>
        <time>2022-08-24T08:51:08Z</time>
      </trkpt>
      <trkpt lat="48.93336" lon="2.1139">
        <ele>88.6</ele>
        <time>2022-08-24T08:51:14Z</time>
      </trkpt>
      <trkpt lat="48.93335" lon="2.11403">
        <ele>88.5</ele>
        <time>2022-08-24T08:51:19Z</time>
      </trkpt>
      <trkpt lat="48.93335" lon="2.11417">
        <ele>88.1</ele>
        <time>2022-08-24T08:51:25Z</time>
      </trkpt>
      <trkpt lat="48.93334" lon="2.11428">
        <ele>87.7</ele>
        <time>2022-08-24T08:51:30Z</time>
      </trkpt>
      <trkpt lat="48.93334" lon="2.11444">
        <ele>88.1</ele>
        <time>2022-08-24T08:51:36Z</time>
      </trkpt>
      <trkpt lat="48.93333" lon="2.11456">
        <ele>88.4</ele>
        <time>2022-08-24T08:51:41Z</time>
      </trkpt>
      <trkpt lat="48.93332" lon="2.11468">
        <ele>88.4</ele>
        <time>2022-08-24T08:51:47Z</time>
      </trkpt>
      <trkpt lat="48.93333" lon="2.11474">
        <ele>88.3</ele>
        <time>2022-08-24T08:51:53Z</time>
      </trkpt>
      <trkpt lat="48.93339" lon="2.11477">
        <ele>88.8</ele>
        <time>2022-08-24T08:51:59Z</time>
      </trkpt>
      <trkpt lat="48.93349" lon="2.11474">
        <ele>89.7</ele>
        <time>2022-08-24T08:52:05Z</time>
      </trkpt>
      <trkpt lat="48.93358" lon="2.11472">
        <ele>91</ele>
        <time>2022-08-24T08:52:10Z</time>
      </trkpt>
      <trkpt lat="48.93367" lon="2.11469">
        <ele>92.2</ele>
        <time>2022-08-24T08:52:15Z</time>
      </trkpt>
      <trkpt lat="48.93378" lon="2.11464">
        <ele>93.9</ele>
        <time>2022-08-24T08:52:21Z</time>
      </trkpt>
      <trkpt lat="48.93389" lon="2.11457">
        <ele>95.5</ele>
        <time>2022-08-24T08:52:27Z</time>
      </trkpt>
      <trkpt lat="48.93399" lon="2.11452">
        <ele>97.5</ele>
        <time>2022-08-24T08:52:33Z</time>
      </trkpt>
      <trkpt lat="48.93408" lon="2.11447">
        <ele>99.5</ele>
        <time>2022-08-24T08:52:39Z</time>
      </trkpt>
      <trkpt lat="48.93415" lon="2.11443">
        <ele>101.1</ele>
        <time>2022-08-24T08:52:44Z</time>
      </trkpt>
      <trkpt lat="48.93424" lon="2.11437">
        <ele>102.9</ele>
        <time>2022-08-24T08:52:50Z</time>
      </trkpt>
      <trkpt lat="48.93431" lon="2.11433">
        <ele>104.1</ele>
        <time>2022-08-24T08:52:55Z</time>
      </trkpt>
      <trkpt lat="48.93437" lon="2.1143">
        <ele>105</ele>
        <time>2022-08-24T08:53:00Z</time>
      </trkpt>
      <trkpt lat="48.93443" lon="2.11426">
        <ele>105.9</ele>
        <time>2022-08-24T08:53:06Z</time>
      </trkpt>
      <trkpt lat="48.93451" lon="2.11423">
        <ele>106.6</ele>
        <time>2022-08-24T08:53:11Z</time>
      </trkpt>
      <trkpt lat="48.93459" lon="2.1142">
        <ele>107.2</ele>
        <time>2022-08-24T08:53:16Z</time>
      </trkpt>
      <trkpt lat="48.93466" lon="2.11415">
        <ele>108</ele>
        <time>2022-08-24T08:53:22Z</time>
      </trkpt>
      <trkpt lat="48.93474" lon="2.11409">
        <ele>108.9</ele>
        <time>2022-08-24T08:53:28Z</time>
      </trkpt>
      <trkpt lat="48.9348" lon="2.11405">
        <ele>109.6</ele>
        <time>2022-08-24T08:53:33Z</time>
      </trkpt>
      <trkpt lat="48.93488" lon="2.11398">
        <ele>110.6</ele>
        <time>2022-08-24T08:53:39Z</time>
      </trkpt>
      <trkpt lat="48.93496" lon="2.11389">
        <ele>111</ele>
        <time>2022-08-24T08:53:45Z</time>
      </trkpt>
      <trkpt lat="48.93503" lon="2.11383">
        <ele>111.5</ele>
        <time>2022-08-24T08:53:50Z</time>
      </trkpt>
      <trkpt lat="48.93512" lon="2.11375">
        <ele>112.2</ele>
        <time>2022-08-24T08:53:55Z</time>
      </trkpt>
      <trkpt lat="48.93521" lon="2.11366">
        <ele>112.7</ele>
        <time>2022-08-24T08:54:01Z</time>
      </trkpt>
      <trkpt lat="48.93529" lon="2.11363">
        <ele>113.3</ele>
        <time>2022-08-24T08:54:07Z</time>
      </trkpt>
      <trkpt lat="48.93536" lon="2.11359">
        <ele>113.5</ele>
        <time>2022-08-24T08:54:12Z</time>
      </trkpt>
      <trkpt lat="48.93545" lon="2.11354">
        <ele>113.8</ele>
        <time>2022-08-24T08:54:18Z</time>
      </trkpt>
      <trkpt lat="48.93554" lon="2.11349">
        <ele>114.3</ele>
        <time>2022-08-24T08:54:24Z</time>
      </trkpt>
      <trkpt lat="48.93564" lon="2.11344">
        <ele>114.9</ele>
        <time>2022-08-24T08:54:30Z</time>
      </trkpt>
      <trkpt lat="48.93571" lon="2.11341">
        <ele>115.4</ele>
        <time>2022-08-24T08:54:35Z</time>
      </trkpt>
      <trkpt lat="48.93579" lon="2.11337">
        <ele>116.1</ele>
        <time>2022-08-24T08:54:41Z</time>
      </trkpt>
      <trkpt lat="48.93587" lon="2.11332">
        <ele>116.6</ele>
        <time>2022-08-24T08:54:47Z</time>
      </trkpt>
      <trkpt lat="48.93595" lon="2.11327">
        <ele>116.8</ele>
        <time>2022-08-24T08:54:53Z</time>
      </trkpt>
      <trkpt lat="48.93602" lon="2.11323">
        <ele>116.8</ele>
        <time>2022-08-24T08:54:59Z</time>
      </trkpt>
      <trkpt lat="48.93609" lon="2.11318">
        <ele>116.6</ele>
        <time>2022-08-24T08:55:04Z</time>
      </trkpt>
      <trkpt lat="48.93616" lon="2.11314">
        <ele>116.5</ele>
        <time>2022-08-24T08:55:10Z</time>
      </trkpt>
      <trkpt lat="48.93624" lon="2.11309">
        <ele>116.5</ele>
        <time>2022-08-24T08:55:15Z</time>
      </trkpt>
      <trkpt lat="48.93632" lon="2.11304">
        <ele>116.3</ele>
        <time>2022-08-24T08:55:20Z</time>
      </trkpt>
      <trkpt lat="48.9364" lon="2.11297">
        <ele>116.3</ele>
        <time>2022-08-24T08:55:26Z</time>
      </trkpt>
      <trkpt lat="48.9365" lon="2.11289">
        <ele>116.3</ele>
        <time>2022-08-24T08:55:32Z</time>
      </trkpt>
      <trkpt lat="48.9366" lon="2.11283">
        <ele>116.2</ele>
        <time>2022-08-24T08:55:38Z</time>
      </trkpt>
      <trkpt lat="48.93667" lon="2.11279">
        <ele>116.2</ele>
        <time>2022-08-24T08:55:43Z</time>
      </trkpt>
      <trkpt lat="48.93675" lon="2.11273">
        <ele>116.4</ele>
        <time>2022-08-24T08:55:49Z</time>
      </trkpt>
      <trkpt lat="48.93685" lon="2.11266">
        <ele>116.7</ele>
        <time>2022-08-24T08:55:55Z</time>
      </trkpt>
      <trkpt lat="48.93694" lon="2.11261">
        <ele>116.9</ele>
        <time>2022-08-24T08:56:00Z</time>
      </trkpt>
      <trkpt lat="48.93703" lon="2.11257">
        <ele>116.8</ele>
        <time>2022-08-24T08:56:06Z</time>
      </trkpt>
      <trkpt lat="48.93711" lon="2.11253">
        <ele>116.3</ele>
        <time>2022-08-24T08:56:12Z</time>
      </trkpt>
      <trkpt lat="48.93715" lon="2.11248">
        <ele>115.8</ele>
        <time>2022-08-24T08:56:17Z</time>
      </trkpt>
      <trkpt lat="48.93724" lon="2.11244">
        <ele>115.2</ele>
        <time>2022-08-24T08:56:23Z</time>
      </trkpt>
      <trkpt lat="48.93733" lon="2.11241">
        <ele>114.3</ele>
        <time>2022-08-24T08:56:29Z</time>
      </trkpt>
      <trkpt lat="48.93739" lon="2.11236">
        <ele>113.2</ele>
        <time>2022-08-24T08:56:35Z</time>
      </trkpt>
      <trkpt lat="48.93744" lon="2.11231">
        <ele>112.2</ele>
        <time>2022-08-24T08:56:40Z</time>
      </trkpt>
      <trkpt lat="48.93749" lon="2.11225">
        <ele>110.9</ele>
        <time>2022-08-24T08:56:46Z</time>
      </trkpt>
      <trkpt lat="48.93757" lon="2.11219">
        <ele>109.9</ele>
        <time>2022-08-24T08:56:51Z</time>
      </trkpt>
      <trkpt lat="48.93767" lon="2.11212">
        <ele>109</ele>
        <time>2022-08-24T08:56:57Z</time>
      </trkpt>
      <trkpt lat="48.93776" lon="2.11205">
        <ele>108.6</ele>
        <time>2022-08-24T08:57:03Z</time>
      </trkpt>
      <trkpt lat="48.93783" lon="2.11201">
        <ele>108.2</ele>
        <time>2022-08-24T08:57:08Z</time>
      </trkpt>
      <trkpt lat="48.93792" lon="2.11198">
        <ele>107.9</ele>
        <time>2022-08-24T08:57:14Z</time>
      </trkpt>
      <trkpt lat="48.93799" lon="2.11197">
        <ele>107.7</ele>
        <time>2022-08-24T08:57:19Z</time>
      </trkpt>
      <trkpt lat="48.93806" lon="2.11199">
        <ele>107.5</ele>
        <time>2022-08-24T08:57:24Z</time>
      </trkpt>
      <trkpt lat="48.93812" lon="2.11202">
        <ele>107.1</ele>
        <time>2022-08-24T08:57:30Z</time>
      </trkpt>
      <trkpt lat="48.93819" lon="2.11208">
        <ele>106.2</ele>
        <time>2022-08-24T08:57:36Z</time>
      </trkpt>
      <trkpt lat="48.93823" lon="2.11213">
        <ele>105.6</ele>
        <time>2022-08-24T08:57:41Z</time>
      </trkpt>
      <trkpt lat="48.93823" lon="2.11215">
        <ele>105.2</ele>
        <time>2022-08-24T08:57:46Z</time>
      </trkpt>
      <trkpt lat="48.93823" lon="2.11216">
        <ele>105.1</ele>
        <time>2022-08-24T08:57:52Z</time>
      </trkpt>
      <trkpt lat="48.93823" lon="2.11215">
        <ele>105.2</ele>
        <time>2022-08-24T08:58:03Z</time>
      </trkpt>
      <trkpt lat="48.93824" lon="2.11214">
        <ele>105.2</ele>
        <time>2022-08-24T08:58:09Z</time>
      </trkpt>
      <trkpt lat="48.93824" lon="2.11213">
        <ele>105.2</ele>
        <time>2022-08-24T08:58:14Z</time>
      </trkpt>
      <trkpt lat="48.93825" lon="2.11212">
        <ele>105.2</ele>
        <time>2022-08-24T08:58:25Z</time>
      </trkpt>
      <trkpt lat="48.93825" lon="2.11211">
        <ele>105.2</ele>
        <time>2022-08-24T08:58:31Z</time>
      </trkpt>
      <trkpt lat="48.93824" lon="2.11211">
        <ele>105.2</ele>
        <time>2022-08-24T08:58:37Z</time>
      </trkpt>
      <trkpt lat="48.93824" lon="2.11209">
        <ele>105.2</ele>
        <time>2022-08-24T08:58:42Z</time>
      </trkpt>
      <trkpt lat="48.93823" lon="2.11209">
        <ele>105.2</ele>
        <time>2022-08-24T08:58:48Z</time>
      </trkpt>
      <trkpt lat="48.93823" lon="2.11208">
        <ele>105.2</ele>
        <time>2022-08-24T08:58:53Z</time>
      </trkpt>
      <trkpt lat="48.93824" lon="2.11207">
        <ele>105.2</ele>
        <time>2022-08-24T08:59:05Z</time>
      </trkpt>
      <trkpt lat="48.93825" lon="2.11207">
        <ele>105.3</ele>
        <time>2022-08-24T08:59:29Z</time>
      </trkpt>
      <trkpt lat="48.93825" lon="2.11208">
        <ele>105.3</ele>
        <time>2022-08-24T08:59:35Z</time>
      </trkpt>
      <trkpt lat="48.93825" lon="2.11209">
        <ele>105.4</ele>
        <time>2022-08-24T08:59:40Z</time>
      </trkpt>
      <trkpt lat="48.93823" lon="2.1122">
        <ele>105.3</ele>
        <time>2022-08-24T08:59:46Z</time>
      </trkpt>
      <trkpt lat="48.93825" lon="2.11226">
        <ele>105.2</ele>
        <time>2022-08-24T08:59:51Z</time>
      </trkpt>
      <trkpt lat="48.93833" lon="2.11237">
        <ele>105.3</ele>
        <time>2022-08-24T08:59:57Z</time>
      </trkpt>
      <trkpt lat="48.93841" lon="2.11245">
        <ele>105.1</ele>
        <time>2022-08-24T09:00:03Z</time>
      </trkpt>
      <trkpt lat="48.93847" lon="2.11252">
        <ele>105.2</ele>
        <time>2022-08-24T09:00:09Z</time>
      </trkpt>
      <trkpt lat="48.93853" lon="2.11258">
        <ele>105.3</ele>
        <time>2022-08-24T09:00:14Z</time>
      </trkpt>
      <trkpt lat="48.9386" lon="2.11267">
        <ele>105.5</ele>
        <time>2022-08-24T09:00:20Z</time>
      </trkpt>
      <trkpt lat="48.93864" lon="2.11272">
        <ele>105.5</ele>
        <time>2022-08-24T09:00:25Z</time>
      </trkpt>
      <trkpt lat="48.9387" lon="2.11278">
        <ele>105.3</ele>
        <time>2022-08-24T09:00:31Z</time>
      </trkpt>
      <trkpt lat="48.93877" lon="2.11287">
        <ele>105.3</ele>
        <time>2022-08-24T09:00:37Z</time>
      </trkpt>
      <trkpt lat="48.93882" lon="2.11294">
        <ele>105.2</ele>
        <time>2022-08-24T09:00:42Z</time>
      </trkpt>
      <trkpt lat="48.93888" lon="2.11303">
        <ele>105.2</ele>
        <time>2022-08-24T09:00:48Z</time>
      </trkpt>
      <trkpt lat="48.93895" lon="2.11313">
        <ele>104.9</ele>
        <time>2022-08-24T09:00:54Z</time>
      </trkpt>
      <trkpt lat="48.93901" lon="2.11322">
        <ele>104.6</ele>
        <time>2022-08-24T09:00:59Z</time>
      </trkpt>
      <trkpt lat="48.93907" lon="2.11328">
        <ele>104.3</ele>
        <time>2022-08-24T09:01:04Z</time>
      </trkpt>
      <trkpt lat="48.93916" lon="2.1134">
        <ele>103.8</ele>
        <time>2022-08-24T09:01:10Z</time>
      </trkpt>
      <trkpt lat="48.93924" lon="2.1135">
        <ele>103.6</ele>
        <time>2022-08-24T09:01:16Z</time>
      </trkpt>
      <trkpt lat="48.93931" lon="2.11358">
        <ele>103.5</ele>
        <time>2022-08-24T09:01:21Z</time>
      </trkpt>
      <trkpt lat="48.93936" lon="2.11365">
        <ele>103.2</ele>
        <time>2022-08-24T09:01:26Z</time>
      </trkpt>
      <trkpt lat="48.93944" lon="2.11373">
        <ele>103.1</ele>
        <time>2022-08-24T09:01:32Z</time>
      </trkpt>
      <trkpt lat="48.93952" lon="2.11381">
        <ele>103.3</ele>
        <time>2022-08-24T09:01:38Z</time>
      </trkpt>
      <trkpt lat="48.93958" lon="2.11388">
        <ele>103.5</ele>
        <time>2022-08-24T09:01:43Z</time>
      </trkpt>
      <trkpt lat="48.93964" lon="2.11394">
        <ele>103.7</ele>
        <time>2022-08-24T09:01:48Z</time>
      </trkpt>
      <trkpt lat="48.9397" lon="2.11403">
        <ele>103.6</ele>
        <time>2022-08-24T09:01:53Z</time>
      </trkpt>
      <trkpt lat="48.93977" lon="2.11415">
        <ele>103.6</ele>
        <time>2022-08-24T09:01:58Z</time>
      </trkpt>
      <trkpt lat="48.93981" lon="2.11421">
        <ele>103.6</ele>
        <time>2022-08-24T09:02:03Z</time>
      </trkpt>
      <trkpt lat="48.93987" lon="2.11428">
        <ele>103.9</ele>
        <time>2022-08-24T09:02:09Z</time>
      </trkpt>
      <trkpt lat="48.93994" lon="2.11435">
        <ele>104.3</ele>
        <time>2022-08-24T09:02:15Z</time>
      </trkpt>
      <trkpt lat="48.94001" lon="2.1144">
        <ele>104.5</ele>
        <time>2022-08-24T09:02:20Z</time>
      </trkpt>
      <trkpt lat="48.94007" lon="2.11448">
        <ele>104.7</ele>
        <time>2022-08-24T09:02:25Z</time>
      </trkpt>
      <trkpt lat="48.94016" lon="2.1146">
        <ele>105</ele>
        <time>2022-08-24T09:02:31Z</time>
      </trkpt>
      <trkpt lat="48.94022" lon="2.11466">
        <ele>105.4</ele>
        <time>2022-08-24T09:02:36Z</time>
      </trkpt>
      <trkpt lat="48.94029" lon="2.11479">
        <ele>105.8</ele>
        <time>2022-08-24T09:02:42Z</time>
      </trkpt>
      <trkpt lat="48.94034" lon="2.11488">
        <ele>105.9</ele>
        <time>2022-08-24T09:02:48Z</time>
      </trkpt>
      <trkpt lat="48.9404" lon="2.11497">
        <ele>105.4</ele>
        <time>2022-08-24T09:02:54Z</time>
      </trkpt>
      <trkpt lat="48.94044" lon="2.11505">
        <ele>104.9</ele>
        <time>2022-08-24T09:02:59Z</time>
      </trkpt>
      <trkpt lat="48.94049" lon="2.11508">
        <ele>104.4</ele>
        <time>2022-08-24T09:03:05Z</time>
      </trkpt>
      <trkpt lat="48.94055" lon="2.11513">
        <ele>104.1</ele>
        <time>2022-08-24T09:03:10Z</time>
      </trkpt>
      <trkpt lat="48.94064" lon="2.11523">
        <ele>104</ele>
        <time>2022-08-24T09:03:16Z</time>
      </trkpt>
      <trkpt lat="48.9407" lon="2.11531">
        <ele>103.9</ele>
        <time>2022-08-24T09:03:21Z</time>
      </trkpt>
      <trkpt lat="48.94078" lon="2.11542">
        <ele>103.9</ele>
        <time>2022-08-24T09:03:27Z</time>
      </trkpt>
      <trkpt lat="48.94084" lon="2.11551">
        <ele>103.9</ele>
        <time>2022-08-24T09:03:32Z</time>
      </trkpt>
      <trkpt lat="48.9409" lon="2.11559">
        <ele>104.1</ele>
        <time>2022-08-24T09:03:37Z</time>
      </trkpt>
      <trkpt lat="48.94098" lon="2.1157">
        <ele>104.5</ele>
        <time>2022-08-24T09:03:43Z</time>
      </trkpt>
      <trkpt lat="48.94104" lon="2.11579">
        <ele>104.9</ele>
        <time>2022-08-24T09:03:48Z</time>
      </trkpt>
      <trkpt lat="48.94111" lon="2.11587">
        <ele>105.4</ele>
        <time>2022-08-24T09:03:54Z</time>
      </trkpt>
      <trkpt lat="48.94118" lon="2.11596">
        <ele>106</ele>
        <time>2022-08-24T09:03:59Z</time>
      </trkpt>
      <trkpt lat="48.94124" lon="2.11602">
        <ele>106.1</ele>
        <time>2022-08-24T09:04:05Z</time>
      </trkpt>
      <trkpt lat="48.9413" lon="2.11611">
        <ele>105.9</ele>
        <time>2022-08-24T09:04:10Z</time>
      </trkpt>
      <trkpt lat="48.94136" lon="2.11624">
        <ele>105.5</ele>
        <time>2022-08-24T09:04:16Z</time>
      </trkpt>
      <trkpt lat="48.94138" lon="2.11637">
        <ele>105.3</ele>
        <time>2022-08-24T09:04:21Z</time>
      </trkpt>
      <trkpt lat="48.94141" lon="2.11639">
        <ele>105.2</ele>
        <time>2022-08-24T09:04:26Z</time>
      </trkpt>
      <trkpt lat="48.9415" lon="2.11641">
        <ele>105.1</ele>
        <time>2022-08-24T09:04:31Z</time>
      </trkpt>
      <trkpt lat="48.94158" lon="2.11646">
        <ele>104.9</ele>
        <time>2022-08-24T09:04:37Z</time>
      </trkpt>
      <trkpt lat="48.94167" lon="2.11645">
        <ele>104.8</ele>
        <time>2022-08-24T09:04:42Z</time>
      </trkpt>
      <trkpt lat="48.94174" lon="2.11643">
        <ele>104.5</ele>
        <time>2022-08-24T09:04:48Z</time>
      </trkpt>
      <trkpt lat="48.94183" lon="2.11646">
        <ele>104.5</ele>
        <time>2022-08-24T09:04:53Z</time>
      </trkpt>
      <trkpt lat="48.94194" lon="2.11648">
        <ele>104.4</ele>
        <time>2022-08-24T09:04:59Z</time>
      </trkpt>
      <trkpt lat="48.942" lon="2.11648">
        <ele>104.4</ele>
        <time>2022-08-24T09:05:04Z</time>
      </trkpt>
      <trkpt lat="48.94208" lon="2.11651">
        <ele>104.6</ele>
        <time>2022-08-24T09:05:09Z</time>
      </trkpt>
      <trkpt lat="48.94218" lon="2.1165">
        <ele>105.1</ele>
        <time>2022-08-24T09:05:14Z</time>
      </trkpt>
      <trkpt lat="48.94226" lon="2.11645">
        <ele>105.9</ele>
        <time>2022-08-24T09:05:20Z</time>
      </trkpt>
      <trkpt lat="48.94237" lon="2.11653">
        <ele>106.1</ele>
        <time>2022-08-24T09:05:26Z</time>
      </trkpt>
      <trkpt lat="48.94247" lon="2.11661">
        <ele>105.9</ele>
        <time>2022-08-24T09:05:32Z</time>
      </trkpt>
      <trkpt lat="48.94251" lon="2.1166">
        <ele>106.3</ele>
        <time>2022-08-24T09:05:37Z</time>
      </trkpt>
      <trkpt lat="48.94258" lon="2.1166">
        <ele>106.4</ele>
        <time>2022-08-24T09:05:42Z</time>
      </trkpt>
      <trkpt lat="48.94266" lon="2.1166">
        <ele>106.2</ele>
        <time>2022-08-24T09:05:47Z</time>
      </trkpt>
      <trkpt lat="48.94273" lon="2.1166">
        <ele>105.9</ele>
        <time>2022-08-24T09:05:53Z</time>
      </trkpt>
      <trkpt lat="48.94282" lon="2.11663">
        <ele>105.5</ele>
        <time>2022-08-24T09:05:59Z</time>
      </trkpt>
      <trkpt lat="48.94289" lon="2.11665">
        <ele>105.1</ele>
        <time>2022-08-24T09:06:04Z</time>
      </trkpt>
      <trkpt lat="48.94299" lon="2.11669">
        <ele>104.8</ele>
        <time>2022-08-24T09:06:10Z</time>
      </trkpt>
      <trkpt lat="48.94307" lon="2.11671">
        <ele>104.8</ele>
        <time>2022-08-24T09:06:16Z</time>
      </trkpt>
      <trkpt lat="48.94314" lon="2.11669">
        <ele>104.6</ele>
        <time>2022-08-24T09:06:21Z</time>
      </trkpt>
      <trkpt lat="48.94322" lon="2.11671">
        <ele>103.9</ele>
        <time>2022-08-24T09:06:27Z</time>
      </trkpt>
      <trkpt lat="48.9433" lon="2.11671">
        <ele>103.3</ele>
        <time>2022-08-24T09:06:32Z</time>
      </trkpt>
      <trkpt lat="48.94339" lon="2.11675">
        <ele>102.6</ele>
        <time>2022-08-24T09:06:38Z</time>
      </trkpt>
      <trkpt lat="48.94349" lon="2.11668">
        <ele>102.1</ele>
        <time>2022-08-24T09:06:44Z</time>
      </trkpt>
      <trkpt lat="48.94357" lon="2.11662">
        <ele>101.9</ele>
        <time>2022-08-24T09:06:50Z</time>
      </trkpt>
      <trkpt lat="48.94364" lon="2.11656">
        <ele>101.6</ele>
        <time>2022-08-24T09:06:55Z</time>
      </trkpt>
      <trkpt lat="48.94368" lon="2.11648">
        <ele>101.3</ele>
        <time>2022-08-24T09:07:00Z</time>
      </trkpt>
      <trkpt lat="48.94371" lon="2.11636">
        <ele>100.8</ele>
        <time>2022-08-24T09:07:06Z</time>
      </trkpt>
      <trkpt lat="48.94374" lon="2.11623">
        <ele>100.3</ele>
        <time>2022-08-24T09:07:11Z</time>
      </trkpt>
      <trkpt lat="48.94375" lon="2.11608">
        <ele>100.2</ele>
        <time>2022-08-24T09:07:17Z</time>
      </trkpt>
      <trkpt lat="48.94376" lon="2.11598">
        <ele>100</ele>
        <time>2022-08-24T09:07:22Z</time>
      </trkpt>
      <trkpt lat="48.94377" lon="2.11583">
        <ele>99.9</ele>
        <time>2022-08-24T09:07:28Z</time>
      </trkpt>
      <trkpt lat="48.94374" lon="2.11571">
        <ele>99.7</ele>
        <time>2022-08-24T09:07:33Z</time>
      </trkpt>
      <trkpt lat="48.94374" lon="2.1157">
        <ele>99.6</ele>
        <time>2022-08-24T09:07:39Z</time>
      </trkpt>
      <trkpt lat="48.94373" lon="2.11567">
        <ele>99.5</ele>
        <time>2022-08-24T09:07:45Z</time>
      </trkpt>
      <trkpt lat="48.94374" lon="2.11566">
        <ele>99.6</ele>
        <time>2022-08-24T09:07:51Z</time>
      </trkpt>
      <trkpt lat="48.94374" lon="2.11567">
        <ele>99.8</ele>
        <time>2022-08-24T09:08:08Z</time>
      </trkpt>
      <trkpt lat="48.94372" lon="2.11558">
        <ele>101</ele>
        <time>2022-08-24T09:08:20Z</time>
      </trkpt>
      <trkpt lat="48.94372" lon="2.11548">
        <ele>101.6</ele>
        <time>2022-08-24T09:08:26Z</time>
      </trkpt>
      <trkpt lat="48.94372" lon="2.11536">
        <ele>101.9</ele>
        <time>2022-08-24T09:08:32Z</time>
      </trkpt>
      <trkpt lat="48.94373" lon="2.11527">
        <ele>102.2</ele>
        <time>2022-08-24T09:08:38Z</time>
      </trkpt>
      <trkpt lat="48.94376" lon="2.1152">
        <ele>102</ele>
        <time>2022-08-24T09:08:44Z</time>
      </trkpt>
      <trkpt lat="48.94377" lon="2.11516">
        <ele>101.5</ele>
        <time>2022-08-24T09:08:49Z</time>
      </trkpt>
      <trkpt lat="48.94379" lon="2.1151">
        <ele>100.9</ele>
        <time>2022-08-24T09:08:54Z</time>
      </trkpt>
      <trkpt lat="48.9438" lon="2.11501">
        <ele>100.3</ele>
        <time>2022-08-24T09:09:00Z</time>
      </trkpt>
      <trkpt lat="48.94379" lon="2.11492">
        <ele>99.9</ele>
        <time>2022-08-24T09:09:05Z</time>
      </trkpt>
      <trkpt lat="48.94376" lon="2.1148">
        <ele>99.2</ele>
        <time>2022-08-24T09:09:11Z</time>
      </trkpt>
      <trkpt lat="48.94372" lon="2.11468">
        <ele>98.3</ele>
        <time>2022-08-24T09:09:16Z</time>
      </trkpt>
      <trkpt lat="48.94369" lon="2.11453">
        <ele>97.3</ele>
        <time>2022-08-24T09:09:22Z</time>
      </trkpt>
      <trkpt lat="48.94368" lon="2.1144">
        <ele>96.3</ele>
        <time>2022-08-24T09:09:27Z</time>
      </trkpt>
      <trkpt lat="48.94369" lon="2.11421">
        <ele>95.6</ele>
        <time>2022-08-24T09:09:33Z</time>
      </trkpt>
      <trkpt lat="48.94371" lon="2.11404">
        <ele>95.5</ele>
        <time>2022-08-24T09:09:39Z</time>
      </trkpt>
      <trkpt lat="48.94373" lon="2.11392">
        <ele>95.5</ele>
        <time>2022-08-24T09:09:44Z</time>
      </trkpt>
      <trkpt lat="48.94373" lon="2.11382">
        <ele>95.3</ele>
        <time>2022-08-24T09:09:49Z</time>
      </trkpt>
      <trkpt lat="48.94373" lon="2.1137">
        <ele>94.9</ele>
        <time>2022-08-24T09:09:55Z</time>
      </trkpt>
      <trkpt lat="48.94372" lon="2.11355">
        <ele>94.5</ele>
        <time>2022-08-24T09:10:01Z</time>
      </trkpt>
      <trkpt lat="48.94372" lon="2.11349">
        <ele>94.4</ele>
        <time>2022-08-24T09:10:06Z</time>
      </trkpt>
      <trkpt lat="48.94372" lon="2.1135">
        <ele>94.2</ele>
        <time>2022-08-24T09:10:11Z</time>
      </trkpt>
      <trkpt lat="48.94374" lon="2.11355">
        <ele>93.6</ele>
        <time>2022-08-24T09:10:17Z</time>
      </trkpt>
      <trkpt lat="48.94378" lon="2.11362">
        <ele>93.1</ele>
        <time>2022-08-24T09:10:23Z</time>
      </trkpt>
      <trkpt lat="48.94384" lon="2.11366">
        <ele>92.8</ele>
        <time>2022-08-24T09:10:29Z</time>
      </trkpt>
      <trkpt lat="48.94391" lon="2.11371">
        <ele>92.7</ele>
        <time>2022-08-24T09:10:35Z</time>
      </trkpt>
      <trkpt lat="48.94398" lon="2.11374">
        <ele>92.9</ele>
        <time>2022-08-24T09:10:40Z</time>
      </trkpt>
      <trkpt lat="48.94409" lon="2.11376">
        <ele>93.5</ele>
        <time>2022-08-24T09:10:46Z</time>
      </trkpt>
      <trkpt lat="48.94416" lon="2.11379">
        <ele>94.2</ele>
        <time>2022-08-24T09:10:51Z</time>
      </trkpt>
      <trkpt lat="48.94424" lon="2.11381">
        <ele>95</ele>
        <time>2022-08-24T09:10:56Z</time>
      </trkpt>
      <trkpt lat="48.94432" lon="2.11384">
        <ele>96.1</ele>
        <time>2022-08-24T09:11:02Z</time>
      </trkpt>
      <trkpt lat="48.94442" lon="2.11387">
        <ele>97.1</ele>
        <time>2022-08-24T09:11:08Z</time>
      </trkpt>
      <trkpt lat="48.94453" lon="2.11389">
        <ele>98.2</ele>
        <time>2022-08-24T09:11:14Z</time>
      </trkpt>
      <trkpt lat="48.94462" lon="2.11393">
        <ele>99.3</ele>
        <time>2022-08-24T09:11:20Z</time>
      </trkpt>
      <trkpt lat="48.9447" lon="2.11395">
        <ele>100.1</ele>
        <time>2022-08-24T09:11:25Z</time>
      </trkpt>
      <trkpt lat="48.94478" lon="2.11388">
        <ele>100.3</ele>
        <time>2022-08-24T09:11:31Z</time>
      </trkpt>
      <trkpt lat="48.94486" lon="2.11377">
        <ele>100.2</ele>
        <time>2022-08-24T09:11:37Z</time>
      </trkpt>
      <trkpt lat="48.94493" lon="2.11363">
        <ele>100</ele>
        <time>2022-08-24T09:11:43Z</time>
      </trkpt>
      <trkpt lat="48.94498" lon="2.11352">
        <ele>100.1</ele>
        <time>2022-08-24T09:11:48Z</time>
      </trkpt>
      <trkpt lat="48.94503" lon="2.11343">
        <ele>100.3</ele>
        <time>2022-08-24T09:11:53Z</time>
      </trkpt>
      <trkpt lat="48.94507" lon="2.11332">
        <ele>100.8</ele>
        <time>2022-08-24T09:11:59Z</time>
      </trkpt>
      <trkpt lat="48.9451" lon="2.1132">
        <ele>101.6</ele>
        <time>2022-08-24T09:12:05Z</time>
      </trkpt>
      <trkpt lat="48.94513" lon="2.1131">
        <ele>101.9</ele>
        <time>2022-08-24T09:12:10Z</time>
      </trkpt>
      <trkpt lat="48.94516" lon="2.11298">
        <ele>102.2</ele>
        <time>2022-08-24T09:12:16Z</time>
      </trkpt>
      <trkpt lat="48.94518" lon="2.11288">
        <ele>102.3</ele>
        <time>2022-08-24T09:12:21Z</time>
      </trkpt>
      <trkpt lat="48.94523" lon="2.11278">
        <ele>102.6</ele>
        <time>2022-08-24T09:12:27Z</time>
      </trkpt>
      <trkpt lat="48.94526" lon="2.11268">
        <ele>103.1</ele>
        <time>2022-08-24T09:12:33Z</time>
      </trkpt>
      <trkpt lat="48.94528" lon="2.11258">
        <ele>103.4</ele>
        <time>2022-08-24T09:12:38Z</time>
      </trkpt>
      <trkpt lat="48.9453" lon="2.11247">
        <ele>103.7</ele>
        <time>2022-08-24T09:12:44Z</time>
      </trkpt>
      <trkpt lat="48.94535" lon="2.11237">
        <ele>103.8</ele>
        <time>2022-08-24T09:12:50Z</time>
      </trkpt>
      <trkpt lat="48.94539" lon="2.1123">
        <ele>103.5</ele>
        <time>2022-08-24T09:12:55Z</time>
      </trkpt>
      <trkpt lat="48.94544" lon="2.1122">
        <ele>102.9</ele>
        <time>2022-08-24T09:13:01Z</time>
      </trkpt>
      <trkpt lat="48.94549" lon="2.11212">
        <ele>102.6</ele>
        <time>2022-08-24T09:13:06Z</time>
      </trkpt>
      <trkpt lat="48.94553" lon="2.11204">
        <ele>102.7</ele>
        <time>2022-08-24T09:13:12Z</time>
      </trkpt>
      <trkpt lat="48.94557" lon="2.11196">
        <ele>103</ele>
        <time>2022-08-24T09:13:18Z</time>
      </trkpt>
      <trkpt lat="48.94562" lon="2.11187">
        <ele>103</ele>
        <time>2022-08-24T09:13:23Z</time>
      </trkpt>
      <trkpt lat="48.94566" lon="2.11179">
        <ele>103.1</ele>
        <time>2022-08-24T09:13:28Z</time>
      </trkpt>
      <trkpt lat="48.94571" lon="2.11172">
        <ele>103.2</ele>
        <time>2022-08-24T09:13:34Z</time>
      </trkpt>
      <trkpt lat="48.94572" lon="2.11165">
        <ele>103.2</ele>
        <time>2022-08-24T09:13:39Z</time>
      </trkpt>
      <trkpt lat="48.94574" lon="2.11155">
        <ele>103.2</ele>
        <time>2022-08-24T09:13:45Z</time>
      </trkpt>
      <trkpt lat="48.94575" lon="2.11142">
        <ele>102.9</ele>
        <time>2022-08-24T09:13:51Z</time>
      </trkpt>
      <trkpt lat="48.94575" lon="2.1113">
        <ele>102.4</ele>
        <time>2022-08-24T09:13:56Z</time>
      </trkpt>
      <trkpt lat="48.94574" lon="2.11116">
        <ele>101.9</ele>
        <time>2022-08-24T09:14:02Z</time>
      </trkpt>
      <trkpt lat="48.94574" lon="2.11104">
        <ele>101.6</ele>
        <time>2022-08-24T09:14:07Z</time>
      </trkpt>
      <trkpt lat="48.94574" lon="2.11091">
        <ele>101.2</ele>
        <time>2022-08-24T09:14:13Z</time>
      </trkpt>
      <trkpt lat="48.94574" lon="2.11079">
        <ele>100.8</ele>
        <time>2022-08-24T09:14:18Z</time>
      </trkpt>
      <trkpt lat="48.94575" lon="2.11063">
        <ele>100.6</ele>
        <time>2022-08-24T09:14:24Z</time>
      </trkpt>
      <trkpt lat="48.94577" lon="2.11049">
        <ele>100.6</ele>
        <time>2022-08-24T09:14:29Z</time>
      </trkpt>
      <trkpt lat="48.94579" lon="2.11038">
        <ele>100.6</ele>
        <time>2022-08-24T09:14:35Z</time>
      </trkpt>
      <trkpt lat="48.94579" lon="2.11026">
        <ele>100.3</ele>
        <time>2022-08-24T09:14:41Z</time>
      </trkpt>
      <trkpt lat="48.94578" lon="2.11014">
        <ele>99.9</ele>
        <time>2022-08-24T09:14:46Z</time>
      </trkpt>
      <trkpt lat="48.94576" lon="2.11005">
        <ele>99.3</ele>
        <time>2022-08-24T09:14:51Z</time>
      </trkpt>
      <trkpt lat="48.94575" lon="2.10993">
        <ele>98.6</ele>
        <time>2022-08-24T09:14:57Z</time>
      </trkpt>
      <trkpt lat="48.94574" lon="2.10982">
        <ele>98.2</ele>
        <time>2022-08-24T09:15:02Z</time>
      </trkpt>
      <trkpt lat="48.94575" lon="2.10972">
        <ele>98</ele>
        <time>2022-08-24T09:15:07Z</time>
      </trkpt>
      <trkpt lat="48.94577" lon="2.10957">
        <ele>97.9</ele>
        <time>2022-08-24T09:15:13Z</time>
      </trkpt>
      <trkpt lat="48.94579" lon="2.10942">
        <ele>97.8</ele>
        <time>2022-08-24T09:15:19Z</time>
      </trkpt>
      <trkpt lat="48.94579" lon="2.10931">
        <ele>97.8</ele>
        <time>2022-08-24T09:15:24Z</time>
      </trkpt>
      <trkpt lat="48.94579" lon="2.10917">
        <ele>97.8</ele>
        <time>2022-08-24T09:15:30Z</time>
      </trkpt>
      <trkpt lat="48.94581" lon="2.1091">
        <ele>97.6</ele>
        <time>2022-08-24T09:15:36Z</time>
      </trkpt>
      <trkpt lat="48.94585" lon="2.10909">
        <ele>97.2</ele>
        <time>2022-08-24T09:15:41Z</time>
      </trkpt>
      <trkpt lat="48.94593" lon="2.10912">
        <ele>97.1</ele>
        <time>2022-08-24T09:15:47Z</time>
      </trkpt>
      <trkpt lat="48.94602" lon="2.10916">
        <ele>97</ele>
        <time>2022-08-24T09:15:52Z</time>
      </trkpt>
      <trkpt lat="48.94618" lon="2.10922">
        <ele>97.4</ele>
        <time>2022-08-24T09:15:58Z</time>
      </trkpt>
      <trkpt lat="48.94628" lon="2.10924">
        <ele>97.5</ele>
        <time>2022-08-24T09:16:04Z</time>
      </trkpt>
      <trkpt lat="48.94635" lon="2.10926">
        <ele>97.6</ele>
        <time>2022-08-24T09:16:09Z</time>
      </trkpt>
      <trkpt lat="48.94639" lon="2.10928">
        <ele>97.8</ele>
        <time>2022-08-24T09:16:14Z</time>
      </trkpt>
      <trkpt lat="48.94645" lon="2.10931">
        <ele>97.8</ele>
        <time>2022-08-24T09:16:20Z</time>
      </trkpt>
      <trkpt lat="48.94653" lon="2.10934">
        <ele>97.8</ele>
        <time>2022-08-24T09:16:26Z</time>
      </trkpt>
      <trkpt lat="48.94663" lon="2.1094">
        <ele>98.1</ele>
        <time>2022-08-24T09:16:32Z</time>
      </trkpt>
      <trkpt lat="48.94674" lon="2.10946">
        <ele>98</ele>
        <time>2022-08-24T09:16:38Z</time>
      </trkpt>
      <trkpt lat="48.94684" lon="2.10948">
        <ele>97.9</ele>
        <time>2022-08-24T09:16:43Z</time>
      </trkpt>
      <trkpt lat="48.94694" lon="2.1095">
        <ele>98</ele>
        <time>2022-08-24T09:16:49Z</time>
      </trkpt>
      <trkpt lat="48.947" lon="2.10951">
        <ele>98</ele>
        <time>2022-08-24T09:16:54Z</time>
      </trkpt>
      <trkpt lat="48.94709" lon="2.10955">
        <ele>98.1</ele>
        <time>2022-08-24T09:17:00Z</time>
      </trkpt>
      <trkpt lat="48.94718" lon="2.10957">
        <ele>97.8</ele>
        <time>2022-08-24T09:17:06Z</time>
      </trkpt>
      <trkpt lat="48.94723" lon="2.10957">
        <ele>97.6</ele>
        <time>2022-08-24T09:17:11Z</time>
      </trkpt>
      <trkpt lat="48.94732" lon="2.10957">
        <ele>97.4</ele>
        <time>2022-08-24T09:17:17Z</time>
      </trkpt>
      <trkpt lat="48.94738" lon="2.10958">
        <ele>97.3</ele>
        <time>2022-08-24T09:17:23Z</time>
      </trkpt>
      <trkpt lat="48.94744" lon="2.10962">
        <ele>97.3</ele>
        <time>2022-08-24T09:17:28Z</time>
      </trkpt>
      <trkpt lat="48.94754" lon="2.10969">
        <ele>97.5</ele>
        <time>2022-08-24T09:17:34Z</time>
      </trkpt>
      <trkpt lat="48.94765" lon="2.10973">
        <ele>98</ele>
        <time>2022-08-24T09:17:40Z</time>
      </trkpt>
      <trkpt lat="48.94775" lon="2.10976">
        <ele>97.8</ele>
        <time>2022-08-24T09:17:46Z</time>
      </trkpt>
      <trkpt lat="48.94783" lon="2.10979">
        <ele>97.2</ele>
        <time>2022-08-24T09:17:52Z</time>
      </trkpt>
      <trkpt lat="48.94789" lon="2.10981">
        <ele>96.8</ele>
        <time>2022-08-24T09:17:57Z</time>
      </trkpt>
      <trkpt lat="48.94796" lon="2.10984">
        <ele>96.6</ele>
        <time>2022-08-24T09:18:03Z</time>
      </trkpt>
      <trkpt lat="48.94806" lon="2.10988">
        <ele>96.5</ele>
        <time>2022-08-24T09:18:09Z</time>
      </trkpt>
      <trkpt lat="48.94814" lon="2.10991">
        <ele>96.2</ele>
        <time>2022-08-24T09:18:15Z</time>
      </trkpt>
      <trkpt lat="48.94823" lon="2.10993">
        <ele>95.9</ele>
        <time>2022-08-24T09:18:21Z</time>
      </trkpt>
      <trkpt lat="48.94831" lon="2.10996">
        <ele>95.9</ele>
        <time>2022-08-24T09:18:26Z</time>
      </trkpt>
      <trkpt lat="48.94837" lon="2.10999">
        <ele>95.9</ele>
        <time>2022-08-24T09:18:31Z</time>
      </trkpt>
      <trkpt lat="48.94845" lon="2.11003">
        <ele>96.1</ele>
        <time>2022-08-24T09:18:37Z</time>
      </trkpt>
      <trkpt lat="48.94855" lon="2.11006">
        <ele>96.3</ele>
        <time>2022-08-24T09:18:43Z</time>
      </trkpt>
      <trkpt lat="48.94863" lon="2.11007">
        <ele>96.4</ele>
        <time>2022-08-24T09:18:48Z</time>
      </trkpt>
      <trkpt lat="48.9487" lon="2.11007">
        <ele>96.4</ele>
        <time>2022-08-24T09:18:54Z</time>
      </trkpt>
      <trkpt lat="48.94872" lon="2.11007">
        <ele>96.5</ele>
        <time>2022-08-24T09:19:00Z</time>
      </trkpt>
      <trkpt lat="48.94874" lon="2.11008">
        <ele>96.6</ele>
        <time>2022-08-24T09:19:05Z</time>
      </trkpt>
      <trkpt lat="48.94877" lon="2.1101">
        <ele>96.7</ele>
        <time>2022-08-24T09:19:10Z</time>
      </trkpt>
      <trkpt lat="48.94882" lon="2.11014">
        <ele>96.9</ele>
        <time>2022-08-24T09:19:15Z</time>
      </trkpt>
      <trkpt lat="48.94887" lon="2.11016">
        <ele>96.9</ele>
        <time>2022-08-24T09:19:21Z</time>
      </trkpt>
      <trkpt lat="48.94893" lon="2.11018">
        <ele>96.6</ele>
        <time>2022-08-24T09:19:27Z</time>
      </trkpt>
      <trkpt lat="48.94899" lon="2.11019">
        <ele>96.5</ele>
        <time>2022-08-24T09:19:32Z</time>
      </trkpt>
      <trkpt lat="48.94907" lon="2.11021">
        <ele>96.6</ele>
        <time>2022-08-24T09:19:37Z</time>
      </trkpt>
      <trkpt lat="48.94916" lon="2.11021">
        <ele>96.6</ele>
        <time>2022-08-24T09:19:43Z</time>
      </trkpt>
      <trkpt lat="48.94923" lon="2.11021">
        <ele>96.7</ele>
        <time>2022-08-24T09:19:49Z</time>
      </trkpt>
      <trkpt lat="48.9493" lon="2.11021">
        <ele>96.7</ele>
        <time>2022-08-24T09:19:55Z</time>
      </trkpt>
      <trkpt lat="48.94934" lon="2.11022">
        <ele>96.6</ele>
        <time>2022-08-24T09:20:00Z</time>
      </trkpt>
      <trkpt lat="48.94939" lon="2.11026">
        <ele>96.5</ele>
        <time>2022-08-24T09:20:05Z</time>
      </trkpt>
      <trkpt lat="48.94944" lon="2.11028">
        <ele>96.4</ele>
        <time>2022-08-24T09:20:11Z</time>
      </trkpt>
      <trkpt lat="48.94947" lon="2.11028">
        <ele>96</ele>
        <time>2022-08-24T09:20:16Z</time>
      </trkpt>
      <trkpt lat="48.9495" lon="2.11028">
        <ele>95.1</ele>
        <time>2022-08-24T09:20:22Z</time>
      </trkpt>
      <trkpt lat="48.94955" lon="2.11028">
        <ele>94.5</ele>
        <time>2022-08-24T09:20:27Z</time>
      </trkpt>
      <trkpt lat="48.94961" lon="2.11029">
        <ele>93.6</ele>
        <time>2022-08-24T09:20:33Z</time>
      </trkpt>
      <trkpt lat="48.94969" lon="2.1103">
        <ele>92.9</ele>
        <time>2022-08-24T09:20:39Z</time>
      </trkpt>
      <trkpt lat="48.94978" lon="2.11034">
        <ele>92.2</ele>
        <time>2022-08-24T09:20:44Z</time>
      </trkpt>
      <trkpt lat="48.94991" lon="2.11041">
        <ele>92</ele>
        <time>2022-08-24T09:20:50Z</time>
      </trkpt>
      <trkpt lat="48.95004" lon="2.11046">
        <ele>92</ele>
        <time>2022-08-24T09:20:56Z</time>
      </trkpt>
      <trkpt lat="48.95014" lon="2.11049">
        <ele>92.2</ele>
        <time>2022-08-24T09:21:02Z</time>
      </trkpt>
      <trkpt lat="48.95023" lon="2.11053">
        <ele>93</ele>
        <time>2022-08-24T09:21:07Z</time>
      </trkpt>
      <trkpt lat="48.95032" lon="2.11058">
        <ele>94.3</ele>
        <time>2022-08-24T09:21:13Z</time>
      </trkpt>
      <trkpt lat="48.95037" lon="2.11061">
        <ele>95</ele>
        <time>2022-08-24T09:21:18Z</time>
      </trkpt>
      <trkpt lat="48.95044" lon="2.11065">
        <ele>96.1</ele>
        <time>2022-08-24T09:21:24Z</time>
      </trkpt>
      <trkpt lat="48.9505" lon="2.11068">
        <ele>96.9</ele>
        <time>2022-08-24T09:21:29Z</time>
      </trkpt>
      <trkpt lat="48.95058" lon="2.11073">
        <ele>98.2</ele>
        <time>2022-08-24T09:21:35Z</time>
      </trkpt>
      <trkpt lat="48.95064" lon="2.11075">
        <ele>99.4</ele>
        <time>2022-08-24T09:21:40Z</time>
      </trkpt>
      <trkpt lat="48.9507" lon="2.11078">
        <ele>100.3</ele>
        <time>2022-08-24T09:21:45Z</time>
      </trkpt>
      <trkpt lat="48.95078" lon="2.11081">
        <ele>101.1</ele>
        <time>2022-08-24T09:21:51Z</time>
      </trkpt>
      <trkpt lat="48.95085" lon="2.11084">
        <ele>102</ele>
        <time>2022-08-24T09:21:56Z</time>
      </trkpt>
      <trkpt lat="48.95091" lon="2.11085">
        <ele>102.6</ele>
        <time>2022-08-24T09:22:01Z</time>
      </trkpt>
      <trkpt lat="48.95097" lon="2.11086">
        <ele>103.4</ele>
        <time>2022-08-24T09:22:07Z</time>
      </trkpt>
      <trkpt lat="48.95103" lon="2.11088">
        <ele>103.9</ele>
        <time>2022-08-24T09:22:12Z</time>
      </trkpt>
      <trkpt lat="48.95113" lon="2.11091">
        <ele>104.1</ele>
        <time>2022-08-24T09:22:18Z</time>
      </trkpt>
      <trkpt lat="48.95121" lon="2.11095">
        <ele>104.2</ele>
        <time>2022-08-24T09:22:23Z</time>
      </trkpt>
      <trkpt lat="48.95131" lon="2.11098">
        <ele>104.3</ele>
        <time>2022-08-24T09:22:29Z</time>
      </trkpt>
      <trkpt lat="48.95139" lon="2.11101">
        <ele>104.5</ele>
        <time>2022-08-24T09:22:34Z</time>
      </trkpt>
      <trkpt lat="48.95148" lon="2.11104">
        <ele>104.4</ele>
        <time>2022-08-24T09:22:40Z</time>
      </trkpt>
      <trkpt lat="48.95156" lon="2.11107">
        <ele>104.2</ele>
        <time>2022-08-24T09:22:45Z</time>
      </trkpt>
      <trkpt lat="48.95165" lon="2.11111">
        <ele>104.1</ele>
        <time>2022-08-24T09:22:51Z</time>
      </trkpt>
      <trkpt lat="48.95174" lon="2.11115">
        <ele>103.8</ele>
        <time>2022-08-24T09:22:57Z</time>
      </trkpt>
      <trkpt lat="48.95181" lon="2.11117">
        <ele>103.3</ele>
        <time>2022-08-24T09:23:03Z</time>
      </trkpt>
      <trkpt lat="48.95188" lon="2.11119">
        <ele>102.6</ele>
        <time>2022-08-24T09:23:09Z</time>
      </trkpt>
      <trkpt lat="48.95195" lon="2.11121">
        <ele>102.3</ele>
        <time>2022-08-24T09:23:14Z</time>
      </trkpt>
      <trkpt lat="48.95204" lon="2.11124">
        <ele>102.1</ele>
        <time>2022-08-24T09:23:20Z</time>
      </trkpt>
      <trkpt lat="48.95213" lon="2.11126">
        <ele>101.8</ele>
        <time>2022-08-24T09:23:26Z</time>
      </trkpt>
      <trkpt lat="48.95222" lon="2.11127">
        <ele>101.7</ele>
        <time>2022-08-24T09:23:31Z</time>
      </trkpt>
      <trkpt lat="48.9523" lon="2.11127">
        <ele>102</ele>
        <time>2022-08-24T09:23:37Z</time>
      </trkpt>
      <trkpt lat="48.95237" lon="2.11127">
        <ele>102.2</ele>
        <time>2022-08-24T09:23:43Z</time>
      </trkpt>
      <trkpt lat="48.95244" lon="2.11126">
        <ele>102</ele>
        <time>2022-08-24T09:23:48Z</time>
      </trkpt>
      <trkpt lat="48.95251" lon="2.11126">
        <ele>102</ele>
        <time>2022-08-24T09:23:53Z</time>
      </trkpt>
      <trkpt lat="48.95259" lon="2.11127">
        <ele>102</ele>
        <time>2022-08-24T09:23:59Z</time>
      </trkpt>
      <trkpt lat="48.95268" lon="2.11126">
        <ele>102</ele>
        <time>2022-08-24T09:24:05Z</time>
      </trkpt>
      <trkpt lat="48.95276" lon="2.11124">
        <ele>102.1</ele>
        <time>2022-08-24T09:24:11Z</time>
      </trkpt>
      <trkpt lat="48.95284" lon="2.11121">
        <ele>102.2</ele>
        <time>2022-08-24T09:24:16Z</time>
      </trkpt>
      <trkpt lat="48.95293" lon="2.1112">
        <ele>102.2</ele>
        <time>2022-08-24T09:24:22Z</time>
      </trkpt>
      <trkpt lat="48.95301" lon="2.11119">
        <ele>102.3</ele>
        <time>2022-08-24T09:24:28Z</time>
      </trkpt>
      <trkpt lat="48.95308" lon="2.11117">
        <ele>102.4</ele>
        <time>2022-08-24T09:24:34Z</time>
      </trkpt>
      <trkpt lat="48.95314" lon="2.11115">
        <ele>102.3</ele>
        <time>2022-08-24T09:24:39Z</time>
      </trkpt>
      <trkpt lat="48.95322" lon="2.11114">
        <ele>101.8</ele>
        <time>2022-08-24T09:24:45Z</time>
      </trkpt>
      <trkpt lat="48.95329" lon="2.11113">
        <ele>101.4</ele>
        <time>2022-08-24T09:24:50Z</time>
      </trkpt>
      <trkpt lat="48.95336" lon="2.11112">
        <ele>101.2</ele>
        <time>2022-08-24T09:24:55Z</time>
      </trkpt>
      <trkpt lat="48.95343" lon="2.11112">
        <ele>100.7</ele>
        <time>2022-08-24T09:25:01Z</time>
      </trkpt>
      <trkpt lat="48.95351" lon="2.11111">
        <ele>100.3</ele>
        <time>2022-08-24T09:25:06Z</time>
      </trkpt>
      <trkpt lat="48.95361" lon="2.1111">
        <ele>100</ele>
        <time>2022-08-24T09:25:12Z</time>
      </trkpt>
      <trkpt lat="48.95369" lon="2.11109">
        <ele>99.6</ele>
        <time>2022-08-24T09:25:17Z</time>
      </trkpt>
      <trkpt lat="48.95377" lon="2.11107">
        <ele>99.3</ele>
        <time>2022-08-24T09:25:23Z</time>
      </trkpt>
      <trkpt lat="48.95384" lon="2.11106">
        <ele>99</ele>
        <time>2022-08-24T09:25:28Z</time>
      </trkpt>
      <trkpt lat="48.95391" lon="2.11105">
        <ele>98.7</ele>
        <time>2022-08-24T09:25:34Z</time>
      </trkpt>
      <trkpt lat="48.95396" lon="2.11105">
        <ele>98.5</ele>
        <time>2022-08-24T09:25:39Z</time>
      </trkpt>
      <trkpt lat="48.95407" lon="2.11108">
        <ele>98.2</ele>
        <time>2022-08-24T09:25:45Z</time>
      </trkpt>
      <trkpt lat="48.95414" lon="2.11113">
        <ele>97.8</ele>
        <time>2022-08-24T09:25:50Z</time>
      </trkpt>
      <trkpt lat="48.95422" lon="2.11121">
        <ele>97.3</ele>
        <time>2022-08-24T09:25:56Z</time>
      </trkpt>
      <trkpt lat="48.95429" lon="2.11128">
        <ele>96.7</ele>
        <time>2022-08-24T09:26:02Z</time>
      </trkpt>
      <trkpt lat="48.95437" lon="2.11137">
        <ele>96.3</ele>
        <time>2022-08-24T09:26:08Z</time>
      </trkpt>
      <trkpt lat="48.95445" lon="2.11143">
        <ele>96.1</ele>
        <time>2022-08-24T09:26:13Z</time>
      </trkpt>
      <trkpt lat="48.95452" lon="2.11154">
        <ele>95.8</ele>
        <time>2022-08-24T09:26:19Z</time>
      </trkpt>
      <trkpt lat="48.9546" lon="2.11161">
        <ele>95.2</ele>
        <time>2022-08-24T09:26:25Z</time>
      </trkpt>
      <trkpt lat="48.95469" lon="2.11168">
        <ele>94.7</ele>
        <time>2022-08-24T09:26:31Z</time>
      </trkpt>
      <trkpt lat="48.95475" lon="2.11175">
        <ele>94.3</ele>
        <time>2022-08-24T09:26:36Z</time>
      </trkpt>
      <trkpt lat="48.95481" lon="2.11183">
        <ele>93.7</ele>
        <time>2022-08-24T09:26:42Z</time>
      </trkpt>
      <trkpt lat="48.95489" lon="2.1119">
        <ele>93.2</ele>
        <time>2022-08-24T09:26:48Z</time>
      </trkpt>
      <trkpt lat="48.95494" lon="2.11196">
        <ele>93</ele>
        <time>2022-08-24T09:26:53Z</time>
      </trkpt>
      <trkpt lat="48.95501" lon="2.11204">
        <ele>92.5</ele>
        <time>2022-08-24T09:26:59Z</time>
      </trkpt>
      <trkpt lat="48.95508" lon="2.11211">
        <ele>92.3</ele>
        <time>2022-08-24T09:27:04Z</time>
      </trkpt>
      <trkpt lat="48.95516" lon="2.11221">
        <ele>91.9</ele>
        <time>2022-08-24T09:27:10Z</time>
      </trkpt>
      <trkpt lat="48.95522" lon="2.11228">
        <ele>91.5</ele>
        <time>2022-08-24T09:27:16Z</time>
      </trkpt>
      <trkpt lat="48.95529" lon="2.11235">
        <ele>91.3</ele>
        <time>2022-08-24T09:27:21Z</time>
      </trkpt>
      <trkpt lat="48.95537" lon="2.11243">
        <ele>91.2</ele>
        <time>2022-08-24T09:27:27Z</time>
      </trkpt>
      <trkpt lat="48.95546" lon="2.11252">
        <ele>91.2</ele>
        <time>2022-08-24T09:27:32Z</time>
      </trkpt>
      <trkpt lat="48.95554" lon="2.11261">
        <ele>91.3</ele>
        <time>2022-08-24T09:27:38Z</time>
      </trkpt>
      <trkpt lat="48.9556" lon="2.11268">
        <ele>91.4</ele>
        <time>2022-08-24T09:27:43Z</time>
      </trkpt>
      <trkpt lat="48.95566" lon="2.11274">
        <ele>91.6</ele>
        <time>2022-08-24T09:27:48Z</time>
      </trkpt>
      <trkpt lat="48.9557" lon="2.11278">
        <ele>91.6</ele>
        <time>2022-08-24T09:27:53Z</time>
      </trkpt>
      <trkpt lat="48.95574" lon="2.11283">
        <ele>91.4</ele>
        <time>2022-08-24T09:27:58Z</time>
      </trkpt>
      <trkpt lat="48.95582" lon="2.1129">
        <ele>91.3</ele>
        <time>2022-08-24T09:28:04Z</time>
      </trkpt>
      <trkpt lat="48.95589" lon="2.11296">
        <ele>91.4</ele>
        <time>2022-08-24T09:28:09Z</time>
      </trkpt>
      <trkpt lat="48.95597" lon="2.11305">
        <ele>91.4</ele>
        <time>2022-08-24T09:28:15Z</time>
      </trkpt>
      <trkpt lat="48.95605" lon="2.11314">
        <ele>91.1</ele>
        <time>2022-08-24T09:28:21Z</time>
      </trkpt>
      <trkpt lat="48.95611" lon="2.11322">
        <ele>90.7</ele>
        <time>2022-08-24T09:28:26Z</time>
      </trkpt>
      <trkpt lat="48.95618" lon="2.1133">
        <ele>90.3</ele>
        <time>2022-08-24T09:28:32Z</time>
      </trkpt>
      <trkpt lat="48.95626" lon="2.11336">
        <ele>89.8</ele>
        <time>2022-08-24T09:28:38Z</time>
      </trkpt>
      <trkpt lat="48.95632" lon="2.11341">
        <ele>89.4</ele>
        <time>2022-08-24T09:28:43Z</time>
      </trkpt>
      <trkpt lat="48.95639" lon="2.11347">
        <ele>88.5</ele>
        <time>2022-08-24T09:28:49Z</time>
      </trkpt>
      <trkpt lat="48.95644" lon="2.11352">
        <ele>88</ele>
        <time>2022-08-24T09:28:54Z</time>
      </trkpt>
      <trkpt lat="48.9565" lon="2.11358">
        <ele>87.7</ele>
        <time>2022-08-24T09:28:59Z</time>
      </trkpt>
      <trkpt lat="48.95657" lon="2.11366">
        <ele>87.6</ele>
        <time>2022-08-24T09:29:05Z</time>
      </trkpt>
      <trkpt lat="48.95663" lon="2.11373">
        <ele>87.7</ele>
        <time>2022-08-24T09:29:10Z</time>
      </trkpt>
      <trkpt lat="48.95669" lon="2.11383">
        <ele>88</ele>
        <time>2022-08-24T09:29:16Z</time>
      </trkpt>
      <trkpt lat="48.95676" lon="2.11392">
        <ele>88.6</ele>
        <time>2022-08-24T09:29:21Z</time>
      </trkpt>
      <trkpt lat="48.95683" lon="2.114">
        <ele>89.2</ele>
        <time>2022-08-24T09:29:26Z</time>
      </trkpt>
      <trkpt lat="48.9569" lon="2.11408">
        <ele>89.7</ele>
        <time>2022-08-24T09:29:32Z</time>
      </trkpt>
      <trkpt lat="48.95698" lon="2.11417">
        <ele>90.4</ele>
        <time>2022-08-24T09:29:38Z</time>
      </trkpt>
      <trkpt lat="48.95704" lon="2.11424">
        <ele>90.8</ele>
        <time>2022-08-24T09:29:43Z</time>
      </trkpt>
      <trkpt lat="48.95712" lon="2.1143">
        <ele>91.3</ele>
        <time>2022-08-24T09:29:49Z</time>
      </trkpt>
      <trkpt lat="48.95718" lon="2.11437">
        <ele>91.7</ele>
        <time>2022-08-24T09:29:54Z</time>
      </trkpt>
      <trkpt lat="48.95725" lon="2.11443">
        <ele>91.8</ele>
        <time>2022-08-24T09:29:59Z</time>
      </trkpt>
      <trkpt lat="48.95731" lon="2.11449">
        <ele>92</ele>
        <time>2022-08-24T09:30:04Z</time>
      </trkpt>
      <trkpt lat="48.95738" lon="2.11457">
        <ele>92.2</ele>
        <time>2022-08-24T09:30:10Z</time>
      </trkpt>
      <trkpt lat="48.95744" lon="2.11463">
        <ele>92.2</ele>
        <time>2022-08-24T09:30:15Z</time>
      </trkpt>
      <trkpt lat="48.95752" lon="2.1147">
        <ele>92.2</ele>
        <time>2022-08-24T09:30:21Z</time>
      </trkpt>
      <trkpt lat="48.95758" lon="2.11477">
        <ele>92.2</ele>
        <time>2022-08-24T09:30:26Z</time>
      </trkpt>
      <trkpt lat="48.95765" lon="2.11484">
        <ele>92.3</ele>
        <time>2022-08-24T09:30:31Z</time>
      </trkpt>
      <trkpt lat="48.95772" lon="2.11493">
        <ele>92.3</ele>
        <time>2022-08-24T09:30:37Z</time>
      </trkpt>
      <trkpt lat="48.95778" lon="2.11499">
        <ele>92.3</ele>
        <time>2022-08-24T09:30:42Z</time>
      </trkpt>
      <trkpt lat="48.95784" lon="2.11505">
        <ele>92.2</ele>
        <time>2022-08-24T09:30:47Z</time>
      </trkpt>
      <trkpt lat="48.95791" lon="2.11513">
        <ele>92</ele>
        <time>2022-08-24T09:30:53Z</time>
      </trkpt>
      <trkpt lat="48.95797" lon="2.11519">
        <ele>91.8</ele>
        <time>2022-08-24T09:30:58Z</time>
      </trkpt>
      <trkpt lat="48.95801" lon="2.11523">
        <ele>91.7</ele>
        <time>2022-08-24T09:31:04Z</time>
      </trkpt>
      <trkpt lat="48.95802" lon="2.11524">
        <ele>91.6</ele>
        <time>2022-08-24T09:31:09Z</time>
      </trkpt>
      <trkpt lat="48.95802" lon="2.11525">
        <ele>91.6</ele>
        <time>2022-08-24T09:31:15Z</time>
      </trkpt>
      <trkpt lat="48.95804" lon="2.11526">
        <ele>91.4</ele>
        <time>2022-08-24T09:31:26Z</time>
      </trkpt>
      <trkpt lat="48.95806" lon="2.11528">
        <ele>91.1</ele>
        <time>2022-08-24T09:31:32Z</time>
      </trkpt>
      <trkpt lat="48.95807" lon="2.1153">
        <ele>90.7</ele>
        <time>2022-08-24T09:31:37Z</time>
      </trkpt>
      <trkpt lat="48.95811" lon="2.1153">
        <ele>90.1</ele>
        <time>2022-08-24T09:31:43Z</time>
      </trkpt>
      <trkpt lat="48.95814" lon="2.11528">
        <ele>89.7</ele>
        <time>2022-08-24T09:31:49Z</time>
      </trkpt>
      <trkpt lat="48.95815" lon="2.11526">
        <ele>89.6</ele>
        <time>2022-08-24T09:31:55Z</time>
      </trkpt>
      <trkpt lat="48.95816" lon="2.11525">
        <ele>89.1</ele>
        <time>2022-08-24T09:32:01Z</time>
      </trkpt>
      <trkpt lat="48.95817" lon="2.11525">
        <ele>88.8</ele>
        <time>2022-08-24T09:32:22Z</time>
      </trkpt>
      <trkpt lat="48.95818" lon="2.11524">
        <ele>88.5</ele>
        <time>2022-08-24T09:32:29Z</time>
      </trkpt>
      <trkpt lat="48.95819" lon="2.11524">
        <ele>88.5</ele>
        <time>2022-08-24T09:32:35Z</time>
      </trkpt>
      <trkpt lat="48.95819" lon="2.11523">
        <ele>87.9</ele>
        <time>2022-08-24T09:33:04Z</time>
      </trkpt>
      <trkpt lat="48.95818" lon="2.11523">
        <ele>87.9</ele>
        <time>2022-08-24T09:33:32Z</time>
      </trkpt>
      <trkpt lat="48.95821" lon="2.11534">
        <ele>88.8</ele>
        <time>2022-08-24T09:34:01Z</time>
      </trkpt>
      <trkpt lat="48.95828" lon="2.11543">
        <ele>89.1</ele>
        <time>2022-08-24T09:34:06Z</time>
      </trkpt>
      <trkpt lat="48.95834" lon="2.11551">
        <ele>89.3</ele>
        <time>2022-08-24T09:34:12Z</time>
      </trkpt>
      <trkpt lat="48.9584" lon="2.11555">
        <ele>89.4</ele>
        <time>2022-08-24T09:34:17Z</time>
      </trkpt>
      <trkpt lat="48.95846" lon="2.11558">
        <ele>89.5</ele>
        <time>2022-08-24T09:34:22Z</time>
      </trkpt>
      <trkpt lat="48.95854" lon="2.11561">
        <ele>89.9</ele>
        <time>2022-08-24T09:34:28Z</time>
      </trkpt>
      <trkpt lat="48.95863" lon="2.11565">
        <ele>90.4</ele>
        <time>2022-08-24T09:34:34Z</time>
      </trkpt>
      <trkpt lat="48.95871" lon="2.11569">
        <ele>91</ele>
        <time>2022-08-24T09:34:39Z</time>
      </trkpt>
      <trkpt lat="48.95879" lon="2.11573">
        <ele>91.6</ele>
        <time>2022-08-24T09:34:45Z</time>
      </trkpt>
      <trkpt lat="48.95886" lon="2.11575">
        <ele>92</ele>
        <time>2022-08-24T09:34:50Z</time>
      </trkpt>
      <trkpt lat="48.95894" lon="2.11579">
        <ele>92.3</ele>
        <time>2022-08-24T09:34:56Z</time>
      </trkpt>
      <trkpt lat="48.95902" lon="2.11583">
        <ele>92.7</ele>
        <time>2022-08-24T09:35:02Z</time>
      </trkpt>
      <trkpt lat="48.95908" lon="2.11586">
        <ele>93.1</ele>
        <time>2022-08-24T09:35:07Z</time>
      </trkpt>
      <trkpt lat="48.95915" lon="2.11591">
        <ele>93.6</ele>
        <time>2022-08-24T09:35:13Z</time>
      </trkpt>
      <trkpt lat="48.9592" lon="2.11594">
        <ele>93.7</ele>
        <time>2022-08-24T09:35:19Z</time>
      </trkpt>
      <trkpt lat="48.95925" lon="2.11594">
        <ele>93.7</ele>
        <time>2022-08-24T09:35:25Z</time>
      </trkpt>
      <trkpt lat="48.95931" lon="2.11595">
        <ele>93.7</ele>
        <time>2022-08-24T09:35:30Z</time>
      </trkpt>
      <trkpt lat="48.95939" lon="2.11597">
        <ele>93.6</ele>
        <time>2022-08-24T09:35:36Z</time>
      </trkpt>
      <trkpt lat="48.95946" lon="2.116">
        <ele>93.7</ele>
        <time>2022-08-24T09:35:41Z</time>
      </trkpt>
      <trkpt lat="48.95955" lon="2.11604">
        <ele>93.6</ele>
        <time>2022-08-24T09:35:47Z</time>
      </trkpt>
      <trkpt lat="48.95962" lon="2.11605">
        <ele>93.7</ele>
        <time>2022-08-24T09:35:52Z</time>
      </trkpt>
      <trkpt lat="48.9597" lon="2.11605">
        <ele>94.2</ele>
        <time>2022-08-24T09:35:58Z</time>
      </trkpt>
      <trkpt lat="48.95978" lon="2.11606">
        <ele>94.7</ele>
        <time>2022-08-24T09:36:04Z</time>
      </trkpt>
      <trkpt lat="48.95986" lon="2.11609">
        <ele>95</ele>
        <time>2022-08-24T09:36:09Z</time>
      </trkpt>
      <trkpt lat="48.95995" lon="2.11612">
        <ele>95.5</ele>
        <time>2022-08-24T09:36:15Z</time>
      </trkpt>
      <trkpt lat="48.96002" lon="2.11615">
        <ele>95.9</ele>
        <time>2022-08-24T09:36:20Z</time>
      </trkpt>
      <trkpt lat="48.96012" lon="2.11619">
        <ele>96.2</ele>
        <time>2022-08-24T09:36:26Z</time>
      </trkpt>
      <trkpt lat="48.9602" lon="2.11623">
        <ele>96.3</ele>
        <time>2022-08-24T09:36:31Z</time>
      </trkpt>
      <trkpt lat="48.9603" lon="2.11628">
        <ele>96.2</ele>
        <time>2022-08-24T09:36:37Z</time>
      </trkpt>
      <trkpt lat="48.9604" lon="2.11633">
        <ele>96</ele>
        <time>2022-08-24T09:36:43Z</time>
      </trkpt>
      <trkpt lat="48.96048" lon="2.11636">
        <ele>95.8</ele>
        <time>2022-08-24T09:36:48Z</time>
      </trkpt>
      <trkpt lat="48.96057" lon="2.1164">
        <ele>95.3</ele>
        <time>2022-08-24T09:36:54Z</time>
      </trkpt>
      <trkpt lat="48.96066" lon="2.11643">
        <ele>94.8</ele>
        <time>2022-08-24T09:37:00Z</time>
      </trkpt>
      <trkpt lat="48.96075" lon="2.11646">
        <ele>94.3</ele>
        <time>2022-08-24T09:37:05Z</time>
      </trkpt>
      <trkpt lat="48.96084" lon="2.11649">
        <ele>93.7</ele>
        <time>2022-08-24T09:37:11Z</time>
      </trkpt>
      <trkpt lat="48.96089" lon="2.11652">
        <ele>93.4</ele>
        <time>2022-08-24T09:37:16Z</time>
      </trkpt>
      <trkpt lat="48.96097" lon="2.11655">
        <ele>93.7</ele>
        <time>2022-08-24T09:37:22Z</time>
      </trkpt>
      <trkpt lat="48.96104" lon="2.11659">
        <ele>94.2</ele>
        <time>2022-08-24T09:37:27Z</time>
      </trkpt>
      <trkpt lat="48.96113" lon="2.11663">
        <ele>94.6</ele>
        <time>2022-08-24T09:37:32Z</time>
      </trkpt>
      <trkpt lat="48.9612" lon="2.11665">
        <ele>95</ele>
        <time>2022-08-24T09:37:37Z</time>
      </trkpt>
      <trkpt lat="48.96127" lon="2.11671">
        <ele>95.4</ele>
        <time>2022-08-24T09:37:43Z</time>
      </trkpt>
      <trkpt lat="48.96136" lon="2.11673">
        <ele>95.6</ele>
        <time>2022-08-24T09:37:49Z</time>
      </trkpt>
      <trkpt lat="48.96143" lon="2.11674">
        <ele>95.7</ele>
        <time>2022-08-24T09:37:54Z</time>
      </trkpt>
      <trkpt lat="48.96152" lon="2.11677">
        <ele>96</ele>
        <time>2022-08-24T09:38:00Z</time>
      </trkpt>
      <trkpt lat="48.96158" lon="2.11679">
        <ele>96.4</ele>
        <time>2022-08-24T09:38:05Z</time>
      </trkpt>
      <trkpt lat="48.96167" lon="2.11684">
        <ele>97</ele>
        <time>2022-08-24T09:38:11Z</time>
      </trkpt>
      <trkpt lat="48.96173" lon="2.11687">
        <ele>97.3</ele>
        <time>2022-08-24T09:38:17Z</time>
      </trkpt>
      <trkpt lat="48.96181" lon="2.11691">
        <ele>97.6</ele>
        <time>2022-08-24T09:38:22Z</time>
      </trkpt>
      <trkpt lat="48.9619" lon="2.11691">
        <ele>98.1</ele>
        <time>2022-08-24T09:38:28Z</time>
      </trkpt>
      <trkpt lat="48.96199" lon="2.11693">
        <ele>98.3</ele>
        <time>2022-08-24T09:38:34Z</time>
      </trkpt>
      <trkpt lat="48.96208" lon="2.11697">
        <ele>98.5</ele>
        <time>2022-08-24T09:38:40Z</time>
      </trkpt>
      <trkpt lat="48.96217" lon="2.117">
        <ele>98.9</ele>
        <time>2022-08-24T09:38:46Z</time>
      </trkpt>
      <trkpt lat="48.96225" lon="2.11703">
        <ele>99.5</ele>
        <time>2022-08-24T09:38:52Z</time>
      </trkpt>
      <trkpt lat="48.96231" lon="2.11705">
        <ele>99.7</ele>
        <time>2022-08-24T09:38:57Z</time>
      </trkpt>
      <trkpt lat="48.9624" lon="2.11708">
        <ele>99.6</ele>
        <time>2022-08-24T09:39:02Z</time>
      </trkpt>
      <trkpt lat="48.96249" lon="2.11709">
        <ele>99.1</ele>
        <time>2022-08-24T09:39:08Z</time>
      </trkpt>
      <trkpt lat="48.96259" lon="2.1171">
        <ele>98.7</ele>
        <time>2022-08-24T09:39:14Z</time>
      </trkpt>
      <trkpt lat="48.96266" lon="2.11713">
        <ele>98.3</ele>
        <time>2022-08-24T09:39:20Z</time>
      </trkpt>
      <trkpt lat="48.96274" lon="2.11718">
        <ele>98.1</ele>
        <time>2022-08-24T09:39:26Z</time>
      </trkpt>
      <trkpt lat="48.96283" lon="2.11722">
        <ele>97.8</ele>
        <time>2022-08-24T09:39:32Z</time>
      </trkpt>
      <trkpt lat="48.96292" lon="2.11724">
        <ele>97.5</ele>
        <time>2022-08-24T09:39:38Z</time>
      </trkpt>
      <trkpt lat="48.96297" lon="2.11726">
        <ele>97</ele>
        <time>2022-08-24T09:39:43Z</time>
      </trkpt>
      <trkpt lat="48.96301" lon="2.1172">
        <ele>96.3</ele>
        <time>2022-08-24T09:39:49Z</time>
      </trkpt>
      <trkpt lat="48.96303" lon="2.11723">
        <ele>96</ele>
        <time>2022-08-24T09:40:00Z</time>
      </trkpt>
      <trkpt lat="48.96309" lon="2.11729">
        <ele>96</ele>
        <time>2022-08-24T09:40:05Z</time>
      </trkpt>
      <trkpt lat="48.96316" lon="2.11731">
        <ele>96.1</ele>
        <time>2022-08-24T09:40:11Z</time>
      </trkpt>
      <trkpt lat="48.96323" lon="2.11733">
        <ele>96.2</ele>
        <time>2022-08-24T09:40:16Z</time>
      </trkpt>
      <trkpt lat="48.96328" lon="2.11736">
        <ele>96.6</ele>
        <time>2022-08-24T09:40:22Z</time>
      </trkpt>
      <trkpt lat="48.96333" lon="2.11736">
        <ele>96.9</ele>
        <time>2022-08-24T09:40:27Z</time>
      </trkpt>
      <trkpt lat="48.96339" lon="2.1174">
        <ele>97.1</ele>
        <time>2022-08-24T09:40:32Z</time>
      </trkpt>
      <trkpt lat="48.96345" lon="2.11743">
        <ele>97.3</ele>
        <time>2022-08-24T09:40:38Z</time>
      </trkpt>
      <trkpt lat="48.96351" lon="2.11746">
        <ele>97.6</ele>
        <time>2022-08-24T09:40:44Z</time>
      </trkpt>
      <trkpt lat="48.96359" lon="2.11749">
        <ele>97.8</ele>
        <time>2022-08-24T09:40:49Z</time>
      </trkpt>
      <trkpt lat="48.96366" lon="2.11747">
        <ele>97.9</ele>
        <time>2022-08-24T09:40:55Z</time>
      </trkpt>
      <trkpt lat="48.96366" lon="2.11746">
        <ele>97.9</ele>
        <time>2022-08-24T09:41:01Z</time>
      </trkpt>
      <trkpt lat="48.96366" lon="2.11747">
        <ele>97.8</ele>
        <time>2022-08-24T09:41:12Z</time>
      </trkpt>
      <trkpt lat="48.96366" lon="2.11744">
        <ele>97.9</ele>
        <time>2022-08-24T09:41:24Z</time>
      </trkpt>
      <trkpt lat="48.96365" lon="2.11742">
        <ele>97.9</ele>
        <time>2022-08-24T09:41:29Z</time>
      </trkpt>
      <trkpt lat="48.96366" lon="2.11741">
        <ele>98</ele>
        <time>2022-08-24T09:41:34Z</time>
      </trkpt>
      <trkpt lat="48.96367" lon="2.1174">
        <ele>98</ele>
        <time>2022-08-24T09:41:40Z</time>
      </trkpt>
      <trkpt lat="48.96367" lon="2.11739">
        <ele>98</ele>
        <time>2022-08-24T09:41:46Z</time>
      </trkpt>
      <trkpt lat="48.96368" lon="2.11739">
        <ele>98</ele>
        <time>2022-08-24T09:41:51Z</time>
      </trkpt>
      <trkpt lat="48.96368" lon="2.11738">
        <ele>98</ele>
        <time>2022-08-24T09:41:56Z</time>
      </trkpt>
      <trkpt lat="48.96368" lon="2.11737">
        <ele>97.9</ele>
        <time>2022-08-24T09:42:01Z</time>
      </trkpt>
      <trkpt lat="48.96368" lon="2.11736">
        <ele>97.6</ele>
        <time>2022-08-24T09:42:24Z</time>
      </trkpt>
      <trkpt lat="48.96368" lon="2.11735">
        <ele>97.5</ele>
        <time>2022-08-24T09:42:30Z</time>
      </trkpt>
      <trkpt lat="48.96367" lon="2.11728">
        <ele>97.2</ele>
        <time>2022-08-24T09:42:35Z</time>
      </trkpt>
      <trkpt lat="48.96363" lon="2.11721">
        <ele>96.9</ele>
        <time>2022-08-24T09:42:41Z</time>
      </trkpt>
      <trkpt lat="48.96363" lon="2.11708">
        <ele>96.9</ele>
        <time>2022-08-24T09:42:47Z</time>
      </trkpt>
      <trkpt lat="48.96363" lon="2.11696">
        <ele>96.7</ele>
        <time>2022-08-24T09:42:53Z</time>
      </trkpt>
      <trkpt lat="48.96363" lon="2.11687">
        <ele>96.2</ele>
        <time>2022-08-24T09:42:58Z</time>
      </trkpt>
      <trkpt lat="48.96362" lon="2.11674">
        <ele>95.9</ele>
        <time>2022-08-24T09:43:04Z</time>
      </trkpt>
      <trkpt lat="48.96363" lon="2.11662">
        <ele>95.8</ele>
        <time>2022-08-24T09:43:09Z</time>
      </trkpt>
      <trkpt lat="48.96364" lon="2.11649">
        <ele>95.8</ele>
        <time>2022-08-24T09:43:15Z</time>
      </trkpt>
      <trkpt lat="48.96365" lon="2.11639">
        <ele>96</ele>
        <time>2022-08-24T09:43:21Z</time>
      </trkpt>
      <trkpt lat="48.9637" lon="2.11635">
        <ele>96.5</ele>
        <time>2022-08-24T09:43:27Z</time>
      </trkpt>
      <trkpt lat="48.96377" lon="2.11637">
        <ele>96.9</ele>
        <time>2022-08-24T09:43:33Z</time>
      </trkpt>
      <trkpt lat="48.96382" lon="2.11635">
        <ele>97</ele>
        <time>2022-08-24T09:43:39Z</time>
      </trkpt>
      <trkpt lat="48.96382" lon="2.11636">
        <ele>97</ele>
        <time>2022-08-24T09:43:44Z</time>
      </trkpt>
      <trkpt lat="48.96382" lon="2.11635">
        <ele>96.9</ele>
        <time>2022-08-24T09:43:49Z</time>
      </trkpt>
      <trkpt lat="48.96385" lon="2.11632">
        <ele>96.7</ele>
        <time>2022-08-24T09:43:55Z</time>
      </trkpt>
      <trkpt lat="48.96392" lon="2.11633">
        <ele>96.4</ele>
        <time>2022-08-24T09:44:00Z</time>
      </trkpt>
      <trkpt lat="48.96401" lon="2.11633">
        <ele>96.2</ele>
        <time>2022-08-24T09:44:06Z</time>
      </trkpt>
      <trkpt lat="48.96411" lon="2.11634">
        <ele>96.1</ele>
        <time>2022-08-24T09:44:12Z</time>
      </trkpt>
      <trkpt lat="48.9642" lon="2.11636">
        <ele>96.3</ele>
        <time>2022-08-24T09:44:17Z</time>
      </trkpt>
      <trkpt lat="48.96431" lon="2.11637">
        <ele>96.3</ele>
        <time>2022-08-24T09:44:23Z</time>
      </trkpt>
      <trkpt lat="48.96438" lon="2.11639">
        <ele>96.3</ele>
        <time>2022-08-24T09:44:28Z</time>
      </trkpt>
      <trkpt lat="48.96445" lon="2.11636">
        <ele>95.9</ele>
        <time>2022-08-24T09:44:33Z</time>
      </trkpt>
      <trkpt lat="48.96452" lon="2.11627">
        <ele>94.6</ele>
        <time>2022-08-24T09:44:39Z</time>
      </trkpt>
      <trkpt lat="48.96456" lon="2.1162">
        <ele>93</ele>
        <time>2022-08-24T09:44:45Z</time>
      </trkpt>
      <trkpt lat="48.96461" lon="2.11609">
        <ele>91.2</ele>
        <time>2022-08-24T09:44:51Z</time>
      </trkpt>
      <trkpt lat="48.96463" lon="2.11597">
        <ele>90</ele>
        <time>2022-08-24T09:44:56Z</time>
      </trkpt>
      <trkpt lat="48.96466" lon="2.11583">
        <ele>88.8</ele>
        <time>2022-08-24T09:45:02Z</time>
      </trkpt>
      <trkpt lat="48.96468" lon="2.11568">
        <ele>88</ele>
        <time>2022-08-24T09:45:08Z</time>
      </trkpt>
      <trkpt lat="48.9647" lon="2.11556">
        <ele>87.3</ele>
        <time>2022-08-24T09:45:14Z</time>
      </trkpt>
      <trkpt lat="48.96472" lon="2.11544">
        <ele>86.9</ele>
        <time>2022-08-24T09:45:19Z</time>
      </trkpt>
      <trkpt lat="48.96474" lon="2.11529">
        <ele>86.4</ele>
        <time>2022-08-24T09:45:25Z</time>
      </trkpt>
      <trkpt lat="48.96476" lon="2.11517">
        <ele>85.8</ele>
        <time>2022-08-24T09:45:30Z</time>
      </trkpt>
      <trkpt lat="48.96478" lon="2.11503">
        <ele>85.4</ele>
        <time>2022-08-24T09:45:36Z</time>
      </trkpt>
      <trkpt lat="48.96481" lon="2.11489">
        <ele>85.5</ele>
        <time>2022-08-24T09:45:42Z</time>
      </trkpt>
      <trkpt lat="48.96484" lon="2.11475">
        <ele>85.4</ele>
        <time>2022-08-24T09:45:48Z</time>
      </trkpt>
      <trkpt lat="48.96486" lon="2.11461">
        <ele>85.1</ele>
        <time>2022-08-24T09:45:54Z</time>
      </trkpt>
      <trkpt lat="48.96488" lon="2.11447">
        <ele>84.9</ele>
        <time>2022-08-24T09:46:00Z</time>
      </trkpt>
      <trkpt lat="48.96489" lon="2.11436">
        <ele>84.7</ele>
        <time>2022-08-24T09:46:05Z</time>
      </trkpt>
      <trkpt lat="48.9649" lon="2.11421">
        <ele>84.6</ele>
        <time>2022-08-24T09:46:11Z</time>
      </trkpt>
      <trkpt lat="48.96492" lon="2.11408">
        <ele>84.4</ele>
        <time>2022-08-24T09:46:16Z</time>
      </trkpt>
      <trkpt lat="48.96493" lon="2.11394">
        <ele>84.7</ele>
        <time>2022-08-24T09:46:22Z</time>
      </trkpt>
      <trkpt lat="48.96495" lon="2.11384">
        <ele>84.8</ele>
        <time>2022-08-24T09:46:27Z</time>
      </trkpt>
      <trkpt lat="48.96498" lon="2.11374">
        <ele>84.8</ele>
        <time>2022-08-24T09:46:32Z</time>
      </trkpt>
      <trkpt lat="48.965" lon="2.11365">
        <ele>84.8</ele>
        <time>2022-08-24T09:46:37Z</time>
      </trkpt>
      <trkpt lat="48.96503" lon="2.11351">
        <ele>84.8</ele>
        <time>2022-08-24T09:46:42Z</time>
      </trkpt>
      <trkpt lat="48.96506" lon="2.11335">
        <ele>85.2</ele>
        <time>2022-08-24T09:46:48Z</time>
      </trkpt>
      <trkpt lat="48.96508" lon="2.11322">
        <ele>85.5</ele>
        <time>2022-08-24T09:46:53Z</time>
      </trkpt>
      <trkpt lat="48.96509" lon="2.11311">
        <ele>85.9</ele>
        <time>2022-08-24T09:46:58Z</time>
      </trkpt>
      <trkpt lat="48.96512" lon="2.11299">
        <ele>86.3</ele>
        <time>2022-08-24T09:47:04Z</time>
      </trkpt>
      <trkpt lat="48.96514" lon="2.11287">
        <ele>86.4</ele>
        <time>2022-08-24T09:47:09Z</time>
      </trkpt>
      <trkpt lat="48.96517" lon="2.11274">
        <ele>86.6</ele>
        <time>2022-08-24T09:47:15Z</time>
      </trkpt>
      <trkpt lat="48.9652" lon="2.11262">
        <ele>86.6</ele>
        <time>2022-08-24T09:47:21Z</time>
      </trkpt>
      <trkpt lat="48.96524" lon="2.11251">
        <ele>86.5</ele>
        <time>2022-08-24T09:47:26Z</time>
      </trkpt>
      <trkpt lat="48.96528" lon="2.11238">
        <ele>86.5</ele>
        <time>2022-08-24T09:47:32Z</time>
      </trkpt>
      <trkpt lat="48.96531" lon="2.11227">
        <ele>86.4</ele>
        <time>2022-08-24T09:47:37Z</time>
      </trkpt>
      <trkpt lat="48.96535" lon="2.11215">
        <ele>86.4</ele>
        <time>2022-08-24T09:47:43Z</time>
      </trkpt>
      <trkpt lat="48.96538" lon="2.11202">
        <ele>86.2</ele>
        <time>2022-08-24T09:47:49Z</time>
      </trkpt>
      <trkpt lat="48.96541" lon="2.11191">
        <ele>86.1</ele>
        <time>2022-08-24T09:47:54Z</time>
      </trkpt>
      <trkpt lat="48.96544" lon="2.1118">
        <ele>86.1</ele>
        <time>2022-08-24T09:47:59Z</time>
      </trkpt>
      <trkpt lat="48.96546" lon="2.11168">
        <ele>86</ele>
        <time>2022-08-24T09:48:05Z</time>
      </trkpt>
      <trkpt lat="48.96549" lon="2.11156">
        <ele>85.8</ele>
        <time>2022-08-24T09:48:11Z</time>
      </trkpt>
      <trkpt lat="48.96551" lon="2.11145">
        <ele>85.6</ele>
        <time>2022-08-24T09:48:16Z</time>
      </trkpt>
      <trkpt lat="48.96553" lon="2.11131">
        <ele>85.3</ele>
        <time>2022-08-24T09:48:22Z</time>
      </trkpt>
      <trkpt lat="48.96555" lon="2.11119">
        <ele>85.1</ele>
        <time>2022-08-24T09:48:27Z</time>
      </trkpt>
      <trkpt lat="48.96558" lon="2.11105">
        <ele>84.7</ele>
        <time>2022-08-24T09:48:33Z</time>
      </trkpt>
      <trkpt lat="48.96561" lon="2.11093">
        <ele>84.6</ele>
        <time>2022-08-24T09:48:39Z</time>
      </trkpt>
      <trkpt lat="48.96564" lon="2.1108">
        <ele>84.7</ele>
        <time>2022-08-24T09:48:45Z</time>
      </trkpt>
      <trkpt lat="48.96563" lon="2.11068">
        <ele>84.7</ele>
        <time>2022-08-24T09:48:51Z</time>
      </trkpt>
      <trkpt lat="48.96558" lon="2.11061">
        <ele>84.8</ele>
        <time>2022-08-24T09:48:57Z</time>
      </trkpt>
      <trkpt lat="48.96551" lon="2.11055">
        <ele>84.8</ele>
        <time>2022-08-24T09:49:03Z</time>
      </trkpt>
      <trkpt lat="48.96543" lon="2.11051">
        <ele>85</ele>
        <time>2022-08-24T09:49:08Z</time>
      </trkpt>
      <trkpt lat="48.96533" lon="2.11046">
        <ele>85.2</ele>
        <time>2022-08-24T09:49:14Z</time>
      </trkpt>
      <trkpt lat="48.96523" lon="2.1104">
        <ele>85</ele>
        <time>2022-08-24T09:49:20Z</time>
      </trkpt>
      <trkpt lat="48.96515" lon="2.11034">
        <ele>84.7</ele>
        <time>2022-08-24T09:49:26Z</time>
      </trkpt>
      <trkpt lat="48.96507" lon="2.1103">
        <ele>84.5</ele>
        <time>2022-08-24T09:49:32Z</time>
      </trkpt>
      <trkpt lat="48.965" lon="2.11026">
        <ele>84.2</ele>
        <time>2022-08-24T09:49:37Z</time>
      </trkpt>
      <trkpt lat="48.96492" lon="2.11021">
        <ele>84</ele>
        <time>2022-08-24T09:49:42Z</time>
      </trkpt>
      <trkpt lat="48.96482" lon="2.11015">
        <ele>83.8</ele>
        <time>2022-08-24T09:49:48Z</time>
      </trkpt>
      <trkpt lat="48.96473" lon="2.11011">
        <ele>83.5</ele>
        <time>2022-08-24T09:49:54Z</time>
      </trkpt>
      <trkpt lat="48.96466" lon="2.11006">
        <ele>83.3</ele>
        <time>2022-08-24T09:49:59Z</time>
      </trkpt>
      <trkpt lat="48.96458" lon="2.10999">
        <ele>83.5</ele>
        <time>2022-08-24T09:50:05Z</time>
      </trkpt>
      <trkpt lat="48.96452" lon="2.10994">
        <ele>83.7</ele>
        <time>2022-08-24T09:50:10Z</time>
      </trkpt>
      <trkpt lat="48.96443" lon="2.10988">
        <ele>83.9</ele>
        <time>2022-08-24T09:50:16Z</time>
      </trkpt>
      <trkpt lat="48.96436" lon="2.10984">
        <ele>84</ele>
        <time>2022-08-24T09:50:21Z</time>
      </trkpt>
      <trkpt lat="48.96427" lon="2.10978">
        <ele>84.4</ele>
        <time>2022-08-24T09:50:27Z</time>
      </trkpt>
      <trkpt lat="48.9642" lon="2.10974">
        <ele>84.5</ele>
        <time>2022-08-24T09:50:32Z</time>
      </trkpt>
      <trkpt lat="48.96412" lon="2.10972">
        <ele>84.6</ele>
        <time>2022-08-24T09:50:37Z</time>
      </trkpt>
      <trkpt lat="48.96404" lon="2.10969">
        <ele>84.9</ele>
        <time>2022-08-24T09:50:43Z</time>
      </trkpt>
      <trkpt lat="48.96397" lon="2.10966">
        <ele>85.2</ele>
        <time>2022-08-24T09:50:48Z</time>
      </trkpt>
      <trkpt lat="48.96388" lon="2.1096">
        <ele>85.5</ele>
        <time>2022-08-24T09:50:54Z</time>
      </trkpt>
      <trkpt lat="48.96381" lon="2.10956">
        <ele>85.7</ele>
        <time>2022-08-24T09:50:59Z</time>
      </trkpt>
      <trkpt lat="48.96372" lon="2.10951">
        <ele>85.8</ele>
        <time>2022-08-24T09:51:05Z</time>
      </trkpt>
      <trkpt lat="48.96365" lon="2.10946">
        <ele>85.6</ele>
        <time>2022-08-24T09:51:11Z</time>
      </trkpt>
      <trkpt lat="48.96358" lon="2.10941">
        <ele>85.4</ele>
        <time>2022-08-24T09:51:16Z</time>
      </trkpt>
      <trkpt lat="48.9635" lon="2.10936">
        <ele>85.4</ele>
        <time>2022-08-24T09:51:22Z</time>
      </trkpt>
      <trkpt lat="48.96343" lon="2.10931">
        <ele>85.4</ele>
        <time>2022-08-24T09:51:28Z</time>
      </trkpt>
      <trkpt lat="48.96342" lon="2.10926">
        <ele>85.3</ele>
        <time>2022-08-24T09:51:33Z</time>
      </trkpt>
      <trkpt lat="48.96343" lon="2.10914">
        <ele>85.1</ele>
        <time>2022-08-24T09:51:39Z</time>
      </trkpt>
      <trkpt lat="48.96345" lon="2.109">
        <ele>84.6</ele>
        <time>2022-08-24T09:51:45Z</time>
      </trkpt>
      <trkpt lat="48.96349" lon="2.10888">
        <ele>84.2</ele>
        <time>2022-08-24T09:51:50Z</time>
      </trkpt>
      <trkpt lat="48.96352" lon="2.10875">
        <ele>83.6</ele>
        <time>2022-08-24T09:51:56Z</time>
      </trkpt>
      <trkpt lat="48.96356" lon="2.10861">
        <ele>83.3</ele>
        <time>2022-08-24T09:52:02Z</time>
      </trkpt>
      <trkpt lat="48.9636" lon="2.10851">
        <ele>83</ele>
        <time>2022-08-24T09:52:07Z</time>
      </trkpt>
      <trkpt lat="48.96364" lon="2.10837">
        <ele>82.8</ele>
        <time>2022-08-24T09:52:13Z</time>
      </trkpt>
      <trkpt lat="48.96367" lon="2.10826">
        <ele>82.9</ele>
        <time>2022-08-24T09:52:18Z</time>
      </trkpt>
      <trkpt lat="48.96369" lon="2.10815">
        <ele>82.8</ele>
        <time>2022-08-24T09:52:24Z</time>
      </trkpt>
      <trkpt lat="48.96372" lon="2.10806">
        <ele>82.6</ele>
        <time>2022-08-24T09:52:29Z</time>
      </trkpt>
      <trkpt lat="48.96376" lon="2.10794">
        <ele>82.3</ele>
        <time>2022-08-24T09:52:35Z</time>
      </trkpt>
      <trkpt lat="48.96381" lon="2.10781">
        <ele>82</ele>
        <time>2022-08-24T09:52:41Z</time>
      </trkpt>
      <trkpt lat="48.96386" lon="2.10769">
        <ele>81.8</ele>
        <time>2022-08-24T09:52:47Z</time>
      </trkpt>
      <trkpt lat="48.96389" lon="2.10759">
        <ele>81.8</ele>
        <time>2022-08-24T09:52:52Z</time>
      </trkpt>
      <trkpt lat="48.96393" lon="2.10748">
        <ele>81.9</ele>
        <time>2022-08-24T09:52:58Z</time>
      </trkpt>
      <trkpt lat="48.96396" lon="2.10737">
        <ele>82.2</ele>
        <time>2022-08-24T09:53:04Z</time>
      </trkpt>
      <trkpt lat="48.96399" lon="2.10728">
        <ele>82.3</ele>
        <time>2022-08-24T09:53:09Z</time>
      </trkpt>
      <trkpt lat="48.96402" lon="2.10717">
        <ele>82.1</ele>
        <time>2022-08-24T09:53:14Z</time>
      </trkpt>
      <trkpt lat="48.96406" lon="2.10703">
        <ele>81.9</ele>
        <time>2022-08-24T09:53:20Z</time>
      </trkpt>
      <trkpt lat="48.96411" lon="2.10691">
        <ele>81.8</ele>
        <time>2022-08-24T09:53:26Z</time>
      </trkpt>
      <trkpt lat="48.96413" lon="2.10682">
        <ele>81.8</ele>
        <time>2022-08-24T09:53:31Z</time>
      </trkpt>
      <trkpt lat="48.96415" lon="2.10669">
        <ele>81.9</ele>
        <time>2022-08-24T09:53:37Z</time>
      </trkpt>
      <trkpt lat="48.96416" lon="2.10658">
        <ele>82</ele>
        <time>2022-08-24T09:53:42Z</time>
      </trkpt>
      <trkpt lat="48.96416" lon="2.10646">
        <ele>82.1</ele>
        <time>2022-08-24T09:53:47Z</time>
      </trkpt>
      <trkpt lat="48.96416" lon="2.10631">
        <ele>82.2</ele>
        <time>2022-08-24T09:53:52Z</time>
      </trkpt>
      <trkpt lat="48.96416" lon="2.10614">
        <ele>82.5</ele>
        <time>2022-08-24T09:53:58Z</time>
      </trkpt>
      <trkpt lat="48.96415" lon="2.10601">
        <ele>82.8</ele>
        <time>2022-08-24T09:54:04Z</time>
      </trkpt>
      <trkpt lat="48.96415" lon="2.10591">
        <ele>83.1</ele>
        <time>2022-08-24T09:54:09Z</time>
      </trkpt>
      <trkpt lat="48.96415" lon="2.10579">
        <ele>83.5</ele>
        <time>2022-08-24T09:54:15Z</time>
      </trkpt>
      <trkpt lat="48.96415" lon="2.10567">
        <ele>83.6</ele>
        <time>2022-08-24T09:54:20Z</time>
      </trkpt>
      <trkpt lat="48.96416" lon="2.10551">
        <ele>83.6</ele>
        <time>2022-08-24T09:54:26Z</time>
      </trkpt>
      <trkpt lat="48.96418" lon="2.10539">
        <ele>83.5</ele>
        <time>2022-08-24T09:54:32Z</time>
      </trkpt>
      <trkpt lat="48.96419" lon="2.10528">
        <ele>83.4</ele>
        <time>2022-08-24T09:54:38Z</time>
      </trkpt>
      <trkpt lat="48.9642" lon="2.10517">
        <ele>83.2</ele>
        <time>2022-08-24T09:54:43Z</time>
      </trkpt>
      <trkpt lat="48.96421" lon="2.10507">
        <ele>83.1</ele>
        <time>2022-08-24T09:54:48Z</time>
      </trkpt>
      <trkpt lat="48.96421" lon="2.10495">
        <ele>82.9</ele>
        <time>2022-08-24T09:54:54Z</time>
      </trkpt>
      <trkpt lat="48.96422" lon="2.10483">
        <ele>82.7</ele>
        <time>2022-08-24T09:55:00Z</time>
      </trkpt>
      <trkpt lat="48.96424" lon="2.10474">
        <ele>82.4</ele>
        <time>2022-08-24T09:55:06Z</time>
      </trkpt>
      <trkpt lat="48.96426" lon="2.10466">
        <ele>82.1</ele>
        <time>2022-08-24T09:55:11Z</time>
      </trkpt>
      <trkpt lat="48.96431" lon="2.10453">
        <ele>81.9</ele>
        <time>2022-08-24T09:55:17Z</time>
      </trkpt>
      <trkpt lat="48.96434" lon="2.10442">
        <ele>81.7</ele>
        <time>2022-08-24T09:55:23Z</time>
      </trkpt>
      <trkpt lat="48.96435" lon="2.10432">
        <ele>81.8</ele>
        <time>2022-08-24T09:55:28Z</time>
      </trkpt>
      <trkpt lat="48.96438" lon="2.10423">
        <ele>82.1</ele>
        <time>2022-08-24T09:55:34Z</time>
      </trkpt>
      <trkpt lat="48.96443" lon="2.10416">
        <ele>82.4</ele>
        <time>2022-08-24T09:55:39Z</time>
      </trkpt>
      <trkpt lat="48.9645" lon="2.1041">
        <ele>82.7</ele>
        <time>2022-08-24T09:55:45Z</time>
      </trkpt>
      <trkpt lat="48.96455" lon="2.10405">
        <ele>82.8</ele>
        <time>2022-08-24T09:55:50Z</time>
      </trkpt>
      <trkpt lat="48.96461" lon="2.10402">
        <ele>82.8</ele>
        <time>2022-08-24T09:55:55Z</time>
      </trkpt>
      <trkpt lat="48.96468" lon="2.10396">
        <ele>83.1</ele>
        <time>2022-08-24T09:56:01Z</time>
      </trkpt>
      <trkpt lat="48.96471" lon="2.1039">
        <ele>83.5</ele>
        <time>2022-08-24T09:56:06Z</time>
      </trkpt>
      <trkpt lat="48.96479" lon="2.10383">
        <ele>83.6</ele>
        <time>2022-08-24T09:56:12Z</time>
      </trkpt>
      <trkpt lat="48.96485" lon="2.10373">
        <ele>83.7</ele>
        <time>2022-08-24T09:56:17Z</time>
      </trkpt>
      <trkpt lat="48.9649" lon="2.10362">
        <ele>83.9</ele>
        <time>2022-08-24T09:56:23Z</time>
      </trkpt>
      <trkpt lat="48.96494" lon="2.10351">
        <ele>84.1</ele>
        <time>2022-08-24T09:56:28Z</time>
      </trkpt>
      <trkpt lat="48.96503" lon="2.1034">
        <ele>84.3</ele>
        <time>2022-08-24T09:56:34Z</time>
      </trkpt>
      <trkpt lat="48.9651" lon="2.10333">
        <ele>84.3</ele>
        <time>2022-08-24T09:56:40Z</time>
      </trkpt>
      <trkpt lat="48.96517" lon="2.10329">
        <ele>84.2</ele>
        <time>2022-08-24T09:56:45Z</time>
      </trkpt>
      <trkpt lat="48.96526" lon="2.10321">
        <ele>84.1</ele>
        <time>2022-08-24T09:56:51Z</time>
      </trkpt>
      <trkpt lat="48.96531" lon="2.10313">
        <ele>84</ele>
        <time>2022-08-24T09:56:56Z</time>
      </trkpt>
      <trkpt lat="48.96536" lon="2.10306">
        <ele>83.7</ele>
        <time>2022-08-24T09:57:01Z</time>
      </trkpt>
      <trkpt lat="48.96541" lon="2.10298">
        <ele>83.3</ele>
        <time>2022-08-24T09:57:06Z</time>
      </trkpt>
      <trkpt lat="48.96545" lon="2.10291">
        <ele>83.1</ele>
        <time>2022-08-24T09:57:11Z</time>
      </trkpt>
      <trkpt lat="48.96554" lon="2.10282">
        <ele>82.9</ele>
        <time>2022-08-24T09:57:17Z</time>
      </trkpt>
      <trkpt lat="48.96562" lon="2.10273">
        <ele>82.8</ele>
        <time>2022-08-24T09:57:23Z</time>
      </trkpt>
      <trkpt lat="48.96568" lon="2.10266">
        <ele>82.8</ele>
        <time>2022-08-24T09:57:29Z</time>
      </trkpt>
      <trkpt lat="48.96575" lon="2.10258">
        <ele>82.7</ele>
        <time>2022-08-24T09:57:35Z</time>
      </trkpt>
      <trkpt lat="48.9658" lon="2.10251">
        <ele>82.6</ele>
        <time>2022-08-24T09:57:40Z</time>
      </trkpt>
      <trkpt lat="48.96584" lon="2.10245">
        <ele>82.5</ele>
        <time>2022-08-24T09:57:45Z</time>
      </trkpt>
      <trkpt lat="48.96586" lon="2.10243">
        <ele>82.5</ele>
        <time>2022-08-24T09:57:51Z</time>
      </trkpt>
      <trkpt lat="48.96586" lon="2.1024">
        <ele>82.4</ele>
        <time>2022-08-24T09:57:56Z</time>
      </trkpt>
      <trkpt lat="48.96584" lon="2.1024">
        <ele>82.4</ele>
        <time>2022-08-24T09:58:01Z</time>
      </trkpt>
      <trkpt lat="48.96582" lon="2.1024">
        <ele>82.4</ele>
        <time>2022-08-24T09:58:06Z</time>
      </trkpt>
      <trkpt lat="48.96582" lon="2.10241">
        <ele>82.4</ele>
        <time>2022-08-24T09:58:12Z</time>
      </trkpt>
      <trkpt lat="48.96581" lon="2.10241">
        <ele>82.4</ele>
        <time>2022-08-24T09:58:18Z</time>
      </trkpt>
      <trkpt lat="48.96582" lon="2.1024">
        <ele>82.3</ele>
        <time>2022-08-24T09:58:30Z</time>
      </trkpt>
      <trkpt lat="48.96582" lon="2.10239">
        <ele>82.2</ele>
        <time>2022-08-24T09:58:35Z</time>
      </trkpt>
      <trkpt lat="48.96582" lon="2.10238">
        <ele>82</ele>
        <time>2022-08-24T09:58:41Z</time>
      </trkpt>
      <trkpt lat="48.96582" lon="2.10237">
        <ele>81.6</ele>
        <time>2022-08-24T09:58:53Z</time>
      </trkpt>
      <trkpt lat="48.96582" lon="2.10236">
        <ele>81.4</ele>
        <time>2022-08-24T09:58:59Z</time>
      </trkpt>
      <trkpt lat="48.96581" lon="2.10235">
        <ele>81.3</ele>
        <time>2022-08-24T09:59:05Z</time>
      </trkpt>
      <trkpt lat="48.96581" lon="2.10234">
        <ele>81.3</ele>
        <time>2022-08-24T09:59:10Z</time>
      </trkpt>
      <trkpt lat="48.96581" lon="2.10235">
        <ele>81</ele>
        <time>2022-08-24T09:59:32Z</time>
      </trkpt>
      <trkpt lat="48.9658" lon="2.10235">
        <ele>81</ele>
        <time>2022-08-24T09:59:37Z</time>
      </trkpt>
      <trkpt lat="48.9658" lon="2.10236">
        <ele>81</ele>
        <time>2022-08-24T09:59:53Z</time>
      </trkpt>
      <trkpt lat="48.96581" lon="2.10236">
        <ele>80.9</ele>
        <time>2022-08-24T10:00:05Z</time>
      </trkpt>
      <trkpt lat="48.96581" lon="2.10237">
        <ele>80.9</ele>
        <time>2022-08-24T10:00:10Z</time>
      </trkpt>
      <trkpt lat="48.96579" lon="2.10233">
        <ele>80.9</ele>
        <time>2022-08-24T10:00:27Z</time>
      </trkpt>
      <trkpt lat="48.9658" lon="2.10226">
        <ele>80.8</ele>
        <time>2022-08-24T10:00:32Z</time>
      </trkpt>
      <trkpt lat="48.96581" lon="2.10215">
        <ele>80.8</ele>
        <time>2022-08-24T10:00:38Z</time>
      </trkpt>
      <trkpt lat="48.96581" lon="2.10203">
        <ele>81</ele>
        <time>2022-08-24T10:00:44Z</time>
      </trkpt>
      <trkpt lat="48.96579" lon="2.1019">
        <ele>81.6</ele>
        <time>2022-08-24T10:00:50Z</time>
      </trkpt>
      <trkpt lat="48.96576" lon="2.10181">
        <ele>82</ele>
        <time>2022-08-24T10:00:55Z</time>
      </trkpt>
      <trkpt lat="48.96573" lon="2.1017">
        <ele>82.1</ele>
        <time>2022-08-24T10:01:01Z</time>
      </trkpt>
      <trkpt lat="48.9657" lon="2.10161">
        <ele>82.1</ele>
        <time>2022-08-24T10:01:06Z</time>
      </trkpt>
      <trkpt lat="48.96567" lon="2.1015">
        <ele>81.9</ele>
        <time>2022-08-24T10:01:12Z</time>
      </trkpt>
      <trkpt lat="48.96565" lon="2.10139">
        <ele>82</ele>
        <time>2022-08-24T10:01:17Z</time>
      </trkpt>
      <trkpt lat="48.96562" lon="2.10126">
        <ele>82.1</ele>
        <time>2022-08-24T10:01:23Z</time>
      </trkpt>
      <trkpt lat="48.9656" lon="2.10114">
        <ele>82.4</ele>
        <time>2022-08-24T10:01:28Z</time>
      </trkpt>
      <trkpt lat="48.96558" lon="2.10103">
        <ele>82.7</ele>
        <time>2022-08-24T10:01:34Z</time>
      </trkpt>
      <trkpt lat="48.96556" lon="2.10093">
        <ele>82.8</ele>
        <time>2022-08-24T10:01:39Z</time>
      </trkpt>
      <trkpt lat="48.96554" lon="2.1008">
        <ele>82.9</ele>
        <time>2022-08-24T10:01:45Z</time>
      </trkpt>
      <trkpt lat="48.96552" lon="2.10068">
        <ele>82.9</ele>
        <time>2022-08-24T10:01:50Z</time>
      </trkpt>
      <trkpt lat="48.9655" lon="2.10055">
        <ele>82.8</ele>
        <time>2022-08-24T10:01:56Z</time>
      </trkpt>
      <trkpt lat="48.96548" lon="2.10044">
        <ele>82.7</ele>
        <time>2022-08-24T10:02:02Z</time>
      </trkpt>
      <trkpt lat="48.96547" lon="2.10033">
        <ele>82.9</ele>
        <time>2022-08-24T10:02:07Z</time>
      </trkpt>
      <trkpt lat="48.96545" lon="2.1002">
        <ele>83.2</ele>
        <time>2022-08-24T10:02:12Z</time>
      </trkpt>
      <trkpt lat="48.96542" lon="2.10005">
        <ele>83.5</ele>
        <time>2022-08-24T10:02:18Z</time>
      </trkpt>
      <trkpt lat="48.9654" lon="2.09993">
        <ele>83.8</ele>
        <time>2022-08-24T10:02:23Z</time>
      </trkpt>
      <trkpt lat="48.96537" lon="2.0998">
        <ele>84.2</ele>
        <time>2022-08-24T10:02:29Z</time>
      </trkpt>
      <trkpt lat="48.96536" lon="2.0997">
        <ele>84.5</ele>
        <time>2022-08-24T10:02:34Z</time>
      </trkpt>
      <trkpt lat="48.96534" lon="2.09961">
        <ele>84.7</ele>
        <time>2022-08-24T10:02:39Z</time>
      </trkpt>
      <trkpt lat="48.96531" lon="2.09952">
        <ele>84.8</ele>
        <time>2022-08-24T10:02:44Z</time>
      </trkpt>
      <trkpt lat="48.9653" lon="2.09939">
        <ele>84.9</ele>
        <time>2022-08-24T10:02:50Z</time>
      </trkpt>
      <trkpt lat="48.96528" lon="2.09929">
        <ele>84.9</ele>
        <time>2022-08-24T10:02:55Z</time>
      </trkpt>
      <trkpt lat="48.96526" lon="2.09917">
        <ele>84.8</ele>
        <time>2022-08-24T10:03:01Z</time>
      </trkpt>
      <trkpt lat="48.96523" lon="2.09902">
        <ele>84.7</ele>
        <time>2022-08-24T10:03:07Z</time>
      </trkpt>
      <trkpt lat="48.96521" lon="2.09892">
        <ele>84.7</ele>
        <time>2022-08-24T10:03:12Z</time>
      </trkpt>
      <trkpt lat="48.96518" lon="2.09878">
        <ele>84.5</ele>
        <time>2022-08-24T10:03:18Z</time>
      </trkpt>
      <trkpt lat="48.96516" lon="2.09866">
        <ele>84.3</ele>
        <time>2022-08-24T10:03:23Z</time>
      </trkpt>
      <trkpt lat="48.96515" lon="2.09855">
        <ele>84.1</ele>
        <time>2022-08-24T10:03:28Z</time>
      </trkpt>
      <trkpt lat="48.96513" lon="2.09842">
        <ele>83.9</ele>
        <time>2022-08-24T10:03:34Z</time>
      </trkpt>
      <trkpt lat="48.96511" lon="2.09833">
        <ele>83.8</ele>
        <time>2022-08-24T10:03:39Z</time>
      </trkpt>
      <trkpt lat="48.96509" lon="2.09822">
        <ele>83.6</ele>
        <time>2022-08-24T10:03:44Z</time>
      </trkpt>
      <trkpt lat="48.96506" lon="2.09812">
        <ele>83.4</ele>
        <time>2022-08-24T10:03:49Z</time>
      </trkpt>
      <trkpt lat="48.96504" lon="2.09801">
        <ele>83.2</ele>
        <time>2022-08-24T10:03:54Z</time>
      </trkpt>
      <trkpt lat="48.96502" lon="2.09787">
        <ele>83.1</ele>
        <time>2022-08-24T10:04:00Z</time>
      </trkpt>
      <trkpt lat="48.965" lon="2.09777">
        <ele>83</ele>
        <time>2022-08-24T10:04:05Z</time>
      </trkpt>
      <trkpt lat="48.96499" lon="2.09765">
        <ele>83</ele>
        <time>2022-08-24T10:04:10Z</time>
      </trkpt>
      <trkpt lat="48.96498" lon="2.09751">
        <ele>82.9</ele>
        <time>2022-08-24T10:04:16Z</time>
      </trkpt>
      <trkpt lat="48.96498" lon="2.0974">
        <ele>83.1</ele>
        <time>2022-08-24T10:04:21Z</time>
      </trkpt>
      <trkpt lat="48.96494" lon="2.09725">
        <ele>83.3</ele>
        <time>2022-08-24T10:04:27Z</time>
      </trkpt>
      <trkpt lat="48.96491" lon="2.09714">
        <ele>83.2</ele>
        <time>2022-08-24T10:04:33Z</time>
      </trkpt>
      <trkpt lat="48.96488" lon="2.09703">
        <ele>83.1</ele>
        <time>2022-08-24T10:04:38Z</time>
      </trkpt>
      <trkpt lat="48.96486" lon="2.0969">
        <ele>83.1</ele>
        <time>2022-08-24T10:04:44Z</time>
      </trkpt>
      <trkpt lat="48.96486" lon="2.0968">
        <ele>82.9</ele>
        <time>2022-08-24T10:04:50Z</time>
      </trkpt>
      <trkpt lat="48.96485" lon="2.09669">
        <ele>82.5</ele>
        <time>2022-08-24T10:04:55Z</time>
      </trkpt>
      <trkpt lat="48.96482" lon="2.09654">
        <ele>82.1</ele>
        <time>2022-08-24T10:05:01Z</time>
      </trkpt>
      <trkpt lat="48.9648" lon="2.09643">
        <ele>81.7</ele>
        <time>2022-08-24T10:05:06Z</time>
      </trkpt>
      <trkpt lat="48.96477" lon="2.09628">
        <ele>81</ele>
        <time>2022-08-24T10:05:12Z</time>
      </trkpt>
      <trkpt lat="48.96475" lon="2.09616">
        <ele>80.6</ele>
        <time>2022-08-24T10:05:17Z</time>
      </trkpt>
      <trkpt lat="48.96473" lon="2.09606">
        <ele>80.4</ele>
        <time>2022-08-24T10:05:22Z</time>
      </trkpt>
      <trkpt lat="48.9647" lon="2.09595">
        <ele>80.1</ele>
        <time>2022-08-24T10:05:27Z</time>
      </trkpt>
      <trkpt lat="48.96469" lon="2.09586">
        <ele>79.7</ele>
        <time>2022-08-24T10:05:32Z</time>
      </trkpt>
      <trkpt lat="48.96469" lon="2.09576">
        <ele>79.3</ele>
        <time>2022-08-24T10:05:37Z</time>
      </trkpt>
      <trkpt lat="48.96468" lon="2.09563">
        <ele>78.8</ele>
        <time>2022-08-24T10:05:43Z</time>
      </trkpt>
      <trkpt lat="48.96466" lon="2.09554">
        <ele>78.5</ele>
        <time>2022-08-24T10:05:48Z</time>
      </trkpt>
      <trkpt lat="48.96463" lon="2.09542">
        <ele>78.3</ele>
        <time>2022-08-24T10:05:54Z</time>
      </trkpt>
      <trkpt lat="48.96459" lon="2.09532">
        <ele>78.3</ele>
        <time>2022-08-24T10:05:59Z</time>
      </trkpt>
      <trkpt lat="48.96453" lon="2.09522">
        <ele>78.4</ele>
        <time>2022-08-24T10:06:05Z</time>
      </trkpt>
      <trkpt lat="48.96447" lon="2.09512">
        <ele>78.5</ele>
        <time>2022-08-24T10:06:10Z</time>
      </trkpt>
      <trkpt lat="48.96441" lon="2.09503">
        <ele>78.4</ele>
        <time>2022-08-24T10:06:16Z</time>
      </trkpt>
      <trkpt lat="48.96434" lon="2.09492">
        <ele>78.3</ele>
        <time>2022-08-24T10:06:22Z</time>
      </trkpt>
      <trkpt lat="48.96428" lon="2.09481">
        <ele>78.5</ele>
        <time>2022-08-24T10:06:28Z</time>
      </trkpt>
      <trkpt lat="48.96424" lon="2.09472">
        <ele>78.7</ele>
        <time>2022-08-24T10:06:33Z</time>
      </trkpt>
      <trkpt lat="48.96419" lon="2.09462">
        <ele>78.9</ele>
        <time>2022-08-24T10:06:39Z</time>
      </trkpt>
      <trkpt lat="48.96416" lon="2.09454">
        <ele>79</ele>
        <time>2022-08-24T10:06:44Z</time>
      </trkpt>
      <trkpt lat="48.96411" lon="2.09443">
        <ele>79</ele>
        <time>2022-08-24T10:06:50Z</time>
      </trkpt>
      <trkpt lat="48.96405" lon="2.09436">
        <ele>78.9</ele>
        <time>2022-08-24T10:06:55Z</time>
      </trkpt>
      <trkpt lat="48.964" lon="2.09426">
        <ele>78.8</ele>
        <time>2022-08-24T10:07:01Z</time>
      </trkpt>
      <trkpt lat="48.96394" lon="2.0942">
        <ele>78.6</ele>
        <time>2022-08-24T10:07:06Z</time>
      </trkpt>
      <trkpt lat="48.9639" lon="2.09412">
        <ele>78.4</ele>
        <time>2022-08-24T10:07:12Z</time>
      </trkpt>
      <trkpt lat="48.96387" lon="2.09403">
        <ele>78.3</ele>
        <time>2022-08-24T10:07:17Z</time>
      </trkpt>
      <trkpt lat="48.96382" lon="2.09391">
        <ele>78.3</ele>
        <time>2022-08-24T10:07:23Z</time>
      </trkpt>
      <trkpt lat="48.96377" lon="2.09381">
        <ele>78.5</ele>
        <time>2022-08-24T10:07:28Z</time>
      </trkpt>
      <trkpt lat="48.96371" lon="2.09372">
        <ele>78.6</ele>
        <time>2022-08-24T10:07:34Z</time>
      </trkpt>
      <trkpt lat="48.96366" lon="2.09365">
        <ele>78.9</ele>
        <time>2022-08-24T10:07:39Z</time>
      </trkpt>
      <trkpt lat="48.9636" lon="2.09356">
        <ele>79.1</ele>
        <time>2022-08-24T10:07:45Z</time>
      </trkpt>
      <trkpt lat="48.96355" lon="2.09347">
        <ele>79.2</ele>
        <time>2022-08-24T10:07:50Z</time>
      </trkpt>
      <trkpt lat="48.9635" lon="2.09336">
        <ele>79.2</ele>
        <time>2022-08-24T10:07:56Z</time>
      </trkpt>
      <trkpt lat="48.96344" lon="2.09324">
        <ele>79.3</ele>
        <time>2022-08-24T10:08:02Z</time>
      </trkpt>
      <trkpt lat="48.9634" lon="2.09315">
        <ele>79.5</ele>
        <time>2022-08-24T10:08:07Z</time>
      </trkpt>
      <trkpt lat="48.96337" lon="2.09306">
        <ele>79.8</ele>
        <time>2022-08-24T10:08:13Z</time>
      </trkpt>
      <trkpt lat="48.96332" lon="2.09296">
        <ele>79.9</ele>
        <time>2022-08-24T10:08:19Z</time>
      </trkpt>
      <trkpt lat="48.96325" lon="2.09285">
        <ele>80.2</ele>
        <time>2022-08-24T10:08:25Z</time>
      </trkpt>
      <trkpt lat="48.96317" lon="2.09281">
        <ele>80.5</ele>
        <time>2022-08-24T10:08:30Z</time>
      </trkpt>
      <trkpt lat="48.96308" lon="2.0928">
        <ele>80.6</ele>
        <time>2022-08-24T10:08:36Z</time>
      </trkpt>
      <trkpt lat="48.96301" lon="2.09282">
        <ele>80.5</ele>
        <time>2022-08-24T10:08:41Z</time>
      </trkpt>
      <trkpt lat="48.96289" lon="2.09285">
        <ele>80</ele>
        <time>2022-08-24T10:08:47Z</time>
      </trkpt>
      <trkpt lat="48.96281" lon="2.09288">
        <ele>79.6</ele>
        <time>2022-08-24T10:08:53Z</time>
      </trkpt>
      <trkpt lat="48.96273" lon="2.09291">
        <ele>79.2</ele>
        <time>2022-08-24T10:08:59Z</time>
      </trkpt>
      <trkpt lat="48.96265" lon="2.09294">
        <ele>78.8</ele>
        <time>2022-08-24T10:09:05Z</time>
      </trkpt>
      <trkpt lat="48.96259" lon="2.09296">
        <ele>78.2</ele>
        <time>2022-08-24T10:09:10Z</time>
      </trkpt>
      <trkpt lat="48.9625" lon="2.09298">
        <ele>77.4</ele>
        <time>2022-08-24T10:09:16Z</time>
      </trkpt>
      <trkpt lat="48.9624" lon="2.093">
        <ele>76.7</ele>
        <time>2022-08-24T10:09:22Z</time>
      </trkpt>
      <trkpt lat="48.96233" lon="2.09301">
        <ele>76.1</ele>
        <time>2022-08-24T10:09:27Z</time>
      </trkpt>
      <trkpt lat="48.96226" lon="2.09304">
        <ele>75.3</ele>
        <time>2022-08-24T10:09:33Z</time>
      </trkpt>
      <trkpt lat="48.9622" lon="2.09305">
        <ele>74.6</ele>
        <time>2022-08-24T10:09:38Z</time>
      </trkpt>
      <trkpt lat="48.96213" lon="2.09306">
        <ele>74</ele>
        <time>2022-08-24T10:09:43Z</time>
      </trkpt>
      <trkpt lat="48.96204" lon="2.09308">
        <ele>73.3</ele>
        <time>2022-08-24T10:09:49Z</time>
      </trkpt>
      <trkpt lat="48.96197" lon="2.09308">
        <ele>72.6</ele>
        <time>2022-08-24T10:09:54Z</time>
      </trkpt>
      <trkpt lat="48.9619" lon="2.09309">
        <ele>71.8</ele>
        <time>2022-08-24T10:10:00Z</time>
      </trkpt>
      <trkpt lat="48.96183" lon="2.0931">
        <ele>71.2</ele>
        <time>2022-08-24T10:10:05Z</time>
      </trkpt>
      <trkpt lat="48.96173" lon="2.09312">
        <ele>70.5</ele>
        <time>2022-08-24T10:10:11Z</time>
      </trkpt>
      <trkpt lat="48.96163" lon="2.09315">
        <ele>70.1</ele>
        <time>2022-08-24T10:10:17Z</time>
      </trkpt>
      <trkpt lat="48.96154" lon="2.09317">
        <ele>69.9</ele>
        <time>2022-08-24T10:10:22Z</time>
      </trkpt>
      <trkpt lat="48.96146" lon="2.09318">
        <ele>69.7</ele>
        <time>2022-08-24T10:10:28Z</time>
      </trkpt>
      <trkpt lat="48.96138" lon="2.0932">
        <ele>69.5</ele>
        <time>2022-08-24T10:10:33Z</time>
      </trkpt>
      <trkpt lat="48.96129" lon="2.09323">
        <ele>69.5</ele>
        <time>2022-08-24T10:10:39Z</time>
      </trkpt>
      <trkpt lat="48.96121" lon="2.09324">
        <ele>69.2</ele>
        <time>2022-08-24T10:10:45Z</time>
      </trkpt>
      <trkpt lat="48.96111" lon="2.09326">
        <ele>68.9</ele>
        <time>2022-08-24T10:10:51Z</time>
      </trkpt>
      <trkpt lat="48.96102" lon="2.09329">
        <ele>68.9</ele>
        <time>2022-08-24T10:10:56Z</time>
      </trkpt>
      <trkpt lat="48.96092" lon="2.09331">
        <ele>69.3</ele>
        <time>2022-08-24T10:11:02Z</time>
      </trkpt>
      <trkpt lat="48.96084" lon="2.09333">
        <ele>69.6</ele>
        <time>2022-08-24T10:11:07Z</time>
      </trkpt>
      <trkpt lat="48.96075" lon="2.09336">
        <ele>69.8</ele>
        <time>2022-08-24T10:11:13Z</time>
      </trkpt>
      <trkpt lat="48.96066" lon="2.09339">
        <ele>70.1</ele>
        <time>2022-08-24T10:11:19Z</time>
      </trkpt>
      <trkpt lat="48.96055" lon="2.09343">
        <ele>70.4</ele>
        <time>2022-08-24T10:11:25Z</time>
      </trkpt>
      <trkpt lat="48.96045" lon="2.09345">
        <ele>70.7</ele>
        <time>2022-08-24T10:11:31Z</time>
      </trkpt>
      <trkpt lat="48.96038" lon="2.09348">
        <ele>71</ele>
        <time>2022-08-24T10:11:36Z</time>
      </trkpt>
      <trkpt lat="48.9603" lon="2.0935">
        <ele>71.6</ele>
        <time>2022-08-24T10:11:41Z</time>
      </trkpt>
      <trkpt lat="48.96023" lon="2.09353">
        <ele>72.2</ele>
        <time>2022-08-24T10:11:46Z</time>
      </trkpt>
      <trkpt lat="48.96013" lon="2.09355">
        <ele>72.9</ele>
        <time>2022-08-24T10:11:52Z</time>
      </trkpt>
      <trkpt lat="48.96006" lon="2.09358">
        <ele>73.4</ele>
        <time>2022-08-24T10:11:57Z</time>
      </trkpt>
      <trkpt lat="48.95997" lon="2.0936">
        <ele>73.9</ele>
        <time>2022-08-24T10:12:03Z</time>
      </trkpt>
      <trkpt lat="48.95988" lon="2.09362">
        <ele>74.3</ele>
        <time>2022-08-24T10:12:09Z</time>
      </trkpt>
      <trkpt lat="48.95977" lon="2.09363">
        <ele>74.7</ele>
        <time>2022-08-24T10:12:15Z</time>
      </trkpt>
      <trkpt lat="48.95969" lon="2.09366">
        <ele>75.1</ele>
        <time>2022-08-24T10:12:20Z</time>
      </trkpt>
      <trkpt lat="48.95961" lon="2.09369">
        <ele>75.3</ele>
        <time>2022-08-24T10:12:26Z</time>
      </trkpt>
      <trkpt lat="48.95954" lon="2.09369">
        <ele>75.5</ele>
        <time>2022-08-24T10:12:32Z</time>
      </trkpt>
      <trkpt lat="48.95947" lon="2.0937">
        <ele>75.4</ele>
        <time>2022-08-24T10:12:37Z</time>
      </trkpt>
      <trkpt lat="48.95936" lon="2.09371">
        <ele>75.2</ele>
        <time>2022-08-24T10:12:43Z</time>
      </trkpt>
      <trkpt lat="48.95927" lon="2.09372">
        <ele>74.9</ele>
        <time>2022-08-24T10:12:49Z</time>
      </trkpt>
      <trkpt lat="48.95919" lon="2.09373">
        <ele>74.4</ele>
        <time>2022-08-24T10:12:55Z</time>
      </trkpt>
      <trkpt lat="48.95912" lon="2.09373">
        <ele>73.8</ele>
        <time>2022-08-24T10:13:00Z</time>
      </trkpt>
      <trkpt lat="48.95904" lon="2.09372">
        <ele>73</ele>
        <time>2022-08-24T10:13:06Z</time>
      </trkpt>
      <trkpt lat="48.95897" lon="2.09373">
        <ele>72.1</ele>
        <time>2022-08-24T10:13:12Z</time>
      </trkpt>
      <trkpt lat="48.95891" lon="2.09375">
        <ele>71.5</ele>
        <time>2022-08-24T10:13:17Z</time>
      </trkpt>
      <trkpt lat="48.9588" lon="2.09377">
        <ele>71</ele>
        <time>2022-08-24T10:13:23Z</time>
      </trkpt>
      <trkpt lat="48.95872" lon="2.0938">
        <ele>70.8</ele>
        <time>2022-08-24T10:13:28Z</time>
      </trkpt>
      <trkpt lat="48.95862" lon="2.09385">
        <ele>70.6</ele>
        <time>2022-08-24T10:13:33Z</time>
      </trkpt>
      <trkpt lat="48.9585" lon="2.09392">
        <ele>70.9</ele>
        <time>2022-08-24T10:13:39Z</time>
      </trkpt>
      <trkpt lat="48.9584" lon="2.09393">
        <ele>71.2</ele>
        <time>2022-08-24T10:13:45Z</time>
      </trkpt>
      <trkpt lat="48.95832" lon="2.09393">
        <ele>71.5</ele>
        <time>2022-08-24T10:13:51Z</time>
      </trkpt>
      <trkpt lat="48.95824" lon="2.09394">
        <ele>71.9</ele>
        <time>2022-08-24T10:13:57Z</time>
      </trkpt>
      <trkpt lat="48.95819" lon="2.09394">
        <ele>72.1</ele>
        <time>2022-08-24T10:14:03Z</time>
      </trkpt>
      <trkpt lat="48.95818" lon="2.09393">
        <ele>72.1</ele>
        <time>2022-08-24T10:14:08Z</time>
      </trkpt>
      <trkpt lat="48.95819" lon="2.09393">
        <ele>72.3</ele>
        <time>2022-08-24T10:14:13Z</time>
      </trkpt>
      <trkpt lat="48.95817" lon="2.09388">
        <ele>72.9</ele>
        <time>2022-08-24T10:14:19Z</time>
      </trkpt>
      <trkpt lat="48.95813" lon="2.09379">
        <ele>73.4</ele>
        <time>2022-08-24T10:14:24Z</time>
      </trkpt>
      <trkpt lat="48.9581" lon="2.09368">
        <ele>73.9</ele>
        <time>2022-08-24T10:14:29Z</time>
      </trkpt>
      <trkpt lat="48.95806" lon="2.09354">
        <ele>74.4</ele>
        <time>2022-08-24T10:14:35Z</time>
      </trkpt>
      <trkpt lat="48.95804" lon="2.0934">
        <ele>75</ele>
        <time>2022-08-24T10:14:41Z</time>
      </trkpt>
      <trkpt lat="48.95799" lon="2.09327">
        <ele>75.8</ele>
        <time>2022-08-24T10:14:47Z</time>
      </trkpt>
      <trkpt lat="48.95794" lon="2.09318">
        <ele>76.2</ele>
        <time>2022-08-24T10:14:52Z</time>
      </trkpt>
      <trkpt lat="48.9579" lon="2.09308">
        <ele>76.4</ele>
        <time>2022-08-24T10:14:57Z</time>
      </trkpt>
      <trkpt lat="48.95786" lon="2.09296">
        <ele>76.6</ele>
        <time>2022-08-24T10:15:03Z</time>
      </trkpt>
      <trkpt lat="48.95783" lon="2.09288">
        <ele>76.6</ele>
        <time>2022-08-24T10:15:08Z</time>
      </trkpt>
      <trkpt lat="48.95778" lon="2.09283">
        <ele>76.7</ele>
        <time>2022-08-24T10:15:14Z</time>
      </trkpt>
      <trkpt lat="48.95773" lon="2.09281">
        <ele>76.8</ele>
        <time>2022-08-24T10:15:20Z</time>
      </trkpt>
      <trkpt lat="48.95771" lon="2.09279">
        <ele>77</ele>
        <time>2022-08-24T10:15:26Z</time>
      </trkpt>
      <trkpt lat="48.95771" lon="2.09278">
        <ele>77.1</ele>
        <time>2022-08-24T10:15:32Z</time>
      </trkpt>
      <trkpt lat="48.95772" lon="2.09279">
        <ele>77.9</ele>
        <time>2022-08-24T10:15:43Z</time>
      </trkpt>
      <trkpt lat="48.95773" lon="2.09279">
        <ele>78.4</ele>
        <time>2022-08-24T10:15:48Z</time>
      </trkpt>
      <trkpt lat="48.95775" lon="2.09282">
        <ele>78.5</ele>
        <time>2022-08-24T10:15:54Z</time>
      </trkpt>
      <trkpt lat="48.95776" lon="2.09283">
        <ele>78.5</ele>
        <time>2022-08-24T10:16:00Z</time>
      </trkpt>
      <trkpt lat="48.95776" lon="2.09284">
        <ele>78.4</ele>
        <time>2022-08-24T10:16:06Z</time>
      </trkpt>
      <trkpt lat="48.95778" lon="2.09286">
        <ele>78.4</ele>
        <time>2022-08-24T10:16:12Z</time>
      </trkpt>
      <trkpt lat="48.95778" lon="2.09287">
        <ele>78.5</ele>
        <time>2022-08-24T10:16:17Z</time>
      </trkpt>
      <trkpt lat="48.95779" lon="2.09287">
        <ele>78.5</ele>
        <time>2022-08-24T10:16:23Z</time>
      </trkpt>
      <trkpt lat="48.9578" lon="2.09288">
        <ele>78.6</ele>
        <time>2022-08-24T10:16:28Z</time>
      </trkpt>
      <trkpt lat="48.95781" lon="2.09288">
        <ele>78.7</ele>
        <time>2022-08-24T10:16:34Z</time>
      </trkpt>
      <trkpt lat="48.95782" lon="2.09288">
        <ele>78.7</ele>
        <time>2022-08-24T10:16:39Z</time>
      </trkpt>
      <trkpt lat="48.95782" lon="2.09289">
        <ele>78.8</ele>
        <time>2022-08-24T10:16:45Z</time>
      </trkpt>
      <trkpt lat="48.95783" lon="2.09289">
        <ele>78.8</ele>
        <time>2022-08-24T10:16:50Z</time>
      </trkpt>
      <trkpt lat="48.95784" lon="2.09289">
        <ele>78.9</ele>
        <time>2022-08-24T10:16:56Z</time>
      </trkpt>
      <trkpt lat="48.95784" lon="2.09288">
        <ele>79</ele>
        <time>2022-08-24T10:17:02Z</time>
      </trkpt>
      <trkpt lat="48.95785" lon="2.09288">
        <ele>79</ele>
        <time>2022-08-24T10:17:08Z</time>
      </trkpt>
      <trkpt lat="48.95786" lon="2.09287">
        <ele>79.1</ele>
        <time>2022-08-24T10:17:14Z</time>
      </trkpt>
      <trkpt lat="48.95789" lon="2.09286">
        <ele>79.1</ele>
        <time>2022-08-24T10:17:19Z</time>
      </trkpt>
      <trkpt lat="48.95792" lon="2.09285">
        <ele>79.3</ele>
        <time>2022-08-24T10:17:25Z</time>
      </trkpt>
      <trkpt lat="48.95793" lon="2.09283">
        <ele>79.4</ele>
        <time>2022-08-24T10:17:30Z</time>
      </trkpt>
      <trkpt lat="48.95791" lon="2.09281">
        <ele>79.8</ele>
        <time>2022-08-24T10:17:35Z</time>
      </trkpt>
      <trkpt lat="48.95787" lon="2.09278">
        <ele>80.2</ele>
        <time>2022-08-24T10:17:41Z</time>
      </trkpt>
      <trkpt lat="48.95783" lon="2.09277">
        <ele>80.5</ele>
        <time>2022-08-24T10:17:46Z</time>
      </trkpt>
      <trkpt lat="48.9578" lon="2.09279">
        <ele>80.9</ele>
        <time>2022-08-24T10:17:51Z</time>
      </trkpt>
      <trkpt lat="48.95776" lon="2.09279">
        <ele>81</ele>
        <time>2022-08-24T10:17:56Z</time>
      </trkpt>
      <trkpt lat="48.95769" lon="2.09276">
        <ele>81.2</ele>
        <time>2022-08-24T10:18:02Z</time>
      </trkpt>
      <trkpt lat="48.95759" lon="2.09269">
        <ele>81.4</ele>
        <time>2022-08-24T10:18:08Z</time>
      </trkpt>
      <trkpt lat="48.95751" lon="2.09263">
        <ele>81.5</ele>
        <time>2022-08-24T10:18:13Z</time>
      </trkpt>
      <trkpt lat="48.95744" lon="2.09255">
        <ele>81.5</ele>
        <time>2022-08-24T10:18:19Z</time>
      </trkpt>
      <trkpt lat="48.95738" lon="2.0925">
        <ele>81.4</ele>
        <time>2022-08-24T10:18:25Z</time>
      </trkpt>
      <trkpt lat="48.9573" lon="2.09244">
        <ele>81.4</ele>
        <time>2022-08-24T10:18:30Z</time>
      </trkpt>
      <trkpt lat="48.95722" lon="2.09238">
        <ele>81.3</ele>
        <time>2022-08-24T10:18:36Z</time>
      </trkpt>
      <trkpt lat="48.95716" lon="2.09233">
        <ele>81.4</ele>
        <time>2022-08-24T10:18:42Z</time>
      </trkpt>
      <trkpt lat="48.95711" lon="2.09228">
        <ele>81.5</ele>
        <time>2022-08-24T10:18:47Z</time>
      </trkpt>
      <trkpt lat="48.95707" lon="2.09224">
        <ele>81.7</ele>
        <time>2022-08-24T10:18:52Z</time>
      </trkpt>
      <trkpt lat="48.95703" lon="2.09218">
        <ele>81.7</ele>
        <time>2022-08-24T10:18:57Z</time>
      </trkpt>
      <trkpt lat="48.95697" lon="2.09212">
        <ele>81.7</ele>
        <time>2022-08-24T10:19:03Z</time>
      </trkpt>
      <trkpt lat="48.9569" lon="2.09207">
        <ele>81.4</ele>
        <time>2022-08-24T10:19:09Z</time>
      </trkpt>
      <trkpt lat="48.95684" lon="2.09198">
        <ele>81.2</ele>
        <time>2022-08-24T10:19:15Z</time>
      </trkpt>
      <trkpt lat="48.95679" lon="2.09187">
        <ele>80.9</ele>
        <time>2022-08-24T10:19:21Z</time>
      </trkpt>
      <trkpt lat="48.95675" lon="2.09176">
        <ele>80.7</ele>
        <time>2022-08-24T10:19:26Z</time>
      </trkpt>
      <trkpt lat="48.95672" lon="2.09165">
        <ele>80.5</ele>
        <time>2022-08-24T10:19:31Z</time>
      </trkpt>
      <trkpt lat="48.95668" lon="2.09155">
        <ele>80.3</ele>
        <time>2022-08-24T10:19:37Z</time>
      </trkpt>
      <trkpt lat="48.95663" lon="2.0915">
        <ele>80.2</ele>
        <time>2022-08-24T10:19:43Z</time>
      </trkpt>
      <trkpt lat="48.9566" lon="2.09144">
        <ele>80.4</ele>
        <time>2022-08-24T10:19:49Z</time>
      </trkpt>
      <trkpt lat="48.95659" lon="2.09138">
        <ele>80.6</ele>
        <time>2022-08-24T10:19:54Z</time>
      </trkpt>
      <trkpt lat="48.95656" lon="2.09131">
        <ele>81.1</ele>
        <time>2022-08-24T10:20:00Z</time>
      </trkpt>
      <trkpt lat="48.95652" lon="2.0913">
        <ele>81.3</ele>
        <time>2022-08-24T10:20:05Z</time>
      </trkpt>
      <trkpt lat="48.95646" lon="2.09134">
        <ele>81.5</ele>
        <time>2022-08-24T10:20:11Z</time>
      </trkpt>
      <trkpt lat="48.95642" lon="2.09136">
        <ele>81.9</ele>
        <time>2022-08-24T10:20:16Z</time>
      </trkpt>
      <trkpt lat="48.95638" lon="2.09136">
        <ele>82.3</ele>
        <time>2022-08-24T10:20:22Z</time>
      </trkpt>
      <trkpt lat="48.95635" lon="2.09136">
        <ele>82.9</ele>
        <time>2022-08-24T10:20:27Z</time>
      </trkpt>
      <trkpt lat="48.9563" lon="2.09137">
        <ele>83.6</ele>
        <time>2022-08-24T10:20:32Z</time>
      </trkpt>
      <trkpt lat="48.95624" lon="2.09139">
        <ele>84.7</ele>
        <time>2022-08-24T10:20:38Z</time>
      </trkpt>
      <trkpt lat="48.95616" lon="2.09142">
        <ele>85.5</ele>
        <time>2022-08-24T10:20:44Z</time>
      </trkpt>
      <trkpt lat="48.95606" lon="2.09147">
        <ele>86.4</ele>
        <time>2022-08-24T10:20:50Z</time>
      </trkpt>
      <trkpt lat="48.95598" lon="2.09152">
        <ele>87</ele>
        <time>2022-08-24T10:20:56Z</time>
      </trkpt>
      <trkpt lat="48.9559" lon="2.09155">
        <ele>87.4</ele>
        <time>2022-08-24T10:21:02Z</time>
      </trkpt>
      <trkpt lat="48.95583" lon="2.09156">
        <ele>87.8</ele>
        <time>2022-08-24T10:21:07Z</time>
      </trkpt>
      <trkpt lat="48.95574" lon="2.09159">
        <ele>88.1</ele>
        <time>2022-08-24T10:21:13Z</time>
      </trkpt>
      <trkpt lat="48.95568" lon="2.09162">
        <ele>88.5</ele>
        <time>2022-08-24T10:21:19Z</time>
      </trkpt>
      <trkpt lat="48.95562" lon="2.09164">
        <ele>88.5</ele>
        <time>2022-08-24T10:21:24Z</time>
      </trkpt>
      <trkpt lat="48.95554" lon="2.09168">
        <ele>88.5</ele>
        <time>2022-08-24T10:21:30Z</time>
      </trkpt>
      <trkpt lat="48.95547" lon="2.0917">
        <ele>88.4</ele>
        <time>2022-08-24T10:21:35Z</time>
      </trkpt>
      <trkpt lat="48.95539" lon="2.09173">
        <ele>88.3</ele>
        <time>2022-08-24T10:21:40Z</time>
      </trkpt>
      <trkpt lat="48.95531" lon="2.09179">
        <ele>88.3</ele>
        <time>2022-08-24T10:21:46Z</time>
      </trkpt>
      <trkpt lat="48.95523" lon="2.09185">
        <ele>88.5</ele>
        <time>2022-08-24T10:21:52Z</time>
      </trkpt>
      <trkpt lat="48.95514" lon="2.09191">
        <ele>88.5</ele>
        <time>2022-08-24T10:21:58Z</time>
      </trkpt>
      <trkpt lat="48.95505" lon="2.09197">
        <ele>88.5</ele>
        <time>2022-08-24T10:22:04Z</time>
      </trkpt>
      <trkpt lat="48.95495" lon="2.092">
        <ele>88.5</ele>
        <time>2022-08-24T10:22:10Z</time>
      </trkpt>
      <trkpt lat="48.95486" lon="2.09203">
        <ele>88.6</ele>
        <time>2022-08-24T10:22:16Z</time>
      </trkpt>
      <trkpt lat="48.95476" lon="2.0921">
        <ele>88.6</ele>
        <time>2022-08-24T10:22:22Z</time>
      </trkpt>
      <trkpt lat="48.95467" lon="2.09215">
        <ele>88.5</ele>
        <time>2022-08-24T10:22:28Z</time>
      </trkpt>
      <trkpt lat="48.95461" lon="2.09218">
        <ele>88.6</ele>
        <time>2022-08-24T10:22:33Z</time>
      </trkpt>
      <trkpt lat="48.95455" lon="2.09219">
        <ele>88.8</ele>
        <time>2022-08-24T10:22:39Z</time>
      </trkpt>
      <trkpt lat="48.95446" lon="2.09222">
        <ele>88.9</ele>
        <time>2022-08-24T10:22:45Z</time>
      </trkpt>
      <trkpt lat="48.95439" lon="2.09229">
        <ele>88.9</ele>
        <time>2022-08-24T10:22:51Z</time>
      </trkpt>
      <trkpt lat="48.95435" lon="2.09241">
        <ele>89</ele>
        <time>2022-08-24T10:22:56Z</time>
      </trkpt>
      <trkpt lat="48.95429" lon="2.09254">
        <ele>89.2</ele>
        <time>2022-08-24T10:23:02Z</time>
      </trkpt>
      <trkpt lat="48.95423" lon="2.0926">
        <ele>89.4</ele>
        <time>2022-08-24T10:23:07Z</time>
      </trkpt>
      <trkpt lat="48.95418" lon="2.09272">
        <ele>89.6</ele>
        <time>2022-08-24T10:23:13Z</time>
      </trkpt>
      <trkpt lat="48.95414" lon="2.09284">
        <ele>89.7</ele>
        <time>2022-08-24T10:23:19Z</time>
      </trkpt>
      <trkpt lat="48.95407" lon="2.09295">
        <ele>89.9</ele>
        <time>2022-08-24T10:23:24Z</time>
      </trkpt>
      <trkpt lat="48.95402" lon="2.09302">
        <ele>90.2</ele>
        <time>2022-08-24T10:23:30Z</time>
      </trkpt>
      <trkpt lat="48.95398" lon="2.09309">
        <ele>90.3</ele>
        <time>2022-08-24T10:23:35Z</time>
      </trkpt>
      <trkpt lat="48.9539" lon="2.09325">
        <ele>90.4</ele>
        <time>2022-08-24T10:23:43Z</time>
      </trkpt>
      <trkpt lat="48.95386" lon="2.09335">
        <ele>90.6</ele>
        <time>2022-08-24T10:23:49Z</time>
      </trkpt>
      <trkpt lat="48.95381" lon="2.09346">
        <ele>90.7</ele>
        <time>2022-08-24T10:23:55Z</time>
      </trkpt>
      <trkpt lat="48.95374" lon="2.09355">
        <ele>90.8</ele>
        <time>2022-08-24T10:24:00Z</time>
      </trkpt>
      <trkpt lat="48.95371" lon="2.09366">
        <ele>90.7</ele>
        <time>2022-08-24T10:24:06Z</time>
      </trkpt>
      <trkpt lat="48.95366" lon="2.09376">
        <ele>90.9</ele>
        <time>2022-08-24T10:24:11Z</time>
      </trkpt>
      <trkpt lat="48.9536" lon="2.09387">
        <ele>91.4</ele>
        <time>2022-08-24T10:24:17Z</time>
      </trkpt>
      <trkpt lat="48.95354" lon="2.09397">
        <ele>91.7</ele>
        <time>2022-08-24T10:24:23Z</time>
      </trkpt>
      <trkpt lat="48.95349" lon="2.09403">
        <ele>91.6</ele>
        <time>2022-08-24T10:24:28Z</time>
      </trkpt>
      <trkpt lat="48.95347" lon="2.09415">
        <ele>91.3</ele>
        <time>2022-08-24T10:24:34Z</time>
      </trkpt>
      <trkpt lat="48.95343" lon="2.09425">
        <ele>91.3</ele>
        <time>2022-08-24T10:24:39Z</time>
      </trkpt>
      <trkpt lat="48.95335" lon="2.09436">
        <ele>91.4</ele>
        <time>2022-08-24T10:24:45Z</time>
      </trkpt>
      <trkpt lat="48.95332" lon="2.09449">
        <ele>91.5</ele>
        <time>2022-08-24T10:24:51Z</time>
      </trkpt>
      <trkpt lat="48.95327" lon="2.09457">
        <ele>91.6</ele>
        <time>2022-08-24T10:24:56Z</time>
      </trkpt>
      <trkpt lat="48.95321" lon="2.09469">
        <ele>91.7</ele>
        <time>2022-08-24T10:25:02Z</time>
      </trkpt>
      <trkpt lat="48.95319" lon="2.09476">
        <ele>91.6</ele>
        <time>2022-08-24T10:25:07Z</time>
      </trkpt>
      <trkpt lat="48.95314" lon="2.09485">
        <ele>91.5</ele>
        <time>2022-08-24T10:25:12Z</time>
      </trkpt>
      <trkpt lat="48.95308" lon="2.09498">
        <ele>91</ele>
        <time>2022-08-24T10:25:17Z</time>
      </trkpt>
      <trkpt lat="48.95303" lon="2.09513">
        <ele>90.7</ele>
        <time>2022-08-24T10:25:23Z</time>
      </trkpt>
      <trkpt lat="48.953" lon="2.09525">
        <ele>90.5</ele>
        <time>2022-08-24T10:25:29Z</time>
      </trkpt>
      <trkpt lat="48.95297" lon="2.09532">
        <ele>90.4</ele>
        <time>2022-08-24T10:25:35Z</time>
      </trkpt>
      <trkpt lat="48.95294" lon="2.09533">
        <ele>90.5</ele>
        <time>2022-08-24T10:25:40Z</time>
      </trkpt>
      <trkpt lat="48.95291" lon="2.09526">
        <ele>90.5</ele>
        <time>2022-08-24T10:25:46Z</time>
      </trkpt>
      <trkpt lat="48.95287" lon="2.09528">
        <ele>90.5</ele>
        <time>2022-08-24T10:25:52Z</time>
      </trkpt>
      <trkpt lat="48.9528" lon="2.09528">
        <ele>90.5</ele>
        <time>2022-08-24T10:25:58Z</time>
      </trkpt>
      <trkpt lat="48.95278" lon="2.09534">
        <ele>90.5</ele>
        <time>2022-08-24T10:26:03Z</time>
      </trkpt>
      <trkpt lat="48.95278" lon="2.09537">
        <ele>91</ele>
        <time>2022-08-24T10:26:09Z</time>
      </trkpt>
      <trkpt lat="48.95278" lon="2.09542">
        <ele>91.5</ele>
        <time>2022-08-24T10:26:14Z</time>
      </trkpt>
      <trkpt lat="48.95277" lon="2.09546">
        <ele>91.9</ele>
        <time>2022-08-24T10:26:20Z</time>
      </trkpt>
      <trkpt lat="48.95276" lon="2.09552">
        <ele>92.1</ele>
        <time>2022-08-24T10:26:26Z</time>
      </trkpt>
      <trkpt lat="48.95274" lon="2.09559">
        <ele>92.3</ele>
        <time>2022-08-24T10:26:31Z</time>
      </trkpt>
      <trkpt lat="48.95271" lon="2.09563">
        <ele>92.5</ele>
        <time>2022-08-24T10:26:37Z</time>
      </trkpt>
      <trkpt lat="48.95266" lon="2.09569">
        <ele>92.8</ele>
        <time>2022-08-24T10:26:43Z</time>
      </trkpt>
      <trkpt lat="48.95261" lon="2.09574">
        <ele>93</ele>
        <time>2022-08-24T10:26:49Z</time>
      </trkpt>
      <trkpt lat="48.95258" lon="2.0958">
        <ele>93</ele>
        <time>2022-08-24T10:26:54Z</time>
      </trkpt>
      <trkpt lat="48.95252" lon="2.0959">
        <ele>93</ele>
        <time>2022-08-24T10:27:00Z</time>
      </trkpt>
      <trkpt lat="48.95246" lon="2.09598">
        <ele>92.8</ele>
        <time>2022-08-24T10:27:05Z</time>
      </trkpt>
      <trkpt lat="48.95238" lon="2.09609">
        <ele>92.9</ele>
        <time>2022-08-24T10:27:11Z</time>
      </trkpt>
      <trkpt lat="48.95232" lon="2.0962">
        <ele>93.1</ele>
        <time>2022-08-24T10:27:16Z</time>
      </trkpt>
      <trkpt lat="48.95228" lon="2.09627">
        <ele>93</ele>
        <time>2022-08-24T10:27:21Z</time>
      </trkpt>
      <trkpt lat="48.95224" lon="2.09636">
        <ele>92.7</ele>
        <time>2022-08-24T10:27:27Z</time>
      </trkpt>
      <trkpt lat="48.95219" lon="2.09644">
        <ele>92.8</ele>
        <time>2022-08-24T10:27:32Z</time>
      </trkpt>
      <trkpt lat="48.95214" lon="2.09652">
        <ele>93.2</ele>
        <time>2022-08-24T10:27:37Z</time>
      </trkpt>
      <trkpt lat="48.95209" lon="2.09661">
        <ele>93.6</ele>
        <time>2022-08-24T10:27:43Z</time>
      </trkpt>
      <trkpt lat="48.95203" lon="2.09668">
        <ele>94.2</ele>
        <time>2022-08-24T10:27:49Z</time>
      </trkpt>
      <trkpt lat="48.95198" lon="2.09675">
        <ele>94.4</ele>
        <time>2022-08-24T10:27:54Z</time>
      </trkpt>
      <trkpt lat="48.95193" lon="2.09685">
        <ele>95.1</ele>
        <time>2022-08-24T10:28:00Z</time>
      </trkpt>
      <trkpt lat="48.95188" lon="2.09692">
        <ele>96.1</ele>
        <time>2022-08-24T10:28:05Z</time>
      </trkpt>
      <trkpt lat="48.95182" lon="2.09701">
        <ele>96.8</ele>
        <time>2022-08-24T10:28:11Z</time>
      </trkpt>
      <trkpt lat="48.95176" lon="2.09708">
        <ele>97.2</ele>
        <time>2022-08-24T10:28:17Z</time>
      </trkpt>
      <trkpt lat="48.95168" lon="2.09719">
        <ele>97.7</ele>
        <time>2022-08-24T10:28:23Z</time>
      </trkpt>
      <trkpt lat="48.95164" lon="2.0973">
        <ele>98</ele>
        <time>2022-08-24T10:28:29Z</time>
      </trkpt>
      <trkpt lat="48.95161" lon="2.09737">
        <ele>98.4</ele>
        <time>2022-08-24T10:28:35Z</time>
      </trkpt>
      <trkpt lat="48.95157" lon="2.09743">
        <ele>98.7</ele>
        <time>2022-08-24T10:28:40Z</time>
      </trkpt>
      <trkpt lat="48.95151" lon="2.09751">
        <ele>98.8</ele>
        <time>2022-08-24T10:28:46Z</time>
      </trkpt>
      <trkpt lat="48.95143" lon="2.0976">
        <ele>99</ele>
        <time>2022-08-24T10:28:52Z</time>
      </trkpt>
      <trkpt lat="48.95136" lon="2.09769">
        <ele>99.3</ele>
        <time>2022-08-24T10:28:58Z</time>
      </trkpt>
      <trkpt lat="48.95132" lon="2.09776">
        <ele>99.7</ele>
        <time>2022-08-24T10:29:04Z</time>
      </trkpt>
      <trkpt lat="48.95127" lon="2.09782">
        <ele>99.6</ele>
        <time>2022-08-24T10:29:09Z</time>
      </trkpt>
      <trkpt lat="48.95121" lon="2.09791">
        <ele>99.7</ele>
        <time>2022-08-24T10:29:14Z</time>
      </trkpt>
      <trkpt lat="48.95114" lon="2.09801">
        <ele>100.2</ele>
        <time>2022-08-24T10:29:20Z</time>
      </trkpt>
      <trkpt lat="48.9511" lon="2.09809">
        <ele>100.6</ele>
        <time>2022-08-24T10:29:25Z</time>
      </trkpt>
      <trkpt lat="48.95103" lon="2.09818">
        <ele>101.2</ele>
        <time>2022-08-24T10:29:31Z</time>
      </trkpt>
      <trkpt lat="48.95098" lon="2.09825">
        <ele>101.8</ele>
        <time>2022-08-24T10:29:37Z</time>
      </trkpt>
      <trkpt lat="48.95092" lon="2.09835">
        <ele>102.2</ele>
        <time>2022-08-24T10:29:43Z</time>
      </trkpt>
      <trkpt lat="48.95087" lon="2.09845">
        <ele>102.6</ele>
        <time>2022-08-24T10:29:49Z</time>
      </trkpt>
      <trkpt lat="48.95083" lon="2.09855">
        <ele>103</ele>
        <time>2022-08-24T10:29:55Z</time>
      </trkpt>
      <trkpt lat="48.95076" lon="2.09868">
        <ele>103.3</ele>
        <time>2022-08-24T10:30:00Z</time>
      </trkpt>
      <trkpt lat="48.9507" lon="2.09876">
        <ele>103.8</ele>
        <time>2022-08-24T10:30:06Z</time>
      </trkpt>
      <trkpt lat="48.95067" lon="2.09884">
        <ele>104</ele>
        <time>2022-08-24T10:30:11Z</time>
      </trkpt>
      <trkpt lat="48.95061" lon="2.09893">
        <ele>104.6</ele>
        <time>2022-08-24T10:30:17Z</time>
      </trkpt>
      <trkpt lat="48.95055" lon="2.09905">
        <ele>105.1</ele>
        <time>2022-08-24T10:30:22Z</time>
      </trkpt>
      <trkpt lat="48.95048" lon="2.09916">
        <ele>105.6</ele>
        <time>2022-08-24T10:30:28Z</time>
      </trkpt>
      <trkpt lat="48.95043" lon="2.09922">
        <ele>106.1</ele>
        <time>2022-08-24T10:30:34Z</time>
      </trkpt>
      <trkpt lat="48.95036" lon="2.09933">
        <ele>106.5</ele>
        <time>2022-08-24T10:30:40Z</time>
      </trkpt>
      <trkpt lat="48.95028" lon="2.09942">
        <ele>106.9</ele>
        <time>2022-08-24T10:30:45Z</time>
      </trkpt>
      <trkpt lat="48.95023" lon="2.09952">
        <ele>107.1</ele>
        <time>2022-08-24T10:30:51Z</time>
      </trkpt>
      <trkpt lat="48.9502" lon="2.09958">
        <ele>107.1</ele>
        <time>2022-08-24T10:30:56Z</time>
      </trkpt>
      <trkpt lat="48.95014" lon="2.0997">
        <ele>107.2</ele>
        <time>2022-08-24T10:31:02Z</time>
      </trkpt>
      <trkpt lat="48.95008" lon="2.09981">
        <ele>107.3</ele>
        <time>2022-08-24T10:31:08Z</time>
      </trkpt>
      <trkpt lat="48.95004" lon="2.09991">
        <ele>107.2</ele>
        <time>2022-08-24T10:31:13Z</time>
      </trkpt>
      <trkpt lat="48.94996" lon="2.1">
        <ele>107</ele>
        <time>2022-08-24T10:31:19Z</time>
      </trkpt>
      <trkpt lat="48.94993" lon="2.10011">
        <ele>107.1</ele>
        <time>2022-08-24T10:31:25Z</time>
      </trkpt>
      <trkpt lat="48.94994" lon="2.10013">
        <ele>107</ele>
        <time>2022-08-24T10:31:31Z</time>
      </trkpt>
      <trkpt lat="48.94996" lon="2.10016">
        <ele>106.9</ele>
        <time>2022-08-24T10:31:36Z</time>
      </trkpt>
      <trkpt lat="48.94996" lon="2.10017">
        <ele>106.3</ele>
        <time>2022-08-24T10:31:48Z</time>
      </trkpt>
      <trkpt lat="48.94991" lon="2.10025">
        <ele>105.6</ele>
        <time>2022-08-24T10:31:54Z</time>
      </trkpt>
      <trkpt lat="48.94991" lon="2.10027">
        <ele>105.3</ele>
        <time>2022-08-24T10:32:00Z</time>
      </trkpt>
      <trkpt lat="48.94992" lon="2.10027">
        <ele>105.2</ele>
        <time>2022-08-24T10:32:06Z</time>
      </trkpt>
      <trkpt lat="48.94992" lon="2.10025">
        <ele>104.6</ele>
        <time>2022-08-24T10:32:18Z</time>
      </trkpt>
      <trkpt lat="48.94993" lon="2.10019">
        <ele>103.6</ele>
        <time>2022-08-24T10:32:23Z</time>
      </trkpt>
      <trkpt lat="48.94993" lon="2.1001">
        <ele>102.3</ele>
        <time>2022-08-24T10:32:28Z</time>
      </trkpt>
      <trkpt lat="48.94993" lon="2.09997">
        <ele>100.9</ele>
        <time>2022-08-24T10:32:34Z</time>
      </trkpt>
      <trkpt lat="48.94995" lon="2.09984">
        <ele>99.9</ele>
        <time>2022-08-24T10:32:40Z</time>
      </trkpt>
      <trkpt lat="48.94999" lon="2.09974">
        <ele>108.7</ele>
        <time>2022-08-24T10:52:35Z</time>
      </trkpt>
      <trkpt lat="48.94999" lon="2.09972">
        <ele>107.8</ele>
        <time>2022-08-24T11:09:09Z</time>
      </trkpt>
      <trkpt lat="48.94999" lon="2.09973">
        <ele>108</ele>
        <time>2022-08-24T11:09:15Z</time>
      </trkpt>
      <trkpt lat="48.94999" lon="2.09974">
        <ele>108.1</ele>
        <time>2022-08-24T11:09:20Z</time>
      </trkpt>
      <trkpt lat="48.94999" lon="2.09973">
        <ele>107.7</ele>
        <time>2022-08-24T11:09:37Z</time>
      </trkpt>
      <trkpt lat="48.94999" lon="2.09972">
        <ele>105.2</ele>
        <time>2022-08-24T11:10:54Z</time>
      </trkpt>
      <trkpt lat="48.95001" lon="2.09954">
        <ele>102.2</ele>
        <time>2022-08-24T11:15:19Z</time>
      </trkpt>
      <trkpt lat="48.94999" lon="2.09941">
        <ele>102.4</ele>
        <time>2022-08-24T11:15:24Z</time>
      </trkpt>
      <trkpt lat="48.94997" lon="2.0993">
        <ele>102.3</ele>
        <time>2022-08-24T11:15:29Z</time>
      </trkpt>
      <trkpt lat="48.94997" lon="2.09917">
        <ele>102.1</ele>
        <time>2022-08-24T11:15:35Z</time>
      </trkpt>
      <trkpt lat="48.94998" lon="2.09905">
        <ele>101.9</ele>
        <time>2022-08-24T11:15:41Z</time>
      </trkpt>
      <trkpt lat="48.94997" lon="2.09895">
        <ele>101.7</ele>
        <time>2022-08-24T11:15:46Z</time>
      </trkpt>
      <trkpt lat="48.94995" lon="2.09882">
        <ele>101.7</ele>
        <time>2022-08-24T11:15:52Z</time>
      </trkpt>
      <trkpt lat="48.94995" lon="2.09871">
        <ele>101.8</ele>
        <time>2022-08-24T11:15:58Z</time>
      </trkpt>
      <trkpt lat="48.94994" lon="2.09861">
        <ele>101.9</ele>
        <time>2022-08-24T11:16:03Z</time>
      </trkpt>
      <trkpt lat="48.94992" lon="2.09851">
        <ele>102</ele>
        <time>2022-08-24T11:16:09Z</time>
      </trkpt>
      <trkpt lat="48.94991" lon="2.09842">
        <ele>101.7</ele>
        <time>2022-08-24T11:16:15Z</time>
      </trkpt>
      <trkpt lat="48.9499" lon="2.09841">
        <ele>101.2</ele>
        <time>2022-08-24T11:16:20Z</time>
      </trkpt>
      <trkpt lat="48.9499" lon="2.09845">
        <ele>100.7</ele>
        <time>2022-08-24T11:16:26Z</time>
      </trkpt>
      <trkpt lat="48.94991" lon="2.09853">
        <ele>100.1</ele>
        <time>2022-08-24T11:16:32Z</time>
      </trkpt>
      <trkpt lat="48.94991" lon="2.09861">
        <ele>99.4</ele>
        <time>2022-08-24T11:16:37Z</time>
      </trkpt>
      <trkpt lat="48.94992" lon="2.09872">
        <ele>98.5</ele>
        <time>2022-08-24T11:16:43Z</time>
      </trkpt>
      <trkpt lat="48.94991" lon="2.09885">
        <ele>97.5</ele>
        <time>2022-08-24T11:16:49Z</time>
      </trkpt>
      <trkpt lat="48.94991" lon="2.09897">
        <ele>96.6</ele>
        <time>2022-08-24T11:16:55Z</time>
      </trkpt>
      <trkpt lat="48.94992" lon="2.09907">
        <ele>95.9</ele>
        <time>2022-08-24T11:17:00Z</time>
      </trkpt>
      <trkpt lat="48.94993" lon="2.09916">
        <ele>95.3</ele>
        <time>2022-08-24T11:17:05Z</time>
      </trkpt>
      <trkpt lat="48.94994" lon="2.09928">
        <ele>94.2</ele>
        <time>2022-08-24T11:17:11Z</time>
      </trkpt>
      <trkpt lat="48.94997" lon="2.09938">
        <ele>93.4</ele>
        <time>2022-08-24T11:17:17Z</time>
      </trkpt>
      <trkpt lat="48.95" lon="2.09949">
        <ele>93</ele>
        <time>2022-08-24T11:17:23Z</time>
      </trkpt>
      <trkpt lat="48.95001" lon="2.09958">
        <ele>92.7</ele>
        <time>2022-08-24T11:17:28Z</time>
      </trkpt>
      <trkpt lat="48.95001" lon="2.09982">
        <ele>92</ele>
        <time>2022-08-24T11:17:39Z</time>
      </trkpt>
      <trkpt lat="48.95001" lon="2.09992">
        <ele>91.6</ele>
        <time>2022-08-24T11:17:44Z</time>
      </trkpt>
      <trkpt lat="48.94998" lon="2.09994">
        <ele>91</ele>
        <time>2022-08-24T11:17:50Z</time>
      </trkpt>
      <trkpt lat="48.94992" lon="2.09996">
        <ele>90.5</ele>
        <time>2022-08-24T11:17:55Z</time>
      </trkpt>
      <trkpt lat="48.94984" lon="2.09996">
        <ele>90.1</ele>
        <time>2022-08-24T11:18:00Z</time>
      </trkpt>
      <trkpt lat="48.94975" lon="2.09994">
        <ele>89.6</ele>
        <time>2022-08-24T11:18:06Z</time>
      </trkpt>
      <trkpt lat="48.94965" lon="2.0999">
        <ele>89.6</ele>
        <time>2022-08-24T11:18:12Z</time>
      </trkpt>
      <trkpt lat="48.94957" lon="2.09987">
        <ele>90</ele>
        <time>2022-08-24T11:18:17Z</time>
      </trkpt>
      <trkpt lat="48.94948" lon="2.09983">
        <ele>90.6</ele>
        <time>2022-08-24T11:18:23Z</time>
      </trkpt>
      <trkpt lat="48.9494" lon="2.09981">
        <ele>91.2</ele>
        <time>2022-08-24T11:18:28Z</time>
      </trkpt>
      <trkpt lat="48.94931" lon="2.09978">
        <ele>92</ele>
        <time>2022-08-24T11:18:34Z</time>
      </trkpt>
      <trkpt lat="48.94924" lon="2.09976">
        <ele>92.7</ele>
        <time>2022-08-24T11:18:39Z</time>
      </trkpt>
      <trkpt lat="48.94916" lon="2.09974">
        <ele>93.6</ele>
        <time>2022-08-24T11:18:44Z</time>
      </trkpt>
      <trkpt lat="48.9491" lon="2.09973">
        <ele>94.4</ele>
        <time>2022-08-24T11:18:49Z</time>
      </trkpt>
      <trkpt lat="48.94904" lon="2.09971">
        <ele>95</ele>
        <time>2022-08-24T11:18:54Z</time>
      </trkpt>
      <trkpt lat="48.94896" lon="2.09971">
        <ele>95.4</ele>
        <time>2022-08-24T11:19:00Z</time>
      </trkpt>
      <trkpt lat="48.9489" lon="2.0997">
        <ele>95.6</ele>
        <time>2022-08-24T11:19:05Z</time>
      </trkpt>
      <trkpt lat="48.94883" lon="2.09967">
        <ele>95.7</ele>
        <time>2022-08-24T11:19:11Z</time>
      </trkpt>
      <trkpt lat="48.94877" lon="2.09964">
        <ele>95.4</ele>
        <time>2022-08-24T11:19:16Z</time>
      </trkpt>
      <trkpt lat="48.94868" lon="2.0996">
        <ele>94.5</ele>
        <time>2022-08-24T11:19:22Z</time>
      </trkpt>
      <trkpt lat="48.9486" lon="2.09955">
        <ele>93.8</ele>
        <time>2022-08-24T11:19:27Z</time>
      </trkpt>
      <trkpt lat="48.94848" lon="2.09951">
        <ele>93.6</ele>
        <time>2022-08-24T11:19:33Z</time>
      </trkpt>
      <trkpt lat="48.94837" lon="2.09946">
        <ele>93.9</ele>
        <time>2022-08-24T11:19:39Z</time>
      </trkpt>
      <trkpt lat="48.94828" lon="2.09943">
        <ele>94.4</ele>
        <time>2022-08-24T11:19:45Z</time>
      </trkpt>
      <trkpt lat="48.9482" lon="2.09941">
        <ele>94.7</ele>
        <time>2022-08-24T11:19:50Z</time>
      </trkpt>
      <trkpt lat="48.9481" lon="2.09936">
        <ele>94.7</ele>
        <time>2022-08-24T11:19:56Z</time>
      </trkpt>
      <trkpt lat="48.948" lon="2.0993">
        <ele>94.5</ele>
        <time>2022-08-24T11:20:02Z</time>
      </trkpt>
      <trkpt lat="48.94792" lon="2.09927">
        <ele>94.4</ele>
        <time>2022-08-24T11:20:07Z</time>
      </trkpt>
      <trkpt lat="48.94783" lon="2.09925">
        <ele>94.4</ele>
        <time>2022-08-24T11:20:13Z</time>
      </trkpt>
      <trkpt lat="48.94775" lon="2.09924">
        <ele>94.8</ele>
        <time>2022-08-24T11:20:19Z</time>
      </trkpt>
      <trkpt lat="48.94768" lon="2.09923">
        <ele>95.2</ele>
        <time>2022-08-24T11:20:25Z</time>
      </trkpt>
      <trkpt lat="48.9476" lon="2.0992">
        <ele>95.7</ele>
        <time>2022-08-24T11:20:31Z</time>
      </trkpt>
      <trkpt lat="48.94753" lon="2.09919">
        <ele>96</ele>
        <time>2022-08-24T11:20:36Z</time>
      </trkpt>
      <trkpt lat="48.94746" lon="2.09917">
        <ele>96.3</ele>
        <time>2022-08-24T11:20:42Z</time>
      </trkpt>
      <trkpt lat="48.94739" lon="2.09914">
        <ele>96.3</ele>
        <time>2022-08-24T11:20:48Z</time>
      </trkpt>
      <trkpt lat="48.94732" lon="2.09911">
        <ele>96.4</ele>
        <time>2022-08-24T11:20:54Z</time>
      </trkpt>
      <trkpt lat="48.94724" lon="2.09908">
        <ele>96.5</ele>
        <time>2022-08-24T11:21:00Z</time>
      </trkpt>
      <trkpt lat="48.94716" lon="2.09905">
        <ele>96.6</ele>
        <time>2022-08-24T11:21:06Z</time>
      </trkpt>
      <trkpt lat="48.94709" lon="2.09904">
        <ele>96.6</ele>
        <time>2022-08-24T11:21:11Z</time>
      </trkpt>
      <trkpt lat="48.947" lon="2.09903">
        <ele>96.7</ele>
        <time>2022-08-24T11:21:17Z</time>
      </trkpt>
      <trkpt lat="48.9469" lon="2.099">
        <ele>96.9</ele>
        <time>2022-08-24T11:21:23Z</time>
      </trkpt>
      <trkpt lat="48.94682" lon="2.09897">
        <ele>97.1</ele>
        <time>2022-08-24T11:21:29Z</time>
      </trkpt>
      <trkpt lat="48.94673" lon="2.09893">
        <ele>97.4</ele>
        <time>2022-08-24T11:21:35Z</time>
      </trkpt>
      <trkpt lat="48.94664" lon="2.0989">
        <ele>97.8</ele>
        <time>2022-08-24T11:21:40Z</time>
      </trkpt>
      <trkpt lat="48.94655" lon="2.09886">
        <ele>98.3</ele>
        <time>2022-08-24T11:21:46Z</time>
      </trkpt>
      <trkpt lat="48.94648" lon="2.09883">
        <ele>98.6</ele>
        <time>2022-08-24T11:21:51Z</time>
      </trkpt>
      <trkpt lat="48.94639" lon="2.09878">
        <ele>98.6</ele>
        <time>2022-08-24T11:21:57Z</time>
      </trkpt>
      <trkpt lat="48.94631" lon="2.09874">
        <ele>98.4</ele>
        <time>2022-08-24T11:22:02Z</time>
      </trkpt>
      <trkpt lat="48.94621" lon="2.09871">
        <ele>98.4</ele>
        <time>2022-08-24T11:22:08Z</time>
      </trkpt>
      <trkpt lat="48.94612" lon="2.09868">
        <ele>98.4</ele>
        <time>2022-08-24T11:22:14Z</time>
      </trkpt>
      <trkpt lat="48.94604" lon="2.09867">
        <ele>98.4</ele>
        <time>2022-08-24T11:22:20Z</time>
      </trkpt>
      <trkpt lat="48.94596" lon="2.09866">
        <ele>98.4</ele>
        <time>2022-08-24T11:22:26Z</time>
      </trkpt>
      <trkpt lat="48.94587" lon="2.09865">
        <ele>98.2</ele>
        <time>2022-08-24T11:22:32Z</time>
      </trkpt>
      <trkpt lat="48.94579" lon="2.09863">
        <ele>97.9</ele>
        <time>2022-08-24T11:22:38Z</time>
      </trkpt>
      <trkpt lat="48.94572" lon="2.09861">
        <ele>97.5</ele>
        <time>2022-08-24T11:22:43Z</time>
      </trkpt>
      <trkpt lat="48.94564" lon="2.09858">
        <ele>96.9</ele>
        <time>2022-08-24T11:22:49Z</time>
      </trkpt>
      <trkpt lat="48.94558" lon="2.09856">
        <ele>96.2</ele>
        <time>2022-08-24T11:22:54Z</time>
      </trkpt>
      <trkpt lat="48.94549" lon="2.09851">
        <ele>95.7</ele>
        <time>2022-08-24T11:23:00Z</time>
      </trkpt>
      <trkpt lat="48.94543" lon="2.09849">
        <ele>95.3</ele>
        <time>2022-08-24T11:23:05Z</time>
      </trkpt>
      <trkpt lat="48.94535" lon="2.09847">
        <ele>95.2</ele>
        <time>2022-08-24T11:23:11Z</time>
      </trkpt>
      <trkpt lat="48.94529" lon="2.09845">
        <ele>95.3</ele>
        <time>2022-08-24T11:23:16Z</time>
      </trkpt>
      <trkpt lat="48.94521" lon="2.09843">
        <ele>95.1</ele>
        <time>2022-08-24T11:23:22Z</time>
      </trkpt>
      <trkpt lat="48.94513" lon="2.0984">
        <ele>95.1</ele>
        <time>2022-08-24T11:23:27Z</time>
      </trkpt>
      <trkpt lat="48.94505" lon="2.09836">
        <ele>95.1</ele>
        <time>2022-08-24T11:23:33Z</time>
      </trkpt>
      <trkpt lat="48.94498" lon="2.09833">
        <ele>95.2</ele>
        <time>2022-08-24T11:23:38Z</time>
      </trkpt>
      <trkpt lat="48.9449" lon="2.0983">
        <ele>95.4</ele>
        <time>2022-08-24T11:23:44Z</time>
      </trkpt>
      <trkpt lat="48.94482" lon="2.09828">
        <ele>95.3</ele>
        <time>2022-08-24T11:23:50Z</time>
      </trkpt>
      <trkpt lat="48.94473" lon="2.09826">
        <ele>95.2</ele>
        <time>2022-08-24T11:23:56Z</time>
      </trkpt>
      <trkpt lat="48.94466" lon="2.09824">
        <ele>95.3</ele>
        <time>2022-08-24T11:24:01Z</time>
      </trkpt>
      <trkpt lat="48.94456" lon="2.09821">
        <ele>95.3</ele>
        <time>2022-08-24T11:24:07Z</time>
      </trkpt>
      <trkpt lat="48.94448" lon="2.09818">
        <ele>95.4</ele>
        <time>2022-08-24T11:24:12Z</time>
      </trkpt>
      <trkpt lat="48.94438" lon="2.09814">
        <ele>95.6</ele>
        <time>2022-08-24T11:24:18Z</time>
      </trkpt>
      <trkpt lat="48.9443" lon="2.0981">
        <ele>95.5</ele>
        <time>2022-08-24T11:24:24Z</time>
      </trkpt>
      <trkpt lat="48.94423" lon="2.09808">
        <ele>95.4</ele>
        <time>2022-08-24T11:24:30Z</time>
      </trkpt>
      <trkpt lat="48.94417" lon="2.09807">
        <ele>95.4</ele>
        <time>2022-08-24T11:24:35Z</time>
      </trkpt>
      <trkpt lat="48.94412" lon="2.09807">
        <ele>95.3</ele>
        <time>2022-08-24T11:24:40Z</time>
      </trkpt>
      <trkpt lat="48.94405" lon="2.09806">
        <ele>94.9</ele>
        <time>2022-08-24T11:24:46Z</time>
      </trkpt>
      <trkpt lat="48.94399" lon="2.09804">
        <ele>94.3</ele>
        <time>2022-08-24T11:24:51Z</time>
      </trkpt>
      <trkpt lat="48.94393" lon="2.09802">
        <ele>93.9</ele>
        <time>2022-08-24T11:24:56Z</time>
      </trkpt>
      <trkpt lat="48.94386" lon="2.098">
        <ele>93.2</ele>
        <time>2022-08-24T11:25:02Z</time>
      </trkpt>
      <trkpt lat="48.9438" lon="2.09797">
        <ele>92.3</ele>
        <time>2022-08-24T11:25:07Z</time>
      </trkpt>
      <trkpt lat="48.94372" lon="2.09793">
        <ele>91.2</ele>
        <time>2022-08-24T11:25:13Z</time>
      </trkpt>
      <trkpt lat="48.94364" lon="2.0979">
        <ele>90.2</ele>
        <time>2022-08-24T11:25:19Z</time>
      </trkpt>
      <trkpt lat="48.94356" lon="2.09787">
        <ele>89.5</ele>
        <time>2022-08-24T11:25:24Z</time>
      </trkpt>
      <trkpt lat="48.94347" lon="2.09784">
        <ele>88.8</ele>
        <time>2022-08-24T11:25:30Z</time>
      </trkpt>
      <trkpt lat="48.94338" lon="2.09781">
        <ele>88.7</ele>
        <time>2022-08-24T11:25:36Z</time>
      </trkpt>
      <trkpt lat="48.94328" lon="2.09777">
        <ele>88.8</ele>
        <time>2022-08-24T11:25:42Z</time>
      </trkpt>
      <trkpt lat="48.94318" lon="2.09773">
        <ele>89.2</ele>
        <time>2022-08-24T11:25:48Z</time>
      </trkpt>
      <trkpt lat="48.9431" lon="2.0977">
        <ele>89.4</ele>
        <time>2022-08-24T11:25:53Z</time>
      </trkpt>
      <trkpt lat="48.943" lon="2.09768">
        <ele>90.1</ele>
        <time>2022-08-24T11:25:59Z</time>
      </trkpt>
      <trkpt lat="48.94292" lon="2.09765">
        <ele>91</ele>
        <time>2022-08-24T11:26:04Z</time>
      </trkpt>
      <trkpt lat="48.94282" lon="2.09761">
        <ele>91.9</ele>
        <time>2022-08-24T11:26:10Z</time>
      </trkpt>
      <trkpt lat="48.94274" lon="2.09758">
        <ele>92.7</ele>
        <time>2022-08-24T11:26:15Z</time>
      </trkpt>
      <trkpt lat="48.94264" lon="2.09754">
        <ele>93.5</ele>
        <time>2022-08-24T11:26:21Z</time>
      </trkpt>
      <trkpt lat="48.94255" lon="2.09751">
        <ele>94.4</ele>
        <time>2022-08-24T11:26:27Z</time>
      </trkpt>
      <trkpt lat="48.94245" lon="2.09748">
        <ele>95.5</ele>
        <time>2022-08-24T11:26:33Z</time>
      </trkpt>
      <trkpt lat="48.94237" lon="2.09745">
        <ele>96.4</ele>
        <time>2022-08-24T11:26:39Z</time>
      </trkpt>
      <trkpt lat="48.94229" lon="2.09741">
        <ele>97</ele>
        <time>2022-08-24T11:26:45Z</time>
      </trkpt>
      <trkpt lat="48.94222" lon="2.09739">
        <ele>97.7</ele>
        <time>2022-08-24T11:26:50Z</time>
      </trkpt>
      <trkpt lat="48.94214" lon="2.09737">
        <ele>98.5</ele>
        <time>2022-08-24T11:26:56Z</time>
      </trkpt>
      <trkpt lat="48.94207" lon="2.09736">
        <ele>99.2</ele>
        <time>2022-08-24T11:27:02Z</time>
      </trkpt>
      <trkpt lat="48.94201" lon="2.09735">
        <ele>99.5</ele>
        <time>2022-08-24T11:27:07Z</time>
      </trkpt>
      <trkpt lat="48.94193" lon="2.09733">
        <ele>99.8</ele>
        <time>2022-08-24T11:27:13Z</time>
      </trkpt>
      <trkpt lat="48.94185" lon="2.0973">
        <ele>99.8</ele>
        <time>2022-08-24T11:27:19Z</time>
      </trkpt>
      <trkpt lat="48.94178" lon="2.09727">
        <ele>99.9</ele>
        <time>2022-08-24T11:27:24Z</time>
      </trkpt>
      <trkpt lat="48.94171" lon="2.09724">
        <ele>100</ele>
        <time>2022-08-24T11:27:29Z</time>
      </trkpt>
      <trkpt lat="48.94163" lon="2.0972">
        <ele>99.9</ele>
        <time>2022-08-24T11:27:35Z</time>
      </trkpt>
      <trkpt lat="48.94156" lon="2.09718">
        <ele>99.6</ele>
        <time>2022-08-24T11:27:41Z</time>
      </trkpt>
      <trkpt lat="48.94149" lon="2.09716">
        <ele>99.5</ele>
        <time>2022-08-24T11:27:46Z</time>
      </trkpt>
      <trkpt lat="48.94141" lon="2.09716">
        <ele>99.3</ele>
        <time>2022-08-24T11:27:52Z</time>
      </trkpt>
      <trkpt lat="48.94134" lon="2.09715">
        <ele>99.3</ele>
        <time>2022-08-24T11:27:57Z</time>
      </trkpt>
      <trkpt lat="48.94128" lon="2.09715">
        <ele>99.2</ele>
        <time>2022-08-24T11:28:03Z</time>
      </trkpt>
      <trkpt lat="48.94123" lon="2.09715">
        <ele>98.8</ele>
        <time>2022-08-24T11:28:09Z</time>
      </trkpt>
      <trkpt lat="48.94118" lon="2.09714">
        <ele>98.7</ele>
        <time>2022-08-24T11:28:14Z</time>
      </trkpt>
      <trkpt lat="48.9411" lon="2.09711">
        <ele>98</ele>
        <time>2022-08-24T11:28:20Z</time>
      </trkpt>
      <trkpt lat="48.94101" lon="2.0971">
        <ele>97.6</ele>
        <time>2022-08-24T11:28:25Z</time>
      </trkpt>
      <trkpt lat="48.94092" lon="2.09707">
        <ele>96.9</ele>
        <time>2022-08-24T11:28:31Z</time>
      </trkpt>
      <trkpt lat="48.94084" lon="2.09705">
        <ele>96.2</ele>
        <time>2022-08-24T11:28:36Z</time>
      </trkpt>
      <trkpt lat="48.94074" lon="2.097">
        <ele>95.2</ele>
        <time>2022-08-24T11:28:42Z</time>
      </trkpt>
      <trkpt lat="48.94066" lon="2.09695">
        <ele>94.5</ele>
        <time>2022-08-24T11:28:47Z</time>
      </trkpt>
      <trkpt lat="48.94057" lon="2.0969">
        <ele>94.2</ele>
        <time>2022-08-24T11:28:53Z</time>
      </trkpt>
      <trkpt lat="48.94048" lon="2.09686">
        <ele>94</ele>
        <time>2022-08-24T11:28:59Z</time>
      </trkpt>
      <trkpt lat="48.94038" lon="2.09682">
        <ele>94</ele>
        <time>2022-08-24T11:29:05Z</time>
      </trkpt>
      <trkpt lat="48.94029" lon="2.09681">
        <ele>94.1</ele>
        <time>2022-08-24T11:29:11Z</time>
      </trkpt>
      <trkpt lat="48.94022" lon="2.09681">
        <ele>93.8</ele>
        <time>2022-08-24T11:29:17Z</time>
      </trkpt>
      <trkpt lat="48.94012" lon="2.0968">
        <ele>93.8</ele>
        <time>2022-08-24T11:29:23Z</time>
      </trkpt>
      <trkpt lat="48.94002" lon="2.09678">
        <ele>94.3</ele>
        <time>2022-08-24T11:29:29Z</time>
      </trkpt>
      <trkpt lat="48.93993" lon="2.09675">
        <ele>94.8</ele>
        <time>2022-08-24T11:29:35Z</time>
      </trkpt>
      <trkpt lat="48.93985" lon="2.09672">
        <ele>95.3</ele>
        <time>2022-08-24T11:29:41Z</time>
      </trkpt>
      <trkpt lat="48.93979" lon="2.09671">
        <ele>95.4</ele>
        <time>2022-08-24T11:29:46Z</time>
      </trkpt>
      <trkpt lat="48.93974" lon="2.09673">
        <ele>95.3</ele>
        <time>2022-08-24T11:29:52Z</time>
      </trkpt>
      <trkpt lat="48.93969" lon="2.09683">
        <ele>95.4</ele>
        <time>2022-08-24T11:29:58Z</time>
      </trkpt>
      <trkpt lat="48.93961" lon="2.09692">
        <ele>95.7</ele>
        <time>2022-08-24T11:30:03Z</time>
      </trkpt>
      <trkpt lat="48.93953" lon="2.09699">
        <ele>95.9</ele>
        <time>2022-08-24T11:30:08Z</time>
      </trkpt>
      <trkpt lat="48.93945" lon="2.09704">
        <ele>96.4</ele>
        <time>2022-08-24T11:30:14Z</time>
      </trkpt>
      <trkpt lat="48.93938" lon="2.09704">
        <ele>97.1</ele>
        <time>2022-08-24T11:30:19Z</time>
      </trkpt>
      <trkpt lat="48.93933" lon="2.09699">
        <ele>98</ele>
        <time>2022-08-24T11:30:25Z</time>
      </trkpt>
      <trkpt lat="48.93929" lon="2.09692">
        <ele>98.7</ele>
        <time>2022-08-24T11:30:30Z</time>
      </trkpt>
      <trkpt lat="48.93926" lon="2.09682">
        <ele>99.4</ele>
        <time>2022-08-24T11:30:36Z</time>
      </trkpt>
      <trkpt lat="48.93925" lon="2.09675">
        <ele>99.5</ele>
        <time>2022-08-24T11:30:42Z</time>
      </trkpt>
      <trkpt lat="48.93925" lon="2.09673">
        <ele>99.6</ele>
        <time>2022-08-24T11:30:47Z</time>
      </trkpt>
      <trkpt lat="48.93925" lon="2.09672">
        <ele>99.7</ele>
        <time>2022-08-24T11:30:53Z</time>
      </trkpt>
      <trkpt lat="48.93925" lon="2.09671">
        <ele>100.5</ele>
        <time>2022-08-24T11:31:09Z</time>
      </trkpt>
      <trkpt lat="48.93925" lon="2.09669">
        <ele>101.4</ele>
        <time>2022-08-24T11:31:15Z</time>
      </trkpt>
      <trkpt lat="48.93925" lon="2.09668">
        <ele>101.6</ele>
        <time>2022-08-24T11:31:21Z</time>
      </trkpt>
      <trkpt lat="48.93925" lon="2.09666">
        <ele>103</ele>
        <time>2022-08-24T11:31:27Z</time>
      </trkpt>
      <trkpt lat="48.93926" lon="2.09659">
        <ele>105</ele>
        <time>2022-08-24T11:31:38Z</time>
      </trkpt>
      <trkpt lat="48.93927" lon="2.09653">
        <ele>106.7</ele>
        <time>2022-08-24T11:31:44Z</time>
      </trkpt>
      <trkpt lat="48.93929" lon="2.09649">
        <ele>108.1</ele>
        <time>2022-08-24T11:31:49Z</time>
      </trkpt>
      <trkpt lat="48.93931" lon="2.09644">
        <ele>109.3</ele>
        <time>2022-08-24T11:31:55Z</time>
      </trkpt>
      <trkpt lat="48.93933" lon="2.09638">
        <ele>110.5</ele>
        <time>2022-08-24T11:32:00Z</time>
      </trkpt>
      <trkpt lat="48.9393" lon="2.09629">
        <ele>111.5</ele>
        <time>2022-08-24T11:32:06Z</time>
      </trkpt>
      <trkpt lat="48.93927" lon="2.09619">
        <ele>112.1</ele>
        <time>2022-08-24T11:32:12Z</time>
      </trkpt>
      <trkpt lat="48.93927" lon="2.0961">
        <ele>112.5</ele>
        <time>2022-08-24T11:32:18Z</time>
      </trkpt>
      <trkpt lat="48.93928" lon="2.09606">
        <ele>112.5</ele>
        <time>2022-08-24T11:32:23Z</time>
      </trkpt>
      <trkpt lat="48.9393" lon="2.09604">
        <ele>112.4</ele>
        <time>2022-08-24T11:32:28Z</time>
      </trkpt>
      <trkpt lat="48.93932" lon="2.09598">
        <ele>112.2</ele>
        <time>2022-08-24T11:32:34Z</time>
      </trkpt>
      <trkpt lat="48.93933" lon="2.09584">
        <ele>112.1</ele>
        <time>2022-08-24T11:32:40Z</time>
      </trkpt>
      <trkpt lat="48.9393" lon="2.09574">
        <ele>111.8</ele>
        <time>2022-08-24T11:32:45Z</time>
      </trkpt>
      <trkpt lat="48.93923" lon="2.09566">
        <ele>111.4</ele>
        <time>2022-08-24T11:32:51Z</time>
      </trkpt>
      <trkpt lat="48.93916" lon="2.09564">
        <ele>110.8</ele>
        <time>2022-08-24T11:32:56Z</time>
      </trkpt>
      <trkpt lat="48.93907" lon="2.09565">
        <ele>110</ele>
        <time>2022-08-24T11:33:02Z</time>
      </trkpt>
      <trkpt lat="48.93899" lon="2.09564">
        <ele>109</ele>
        <time>2022-08-24T11:33:08Z</time>
      </trkpt>
      <trkpt lat="48.93892" lon="2.09563">
        <ele>108.6</ele>
        <time>2022-08-24T11:33:14Z</time>
      </trkpt>
      <trkpt lat="48.9389" lon="2.0956">
        <ele>108.6</ele>
        <time>2022-08-24T11:33:19Z</time>
      </trkpt>
      <trkpt lat="48.93888" lon="2.09555">
        <ele>109</ele>
        <time>2022-08-24T11:33:25Z</time>
      </trkpt>
      <trkpt lat="48.93886" lon="2.0955">
        <ele>109.4</ele>
        <time>2022-08-24T11:33:31Z</time>
      </trkpt>
      <trkpt lat="48.93884" lon="2.09545">
        <ele>109.7</ele>
        <time>2022-08-24T11:33:37Z</time>
      </trkpt>
      <trkpt lat="48.9388" lon="2.0954">
        <ele>109.9</ele>
        <time>2022-08-24T11:33:42Z</time>
      </trkpt>
      <trkpt lat="48.93876" lon="2.09533">
        <ele>110</ele>
        <time>2022-08-24T11:33:48Z</time>
      </trkpt>
      <trkpt lat="48.9387" lon="2.09527">
        <ele>109.9</ele>
        <time>2022-08-24T11:33:53Z</time>
      </trkpt>
      <trkpt lat="48.93864" lon="2.09517">
        <ele>110.2</ele>
        <time>2022-08-24T11:33:59Z</time>
      </trkpt>
      <trkpt lat="48.93858" lon="2.09508">
        <ele>110.7</ele>
        <time>2022-08-24T11:34:05Z</time>
      </trkpt>
      <trkpt lat="48.93853" lon="2.09499">
        <ele>111.3</ele>
        <time>2022-08-24T11:34:11Z</time>
      </trkpt>
      <trkpt lat="48.9385" lon="2.09491">
        <ele>111.9</ele>
        <time>2022-08-24T11:34:17Z</time>
      </trkpt>
      <trkpt lat="48.93847" lon="2.09483">
        <ele>112.4</ele>
        <time>2022-08-24T11:34:22Z</time>
      </trkpt>
      <trkpt lat="48.93842" lon="2.09477">
        <ele>112.8</ele>
        <time>2022-08-24T11:34:27Z</time>
      </trkpt>
      <trkpt lat="48.93838" lon="2.09472">
        <ele>113.1</ele>
        <time>2022-08-24T11:34:32Z</time>
      </trkpt>
      <trkpt lat="48.93832" lon="2.09465">
        <ele>113.5</ele>
        <time>2022-08-24T11:34:38Z</time>
      </trkpt>
      <trkpt lat="48.93826" lon="2.09458">
        <ele>113.6</ele>
        <time>2022-08-24T11:34:44Z</time>
      </trkpt>
      <trkpt lat="48.9382" lon="2.09453">
        <ele>113.5</ele>
        <time>2022-08-24T11:34:49Z</time>
      </trkpt>
      <trkpt lat="48.93813" lon="2.09445">
        <ele>113.5</ele>
        <time>2022-08-24T11:34:55Z</time>
      </trkpt>
      <trkpt lat="48.93807" lon="2.09436">
        <ele>113.3</ele>
        <time>2022-08-24T11:35:01Z</time>
      </trkpt>
      <trkpt lat="48.93803" lon="2.09429">
        <ele>113.3</ele>
        <time>2022-08-24T11:35:06Z</time>
      </trkpt>
      <trkpt lat="48.93798" lon="2.09419">
        <ele>113.3</ele>
        <time>2022-08-24T11:35:12Z</time>
      </trkpt>
      <trkpt lat="48.93794" lon="2.09409">
        <ele>113.3</ele>
        <time>2022-08-24T11:35:17Z</time>
      </trkpt>
      <trkpt lat="48.93788" lon="2.09397">
        <ele>113.1</ele>
        <time>2022-08-24T11:35:23Z</time>
      </trkpt>
      <trkpt lat="48.93781" lon="2.09385">
        <ele>113.2</ele>
        <time>2022-08-24T11:35:29Z</time>
      </trkpt>
      <trkpt lat="48.93775" lon="2.09375">
        <ele>113.1</ele>
        <time>2022-08-24T11:35:34Z</time>
      </trkpt>
      <trkpt lat="48.9377" lon="2.09367">
        <ele>112.9</ele>
        <time>2022-08-24T11:35:39Z</time>
      </trkpt>
      <trkpt lat="48.93763" lon="2.09356">
        <ele>113</ele>
        <time>2022-08-24T11:35:45Z</time>
      </trkpt>
      <trkpt lat="48.93757" lon="2.09345">
        <ele>113.2</ele>
        <time>2022-08-24T11:35:51Z</time>
      </trkpt>
      <trkpt lat="48.93751" lon="2.09336">
        <ele>113.5</ele>
        <time>2022-08-24T11:35:57Z</time>
      </trkpt>
      <trkpt lat="48.93745" lon="2.09327">
        <ele>113.9</ele>
        <time>2022-08-24T11:36:03Z</time>
      </trkpt>
      <trkpt lat="48.9374" lon="2.09321">
        <ele>114.1</ele>
        <time>2022-08-24T11:36:08Z</time>
      </trkpt>
      <trkpt lat="48.93735" lon="2.09312">
        <ele>114.2</ele>
        <time>2022-08-24T11:36:13Z</time>
      </trkpt>
      <trkpt lat="48.93728" lon="2.09301">
        <ele>114.2</ele>
        <time>2022-08-24T11:36:19Z</time>
      </trkpt>
      <trkpt lat="48.93722" lon="2.09292">
        <ele>114.2</ele>
        <time>2022-08-24T11:36:24Z</time>
      </trkpt>
      <trkpt lat="48.93717" lon="2.09284">
        <ele>114.2</ele>
        <time>2022-08-24T11:36:29Z</time>
      </trkpt>
      <trkpt lat="48.93712" lon="2.09275">
        <ele>114.4</ele>
        <time>2022-08-24T11:36:35Z</time>
      </trkpt>
      <trkpt lat="48.93707" lon="2.09266">
        <ele>114.6</ele>
        <time>2022-08-24T11:36:41Z</time>
      </trkpt>
      <trkpt lat="48.93702" lon="2.09258">
        <ele>114.8</ele>
        <time>2022-08-24T11:36:46Z</time>
      </trkpt>
      <trkpt lat="48.93696" lon="2.09249">
        <ele>115.1</ele>
        <time>2022-08-24T11:36:52Z</time>
      </trkpt>
      <trkpt lat="48.9369" lon="2.09239">
        <ele>115.3</ele>
        <time>2022-08-24T11:36:58Z</time>
      </trkpt>
      <trkpt lat="48.93686" lon="2.09232">
        <ele>115.7</ele>
        <time>2022-08-24T11:37:03Z</time>
      </trkpt>
      <trkpt lat="48.93681" lon="2.09226">
        <ele>115.8</ele>
        <time>2022-08-24T11:37:09Z</time>
      </trkpt>
      <trkpt lat="48.93675" lon="2.09218">
        <ele>115.7</ele>
        <time>2022-08-24T11:37:15Z</time>
      </trkpt>
      <trkpt lat="48.93671" lon="2.0921">
        <ele>115.5</ele>
        <time>2022-08-24T11:37:21Z</time>
      </trkpt>
      <trkpt lat="48.93667" lon="2.09202">
        <ele>115.2</ele>
        <time>2022-08-24T11:37:26Z</time>
      </trkpt>
      <trkpt lat="48.93661" lon="2.09193">
        <ele>115</ele>
        <time>2022-08-24T11:37:32Z</time>
      </trkpt>
      <trkpt lat="48.93654" lon="2.09183">
        <ele>114.8</ele>
        <time>2022-08-24T11:37:37Z</time>
      </trkpt>
      <trkpt lat="48.93648" lon="2.09173">
        <ele>114.7</ele>
        <time>2022-08-24T11:37:42Z</time>
      </trkpt>
      <trkpt lat="48.9364" lon="2.09162">
        <ele>114.6</ele>
        <time>2022-08-24T11:37:48Z</time>
      </trkpt>
      <trkpt lat="48.93633" lon="2.09154">
        <ele>114.4</ele>
        <time>2022-08-24T11:37:53Z</time>
      </trkpt>
      <trkpt lat="48.93626" lon="2.09143">
        <ele>114.2</ele>
        <time>2022-08-24T11:37:59Z</time>
      </trkpt>
      <trkpt lat="48.93619" lon="2.09132">
        <ele>114</ele>
        <time>2022-08-24T11:38:05Z</time>
      </trkpt>
      <trkpt lat="48.93611" lon="2.09121">
        <ele>113.8</ele>
        <time>2022-08-24T11:38:11Z</time>
      </trkpt>
      <trkpt lat="48.93605" lon="2.09112">
        <ele>113.5</ele>
        <time>2022-08-24T11:38:16Z</time>
      </trkpt>
      <trkpt lat="48.93598" lon="2.09104">
        <ele>113</ele>
        <time>2022-08-24T11:38:22Z</time>
      </trkpt>
      <trkpt lat="48.93593" lon="2.09097">
        <ele>112.5</ele>
        <time>2022-08-24T11:38:27Z</time>
      </trkpt>
      <trkpt lat="48.93588" lon="2.09089">
        <ele>112.1</ele>
        <time>2022-08-24T11:38:32Z</time>
      </trkpt>
      <trkpt lat="48.93583" lon="2.09079">
        <ele>111.7</ele>
        <time>2022-08-24T11:38:38Z</time>
      </trkpt>
      <trkpt lat="48.93576" lon="2.09068">
        <ele>111.5</ele>
        <time>2022-08-24T11:38:44Z</time>
      </trkpt>
      <trkpt lat="48.9357" lon="2.09059">
        <ele>111.4</ele>
        <time>2022-08-24T11:38:49Z</time>
      </trkpt>
      <trkpt lat="48.93565" lon="2.09051">
        <ele>111.4</ele>
        <time>2022-08-24T11:38:54Z</time>
      </trkpt>
      <trkpt lat="48.93559" lon="2.09041">
        <ele>111.6</ele>
        <time>2022-08-24T11:39:00Z</time>
      </trkpt>
      <trkpt lat="48.93555" lon="2.09033">
        <ele>111.8</ele>
        <time>2022-08-24T11:39:05Z</time>
      </trkpt>
      <trkpt lat="48.93552" lon="2.09027">
        <ele>111.9</ele>
        <time>2022-08-24T11:39:11Z</time>
      </trkpt>
      <trkpt lat="48.93551" lon="2.09025">
        <ele>112</ele>
        <time>2022-08-24T11:39:16Z</time>
      </trkpt>
      <trkpt lat="48.93553" lon="2.09022">
        <ele>112.2</ele>
        <time>2022-08-24T11:39:22Z</time>
      </trkpt>
      <trkpt lat="48.93556" lon="2.09018">
        <ele>112.3</ele>
        <time>2022-08-24T11:39:27Z</time>
      </trkpt>
      <trkpt lat="48.93562" lon="2.09014">
        <ele>112.3</ele>
        <time>2022-08-24T11:39:33Z</time>
      </trkpt>
      <trkpt lat="48.93566" lon="2.09009">
        <ele>112.3</ele>
        <time>2022-08-24T11:39:38Z</time>
      </trkpt>
      <trkpt lat="48.93571" lon="2.09003">
        <ele>112.4</ele>
        <time>2022-08-24T11:39:44Z</time>
      </trkpt>
      <trkpt lat="48.93576" lon="2.08998">
        <ele>112.4</ele>
        <time>2022-08-24T11:39:49Z</time>
      </trkpt>
      <trkpt lat="48.93585" lon="2.0899">
        <ele>112.5</ele>
        <time>2022-08-24T11:39:55Z</time>
      </trkpt>
      <trkpt lat="48.93593" lon="2.08982">
        <ele>112.7</ele>
        <time>2022-08-24T11:40:01Z</time>
      </trkpt>
      <trkpt lat="48.936" lon="2.08975">
        <ele>112.7</ele>
        <time>2022-08-24T11:40:06Z</time>
      </trkpt>
      <trkpt lat="48.93608" lon="2.08968">
        <ele>112.5</ele>
        <time>2022-08-24T11:40:12Z</time>
      </trkpt>
      <trkpt lat="48.93613" lon="2.08962">
        <ele>112.2</ele>
        <time>2022-08-24T11:40:17Z</time>
      </trkpt>
      <trkpt lat="48.93617" lon="2.08957">
        <ele>111.7</ele>
        <time>2022-08-24T11:40:22Z</time>
      </trkpt>
      <trkpt lat="48.93622" lon="2.0895">
        <ele>111.1</ele>
        <time>2022-08-24T11:40:28Z</time>
      </trkpt>
      <trkpt lat="48.93626" lon="2.08945">
        <ele>110.3</ele>
        <time>2022-08-24T11:40:33Z</time>
      </trkpt>
      <trkpt lat="48.93632" lon="2.08942">
        <ele>109.4</ele>
        <time>2022-08-24T11:40:39Z</time>
      </trkpt>
      <trkpt lat="48.9364" lon="2.08937">
        <ele>109</ele>
        <time>2022-08-24T11:40:44Z</time>
      </trkpt>
      <trkpt lat="48.93649" lon="2.08932">
        <ele>108.7</ele>
        <time>2022-08-24T11:40:50Z</time>
      </trkpt>
      <trkpt lat="48.93657" lon="2.08927">
        <ele>108.7</ele>
        <time>2022-08-24T11:40:55Z</time>
      </trkpt>
      <trkpt lat="48.93663" lon="2.08922">
        <ele>108.6</ele>
        <time>2022-08-24T11:41:00Z</time>
      </trkpt>
      <trkpt lat="48.9367" lon="2.08916">
        <ele>108.4</ele>
        <time>2022-08-24T11:41:06Z</time>
      </trkpt>
      <trkpt lat="48.93675" lon="2.08912">
        <ele>108.4</ele>
        <time>2022-08-24T11:41:11Z</time>
      </trkpt>
      <trkpt lat="48.93677" lon="2.08911">
        <ele>108.3</ele>
        <time>2022-08-24T11:41:16Z</time>
      </trkpt>
      <trkpt lat="48.9368" lon="2.08908">
        <ele>108.2</ele>
        <time>2022-08-24T11:41:22Z</time>
      </trkpt>
      <trkpt lat="48.93685" lon="2.08902">
        <ele>108</ele>
        <time>2022-08-24T11:41:28Z</time>
      </trkpt>
      <trkpt lat="48.93691" lon="2.08897">
        <ele>107.5</ele>
        <time>2022-08-24T11:41:33Z</time>
      </trkpt>
      <trkpt lat="48.93697" lon="2.08891">
        <ele>107</ele>
        <time>2022-08-24T11:41:38Z</time>
      </trkpt>
      <trkpt lat="48.93704" lon="2.08883">
        <ele>106.7</ele>
        <time>2022-08-24T11:41:44Z</time>
      </trkpt>
      <trkpt lat="48.93709" lon="2.08878">
        <ele>106.5</ele>
        <time>2022-08-24T11:41:49Z</time>
      </trkpt>
      <trkpt lat="48.93715" lon="2.08872">
        <ele>106.4</ele>
        <time>2022-08-24T11:41:55Z</time>
      </trkpt>
      <trkpt lat="48.9372" lon="2.08868">
        <ele>106.3</ele>
        <time>2022-08-24T11:42:00Z</time>
      </trkpt>
      <trkpt lat="48.93725" lon="2.08859">
        <ele>105.9</ele>
        <time>2022-08-24T11:42:06Z</time>
      </trkpt>
      <trkpt lat="48.9373" lon="2.08851">
        <ele>105.3</ele>
        <time>2022-08-24T11:42:12Z</time>
      </trkpt>
      <trkpt lat="48.93737" lon="2.08843">
        <ele>104.6</ele>
        <time>2022-08-24T11:42:18Z</time>
      </trkpt>
      <trkpt lat="48.93743" lon="2.08837">
        <ele>104</ele>
        <time>2022-08-24T11:42:23Z</time>
      </trkpt>
      <trkpt lat="48.93751" lon="2.0883">
        <ele>103.6</ele>
        <time>2022-08-24T11:42:29Z</time>
      </trkpt>
      <trkpt lat="48.93757" lon="2.08825">
        <ele>103.4</ele>
        <time>2022-08-24T11:42:34Z</time>
      </trkpt>
      <trkpt lat="48.93764" lon="2.0882">
        <ele>103.1</ele>
        <time>2022-08-24T11:42:40Z</time>
      </trkpt>
      <trkpt lat="48.9377" lon="2.08811">
        <ele>102.9</ele>
        <time>2022-08-24T11:42:46Z</time>
      </trkpt>
      <trkpt lat="48.93776" lon="2.08802">
        <ele>102.7</ele>
        <time>2022-08-24T11:42:52Z</time>
      </trkpt>
      <trkpt lat="48.93784" lon="2.08793">
        <ele>102.4</ele>
        <time>2022-08-24T11:42:58Z</time>
      </trkpt>
      <trkpt lat="48.93793" lon="2.08788">
        <ele>102</ele>
        <time>2022-08-24T11:43:04Z</time>
      </trkpt>
      <trkpt lat="48.93801" lon="2.08783">
        <ele>101.8</ele>
        <time>2022-08-24T11:43:10Z</time>
      </trkpt>
      <trkpt lat="48.93805" lon="2.08779">
        <ele>101.7</ele>
        <time>2022-08-24T11:43:15Z</time>
      </trkpt>
      <trkpt lat="48.93809" lon="2.08774">
        <ele>101.6</ele>
        <time>2022-08-24T11:43:20Z</time>
      </trkpt>
      <trkpt lat="48.93813" lon="2.08764">
        <ele>101.4</ele>
        <time>2022-08-24T11:43:26Z</time>
      </trkpt>
      <trkpt lat="48.93817" lon="2.08756">
        <ele>101</ele>
        <time>2022-08-24T11:43:32Z</time>
      </trkpt>
      <trkpt lat="48.93822" lon="2.08748">
        <ele>100.3</ele>
        <time>2022-08-24T11:43:38Z</time>
      </trkpt>
      <trkpt lat="48.93826" lon="2.08741">
        <ele>99.7</ele>
        <time>2022-08-24T11:43:43Z</time>
      </trkpt>
      <trkpt lat="48.93831" lon="2.08734">
        <ele>98.5</ele>
        <time>2022-08-24T11:43:49Z</time>
      </trkpt>
      <trkpt lat="48.93837" lon="2.08727">
        <ele>97</ele>
        <time>2022-08-24T11:43:55Z</time>
      </trkpt>
      <trkpt lat="48.93844" lon="2.08719">
        <ele>95.8</ele>
        <time>2022-08-24T11:44:00Z</time>
      </trkpt>
      <trkpt lat="48.93853" lon="2.08712">
        <ele>94.9</ele>
        <time>2022-08-24T11:44:06Z</time>
      </trkpt>
      <trkpt lat="48.93863" lon="2.08705">
        <ele>94.1</ele>
        <time>2022-08-24T11:44:12Z</time>
      </trkpt>
      <trkpt lat="48.93874" lon="2.087">
        <ele>93.7</ele>
        <time>2022-08-24T11:44:18Z</time>
      </trkpt>
      <trkpt lat="48.93885" lon="2.08694">
        <ele>93.6</ele>
        <time>2022-08-24T11:44:24Z</time>
      </trkpt>
      <trkpt lat="48.93894" lon="2.08687">
        <ele>93.7</ele>
        <time>2022-08-24T11:44:29Z</time>
      </trkpt>
      <trkpt lat="48.93899" lon="2.08678">
        <ele>93.8</ele>
        <time>2022-08-24T11:44:34Z</time>
      </trkpt>
      <trkpt lat="48.93901" lon="2.08674">
        <ele>93.8</ele>
        <time>2022-08-24T11:44:39Z</time>
      </trkpt>
      <trkpt lat="48.93898" lon="2.08669">
        <ele>93.5</ele>
        <time>2022-08-24T11:44:45Z</time>
      </trkpt>
      <trkpt lat="48.93892" lon="2.08663">
        <ele>93.3</ele>
        <time>2022-08-24T11:44:50Z</time>
      </trkpt>
      <trkpt lat="48.93883" lon="2.08657">
        <ele>93.2</ele>
        <time>2022-08-24T11:44:56Z</time>
      </trkpt>
      <trkpt lat="48.93874" lon="2.08652">
        <ele>93.2</ele>
        <time>2022-08-24T11:45:02Z</time>
      </trkpt>
      <trkpt lat="48.93866" lon="2.08646">
        <ele>93.2</ele>
        <time>2022-08-24T11:45:08Z</time>
      </trkpt>
      <trkpt lat="48.93859" lon="2.08638">
        <ele>93.5</ele>
        <time>2022-08-24T11:45:14Z</time>
      </trkpt>
      <trkpt lat="48.93853" lon="2.08629">
        <ele>93.9</ele>
        <time>2022-08-24T11:45:20Z</time>
      </trkpt>
      <trkpt lat="48.93848" lon="2.08621">
        <ele>94.3</ele>
        <time>2022-08-24T11:45:25Z</time>
      </trkpt>
      <trkpt lat="48.93843" lon="2.08612">
        <ele>94.6</ele>
        <time>2022-08-24T11:45:30Z</time>
      </trkpt>
      <trkpt lat="48.93839" lon="2.08603">
        <ele>94.8</ele>
        <time>2022-08-24T11:45:36Z</time>
      </trkpt>
      <trkpt lat="48.93834" lon="2.08594">
        <ele>95.1</ele>
        <time>2022-08-24T11:45:42Z</time>
      </trkpt>
      <trkpt lat="48.9383" lon="2.08585">
        <ele>95.4</ele>
        <time>2022-08-24T11:45:47Z</time>
      </trkpt>
      <trkpt lat="48.93826" lon="2.08576">
        <ele>95.7</ele>
        <time>2022-08-24T11:45:53Z</time>
      </trkpt>
      <trkpt lat="48.93821" lon="2.08567">
        <ele>95.8</ele>
        <time>2022-08-24T11:45:58Z</time>
      </trkpt>
      <trkpt lat="48.93817" lon="2.08558">
        <ele>95.8</ele>
        <time>2022-08-24T11:46:03Z</time>
      </trkpt>
      <trkpt lat="48.93812" lon="2.0855">
        <ele>95.9</ele>
        <time>2022-08-24T11:46:08Z</time>
      </trkpt>
      <trkpt lat="48.93807" lon="2.08541">
        <ele>96.1</ele>
        <time>2022-08-24T11:46:14Z</time>
      </trkpt>
      <trkpt lat="48.93803" lon="2.0853">
        <ele>96.5</ele>
        <time>2022-08-24T11:46:20Z</time>
      </trkpt>
      <trkpt lat="48.938" lon="2.0852">
        <ele>97.1</ele>
        <time>2022-08-24T11:46:26Z</time>
      </trkpt>
      <trkpt lat="48.93797" lon="2.08513">
        <ele>97.5</ele>
        <time>2022-08-24T11:46:31Z</time>
      </trkpt>
      <trkpt lat="48.93792" lon="2.08504">
        <ele>98</ele>
        <time>2022-08-24T11:46:37Z</time>
      </trkpt>
      <trkpt lat="48.93787" lon="2.08495">
        <ele>98.3</ele>
        <time>2022-08-24T11:46:42Z</time>
      </trkpt>
      <trkpt lat="48.93781" lon="2.08485">
        <ele>98.5</ele>
        <time>2022-08-24T11:46:47Z</time>
      </trkpt>
      <trkpt lat="48.93776" lon="2.08475">
        <ele>98.8</ele>
        <time>2022-08-24T11:46:53Z</time>
      </trkpt>
      <trkpt lat="48.9377" lon="2.08466">
        <ele>99.1</ele>
        <time>2022-08-24T11:46:59Z</time>
      </trkpt>
      <trkpt lat="48.93764" lon="2.08457">
        <ele>99.3</ele>
        <time>2022-08-24T11:47:05Z</time>
      </trkpt>
      <trkpt lat="48.93758" lon="2.0845">
        <ele>99.1</ele>
        <time>2022-08-24T11:47:10Z</time>
      </trkpt>
      <trkpt lat="48.93753" lon="2.08442">
        <ele>98.8</ele>
        <time>2022-08-24T11:47:16Z</time>
      </trkpt>
      <trkpt lat="48.93748" lon="2.08434">
        <ele>98.6</ele>
        <time>2022-08-24T11:47:21Z</time>
      </trkpt>
      <trkpt lat="48.93742" lon="2.08425">
        <ele>98.7</ele>
        <time>2022-08-24T11:47:27Z</time>
      </trkpt>
      <trkpt lat="48.93737" lon="2.08418">
        <ele>98.8</ele>
        <time>2022-08-24T11:47:32Z</time>
      </trkpt>
      <trkpt lat="48.93731" lon="2.0841">
        <ele>98.7</ele>
        <time>2022-08-24T11:47:38Z</time>
      </trkpt>
      <trkpt lat="48.93725" lon="2.08401">
        <ele>98.8</ele>
        <time>2022-08-24T11:47:44Z</time>
      </trkpt>
      <trkpt lat="48.9372" lon="2.0839">
        <ele>98.8</ele>
        <time>2022-08-24T11:47:50Z</time>
      </trkpt>
      <trkpt lat="48.93714" lon="2.08379">
        <ele>98.9</ele>
        <time>2022-08-24T11:47:56Z</time>
      </trkpt>
      <trkpt lat="48.93709" lon="2.0837">
        <ele>99</ele>
        <time>2022-08-24T11:48:02Z</time>
      </trkpt>
      <trkpt lat="48.93706" lon="2.08364">
        <ele>98.9</ele>
        <time>2022-08-24T11:48:07Z</time>
      </trkpt>
      <trkpt lat="48.937" lon="2.08355">
        <ele>98.8</ele>
        <time>2022-08-24T11:48:13Z</time>
      </trkpt>
      <trkpt lat="48.93694" lon="2.08344">
        <ele>98.7</ele>
        <time>2022-08-24T11:48:19Z</time>
      </trkpt>
      <trkpt lat="48.93689" lon="2.08334">
        <ele>98.6</ele>
        <time>2022-08-24T11:48:24Z</time>
      </trkpt>
      <trkpt lat="48.93684" lon="2.08324">
        <ele>98.5</ele>
        <time>2022-08-24T11:48:29Z</time>
      </trkpt>
      <trkpt lat="48.9368" lon="2.08314">
        <ele>98.7</ele>
        <time>2022-08-24T11:48:35Z</time>
      </trkpt>
      <trkpt lat="48.93674" lon="2.08307">
        <ele>98.8</ele>
        <time>2022-08-24T11:48:40Z</time>
      </trkpt>
      <trkpt lat="48.93667" lon="2.08297">
        <ele>99</ele>
        <time>2022-08-24T11:48:46Z</time>
      </trkpt>
      <trkpt lat="48.93664" lon="2.08288">
        <ele>99.2</ele>
        <time>2022-08-24T11:48:51Z</time>
      </trkpt>
      <trkpt lat="48.93659" lon="2.08279">
        <ele>99.5</ele>
        <time>2022-08-24T11:48:57Z</time>
      </trkpt>
      <trkpt lat="48.93653" lon="2.08269">
        <ele>99.6</ele>
        <time>2022-08-24T11:49:03Z</time>
      </trkpt>
      <trkpt lat="48.93648" lon="2.08258">
        <ele>99.6</ele>
        <time>2022-08-24T11:49:09Z</time>
      </trkpt>
      <trkpt lat="48.93643" lon="2.08248">
        <ele>99.5</ele>
        <time>2022-08-24T11:49:15Z</time>
      </trkpt>
      <trkpt lat="48.93638" lon="2.08239">
        <ele>99.6</ele>
        <time>2022-08-24T11:49:21Z</time>
      </trkpt>
      <trkpt lat="48.93633" lon="2.0823">
        <ele>99.6</ele>
        <time>2022-08-24T11:49:26Z</time>
      </trkpt>
      <trkpt lat="48.93627" lon="2.08219">
        <ele>99.3</ele>
        <time>2022-08-24T11:49:32Z</time>
      </trkpt>
      <trkpt lat="48.93621" lon="2.08209">
        <ele>98.9</ele>
        <time>2022-08-24T11:49:38Z</time>
      </trkpt>
      <trkpt lat="48.93616" lon="2.08202">
        <ele>98.5</ele>
        <time>2022-08-24T11:49:43Z</time>
      </trkpt>
      <trkpt lat="48.9361" lon="2.08193">
        <ele>97.8</ele>
        <time>2022-08-24T11:49:49Z</time>
      </trkpt>
      <trkpt lat="48.93604" lon="2.08184">
        <ele>97.1</ele>
        <time>2022-08-24T11:49:54Z</time>
      </trkpt>
      <trkpt lat="48.93597" lon="2.08173">
        <ele>96.3</ele>
        <time>2022-08-24T11:50:00Z</time>
      </trkpt>
      <trkpt lat="48.93591" lon="2.08165">
        <ele>96</ele>
        <time>2022-08-24T11:50:06Z</time>
      </trkpt>
      <trkpt lat="48.93589" lon="2.08159">
        <ele>95.9</ele>
        <time>2022-08-24T11:50:12Z</time>
      </trkpt>
      <trkpt lat="48.93588" lon="2.08149">
        <ele>95.8</ele>
        <time>2022-08-24T11:50:18Z</time>
      </trkpt>
      <trkpt lat="48.93588" lon="2.08135">
        <ele>95.4</ele>
        <time>2022-08-24T11:50:24Z</time>
      </trkpt>
      <trkpt lat="48.93589" lon="2.08125">
        <ele>95.3</ele>
        <time>2022-08-24T11:50:29Z</time>
      </trkpt>
      <trkpt lat="48.9359" lon="2.08114">
        <ele>95.1</ele>
        <time>2022-08-24T11:50:35Z</time>
      </trkpt>
      <trkpt lat="48.9359" lon="2.08104">
        <ele>94.7</ele>
        <time>2022-08-24T11:50:40Z</time>
      </trkpt>
      <trkpt lat="48.93591" lon="2.08094">
        <ele>94</ele>
        <time>2022-08-24T11:50:46Z</time>
      </trkpt>
      <trkpt lat="48.93593" lon="2.08082">
        <ele>93</ele>
        <time>2022-08-24T11:50:52Z</time>
      </trkpt>
      <trkpt lat="48.93594" lon="2.0807">
        <ele>92.6</ele>
        <time>2022-08-24T11:50:58Z</time>
      </trkpt>
      <trkpt lat="48.93597" lon="2.08058">
        <ele>92.2</ele>
        <time>2022-08-24T11:51:03Z</time>
      </trkpt>
      <trkpt lat="48.93599" lon="2.08045">
        <ele>92</ele>
        <time>2022-08-24T11:51:09Z</time>
      </trkpt>
      <trkpt lat="48.93601" lon="2.08035">
        <ele>92.1</ele>
        <time>2022-08-24T11:51:14Z</time>
      </trkpt>
      <trkpt lat="48.93603" lon="2.08026">
        <ele>92</ele>
        <time>2022-08-24T11:51:20Z</time>
      </trkpt>
      <trkpt lat="48.93604" lon="2.08014">
        <ele>91.7</ele>
        <time>2022-08-24T11:51:26Z</time>
      </trkpt>
      <trkpt lat="48.93606" lon="2.08003">
        <ele>91.3</ele>
        <time>2022-08-24T11:51:31Z</time>
      </trkpt>
      <trkpt lat="48.93607" lon="2.07991">
        <ele>90.6</ele>
        <time>2022-08-24T11:51:37Z</time>
      </trkpt>
      <trkpt lat="48.93607" lon="2.0798">
        <ele>89.9</ele>
        <time>2022-08-24T11:51:42Z</time>
      </trkpt>
      <trkpt lat="48.93607" lon="2.07967">
        <ele>89.4</ele>
        <time>2022-08-24T11:51:48Z</time>
      </trkpt>
      <trkpt lat="48.93607" lon="2.07952">
        <ele>89.4</ele>
        <time>2022-08-24T11:51:54Z</time>
      </trkpt>
      <trkpt lat="48.93606" lon="2.07939">
        <ele>89.4</ele>
        <time>2022-08-24T11:51:59Z</time>
      </trkpt>
      <trkpt lat="48.93606" lon="2.07925">
        <ele>89.1</ele>
        <time>2022-08-24T11:52:05Z</time>
      </trkpt>
      <trkpt lat="48.93606" lon="2.07912">
        <ele>88.6</ele>
        <time>2022-08-24T11:52:11Z</time>
      </trkpt>
      <trkpt lat="48.93606" lon="2.07902">
        <ele>88.4</ele>
        <time>2022-08-24T11:52:16Z</time>
      </trkpt>
      <trkpt lat="48.93608" lon="2.07891">
        <ele>87.9</ele>
        <time>2022-08-24T11:52:22Z</time>
      </trkpt>
      <trkpt lat="48.93608" lon="2.07876">
        <ele>87.3</ele>
        <time>2022-08-24T11:52:28Z</time>
      </trkpt>
      <trkpt lat="48.93608" lon="2.07859">
        <ele>86.9</ele>
        <time>2022-08-24T11:52:34Z</time>
      </trkpt>
      <trkpt lat="48.9361" lon="2.07844">
        <ele>86.5</ele>
        <time>2022-08-24T11:52:40Z</time>
      </trkpt>
      <trkpt lat="48.93611" lon="2.07832">
        <ele>86.4</ele>
        <time>2022-08-24T11:52:45Z</time>
      </trkpt>
      <trkpt lat="48.93611" lon="2.07821">
        <ele>86.4</ele>
        <time>2022-08-24T11:52:51Z</time>
      </trkpt>
      <trkpt lat="48.9361" lon="2.07813">
        <ele>86.2</ele>
        <time>2022-08-24T11:52:56Z</time>
      </trkpt>
      <trkpt lat="48.93609" lon="2.07805">
        <ele>86.1</ele>
        <time>2022-08-24T11:53:01Z</time>
      </trkpt>
      <trkpt lat="48.93603" lon="2.07795">
        <ele>85.8</ele>
        <time>2022-08-24T11:53:07Z</time>
      </trkpt>
      <trkpt lat="48.93597" lon="2.07788">
        <ele>85.3</ele>
        <time>2022-08-24T11:53:13Z</time>
      </trkpt>
      <trkpt lat="48.93592" lon="2.07782">
        <ele>84.8</ele>
        <time>2022-08-24T11:53:18Z</time>
      </trkpt>
      <trkpt lat="48.93587" lon="2.07775">
        <ele>84.3</ele>
        <time>2022-08-24T11:53:23Z</time>
      </trkpt>
      <trkpt lat="48.93582" lon="2.07768">
        <ele>84</ele>
        <time>2022-08-24T11:53:28Z</time>
      </trkpt>
      <trkpt lat="48.93576" lon="2.07759">
        <ele>83.7</ele>
        <time>2022-08-24T11:53:34Z</time>
      </trkpt>
      <trkpt lat="48.93571" lon="2.07751">
        <ele>83.7</ele>
        <time>2022-08-24T11:53:40Z</time>
      </trkpt>
      <trkpt lat="48.93565" lon="2.07742">
        <ele>83.8</ele>
        <time>2022-08-24T11:53:46Z</time>
      </trkpt>
      <trkpt lat="48.93559" lon="2.07734">
        <ele>83.9</ele>
        <time>2022-08-24T11:53:52Z</time>
      </trkpt>
      <trkpt lat="48.93554" lon="2.07728">
        <ele>84</ele>
        <time>2022-08-24T11:53:57Z</time>
      </trkpt>
      <trkpt lat="48.93548" lon="2.07721">
        <ele>84.2</ele>
        <time>2022-08-24T11:54:03Z</time>
      </trkpt>
      <trkpt lat="48.93541" lon="2.07712">
        <ele>84.2</ele>
        <time>2022-08-24T11:54:09Z</time>
      </trkpt>
      <trkpt lat="48.93537" lon="2.07705">
        <ele>84.3</ele>
        <time>2022-08-24T11:54:14Z</time>
      </trkpt>
      <trkpt lat="48.93533" lon="2.077">
        <ele>84.5</ele>
        <time>2022-08-24T11:54:19Z</time>
      </trkpt>
      <trkpt lat="48.93529" lon="2.07694">
        <ele>84.7</ele>
        <time>2022-08-24T11:54:25Z</time>
      </trkpt>
      <trkpt lat="48.93525" lon="2.0769">
        <ele>84.8</ele>
        <time>2022-08-24T11:54:30Z</time>
      </trkpt>
      <trkpt lat="48.93521" lon="2.07683">
        <ele>84.9</ele>
        <time>2022-08-24T11:54:36Z</time>
      </trkpt>
      <trkpt lat="48.93516" lon="2.07676">
        <ele>84.9</ele>
        <time>2022-08-24T11:54:42Z</time>
      </trkpt>
      <trkpt lat="48.93511" lon="2.07671">
        <ele>84.7</ele>
        <time>2022-08-24T11:54:48Z</time>
      </trkpt>
      <trkpt lat="48.93505" lon="2.07664">
        <ele>84.6</ele>
        <time>2022-08-24T11:54:54Z</time>
      </trkpt>
      <trkpt lat="48.935" lon="2.07658">
        <ele>84.6</ele>
        <time>2022-08-24T11:54:59Z</time>
      </trkpt>
      <trkpt lat="48.93495" lon="2.07652">
        <ele>84.3</ele>
        <time>2022-08-24T11:55:04Z</time>
      </trkpt>
      <trkpt lat="48.93488" lon="2.0764">
        <ele>84.2</ele>
        <time>2022-08-24T11:55:10Z</time>
      </trkpt>
      <trkpt lat="48.93484" lon="2.07632">
        <ele>84.4</ele>
        <time>2022-08-24T11:55:16Z</time>
      </trkpt>
      <trkpt lat="48.93479" lon="2.07625">
        <ele>84.7</ele>
        <time>2022-08-24T11:55:22Z</time>
      </trkpt>
      <trkpt lat="48.93473" lon="2.07621">
        <ele>84.8</ele>
        <time>2022-08-24T11:55:28Z</time>
      </trkpt>
      <trkpt lat="48.93467" lon="2.07616">
        <ele>84.9</ele>
        <time>2022-08-24T11:55:34Z</time>
      </trkpt>
      <trkpt lat="48.93461" lon="2.07611">
        <ele>85.2</ele>
        <time>2022-08-24T11:55:40Z</time>
      </trkpt>
      <trkpt lat="48.93454" lon="2.07602">
        <ele>85.3</ele>
        <time>2022-08-24T11:55:46Z</time>
      </trkpt>
      <trkpt lat="48.93449" lon="2.07592">
        <ele>85.5</ele>
        <time>2022-08-24T11:55:52Z</time>
      </trkpt>
      <trkpt lat="48.93444" lon="2.07586">
        <ele>85.6</ele>
        <time>2022-08-24T11:55:58Z</time>
      </trkpt>
      <trkpt lat="48.9344" lon="2.07579">
        <ele>85.6</ele>
        <time>2022-08-24T11:56:04Z</time>
      </trkpt>
      <trkpt lat="48.93433" lon="2.07572">
        <ele>85.5</ele>
        <time>2022-08-24T11:56:10Z</time>
      </trkpt>
      <trkpt lat="48.93431" lon="2.07566">
        <ele>85.4</ele>
        <time>2022-08-24T11:56:15Z</time>
      </trkpt>
      <trkpt lat="48.93427" lon="2.07559">
        <ele>85.2</ele>
        <time>2022-08-24T11:56:21Z</time>
      </trkpt>
      <trkpt lat="48.93419" lon="2.07549">
        <ele>84.9</ele>
        <time>2022-08-24T11:56:27Z</time>
      </trkpt>
      <trkpt lat="48.93413" lon="2.07543">
        <ele>84.5</ele>
        <time>2022-08-24T11:56:32Z</time>
      </trkpt>
      <trkpt lat="48.93407" lon="2.07536">
        <ele>84</ele>
        <time>2022-08-24T11:56:38Z</time>
      </trkpt>
      <trkpt lat="48.93402" lon="2.07533">
        <ele>83.4</ele>
        <time>2022-08-24T11:56:43Z</time>
      </trkpt>
      <trkpt lat="48.93398" lon="2.07527">
        <ele>82.9</ele>
        <time>2022-08-24T11:56:48Z</time>
      </trkpt>
      <trkpt lat="48.93391" lon="2.07519">
        <ele>82.5</ele>
        <time>2022-08-24T11:56:54Z</time>
      </trkpt>
      <trkpt lat="48.93388" lon="2.07516">
        <ele>82.4</ele>
        <time>2022-08-24T11:56:59Z</time>
      </trkpt>
      <trkpt lat="48.93387" lon="2.07514">
        <ele>82.4</ele>
        <time>2022-08-24T11:57:04Z</time>
      </trkpt>
      <trkpt lat="48.93382" lon="2.07508">
        <ele>82.6</ele>
        <time>2022-08-24T11:57:10Z</time>
      </trkpt>
      <trkpt lat="48.93375" lon="2.07498">
        <ele>83</ele>
        <time>2022-08-24T11:57:16Z</time>
      </trkpt>
      <trkpt lat="48.93369" lon="2.0749">
        <ele>83.5</ele>
        <time>2022-08-24T11:57:21Z</time>
      </trkpt>
      <trkpt lat="48.9336" lon="2.07481">
        <ele>84.1</ele>
        <time>2022-08-24T11:57:27Z</time>
      </trkpt>
      <trkpt lat="48.93353" lon="2.07473">
        <ele>84.6</ele>
        <time>2022-08-24T11:57:32Z</time>
      </trkpt>
      <trkpt lat="48.93347" lon="2.07465">
        <ele>85.2</ele>
        <time>2022-08-24T11:57:38Z</time>
      </trkpt>
      <trkpt lat="48.93343" lon="2.0746">
        <ele>85.5</ele>
        <time>2022-08-24T11:57:43Z</time>
      </trkpt>
      <trkpt lat="48.93338" lon="2.07455">
        <ele>85.7</ele>
        <time>2022-08-24T11:57:49Z</time>
      </trkpt>
      <trkpt lat="48.93332" lon="2.07449">
        <ele>86.1</ele>
        <time>2022-08-24T11:57:55Z</time>
      </trkpt>
      <trkpt lat="48.93328" lon="2.07445">
        <ele>86.4</ele>
        <time>2022-08-24T11:58:00Z</time>
      </trkpt>
      <trkpt lat="48.93322" lon="2.07438">
        <ele>86.7</ele>
        <time>2022-08-24T11:58:06Z</time>
      </trkpt>
      <trkpt lat="48.93319" lon="2.07433">
        <ele>87</ele>
        <time>2022-08-24T11:58:11Z</time>
      </trkpt>
      <trkpt lat="48.93319" lon="2.0743">
        <ele>87</ele>
        <time>2022-08-24T11:58:17Z</time>
      </trkpt>
      <trkpt lat="48.93319" lon="2.07429">
        <ele>87.1</ele>
        <time>2022-08-24T11:58:22Z</time>
      </trkpt>
      <trkpt lat="48.9332" lon="2.07428">
        <ele>87.2</ele>
        <time>2022-08-24T11:58:28Z</time>
      </trkpt>
      <trkpt lat="48.9332" lon="2.07427">
        <ele>87.4</ele>
        <time>2022-08-24T11:58:33Z</time>
      </trkpt>
      <trkpt lat="48.93318" lon="2.07426">
        <ele>87.9</ele>
        <time>2022-08-24T11:58:38Z</time>
      </trkpt>
      <trkpt lat="48.93315" lon="2.07426">
        <ele>88.4</ele>
        <time>2022-08-24T11:58:43Z</time>
      </trkpt>
      <trkpt lat="48.93308" lon="2.07428">
        <ele>89.4</ele>
        <time>2022-08-24T11:58:48Z</time>
      </trkpt>
      <trkpt lat="48.93299" lon="2.07434">
        <ele>90.2</ele>
        <time>2022-08-24T11:58:54Z</time>
      </trkpt>
      <trkpt lat="48.93294" lon="2.07438">
        <ele>90.6</ele>
        <time>2022-08-24T11:58:59Z</time>
      </trkpt>
      <trkpt lat="48.93289" lon="2.07446">
        <ele>90.5</ele>
        <time>2022-08-24T11:59:05Z</time>
      </trkpt>
      <trkpt lat="48.93284" lon="2.07451">
        <ele>90.6</ele>
        <time>2022-08-24T11:59:10Z</time>
      </trkpt>
      <trkpt lat="48.93281" lon="2.07457">
        <ele>91.1</ele>
        <time>2022-08-24T11:59:16Z</time>
      </trkpt>
      <trkpt lat="48.93278" lon="2.07465">
        <ele>91.4</ele>
        <time>2022-08-24T11:59:22Z</time>
      </trkpt>
      <trkpt lat="48.93276" lon="2.07471">
        <ele>91.5</ele>
        <time>2022-08-24T11:59:28Z</time>
      </trkpt>
      <trkpt lat="48.93276" lon="2.07474">
        <ele>91.6</ele>
        <time>2022-08-24T11:59:34Z</time>
      </trkpt>
      <trkpt lat="48.93277" lon="2.07474">
        <ele>91.7</ele>
        <time>2022-08-24T11:59:39Z</time>
      </trkpt>
      <trkpt lat="48.93279" lon="2.07472">
        <ele>92.3</ele>
        <time>2022-08-24T11:59:50Z</time>
      </trkpt>
      <trkpt lat="48.93282" lon="2.07469">
        <ele>92.3</ele>
        <time>2022-08-24T11:59:56Z</time>
      </trkpt>
      <trkpt lat="48.93283" lon="2.07465">
        <ele>92.4</ele>
        <time>2022-08-24T12:00:02Z</time>
      </trkpt>
      <trkpt lat="48.93285" lon="2.07457">
        <ele>92.6</ele>
        <time>2022-08-24T12:00:07Z</time>
      </trkpt>
      <trkpt lat="48.93287" lon="2.0745">
        <ele>92.8</ele>
        <time>2022-08-24T12:00:13Z</time>
      </trkpt>
      <trkpt lat="48.93289" lon="2.07445">
        <ele>92.6</ele>
        <time>2022-08-24T12:00:18Z</time>
      </trkpt>
      <trkpt lat="48.93292" lon="2.07439">
        <ele>92.4</ele>
        <time>2022-08-24T12:00:24Z</time>
      </trkpt>
      <trkpt lat="48.93295" lon="2.07433">
        <ele>92.2</ele>
        <time>2022-08-24T12:00:29Z</time>
      </trkpt>
      <trkpt lat="48.933" lon="2.07425">
        <ele>91.4</ele>
        <time>2022-08-24T12:00:35Z</time>
      </trkpt>
      <trkpt lat="48.93306" lon="2.07418">
        <ele>90.8</ele>
        <time>2022-08-24T12:00:40Z</time>
      </trkpt>
      <trkpt lat="48.93313" lon="2.0741">
        <ele>90.5</ele>
        <time>2022-08-24T12:00:45Z</time>
      </trkpt>
      <trkpt lat="48.9332" lon="2.074">
        <ele>90.3</ele>
        <time>2022-08-24T12:00:51Z</time>
      </trkpt>
      <trkpt lat="48.93326" lon="2.0739">
        <ele>89.9</ele>
        <time>2022-08-24T12:00:57Z</time>
      </trkpt>
      <trkpt lat="48.93331" lon="2.07382">
        <ele>90</ele>
        <time>2022-08-24T12:01:02Z</time>
      </trkpt>
      <trkpt lat="48.93336" lon="2.07376">
        <ele>89.9</ele>
        <time>2022-08-24T12:01:08Z</time>
      </trkpt>
      <trkpt lat="48.93341" lon="2.07371">
        <ele>89.9</ele>
        <time>2022-08-24T12:01:13Z</time>
      </trkpt>
      <trkpt lat="48.93347" lon="2.07363">
        <ele>89.7</ele>
        <time>2022-08-24T12:01:19Z</time>
      </trkpt>
      <trkpt lat="48.93351" lon="2.07355">
        <ele>89.5</ele>
        <time>2022-08-24T12:01:24Z</time>
      </trkpt>
      <trkpt lat="48.93354" lon="2.07347">
        <ele>89.2</ele>
        <time>2022-08-24T12:01:30Z</time>
      </trkpt>
      <trkpt lat="48.93354" lon="2.07345">
        <ele>89</ele>
        <time>2022-08-24T12:01:35Z</time>
      </trkpt>
      <trkpt lat="48.93351" lon="2.07345">
        <ele>88.7</ele>
        <time>2022-08-24T12:01:41Z</time>
      </trkpt>
      <trkpt lat="48.93346" lon="2.07345">
        <ele>88.9</ele>
        <time>2022-08-24T12:01:47Z</time>
      </trkpt>
      <trkpt lat="48.93344" lon="2.07345">
        <ele>89</ele>
        <time>2022-08-24T12:01:52Z</time>
      </trkpt>
      <trkpt lat="48.93343" lon="2.07345">
        <ele>89.2</ele>
        <time>2022-08-24T12:01:58Z</time>
      </trkpt>
      <trkpt lat="48.93342" lon="2.07344">
        <ele>89.5</ele>
        <time>2022-08-24T12:02:04Z</time>
      </trkpt>
      <trkpt lat="48.93342" lon="2.07345">
        <ele>90.1</ele>
        <time>2022-08-24T12:02:15Z</time>
      </trkpt>
      <trkpt lat="48.93341" lon="2.07344">
        <ele>91.1</ele>
        <time>2022-08-24T12:02:27Z</time>
      </trkpt>
      <trkpt lat="48.93334" lon="2.07342">
        <ele>92.3</ele>
        <time>2022-08-24T12:02:32Z</time>
      </trkpt>
      <trkpt lat="48.93325" lon="2.0734">
        <ele>93</ele>
        <time>2022-08-24T12:02:37Z</time>
      </trkpt>
      <trkpt lat="48.93316" lon="2.07338">
        <ele>93.2</ele>
        <time>2022-08-24T12:02:43Z</time>
      </trkpt>
      <trkpt lat="48.93308" lon="2.07336">
        <ele>92.8</ele>
        <time>2022-08-24T12:02:49Z</time>
      </trkpt>
      <trkpt lat="48.93301" lon="2.07334">
        <ele>92.5</ele>
        <time>2022-08-24T12:02:55Z</time>
      </trkpt>
      <trkpt lat="48.93294" lon="2.07332">
        <ele>92.3</ele>
        <time>2022-08-24T12:03:01Z</time>
      </trkpt>
      <trkpt lat="48.93287" lon="2.07331">
        <ele>92.4</ele>
        <time>2022-08-24T12:03:06Z</time>
      </trkpt>
      <trkpt lat="48.93281" lon="2.07331">
        <ele>92.3</ele>
        <time>2022-08-24T12:03:12Z</time>
      </trkpt>
      <trkpt lat="48.93274" lon="2.0733">
        <ele>92.4</ele>
        <time>2022-08-24T12:03:18Z</time>
      </trkpt>
      <trkpt lat="48.9327" lon="2.0733">
        <ele>92.7</ele>
        <time>2022-08-24T12:03:24Z</time>
      </trkpt>
      <trkpt lat="48.93266" lon="2.0733">
        <ele>92.8</ele>
        <time>2022-08-24T12:03:30Z</time>
      </trkpt>
      <trkpt lat="48.93263" lon="2.0733">
        <ele>92.8</ele>
        <time>2022-08-24T12:03:35Z</time>
      </trkpt>
      <trkpt lat="48.93261" lon="2.07329">
        <ele>92.8</ele>
        <time>2022-08-24T12:03:41Z</time>
      </trkpt>
      <trkpt lat="48.93262" lon="2.07329">
        <ele>92.8</ele>
        <time>2022-08-24T12:03:52Z</time>
      </trkpt>
      <trkpt lat="48.93263" lon="2.07329">
        <ele>92.9</ele>
        <time>2022-08-24T12:03:58Z</time>
      </trkpt>
      <trkpt lat="48.93264" lon="2.0733">
        <ele>93</ele>
        <time>2022-08-24T12:04:04Z</time>
      </trkpt>
      <trkpt lat="48.93263" lon="2.0733">
        <ele>93.5</ele>
        <time>2022-08-24T12:04:25Z</time>
      </trkpt>
      <trkpt lat="48.93263" lon="2.07331">
        <ele>93.7</ele>
        <time>2022-08-24T12:04:30Z</time>
      </trkpt>
      <trkpt lat="48.93262" lon="2.07331">
        <ele>93.9</ele>
        <time>2022-08-24T12:04:36Z</time>
      </trkpt>
      <trkpt lat="48.93261" lon="2.07332">
        <ele>94.6</ele>
        <time>2022-08-24T12:04:53Z</time>
      </trkpt>
      <trkpt lat="48.93261" lon="2.07333">
        <ele>95.1</ele>
        <time>2022-08-24T12:05:09Z</time>
      </trkpt>
      <trkpt lat="48.93261" lon="2.07334">
        <ele>95.6</ele>
        <time>2022-08-24T12:05:26Z</time>
      </trkpt>
      <trkpt lat="48.9326" lon="2.07334">
        <ele>96.4</ele>
        <time>2022-08-24T12:05:32Z</time>
      </trkpt>
      <trkpt lat="48.93256" lon="2.07333">
        <ele>97.2</ele>
        <time>2022-08-24T12:05:38Z</time>
      </trkpt>
      <trkpt lat="48.93252" lon="2.07332">
        <ele>97.9</ele>
        <time>2022-08-24T12:05:44Z</time>
      </trkpt>
      <trkpt lat="48.93247" lon="2.07329">
        <ele>98.1</ele>
        <time>2022-08-24T12:05:49Z</time>
      </trkpt>
      <trkpt lat="48.9324" lon="2.07324">
        <ele>98.2</ele>
        <time>2022-08-24T12:05:55Z</time>
      </trkpt>
      <trkpt lat="48.93233" lon="2.07321">
        <ele>98.3</ele>
        <time>2022-08-24T12:06:00Z</time>
      </trkpt>
      <trkpt lat="48.93224" lon="2.07317">
        <ele>99</ele>
        <time>2022-08-24T12:06:06Z</time>
      </trkpt>
      <trkpt lat="48.93214" lon="2.07313">
        <ele>100.2</ele>
        <time>2022-08-24T12:06:12Z</time>
      </trkpt>
      <trkpt lat="48.93207" lon="2.0731">
        <ele>101</ele>
        <time>2022-08-24T12:06:17Z</time>
      </trkpt>
      <trkpt lat="48.932" lon="2.07309">
        <ele>101.7</ele>
        <time>2022-08-24T12:06:22Z</time>
      </trkpt>
      <trkpt lat="48.93192" lon="2.07307">
        <ele>102.2</ele>
        <time>2022-08-24T12:06:28Z</time>
      </trkpt>
      <trkpt lat="48.93185" lon="2.07306">
        <ele>102.9</ele>
        <time>2022-08-24T12:06:34Z</time>
      </trkpt>
      <trkpt lat="48.93179" lon="2.07305">
        <ele>103.2</ele>
        <time>2022-08-24T12:06:39Z</time>
      </trkpt>
      <trkpt lat="48.93173" lon="2.07305">
        <ele>103.2</ele>
        <time>2022-08-24T12:06:44Z</time>
      </trkpt>
      <trkpt lat="48.93166" lon="2.07303">
        <ele>103.4</ele>
        <time>2022-08-24T12:06:50Z</time>
      </trkpt>
      <trkpt lat="48.9316" lon="2.07301">
        <ele>103.7</ele>
        <time>2022-08-24T12:06:55Z</time>
      </trkpt>
      <trkpt lat="48.9315" lon="2.07299">
        <ele>104.1</ele>
        <time>2022-08-24T12:07:01Z</time>
      </trkpt>
      <trkpt lat="48.93142" lon="2.07297">
        <ele>104.3</ele>
        <time>2022-08-24T12:07:06Z</time>
      </trkpt>
      <trkpt lat="48.93135" lon="2.07296">
        <ele>104.2</ele>
        <time>2022-08-24T12:07:11Z</time>
      </trkpt>
      <trkpt lat="48.93128" lon="2.07294">
        <ele>104.1</ele>
        <time>2022-08-24T12:07:17Z</time>
      </trkpt>
      <trkpt lat="48.93121" lon="2.07293">
        <ele>104.1</ele>
        <time>2022-08-24T12:07:23Z</time>
      </trkpt>
      <trkpt lat="48.93112" lon="2.07292">
        <ele>104.4</ele>
        <time>2022-08-24T12:07:29Z</time>
      </trkpt>
      <trkpt lat="48.93105" lon="2.07291">
        <ele>104.9</ele>
        <time>2022-08-24T12:07:34Z</time>
      </trkpt>
      <trkpt lat="48.93099" lon="2.07289">
        <ele>105.5</ele>
        <time>2022-08-24T12:07:39Z</time>
      </trkpt>
      <trkpt lat="48.93091" lon="2.07286">
        <ele>106</ele>
        <time>2022-08-24T12:07:45Z</time>
      </trkpt>
      <trkpt lat="48.93085" lon="2.07285">
        <ele>106.1</ele>
        <time>2022-08-24T12:07:50Z</time>
      </trkpt>
      <trkpt lat="48.93078" lon="2.07284">
        <ele>106.2</ele>
        <time>2022-08-24T12:07:55Z</time>
      </trkpt>
      <trkpt lat="48.9307" lon="2.07283">
        <ele>106.4</ele>
        <time>2022-08-24T12:08:00Z</time>
      </trkpt>
      <trkpt lat="48.93062" lon="2.07282">
        <ele>106</ele>
        <time>2022-08-24T12:08:06Z</time>
      </trkpt>
      <trkpt lat="48.93053" lon="2.0728">
        <ele>106</ele>
        <time>2022-08-24T12:08:12Z</time>
      </trkpt>
      <trkpt lat="48.93043" lon="2.07276">
        <ele>106.4</ele>
        <time>2022-08-24T12:08:18Z</time>
      </trkpt>
      <trkpt lat="48.93036" lon="2.07274">
        <ele>106.5</ele>
        <time>2022-08-24T12:08:23Z</time>
      </trkpt>
      <trkpt lat="48.93029" lon="2.07272">
        <ele>106.5</ele>
        <time>2022-08-24T12:08:29Z</time>
      </trkpt>
      <trkpt lat="48.93022" lon="2.07271">
        <ele>106</ele>
        <time>2022-08-24T12:08:35Z</time>
      </trkpt>
      <trkpt lat="48.93015" lon="2.0727">
        <ele>105.7</ele>
        <time>2022-08-24T12:08:40Z</time>
      </trkpt>
      <trkpt lat="48.93006" lon="2.07269">
        <ele>105.6</ele>
        <time>2022-08-24T12:08:46Z</time>
      </trkpt>
      <trkpt lat="48.92999" lon="2.07268">
        <ele>105.7</ele>
        <time>2022-08-24T12:08:51Z</time>
      </trkpt>
      <trkpt lat="48.92992" lon="2.07267">
        <ele>105.9</ele>
        <time>2022-08-24T12:08:56Z</time>
      </trkpt>
      <trkpt lat="48.92983" lon="2.07266">
        <ele>106.1</ele>
        <time>2022-08-24T12:09:02Z</time>
      </trkpt>
      <trkpt lat="48.92977" lon="2.07266">
        <ele>106.4</ele>
        <time>2022-08-24T12:09:07Z</time>
      </trkpt>
      <trkpt lat="48.9297" lon="2.07263">
        <ele>106.9</ele>
        <time>2022-08-24T12:09:12Z</time>
      </trkpt>
      <trkpt lat="48.9296" lon="2.0726">
        <ele>107.3</ele>
        <time>2022-08-24T12:09:18Z</time>
      </trkpt>
      <trkpt lat="48.92952" lon="2.07258">
        <ele>107.7</ele>
        <time>2022-08-24T12:09:24Z</time>
      </trkpt>
      <trkpt lat="48.92945" lon="2.07257">
        <ele>107.8</ele>
        <time>2022-08-24T12:09:29Z</time>
      </trkpt>
      <trkpt lat="48.92938" lon="2.07256">
        <ele>108.1</ele>
        <time>2022-08-24T12:09:34Z</time>
      </trkpt>
      <trkpt lat="48.9293" lon="2.07255">
        <ele>108.2</ele>
        <time>2022-08-24T12:09:40Z</time>
      </trkpt>
      <trkpt lat="48.92923" lon="2.07254">
        <ele>108.3</ele>
        <time>2022-08-24T12:09:45Z</time>
      </trkpt>
      <trkpt lat="48.92917" lon="2.07253">
        <ele>108.2</ele>
        <time>2022-08-24T12:09:51Z</time>
      </trkpt>
      <trkpt lat="48.9291" lon="2.07251">
        <ele>108</ele>
        <time>2022-08-24T12:09:56Z</time>
      </trkpt>
      <trkpt lat="48.92899" lon="2.07249">
        <ele>107.9</ele>
        <time>2022-08-24T12:10:02Z</time>
      </trkpt>
      <trkpt lat="48.9289" lon="2.07248">
        <ele>108.2</ele>
        <time>2022-08-24T12:10:08Z</time>
      </trkpt>
      <trkpt lat="48.92882" lon="2.07247">
        <ele>108.3</ele>
        <time>2022-08-24T12:10:14Z</time>
      </trkpt>
      <trkpt lat="48.92874" lon="2.07247">
        <ele>108.5</ele>
        <time>2022-08-24T12:10:20Z</time>
      </trkpt>
      <trkpt lat="48.92866" lon="2.07246">
        <ele>108.8</ele>
        <time>2022-08-24T12:10:26Z</time>
      </trkpt>
      <trkpt lat="48.92857" lon="2.07244">
        <ele>109</ele>
        <time>2022-08-24T12:10:32Z</time>
      </trkpt>
      <trkpt lat="48.92846" lon="2.07243">
        <ele>109.3</ele>
        <time>2022-08-24T12:10:38Z</time>
      </trkpt>
      <trkpt lat="48.92838" lon="2.07245">
        <ele>109.4</ele>
        <time>2022-08-24T12:10:44Z</time>
      </trkpt>
      <trkpt lat="48.92834" lon="2.0725">
        <ele>109.7</ele>
        <time>2022-08-24T12:10:49Z</time>
      </trkpt>
      <trkpt lat="48.92832" lon="2.07261">
        <ele>110</ele>
        <time>2022-08-24T12:10:55Z</time>
      </trkpt>
      <trkpt lat="48.9283" lon="2.07274">
        <ele>110.1</ele>
        <time>2022-08-24T12:11:01Z</time>
      </trkpt>
      <trkpt lat="48.92827" lon="2.07285">
        <ele>110.1</ele>
        <time>2022-08-24T12:11:06Z</time>
      </trkpt>
      <trkpt lat="48.92824" lon="2.07296">
        <ele>110.1</ele>
        <time>2022-08-24T12:11:12Z</time>
      </trkpt>
      <trkpt lat="48.92821" lon="2.07307">
        <ele>110.1</ele>
        <time>2022-08-24T12:11:17Z</time>
      </trkpt>
      <trkpt lat="48.92817" lon="2.07318">
        <ele>109.9</ele>
        <time>2022-08-24T12:11:23Z</time>
      </trkpt>
      <trkpt lat="48.92814" lon="2.07328">
        <ele>109.7</ele>
        <time>2022-08-24T12:11:29Z</time>
      </trkpt>
      <trkpt lat="48.92811" lon="2.07337">
        <ele>109.7</ele>
        <time>2022-08-24T12:11:34Z</time>
      </trkpt>
      <trkpt lat="48.92808" lon="2.0735">
        <ele>109.8</ele>
        <time>2022-08-24T12:11:40Z</time>
      </trkpt>
      <trkpt lat="48.92804" lon="2.07362">
        <ele>110.3</ele>
        <time>2022-08-24T12:11:45Z</time>
      </trkpt>
      <trkpt lat="48.928" lon="2.07372">
        <ele>110.8</ele>
        <time>2022-08-24T12:11:50Z</time>
      </trkpt>
      <trkpt lat="48.92795" lon="2.07383">
        <ele>111.5</ele>
        <time>2022-08-24T12:11:56Z</time>
      </trkpt>
      <trkpt lat="48.9279" lon="2.0739">
        <ele>112.3</ele>
        <time>2022-08-24T12:12:01Z</time>
      </trkpt>
      <trkpt lat="48.92786" lon="2.07399">
        <ele>113</ele>
        <time>2022-08-24T12:12:06Z</time>
      </trkpt>
      <trkpt lat="48.92782" lon="2.0741">
        <ele>114</ele>
        <time>2022-08-24T12:12:12Z</time>
      </trkpt>
      <trkpt lat="48.92778" lon="2.07423">
        <ele>115.2</ele>
        <time>2022-08-24T12:12:18Z</time>
      </trkpt>
      <trkpt lat="48.92775" lon="2.07435">
        <ele>116</ele>
        <time>2022-08-24T12:12:24Z</time>
      </trkpt>
      <trkpt lat="48.92773" lon="2.07447">
        <ele>116.6</ele>
        <time>2022-08-24T12:12:30Z</time>
      </trkpt>
      <trkpt lat="48.9277" lon="2.07458">
        <ele>116.9</ele>
        <time>2022-08-24T12:12:35Z</time>
      </trkpt>
      <trkpt lat="48.92768" lon="2.0747">
        <ele>117.1</ele>
        <time>2022-08-24T12:12:41Z</time>
      </trkpt>
      <trkpt lat="48.92766" lon="2.0748">
        <ele>117.1</ele>
        <time>2022-08-24T12:12:46Z</time>
      </trkpt>
      <trkpt lat="48.92763" lon="2.0749">
        <ele>117</ele>
        <time>2022-08-24T12:12:52Z</time>
      </trkpt>
      <trkpt lat="48.92761" lon="2.07499">
        <ele>116.8</ele>
        <time>2022-08-24T12:12:57Z</time>
      </trkpt>
      <trkpt lat="48.92759" lon="2.0751">
        <ele>116.7</ele>
        <time>2022-08-24T12:13:03Z</time>
      </trkpt>
      <trkpt lat="48.92756" lon="2.07521">
        <ele>116.1</ele>
        <time>2022-08-24T12:13:09Z</time>
      </trkpt>
      <trkpt lat="48.92752" lon="2.07532">
        <ele>115.4</ele>
        <time>2022-08-24T12:13:15Z</time>
      </trkpt>
      <trkpt lat="48.92748" lon="2.0754">
        <ele>114.7</ele>
        <time>2022-08-24T12:13:20Z</time>
      </trkpt>
      <trkpt lat="48.92745" lon="2.07549">
        <ele>114.3</ele>
        <time>2022-08-24T12:13:25Z</time>
      </trkpt>
      <trkpt lat="48.92742" lon="2.07561">
        <ele>113.9</ele>
        <time>2022-08-24T12:13:31Z</time>
      </trkpt>
      <trkpt lat="48.92739" lon="2.07571">
        <ele>113.9</ele>
        <time>2022-08-24T12:13:36Z</time>
      </trkpt>
      <trkpt lat="48.92735" lon="2.07584">
        <ele>113.6</ele>
        <time>2022-08-24T12:13:42Z</time>
      </trkpt>
      <trkpt lat="48.9273" lon="2.07598">
        <ele>113.3</ele>
        <time>2022-08-24T12:13:48Z</time>
      </trkpt>
      <trkpt lat="48.92725" lon="2.0761">
        <ele>113.3</ele>
        <time>2022-08-24T12:13:53Z</time>
      </trkpt>
      <trkpt lat="48.92719" lon="2.07623">
        <ele>113.6</ele>
        <time>2022-08-24T12:13:59Z</time>
      </trkpt>
      <trkpt lat="48.92715" lon="2.07633">
        <ele>113.9</ele>
        <time>2022-08-24T12:14:04Z</time>
      </trkpt>
      <trkpt lat="48.9271" lon="2.07645">
        <ele>113.9</ele>
        <time>2022-08-24T12:14:10Z</time>
      </trkpt>
      <trkpt lat="48.92704" lon="2.07658">
        <ele>113.7</ele>
        <time>2022-08-24T12:14:16Z</time>
      </trkpt>
      <trkpt lat="48.927" lon="2.07668">
        <ele>113.3</ele>
        <time>2022-08-24T12:14:21Z</time>
      </trkpt>
      <trkpt lat="48.92697" lon="2.07679">
        <ele>112.9</ele>
        <time>2022-08-24T12:14:27Z</time>
      </trkpt>
      <trkpt lat="48.92692" lon="2.0769">
        <ele>112.4</ele>
        <time>2022-08-24T12:14:33Z</time>
      </trkpt>
      <trkpt lat="48.92692" lon="2.07697">
        <ele>112.3</ele>
        <time>2022-08-24T12:14:39Z</time>
      </trkpt>
      <trkpt lat="48.92694" lon="2.07703">
        <ele>112.4</ele>
        <time>2022-08-24T12:14:45Z</time>
      </trkpt>
      <trkpt lat="48.92699" lon="2.0771">
        <ele>112.7</ele>
        <time>2022-08-24T12:14:50Z</time>
      </trkpt>
      <trkpt lat="48.92705" lon="2.07718">
        <ele>113</ele>
        <time>2022-08-24T12:14:55Z</time>
      </trkpt>
      <trkpt lat="48.92711" lon="2.07727">
        <ele>113.2</ele>
        <time>2022-08-24T12:15:00Z</time>
      </trkpt>
      <trkpt lat="48.92717" lon="2.07738">
        <ele>113.4</ele>
        <time>2022-08-24T12:15:06Z</time>
      </trkpt>
      <trkpt lat="48.92725" lon="2.07748">
        <ele>113.7</ele>
        <time>2022-08-24T12:15:12Z</time>
      </trkpt>
      <trkpt lat="48.92731" lon="2.07756">
        <ele>114</ele>
        <time>2022-08-24T12:15:17Z</time>
      </trkpt>
      <trkpt lat="48.92738" lon="2.07764">
        <ele>114.4</ele>
        <time>2022-08-24T12:15:23Z</time>
      </trkpt>
      <trkpt lat="48.92745" lon="2.0777">
        <ele>114.5</ele>
        <time>2022-08-24T12:15:28Z</time>
      </trkpt>
      <trkpt lat="48.92752" lon="2.0778">
        <ele>114.8</ele>
        <time>2022-08-24T12:15:34Z</time>
      </trkpt>
      <trkpt lat="48.92757" lon="2.07794">
        <ele>115</ele>
        <time>2022-08-24T12:15:40Z</time>
      </trkpt>
      <trkpt lat="48.92763" lon="2.07805">
        <ele>115.3</ele>
        <time>2022-08-24T12:15:46Z</time>
      </trkpt>
      <trkpt lat="48.92768" lon="2.07814">
        <ele>115.5</ele>
        <time>2022-08-24T12:15:51Z</time>
      </trkpt>
      <trkpt lat="48.92773" lon="2.07824">
        <ele>115.7</ele>
        <time>2022-08-24T12:15:57Z</time>
      </trkpt>
      <trkpt lat="48.9278" lon="2.07833">
        <ele>115.8</ele>
        <time>2022-08-24T12:16:03Z</time>
      </trkpt>
      <trkpt lat="48.92786" lon="2.07841">
        <ele>115.8</ele>
        <time>2022-08-24T12:16:08Z</time>
      </trkpt>
      <trkpt lat="48.92792" lon="2.07853">
        <ele>115.8</ele>
        <time>2022-08-24T12:16:14Z</time>
      </trkpt>
      <trkpt lat="48.92798" lon="2.07866">
        <ele>115.9</ele>
        <time>2022-08-24T12:16:20Z</time>
      </trkpt>
      <trkpt lat="48.92803" lon="2.07876">
        <ele>115.9</ele>
        <time>2022-08-24T12:16:26Z</time>
      </trkpt>
      <trkpt lat="48.92809" lon="2.07885">
        <ele>115.7</ele>
        <time>2022-08-24T12:16:32Z</time>
      </trkpt>
      <trkpt lat="48.92814" lon="2.07893">
        <ele>115.6</ele>
        <time>2022-08-24T12:16:37Z</time>
      </trkpt>
      <trkpt lat="48.9282" lon="2.07902">
        <ele>115.5</ele>
        <time>2022-08-24T12:16:43Z</time>
      </trkpt>
      <trkpt lat="48.92826" lon="2.07911">
        <ele>115.3</ele>
        <time>2022-08-24T12:16:49Z</time>
      </trkpt>
      <trkpt lat="48.92831" lon="2.0792">
        <ele>115.3</ele>
        <time>2022-08-24T12:16:54Z</time>
      </trkpt>
      <trkpt lat="48.92837" lon="2.0793">
        <ele>115.5</ele>
        <time>2022-08-24T12:17:00Z</time>
      </trkpt>
      <trkpt lat="48.92844" lon="2.0794">
        <ele>115.6</ele>
        <time>2022-08-24T12:17:06Z</time>
      </trkpt>
      <trkpt lat="48.92851" lon="2.07951">
        <ele>115.8</ele>
        <time>2022-08-24T12:17:12Z</time>
      </trkpt>
      <trkpt lat="48.92857" lon="2.07959">
        <ele>115.8</ele>
        <time>2022-08-24T12:17:17Z</time>
      </trkpt>
      <trkpt lat="48.92861" lon="2.07967">
        <ele>115.6</ele>
        <time>2022-08-24T12:17:22Z</time>
      </trkpt>
      <trkpt lat="48.92867" lon="2.07978">
        <ele>115.5</ele>
        <time>2022-08-24T12:17:28Z</time>
      </trkpt>
      <trkpt lat="48.92872" lon="2.07987">
        <ele>115.4</ele>
        <time>2022-08-24T12:17:34Z</time>
      </trkpt>
      <trkpt lat="48.92877" lon="2.07995">
        <ele>115.3</ele>
        <time>2022-08-24T12:17:39Z</time>
      </trkpt>
      <trkpt lat="48.92884" lon="2.08003">
        <ele>115.3</ele>
        <time>2022-08-24T12:17:45Z</time>
      </trkpt>
      <trkpt lat="48.92889" lon="2.0801">
        <ele>115.3</ele>
        <time>2022-08-24T12:17:50Z</time>
      </trkpt>
      <trkpt lat="48.92895" lon="2.08019">
        <ele>115.1</ele>
        <time>2022-08-24T12:17:56Z</time>
      </trkpt>
      <trkpt lat="48.92901" lon="2.08027">
        <ele>115</ele>
        <time>2022-08-24T12:18:01Z</time>
      </trkpt>
      <trkpt lat="48.92907" lon="2.08036">
        <ele>115.1</ele>
        <time>2022-08-24T12:18:07Z</time>
      </trkpt>
      <trkpt lat="48.92913" lon="2.08043">
        <ele>115.3</ele>
        <time>2022-08-24T12:18:13Z</time>
      </trkpt>
      <trkpt lat="48.92918" lon="2.08048">
        <ele>115.3</ele>
        <time>2022-08-24T12:18:18Z</time>
      </trkpt>
      <trkpt lat="48.92923" lon="2.08056">
        <ele>115.2</ele>
        <time>2022-08-24T12:18:24Z</time>
      </trkpt>
      <trkpt lat="48.92927" lon="2.08062">
        <ele>114.9</ele>
        <time>2022-08-24T12:18:29Z</time>
      </trkpt>
      <trkpt lat="48.92932" lon="2.08072">
        <ele>114.7</ele>
        <time>2022-08-24T12:18:35Z</time>
      </trkpt>
      <trkpt lat="48.92936" lon="2.0808">
        <ele>114.6</ele>
        <time>2022-08-24T12:18:40Z</time>
      </trkpt>
      <trkpt lat="48.92941" lon="2.08088">
        <ele>114.6</ele>
        <time>2022-08-24T12:18:45Z</time>
      </trkpt>
      <trkpt lat="48.92947" lon="2.08097">
        <ele>114.7</ele>
        <time>2022-08-24T12:18:51Z</time>
      </trkpt>
      <trkpt lat="48.92953" lon="2.08106">
        <ele>114.6</ele>
        <time>2022-08-24T12:18:57Z</time>
      </trkpt>
      <trkpt lat="48.92958" lon="2.08113">
        <ele>114.4</ele>
        <time>2022-08-24T12:19:02Z</time>
      </trkpt>
      <trkpt lat="48.92962" lon="2.08121">
        <ele>114.1</ele>
        <time>2022-08-24T12:19:08Z</time>
      </trkpt>
      <trkpt lat="48.92967" lon="2.08129">
        <ele>114</ele>
        <time>2022-08-24T12:19:14Z</time>
      </trkpt>
      <trkpt lat="48.9297" lon="2.08133">
        <ele>113.9</ele>
        <time>2022-08-24T12:19:20Z</time>
      </trkpt>
      <trkpt lat="48.92971" lon="2.08135">
        <ele>113.8</ele>
        <time>2022-08-24T12:19:26Z</time>
      </trkpt>
      <trkpt lat="48.92972" lon="2.08135">
        <ele>113.4</ele>
        <time>2022-08-24T12:19:43Z</time>
      </trkpt>
      <trkpt lat="48.92973" lon="2.08138">
        <ele>111.9</ele>
        <time>2022-08-24T12:19:54Z</time>
      </trkpt>
      <trkpt lat="48.92975" lon="2.08142">
        <ele>111.3</ele>
        <time>2022-08-24T12:20:00Z</time>
      </trkpt>
      <trkpt lat="48.92978" lon="2.08148">
        <ele>110.6</ele>
        <time>2022-08-24T12:20:06Z</time>
      </trkpt>
      <trkpt lat="48.92983" lon="2.08155">
        <ele>109.9</ele>
        <time>2022-08-24T12:20:12Z</time>
      </trkpt>
      <trkpt lat="48.92989" lon="2.08164">
        <ele>109.2</ele>
        <time>2022-08-24T12:20:18Z</time>
      </trkpt>
      <trkpt lat="48.92996" lon="2.08174">
        <ele>108.6</ele>
        <time>2022-08-24T12:20:24Z</time>
      </trkpt>
      <trkpt lat="48.93001" lon="2.08182">
        <ele>108.2</ele>
        <time>2022-08-24T12:20:29Z</time>
      </trkpt>
      <trkpt lat="48.93006" lon="2.0819">
        <ele>107.7</ele>
        <time>2022-08-24T12:20:34Z</time>
      </trkpt>
      <trkpt lat="48.93013" lon="2.082">
        <ele>107.1</ele>
        <time>2022-08-24T12:20:40Z</time>
      </trkpt>
      <trkpt lat="48.9302" lon="2.0821">
        <ele>106.9</ele>
        <time>2022-08-24T12:20:46Z</time>
      </trkpt>
      <trkpt lat="48.93026" lon="2.08219">
        <ele>106.9</ele>
        <time>2022-08-24T12:20:51Z</time>
      </trkpt>
      <trkpt lat="48.93031" lon="2.08225">
        <ele>106.8</ele>
        <time>2022-08-24T12:20:57Z</time>
      </trkpt>
      <trkpt lat="48.93035" lon="2.08231">
        <ele>106.8</ele>
        <time>2022-08-24T12:21:02Z</time>
      </trkpt>
      <trkpt lat="48.93039" lon="2.08241">
        <ele>106.9</ele>
        <time>2022-08-24T12:21:08Z</time>
      </trkpt>
      <trkpt lat="48.93042" lon="2.08249">
        <ele>107.1</ele>
        <time>2022-08-24T12:21:13Z</time>
      </trkpt>
      <trkpt lat="48.93046" lon="2.08257">
        <ele>107.2</ele>
        <time>2022-08-24T12:21:18Z</time>
      </trkpt>
      <trkpt lat="48.93052" lon="2.08267">
        <ele>107.4</ele>
        <time>2022-08-24T12:21:24Z</time>
      </trkpt>
      <trkpt lat="48.93057" lon="2.08274">
        <ele>107.6</ele>
        <time>2022-08-24T12:21:29Z</time>
      </trkpt>
      <trkpt lat="48.93064" lon="2.08282">
        <ele>107.9</ele>
        <time>2022-08-24T12:21:35Z</time>
      </trkpt>
      <trkpt lat="48.93071" lon="2.08291">
        <ele>108.1</ele>
        <time>2022-08-24T12:21:41Z</time>
      </trkpt>
      <trkpt lat="48.93076" lon="2.08297">
        <ele>108.5</ele>
        <time>2022-08-24T12:21:46Z</time>
      </trkpt>
      <trkpt lat="48.93084" lon="2.08307">
        <ele>108.8</ele>
        <time>2022-08-24T12:21:52Z</time>
      </trkpt>
      <trkpt lat="48.9309" lon="2.08312">
        <ele>108.8</ele>
        <time>2022-08-24T12:21:57Z</time>
      </trkpt>
      <trkpt lat="48.93097" lon="2.08321">
        <ele>108.6</ele>
        <time>2022-08-24T12:22:03Z</time>
      </trkpt>
      <trkpt lat="48.93104" lon="2.08333">
        <ele>108.6</ele>
        <time>2022-08-24T12:22:09Z</time>
      </trkpt>
      <trkpt lat="48.93108" lon="2.08342">
        <ele>108.6</ele>
        <time>2022-08-24T12:22:14Z</time>
      </trkpt>
      <trkpt lat="48.93115" lon="2.08354">
        <ele>108.7</ele>
        <time>2022-08-24T12:22:20Z</time>
      </trkpt>
      <trkpt lat="48.9312" lon="2.08362">
        <ele>108.9</ele>
        <time>2022-08-24T12:22:25Z</time>
      </trkpt>
      <trkpt lat="48.93124" lon="2.08369">
        <ele>109.1</ele>
        <time>2022-08-24T12:22:30Z</time>
      </trkpt>
      <trkpt lat="48.93128" lon="2.08377">
        <ele>109.4</ele>
        <time>2022-08-24T12:22:36Z</time>
      </trkpt>
      <trkpt lat="48.93133" lon="2.08384">
        <ele>109.7</ele>
        <time>2022-08-24T12:22:41Z</time>
      </trkpt>
      <trkpt lat="48.93141" lon="2.08394">
        <ele>110</ele>
        <time>2022-08-24T12:22:47Z</time>
      </trkpt>
      <trkpt lat="48.93147" lon="2.08405">
        <ele>110.2</ele>
        <time>2022-08-24T12:22:53Z</time>
      </trkpt>
      <trkpt lat="48.93154" lon="2.08415">
        <ele>110.5</ele>
        <time>2022-08-24T12:22:58Z</time>
      </trkpt>
      <trkpt lat="48.9316" lon="2.08424">
        <ele>110.5</ele>
        <time>2022-08-24T12:23:04Z</time>
      </trkpt>
      <trkpt lat="48.93167" lon="2.08433">
        <ele>110.5</ele>
        <time>2022-08-24T12:23:10Z</time>
      </trkpt>
      <trkpt lat="48.93172" lon="2.0844">
        <ele>110.4</ele>
        <time>2022-08-24T12:23:15Z</time>
      </trkpt>
      <trkpt lat="48.93178" lon="2.08447">
        <ele>110.4</ele>
        <time>2022-08-24T12:23:21Z</time>
      </trkpt>
      <trkpt lat="48.93184" lon="2.08453">
        <ele>110.2</ele>
        <time>2022-08-24T12:23:26Z</time>
      </trkpt>
      <trkpt lat="48.93188" lon="2.08465">
        <ele>110</ele>
        <time>2022-08-24T12:23:32Z</time>
      </trkpt>
      <trkpt lat="48.9319" lon="2.08475">
        <ele>109.7</ele>
        <time>2022-08-24T12:23:37Z</time>
      </trkpt>
      <trkpt lat="48.93191" lon="2.08487">
        <ele>109.2</ele>
        <time>2022-08-24T12:23:43Z</time>
      </trkpt>
      <trkpt lat="48.93192" lon="2.08497">
        <ele>108.7</ele>
        <time>2022-08-24T12:23:49Z</time>
      </trkpt>
      <trkpt lat="48.93191" lon="2.08507">
        <ele>107.9</ele>
        <time>2022-08-24T12:23:55Z</time>
      </trkpt>
      <trkpt lat="48.93192" lon="2.08516">
        <ele>107.1</ele>
        <time>2022-08-24T12:24:00Z</time>
      </trkpt>
      <trkpt lat="48.93192" lon="2.08524">
        <ele>106.4</ele>
        <time>2022-08-24T12:24:05Z</time>
      </trkpt>
      <trkpt lat="48.93192" lon="2.08536">
        <ele>105.7</ele>
        <time>2022-08-24T12:24:11Z</time>
      </trkpt>
      <trkpt lat="48.93191" lon="2.08548">
        <ele>105.1</ele>
        <time>2022-08-24T12:24:16Z</time>
      </trkpt>
      <trkpt lat="48.93191" lon="2.08561">
        <ele>104.8</ele>
        <time>2022-08-24T12:24:21Z</time>
      </trkpt>
      <trkpt lat="48.9319" lon="2.08579">
        <ele>104.9</ele>
        <time>2022-08-24T12:24:27Z</time>
      </trkpt>
      <trkpt lat="48.93189" lon="2.08592">
        <ele>105.4</ele>
        <time>2022-08-24T12:24:32Z</time>
      </trkpt>
      <trkpt lat="48.93189" lon="2.08603">
        <ele>105.7</ele>
        <time>2022-08-24T12:24:37Z</time>
      </trkpt>
      <trkpt lat="48.93188" lon="2.08616">
        <ele>105.8</ele>
        <time>2022-08-24T12:24:42Z</time>
      </trkpt>
      <trkpt lat="48.93186" lon="2.0863">
        <ele>105.7</ele>
        <time>2022-08-24T12:24:48Z</time>
      </trkpt>
      <trkpt lat="48.93185" lon="2.08641">
        <ele>105.3</ele>
        <time>2022-08-24T12:24:54Z</time>
      </trkpt>
      <trkpt lat="48.93184" lon="2.08651">
        <ele>104.7</ele>
        <time>2022-08-24T12:25:00Z</time>
      </trkpt>
      <trkpt lat="48.93185" lon="2.08664">
        <ele>104.3</ele>
        <time>2022-08-24T12:25:05Z</time>
      </trkpt>
      <trkpt lat="48.93186" lon="2.08683">
        <ele>104.2</ele>
        <time>2022-08-24T12:25:11Z</time>
      </trkpt>
      <trkpt lat="48.93186" lon="2.08698">
        <ele>104.3</ele>
        <time>2022-08-24T12:25:16Z</time>
      </trkpt>
      <trkpt lat="48.93186" lon="2.08712">
        <ele>104.3</ele>
        <time>2022-08-24T12:25:22Z</time>
      </trkpt>
      <trkpt lat="48.93186" lon="2.08718">
        <ele>104.2</ele>
        <time>2022-08-24T12:25:27Z</time>
      </trkpt>
      <trkpt lat="48.93186" lon="2.08726">
        <ele>104.1</ele>
        <time>2022-08-24T12:25:32Z</time>
      </trkpt>
      <trkpt lat="48.93186" lon="2.08734">
        <ele>104</ele>
        <time>2022-08-24T12:25:37Z</time>
      </trkpt>
      <trkpt lat="48.93186" lon="2.08746">
        <ele>103.9</ele>
        <time>2022-08-24T12:25:43Z</time>
      </trkpt>
      <trkpt lat="48.93187" lon="2.08754">
        <ele>103.8</ele>
        <time>2022-08-24T12:25:48Z</time>
      </trkpt>
      <trkpt lat="48.93187" lon="2.08766">
        <ele>104.1</ele>
        <time>2022-08-24T12:25:54Z</time>
      </trkpt>
      <trkpt lat="48.93187" lon="2.08783">
        <ele>104.3</ele>
        <time>2022-08-24T12:26:00Z</time>
      </trkpt>
      <trkpt lat="48.93186" lon="2.08798">
        <ele>104.6</ele>
        <time>2022-08-24T12:26:06Z</time>
      </trkpt>
      <trkpt lat="48.93185" lon="2.08815">
        <ele>104.8</ele>
        <time>2022-08-24T12:26:12Z</time>
      </trkpt>
      <trkpt lat="48.93185" lon="2.08829">
        <ele>104.9</ele>
        <time>2022-08-24T12:26:17Z</time>
      </trkpt>
      <trkpt lat="48.93184" lon="2.08841">
        <ele>104.9</ele>
        <time>2022-08-24T12:26:22Z</time>
      </trkpt>
      <trkpt lat="48.93184" lon="2.08853">
        <ele>104.5</ele>
        <time>2022-08-24T12:26:28Z</time>
      </trkpt>
      <trkpt lat="48.93183" lon="2.0886">
        <ele>103.6</ele>
        <time>2022-08-24T12:26:34Z</time>
      </trkpt>
      <trkpt lat="48.93178" lon="2.08862">
        <ele>102.7</ele>
        <time>2022-08-24T12:26:40Z</time>
      </trkpt>
      <trkpt lat="48.9317" lon="2.08863">
        <ele>101.3</ele>
        <time>2022-08-24T12:26:46Z</time>
      </trkpt>
      <trkpt lat="48.93162" lon="2.08861">
        <ele>100.1</ele>
        <time>2022-08-24T12:26:51Z</time>
      </trkpt>
      <trkpt lat="48.93152" lon="2.08858">
        <ele>98.8</ele>
        <time>2022-08-24T12:26:57Z</time>
      </trkpt>
      <trkpt lat="48.93141" lon="2.08854">
        <ele>97.8</ele>
        <time>2022-08-24T12:27:03Z</time>
      </trkpt>
      <trkpt lat="48.93132" lon="2.0885">
        <ele>97</ele>
        <time>2022-08-24T12:27:08Z</time>
      </trkpt>
      <trkpt lat="48.93123" lon="2.08846">
        <ele>96.7</ele>
        <time>2022-08-24T12:27:13Z</time>
      </trkpt>
      <trkpt lat="48.93113" lon="2.08841">
        <ele>96.9</ele>
        <time>2022-08-24T12:27:19Z</time>
      </trkpt>
      <trkpt lat="48.93105" lon="2.08837">
        <ele>97.1</ele>
        <time>2022-08-24T12:27:24Z</time>
      </trkpt>
      <trkpt lat="48.93096" lon="2.08833">
        <ele>97.7</ele>
        <time>2022-08-24T12:27:30Z</time>
      </trkpt>
      <trkpt lat="48.93089" lon="2.08829">
        <ele>98.6</ele>
        <time>2022-08-24T12:27:35Z</time>
      </trkpt>
      <trkpt lat="48.93079" lon="2.08823">
        <ele>100.1</ele>
        <time>2022-08-24T12:27:41Z</time>
      </trkpt>
      <trkpt lat="48.93069" lon="2.08819">
        <ele>101.5</ele>
        <time>2022-08-24T12:27:47Z</time>
      </trkpt>
      <trkpt lat="48.93061" lon="2.08815">
        <ele>102.3</ele>
        <time>2022-08-24T12:27:52Z</time>
      </trkpt>
      <trkpt lat="48.93051" lon="2.08811">
        <ele>103.4</ele>
        <time>2022-08-24T12:27:58Z</time>
      </trkpt>
      <trkpt lat="48.9304" lon="2.08806">
        <ele>104.6</ele>
        <time>2022-08-24T12:28:04Z</time>
      </trkpt>
      <trkpt lat="48.93032" lon="2.08802">
        <ele>105.4</ele>
        <time>2022-08-24T12:28:09Z</time>
      </trkpt>
      <trkpt lat="48.93023" lon="2.08798">
        <ele>106.2</ele>
        <time>2022-08-24T12:28:15Z</time>
      </trkpt>
      <trkpt lat="48.93015" lon="2.08795">
        <ele>106.8</ele>
        <time>2022-08-24T12:28:21Z</time>
      </trkpt>
      <trkpt lat="48.93007" lon="2.08793">
        <ele>106.7</ele>
        <time>2022-08-24T12:28:27Z</time>
      </trkpt>
      <trkpt lat="48.93002" lon="2.0879">
        <ele>106.4</ele>
        <time>2022-08-24T12:28:32Z</time>
      </trkpt>
      <trkpt lat="48.92996" lon="2.08787">
        <ele>105.9</ele>
        <time>2022-08-24T12:28:37Z</time>
      </trkpt>
      <trkpt lat="48.9299" lon="2.08784">
        <ele>105.8</ele>
        <time>2022-08-24T12:28:42Z</time>
      </trkpt>
      <trkpt lat="48.92983" lon="2.0878">
        <ele>105.3</ele>
        <time>2022-08-24T12:28:48Z</time>
      </trkpt>
      <trkpt lat="48.92976" lon="2.08775">
        <ele>105.1</ele>
        <time>2022-08-24T12:28:54Z</time>
      </trkpt>
      <trkpt lat="48.92968" lon="2.0877">
        <ele>105.5</ele>
        <time>2022-08-24T12:29:00Z</time>
      </trkpt>
      <trkpt lat="48.9296" lon="2.08766">
        <ele>105.6</ele>
        <time>2022-08-24T12:29:05Z</time>
      </trkpt>
      <trkpt lat="48.9295" lon="2.08763">
        <ele>105.6</ele>
        <time>2022-08-24T12:29:10Z</time>
      </trkpt>
      <trkpt lat="48.92941" lon="2.0876">
        <ele>105.6</ele>
        <time>2022-08-24T12:29:15Z</time>
      </trkpt>
      <trkpt lat="48.92931" lon="2.08756">
        <ele>105.9</ele>
        <time>2022-08-24T12:29:21Z</time>
      </trkpt>
      <trkpt lat="48.92922" lon="2.08753">
        <ele>106.3</ele>
        <time>2022-08-24T12:29:26Z</time>
      </trkpt>
      <trkpt lat="48.92913" lon="2.08752">
        <ele>107</ele>
        <time>2022-08-24T12:29:32Z</time>
      </trkpt>
      <trkpt lat="48.92905" lon="2.08749">
        <ele>107.4</ele>
        <time>2022-08-24T12:29:37Z</time>
      </trkpt>
      <trkpt lat="48.92898" lon="2.08746">
        <ele>107.8</ele>
        <time>2022-08-24T12:29:42Z</time>
      </trkpt>
      <trkpt lat="48.9289" lon="2.08742">
        <ele>108.2</ele>
        <time>2022-08-24T12:29:48Z</time>
      </trkpt>
      <trkpt lat="48.92883" lon="2.08738">
        <ele>108.5</ele>
        <time>2022-08-24T12:29:54Z</time>
      </trkpt>
      <trkpt lat="48.92876" lon="2.08735">
        <ele>108.8</ele>
        <time>2022-08-24T12:29:59Z</time>
      </trkpt>
      <trkpt lat="48.92869" lon="2.08733">
        <ele>109</ele>
        <time>2022-08-24T12:30:04Z</time>
      </trkpt>
      <trkpt lat="48.92861" lon="2.08731">
        <ele>109.2</ele>
        <time>2022-08-24T12:30:09Z</time>
      </trkpt>
      <trkpt lat="48.92852" lon="2.08728">
        <ele>109.3</ele>
        <time>2022-08-24T12:30:15Z</time>
      </trkpt>
      <trkpt lat="48.92843" lon="2.08724">
        <ele>109.5</ele>
        <time>2022-08-24T12:30:21Z</time>
      </trkpt>
      <trkpt lat="48.92833" lon="2.0872">
        <ele>109.6</ele>
        <time>2022-08-24T12:30:27Z</time>
      </trkpt>
      <trkpt lat="48.92826" lon="2.08717">
        <ele>109.4</ele>
        <time>2022-08-24T12:30:32Z</time>
      </trkpt>
      <trkpt lat="48.92817" lon="2.08712">
        <ele>109</ele>
        <time>2022-08-24T12:30:38Z</time>
      </trkpt>
      <trkpt lat="48.9281" lon="2.08709">
        <ele>108.6</ele>
        <time>2022-08-24T12:30:43Z</time>
      </trkpt>
      <trkpt lat="48.928" lon="2.08706">
        <ele>108</ele>
        <time>2022-08-24T12:30:49Z</time>
      </trkpt>
      <trkpt lat="48.92792" lon="2.08701">
        <ele>107.4</ele>
        <time>2022-08-24T12:30:55Z</time>
      </trkpt>
      <trkpt lat="48.92785" lon="2.08698">
        <ele>107</ele>
        <time>2022-08-24T12:31:01Z</time>
      </trkpt>
      <trkpt lat="48.92778" lon="2.08694">
        <ele>106.8</ele>
        <time>2022-08-24T12:31:07Z</time>
      </trkpt>
      <trkpt lat="48.9277" lon="2.08692">
        <ele>106.8</ele>
        <time>2022-08-24T12:31:13Z</time>
      </trkpt>
      <trkpt lat="48.92761" lon="2.0869">
        <ele>106.7</ele>
        <time>2022-08-24T12:31:19Z</time>
      </trkpt>
      <trkpt lat="48.92755" lon="2.08688">
        <ele>106.4</ele>
        <time>2022-08-24T12:31:24Z</time>
      </trkpt>
      <trkpt lat="48.92748" lon="2.08686">
        <ele>106.1</ele>
        <time>2022-08-24T12:31:30Z</time>
      </trkpt>
      <trkpt lat="48.92741" lon="2.08684">
        <ele>106.1</ele>
        <time>2022-08-24T12:31:35Z</time>
      </trkpt>
      <trkpt lat="48.92731" lon="2.08679">
        <ele>106.1</ele>
        <time>2022-08-24T12:31:41Z</time>
      </trkpt>
      <trkpt lat="48.9272" lon="2.08673">
        <ele>106.1</ele>
        <time>2022-08-24T12:31:47Z</time>
      </trkpt>
      <trkpt lat="48.92713" lon="2.08669">
        <ele>105.9</ele>
        <time>2022-08-24T12:31:52Z</time>
      </trkpt>
      <trkpt lat="48.92703" lon="2.08665">
        <ele>105.9</ele>
        <time>2022-08-24T12:31:58Z</time>
      </trkpt>
      <trkpt lat="48.92693" lon="2.0866">
        <ele>106.1</ele>
        <time>2022-08-24T12:32:04Z</time>
      </trkpt>
      <trkpt lat="48.92686" lon="2.08657">
        <ele>106</ele>
        <time>2022-08-24T12:32:09Z</time>
      </trkpt>
      <trkpt lat="48.92676" lon="2.08653">
        <ele>105.8</ele>
        <time>2022-08-24T12:32:15Z</time>
      </trkpt>
      <trkpt lat="48.92667" lon="2.0865">
        <ele>105.6</ele>
        <time>2022-08-24T12:32:20Z</time>
      </trkpt>
      <trkpt lat="48.92657" lon="2.08647">
        <ele>105.3</ele>
        <time>2022-08-24T12:32:26Z</time>
      </trkpt>
      <trkpt lat="48.92648" lon="2.08642">
        <ele>105.1</ele>
        <time>2022-08-24T12:32:32Z</time>
      </trkpt>
      <trkpt lat="48.92639" lon="2.08637">
        <ele>104.9</ele>
        <time>2022-08-24T12:32:38Z</time>
      </trkpt>
      <trkpt lat="48.92631" lon="2.08633">
        <ele>104.8</ele>
        <time>2022-08-24T12:32:44Z</time>
      </trkpt>
      <trkpt lat="48.92624" lon="2.08629">
        <ele>104.6</ele>
        <time>2022-08-24T12:32:49Z</time>
      </trkpt>
      <trkpt lat="48.92615" lon="2.08625">
        <ele>104.6</ele>
        <time>2022-08-24T12:32:55Z</time>
      </trkpt>
      <trkpt lat="48.92608" lon="2.08623">
        <ele>104.5</ele>
        <time>2022-08-24T12:33:00Z</time>
      </trkpt>
      <trkpt lat="48.92601" lon="2.0862">
        <ele>104.5</ele>
        <time>2022-08-24T12:33:05Z</time>
      </trkpt>
      <trkpt lat="48.92589" lon="2.08615">
        <ele>104.7</ele>
        <time>2022-08-24T12:33:11Z</time>
      </trkpt>
      <trkpt lat="48.92579" lon="2.08611">
        <ele>105</ele>
        <time>2022-08-24T12:33:17Z</time>
      </trkpt>
      <trkpt lat="48.9257" lon="2.08608">
        <ele>105.2</ele>
        <time>2022-08-24T12:33:23Z</time>
      </trkpt>
      <trkpt lat="48.9256" lon="2.08605">
        <ele>105.4</ele>
        <time>2022-08-24T12:33:29Z</time>
      </trkpt>
      <trkpt lat="48.92555" lon="2.08602">
        <ele>105.6</ele>
        <time>2022-08-24T12:33:34Z</time>
      </trkpt>
      <trkpt lat="48.92548" lon="2.08601">
        <ele>105.8</ele>
        <time>2022-08-24T12:33:39Z</time>
      </trkpt>
      <trkpt lat="48.92539" lon="2.08597">
        <ele>106</ele>
        <time>2022-08-24T12:33:45Z</time>
      </trkpt>
      <trkpt lat="48.92531" lon="2.08591">
        <ele>106.3</ele>
        <time>2022-08-24T12:33:51Z</time>
      </trkpt>
      <trkpt lat="48.92524" lon="2.08588">
        <ele>106.5</ele>
        <time>2022-08-24T12:33:57Z</time>
      </trkpt>
      <trkpt lat="48.92516" lon="2.08585">
        <ele>106.6</ele>
        <time>2022-08-24T12:34:03Z</time>
      </trkpt>
      <trkpt lat="48.92507" lon="2.08581">
        <ele>106.6</ele>
        <time>2022-08-24T12:34:09Z</time>
      </trkpt>
      <trkpt lat="48.92498" lon="2.08578">
        <ele>106.5</ele>
        <time>2022-08-24T12:34:15Z</time>
      </trkpt>
      <trkpt lat="48.92488" lon="2.08573">
        <ele>106.2</ele>
        <time>2022-08-24T12:34:21Z</time>
      </trkpt>
      <trkpt lat="48.9248" lon="2.0857">
        <ele>106</ele>
        <time>2022-08-24T12:34:26Z</time>
      </trkpt>
      <trkpt lat="48.92472" lon="2.08567">
        <ele>106</ele>
        <time>2022-08-24T12:34:32Z</time>
      </trkpt>
      <trkpt lat="48.92463" lon="2.08563">
        <ele>106.3</ele>
        <time>2022-08-24T12:34:38Z</time>
      </trkpt>
      <trkpt lat="48.92455" lon="2.0856">
        <ele>106.6</ele>
        <time>2022-08-24T12:34:44Z</time>
      </trkpt>
      <trkpt lat="48.92449" lon="2.08559">
        <ele>106.7</ele>
        <time>2022-08-24T12:34:49Z</time>
      </trkpt>
      <trkpt lat="48.92442" lon="2.08556">
        <ele>106.8</ele>
        <time>2022-08-24T12:34:54Z</time>
      </trkpt>
      <trkpt lat="48.92435" lon="2.08552">
        <ele>106.8</ele>
        <time>2022-08-24T12:35:00Z</time>
      </trkpt>
      <trkpt lat="48.92427" lon="2.08549">
        <ele>106.8</ele>
        <time>2022-08-24T12:35:06Z</time>
      </trkpt>
      <trkpt lat="48.9242" lon="2.08546">
        <ele>106.7</ele>
        <time>2022-08-24T12:35:12Z</time>
      </trkpt>
      <trkpt lat="48.92413" lon="2.08542">
        <ele>106.6</ele>
        <time>2022-08-24T12:35:17Z</time>
      </trkpt>
      <trkpt lat="48.92404" lon="2.08538">
        <ele>106.6</ele>
        <time>2022-08-24T12:35:22Z</time>
      </trkpt>
      <trkpt lat="48.92394" lon="2.08535">
        <ele>106.8</ele>
        <time>2022-08-24T12:35:28Z</time>
      </trkpt>
      <trkpt lat="48.92386" lon="2.0853">
        <ele>106.8</ele>
        <time>2022-08-24T12:35:34Z</time>
      </trkpt>
      <trkpt lat="48.92378" lon="2.08526">
        <ele>107</ele>
        <time>2022-08-24T12:35:39Z</time>
      </trkpt>
      <trkpt lat="48.9237" lon="2.08521">
        <ele>107.1</ele>
        <time>2022-08-24T12:35:44Z</time>
      </trkpt>
      <trkpt lat="48.92361" lon="2.08517">
        <ele>107.2</ele>
        <time>2022-08-24T12:35:50Z</time>
      </trkpt>
      <trkpt lat="48.92351" lon="2.08513">
        <ele>107.6</ele>
        <time>2022-08-24T12:35:56Z</time>
      </trkpt>
      <trkpt lat="48.92343" lon="2.08509">
        <ele>107.8</ele>
        <time>2022-08-24T12:36:02Z</time>
      </trkpt>
      <trkpt lat="48.92337" lon="2.08507">
        <ele>107.8</ele>
        <time>2022-08-24T12:36:07Z</time>
      </trkpt>
      <trkpt lat="48.92332" lon="2.08507">
        <ele>107.8</ele>
        <time>2022-08-24T12:36:13Z</time>
      </trkpt>
      <trkpt lat="48.9233" lon="2.08508">
        <ele>107.8</ele>
        <time>2022-08-24T12:36:19Z</time>
      </trkpt>
      <trkpt lat="48.92323" lon="2.08504">
        <ele>108.1</ele>
        <time>2022-08-24T12:36:25Z</time>
      </trkpt>
      <trkpt lat="48.92315" lon="2.08499">
        <ele>108.3</ele>
        <time>2022-08-24T12:36:30Z</time>
      </trkpt>
      <trkpt lat="48.92309" lon="2.08493">
        <ele>108.5</ele>
        <time>2022-08-24T12:36:36Z</time>
      </trkpt>
      <trkpt lat="48.92307" lon="2.08493">
        <ele>108.7</ele>
        <time>2022-08-24T12:36:41Z</time>
      </trkpt>
      <trkpt lat="48.92301" lon="2.08491">
        <ele>109.2</ele>
        <time>2022-08-24T12:36:47Z</time>
      </trkpt>
      <trkpt lat="48.92296" lon="2.08489">
        <ele>109.6</ele>
        <time>2022-08-24T12:36:53Z</time>
      </trkpt>
      <trkpt lat="48.92293" lon="2.08489">
        <ele>109.8</ele>
        <time>2022-08-24T12:36:59Z</time>
      </trkpt>
      <trkpt lat="48.9229" lon="2.08488">
        <ele>109.9</ele>
        <time>2022-08-24T12:37:05Z</time>
      </trkpt>
      <trkpt lat="48.92288" lon="2.08487">
        <ele>110</ele>
        <time>2022-08-24T12:37:10Z</time>
      </trkpt>
      <trkpt lat="48.92286" lon="2.08485">
        <ele>110</ele>
        <time>2022-08-24T12:37:16Z</time>
      </trkpt>
      <trkpt lat="48.92281" lon="2.08481">
        <ele>109.7</ele>
        <time>2022-08-24T12:37:22Z</time>
      </trkpt>
      <trkpt lat="48.92278" lon="2.0848">
        <ele>109.5</ele>
        <time>2022-08-24T12:37:27Z</time>
      </trkpt>
      <trkpt lat="48.92277" lon="2.08479">
        <ele>109.5</ele>
        <time>2022-08-24T12:37:33Z</time>
      </trkpt>
      <trkpt lat="48.92278" lon="2.08478">
        <ele>109.3</ele>
        <time>2022-08-24T12:37:45Z</time>
      </trkpt>
      <trkpt lat="48.92279" lon="2.08479">
        <ele>109.3</ele>
        <time>2022-08-24T12:37:51Z</time>
      </trkpt>
      <trkpt lat="48.9228" lon="2.08479">
        <ele>109.4</ele>
        <time>2022-08-24T12:38:03Z</time>
      </trkpt>
      <trkpt lat="48.92281" lon="2.08482">
        <ele>109.7</ele>
        <time>2022-08-24T12:38:09Z</time>
      </trkpt>
      <trkpt lat="48.92286" lon="2.08485">
        <ele>109.6</ele>
        <time>2022-08-24T12:38:14Z</time>
      </trkpt>
      <trkpt lat="48.9229" lon="2.08488">
        <ele>109.5</ele>
        <time>2022-08-24T12:38:20Z</time>
      </trkpt>
      <trkpt lat="48.92291" lon="2.0849">
        <ele>109.5</ele>
        <time>2022-08-24T12:38:26Z</time>
      </trkpt>
      <trkpt lat="48.92291" lon="2.08491">
        <ele>109.5</ele>
        <time>2022-08-24T12:38:32Z</time>
      </trkpt>
      <trkpt lat="48.92291" lon="2.08492">
        <ele>109.6</ele>
        <time>2022-08-24T12:38:38Z</time>
      </trkpt>
      <trkpt lat="48.92292" lon="2.08493">
        <ele>109.7</ele>
        <time>2022-08-24T12:38:49Z</time>
      </trkpt>
      <trkpt lat="48.92293" lon="2.08493">
        <ele>110</ele>
        <time>2022-08-24T12:39:17Z</time>
      </trkpt>
      <trkpt lat="48.92293" lon="2.08494">
        <ele>110</ele>
        <time>2022-08-24T12:39:22Z</time>
      </trkpt>
      <trkpt lat="48.92294" lon="2.08494">
        <ele>110.4</ele>
        <time>2022-08-24T12:39:56Z</time>
      </trkpt>
      <trkpt lat="48.92294" lon="2.08495">
        <ele>110.7</ele>
        <time>2022-08-24T12:40:18Z</time>
      </trkpt>
      <trkpt lat="48.92289" lon="2.08493">
        <ele>111</ele>
        <time>2022-08-24T12:40:40Z</time>
      </trkpt>
      <trkpt lat="48.92281" lon="2.08486">
        <ele>111.2</ele>
        <time>2022-08-24T12:40:46Z</time>
      </trkpt>
      <trkpt lat="48.92273" lon="2.08484">
        <ele>111.3</ele>
        <time>2022-08-24T12:40:52Z</time>
      </trkpt>
      <trkpt lat="48.92267" lon="2.08487">
        <ele>111.5</ele>
        <time>2022-08-24T12:40:57Z</time>
      </trkpt>
      <trkpt lat="48.92263" lon="2.08494">
        <ele>111.7</ele>
        <time>2022-08-24T12:41:02Z</time>
      </trkpt>
      <trkpt lat="48.92261" lon="2.08502">
        <ele>111.9</ele>
        <time>2022-08-24T12:41:07Z</time>
      </trkpt>
      <trkpt lat="48.92259" lon="2.08506">
        <ele>112</ele>
        <time>2022-08-24T12:41:13Z</time>
      </trkpt>
      <trkpt lat="48.92257" lon="2.08508">
        <ele>112.1</ele>
        <time>2022-08-24T12:41:18Z</time>
      </trkpt>
      <trkpt lat="48.92256" lon="2.08509">
        <ele>112.1</ele>
        <time>2022-08-24T12:41:24Z</time>
      </trkpt>
      <trkpt lat="48.92254" lon="2.08512">
        <ele>112.4</ele>
        <time>2022-08-24T12:41:30Z</time>
      </trkpt>
      <trkpt lat="48.92248" lon="2.08521">
        <ele>112.5</ele>
        <time>2022-08-24T12:41:36Z</time>
      </trkpt>
      <trkpt lat="48.92242" lon="2.08528">
        <ele>112.4</ele>
        <time>2022-08-24T12:41:41Z</time>
      </trkpt>
      <trkpt lat="48.92234" lon="2.08528">
        <ele>112</ele>
        <time>2022-08-24T12:41:47Z</time>
      </trkpt>
      <trkpt lat="48.92226" lon="2.08525">
        <ele>111.2</ele>
        <time>2022-08-24T12:41:53Z</time>
      </trkpt>
      <trkpt lat="48.92222" lon="2.08523">
        <ele>110.4</ele>
        <time>2022-08-24T12:41:59Z</time>
      </trkpt>
      <trkpt lat="48.9222" lon="2.0852">
        <ele>109.7</ele>
        <time>2022-08-24T12:42:05Z</time>
      </trkpt>
      <trkpt lat="48.92221" lon="2.08513">
        <ele>108.7</ele>
        <time>2022-08-24T12:42:10Z</time>
      </trkpt>
      <trkpt lat="48.92218" lon="2.08499">
        <ele>107.8</ele>
        <time>2022-08-24T12:42:16Z</time>
      </trkpt>
      <trkpt lat="48.92214" lon="2.08489">
        <ele>107.4</ele>
        <time>2022-08-24T12:42:21Z</time>
      </trkpt>
      <trkpt lat="48.9221" lon="2.08478">
        <ele>107.4</ele>
        <time>2022-08-24T12:42:27Z</time>
      </trkpt>
      <trkpt lat="48.92206" lon="2.0847">
        <ele>107.5</ele>
        <time>2022-08-24T12:42:32Z</time>
      </trkpt>
      <trkpt lat="48.92202" lon="2.0846">
        <ele>107.5</ele>
        <time>2022-08-24T12:42:38Z</time>
      </trkpt>
      <trkpt lat="48.92198" lon="2.08451">
        <ele>107.6</ele>
        <time>2022-08-24T12:42:44Z</time>
      </trkpt>
      <trkpt lat="48.92193" lon="2.08451">
        <ele>107.9</ele>
        <time>2022-08-24T12:42:50Z</time>
      </trkpt>
      <trkpt lat="48.9219" lon="2.08453">
        <ele>107.9</ele>
        <time>2022-08-24T12:42:56Z</time>
      </trkpt>
      <trkpt lat="48.92187" lon="2.08453">
        <ele>108</ele>
        <time>2022-08-24T12:43:01Z</time>
      </trkpt>
      <trkpt lat="48.92181" lon="2.08457">
        <ele>108</ele>
        <time>2022-08-24T12:43:06Z</time>
      </trkpt>
      <trkpt lat="48.92173" lon="2.08464">
        <ele>108.1</ele>
        <time>2022-08-24T12:43:12Z</time>
      </trkpt>
      <trkpt lat="48.92167" lon="2.08469">
        <ele>108.2</ele>
        <time>2022-08-24T12:43:17Z</time>
      </trkpt>
      <trkpt lat="48.9216" lon="2.08473">
        <ele>108.6</ele>
        <time>2022-08-24T12:43:22Z</time>
      </trkpt>
      <trkpt lat="48.92152" lon="2.08476">
        <ele>109.3</ele>
        <time>2022-08-24T12:43:28Z</time>
      </trkpt>
      <trkpt lat="48.92143" lon="2.08479">
        <ele>110.2</ele>
        <time>2022-08-24T12:43:34Z</time>
      </trkpt>
      <trkpt lat="48.92137" lon="2.08485">
        <ele>110.8</ele>
        <time>2022-08-24T12:43:40Z</time>
      </trkpt>
      <trkpt lat="48.92132" lon="2.08494">
        <ele>111.3</ele>
        <time>2022-08-24T12:43:45Z</time>
      </trkpt>
      <trkpt lat="48.92128" lon="2.08508">
        <ele>112</ele>
        <time>2022-08-24T12:43:51Z</time>
      </trkpt>
      <trkpt lat="48.92124" lon="2.08519">
        <ele>112.6</ele>
        <time>2022-08-24T12:43:56Z</time>
      </trkpt>
      <trkpt lat="48.9212" lon="2.08526">
        <ele>113.1</ele>
        <time>2022-08-24T12:44:02Z</time>
      </trkpt>
      <trkpt lat="48.92115" lon="2.0853">
        <ele>113.3</ele>
        <time>2022-08-24T12:44:07Z</time>
      </trkpt>
      <trkpt lat="48.92107" lon="2.08533">
        <ele>113.6</ele>
        <time>2022-08-24T12:44:13Z</time>
      </trkpt>
      <trkpt lat="48.92101" lon="2.08536">
        <ele>113.8</ele>
        <time>2022-08-24T12:44:18Z</time>
      </trkpt>
      <trkpt lat="48.92097" lon="2.08541">
        <ele>113.7</ele>
        <time>2022-08-24T12:44:24Z</time>
      </trkpt>
      <trkpt lat="48.92098" lon="2.08544">
        <ele>112.8</ele>
        <time>2022-08-24T12:44:30Z</time>
      </trkpt>
      <trkpt lat="48.92104" lon="2.08547">
        <ele>112</ele>
        <time>2022-08-24T12:44:35Z</time>
      </trkpt>
      <trkpt lat="48.9211" lon="2.08553">
        <ele>111.5</ele>
        <time>2022-08-24T12:44:40Z</time>
      </trkpt>
      <trkpt lat="48.92116" lon="2.0856">
        <ele>111</ele>
        <time>2022-08-24T12:44:46Z</time>
      </trkpt>
      <trkpt lat="48.9212" lon="2.08566">
        <ele>110.7</ele>
        <time>2022-08-24T12:44:51Z</time>
      </trkpt>
      <trkpt lat="48.92125" lon="2.0857">
        <ele>110</ele>
        <time>2022-08-24T12:44:56Z</time>
      </trkpt>
      <trkpt lat="48.92131" lon="2.08574">
        <ele>109.2</ele>
        <time>2022-08-24T12:45:02Z</time>
      </trkpt>
      <trkpt lat="48.92136" lon="2.08577">
        <ele>108.6</ele>
        <time>2022-08-24T12:45:08Z</time>
      </trkpt>
      <trkpt lat="48.92143" lon="2.0858">
        <ele>108.2</ele>
        <time>2022-08-24T12:45:14Z</time>
      </trkpt>
      <trkpt lat="48.9215" lon="2.08587">
        <ele>107.9</ele>
        <time>2022-08-24T12:45:20Z</time>
      </trkpt>
      <trkpt lat="48.92156" lon="2.08595">
        <ele>107.9</ele>
        <time>2022-08-24T12:45:26Z</time>
      </trkpt>
      <trkpt lat="48.9216" lon="2.08605">
        <ele>107.9</ele>
        <time>2022-08-24T12:45:32Z</time>
      </trkpt>
      <trkpt lat="48.9216" lon="2.08621">
        <ele>108</ele>
        <time>2022-08-24T12:45:38Z</time>
      </trkpt>
      <trkpt lat="48.92158" lon="2.08637">
        <ele>108.1</ele>
        <time>2022-08-24T12:45:44Z</time>
      </trkpt>
      <trkpt lat="48.92155" lon="2.08647">
        <ele>108.1</ele>
        <time>2022-08-24T12:45:49Z</time>
      </trkpt>
      <trkpt lat="48.92151" lon="2.08657">
        <ele>108.2</ele>
        <time>2022-08-24T12:45:54Z</time>
      </trkpt>
      <trkpt lat="48.92145" lon="2.08669">
        <ele>108.5</ele>
        <time>2022-08-24T12:46:00Z</time>
      </trkpt>
      <trkpt lat="48.92138" lon="2.08681">
        <ele>108.7</ele>
        <time>2022-08-24T12:46:06Z</time>
      </trkpt>
      <trkpt lat="48.92133" lon="2.08689">
        <ele>108.7</ele>
        <time>2022-08-24T12:46:11Z</time>
      </trkpt>
      <trkpt lat="48.92129" lon="2.087">
        <ele>108.9</ele>
        <time>2022-08-24T12:46:16Z</time>
      </trkpt>
      <trkpt lat="48.92125" lon="2.08713">
        <ele>109.1</ele>
        <time>2022-08-24T12:46:22Z</time>
      </trkpt>
      <trkpt lat="48.92121" lon="2.08724">
        <ele>109.6</ele>
        <time>2022-08-24T12:46:27Z</time>
      </trkpt>
      <trkpt lat="48.92116" lon="2.08737">
        <ele>110.4</ele>
        <time>2022-08-24T12:46:33Z</time>
      </trkpt>
      <trkpt lat="48.92112" lon="2.0875">
        <ele>110.9</ele>
        <time>2022-08-24T12:46:39Z</time>
      </trkpt>
      <trkpt lat="48.92106" lon="2.08762">
        <ele>111.3</ele>
        <time>2022-08-24T12:46:45Z</time>
      </trkpt>
      <trkpt lat="48.92101" lon="2.08773">
        <ele>111.7</ele>
        <time>2022-08-24T12:46:50Z</time>
      </trkpt>
      <trkpt lat="48.92097" lon="2.08782">
        <ele>112.3</ele>
        <time>2022-08-24T12:46:55Z</time>
      </trkpt>
      <trkpt lat="48.92093" lon="2.08792">
        <ele>112.7</ele>
        <time>2022-08-24T12:47:01Z</time>
      </trkpt>
      <trkpt lat="48.92089" lon="2.08801">
        <ele>113</ele>
        <time>2022-08-24T12:47:06Z</time>
      </trkpt>
      <trkpt lat="48.92086" lon="2.08812">
        <ele>113.2</ele>
        <time>2022-08-24T12:47:11Z</time>
      </trkpt>
      <trkpt lat="48.92082" lon="2.08826">
        <ele>113.5</ele>
        <time>2022-08-24T12:47:17Z</time>
      </trkpt>
      <trkpt lat="48.92077" lon="2.08839">
        <ele>113.6</ele>
        <time>2022-08-24T12:47:23Z</time>
      </trkpt>
      <trkpt lat="48.92073" lon="2.08851">
        <ele>113.5</ele>
        <time>2022-08-24T12:47:29Z</time>
      </trkpt>
      <trkpt lat="48.9207" lon="2.0886">
        <ele>113.4</ele>
        <time>2022-08-24T12:47:34Z</time>
      </trkpt>
      <trkpt lat="48.92068" lon="2.0887">
        <ele>113.4</ele>
        <time>2022-08-24T12:47:40Z</time>
      </trkpt>
      <trkpt lat="48.92065" lon="2.08877">
        <ele>113.4</ele>
        <time>2022-08-24T12:47:45Z</time>
      </trkpt>
      <trkpt lat="48.92062" lon="2.08889">
        <ele>113.5</ele>
        <time>2022-08-24T12:47:51Z</time>
      </trkpt>
      <trkpt lat="48.92058" lon="2.08899">
        <ele>113.4</ele>
        <time>2022-08-24T12:47:57Z</time>
      </trkpt>
      <trkpt lat="48.92056" lon="2.08909">
        <ele>113.2</ele>
        <time>2022-08-24T12:48:03Z</time>
      </trkpt>
      <trkpt lat="48.92051" lon="2.0892">
        <ele>112.7</ele>
        <time>2022-08-24T12:48:09Z</time>
      </trkpt>
      <trkpt lat="48.92045" lon="2.08933">
        <ele>112</ele>
        <time>2022-08-24T12:48:15Z</time>
      </trkpt>
      <trkpt lat="48.9204" lon="2.08945">
        <ele>111.6</ele>
        <time>2022-08-24T12:48:21Z</time>
      </trkpt>
      <trkpt lat="48.92033" lon="2.08956">
        <ele>111</ele>
        <time>2022-08-24T12:48:27Z</time>
      </trkpt>
      <trkpt lat="48.92026" lon="2.08969">
        <ele>110.6</ele>
        <time>2022-08-24T12:48:33Z</time>
      </trkpt>
      <trkpt lat="48.92018" lon="2.08979">
        <ele>110.9</ele>
        <time>2022-08-24T12:48:38Z</time>
      </trkpt>
      <trkpt lat="48.92008" lon="2.0898">
        <ele>111.3</ele>
        <time>2022-08-24T12:48:43Z</time>
      </trkpt>
      <trkpt lat="48.91997" lon="2.0898">
        <ele>111.8</ele>
        <time>2022-08-24T12:48:48Z</time>
      </trkpt>
      <trkpt lat="48.91987" lon="2.0898">
        <ele>112.3</ele>
        <time>2022-08-24T12:48:54Z</time>
      </trkpt>
      <trkpt lat="48.9198" lon="2.08979">
        <ele>112.5</ele>
        <time>2022-08-24T12:48:59Z</time>
      </trkpt>
      <trkpt lat="48.91974" lon="2.08978">
        <ele>112.8</ele>
        <time>2022-08-24T12:49:05Z</time>
      </trkpt>
      <trkpt lat="48.9197" lon="2.08974">
        <ele>113.2</ele>
        <time>2022-08-24T12:49:10Z</time>
      </trkpt>
      <trkpt lat="48.91965" lon="2.08965">
        <ele>113.3</ele>
        <time>2022-08-24T12:49:16Z</time>
      </trkpt>
      <trkpt lat="48.91962" lon="2.08957">
        <ele>113.6</ele>
        <time>2022-08-24T12:49:21Z</time>
      </trkpt>
      <trkpt lat="48.91958" lon="2.08949">
        <ele>114.1</ele>
        <time>2022-08-24T12:49:26Z</time>
      </trkpt>
      <trkpt lat="48.91953" lon="2.0894">
        <ele>114.5</ele>
        <time>2022-08-24T12:49:31Z</time>
      </trkpt>
      <trkpt lat="48.91947" lon="2.08931">
        <ele>114.6</ele>
        <time>2022-08-24T12:49:37Z</time>
      </trkpt>
      <trkpt lat="48.91944" lon="2.08923">
        <ele>114.3</ele>
        <time>2022-08-24T12:49:43Z</time>
      </trkpt>
      <trkpt lat="48.91942" lon="2.08915">
        <ele>114</ele>
        <time>2022-08-24T12:49:48Z</time>
      </trkpt>
      <trkpt lat="48.91938" lon="2.08907">
        <ele>113.6</ele>
        <time>2022-08-24T12:49:53Z</time>
      </trkpt>
      <trkpt lat="48.91931" lon="2.08898">
        <ele>113.3</ele>
        <time>2022-08-24T12:49:59Z</time>
      </trkpt>
      <trkpt lat="48.91928" lon="2.08892">
        <ele>113.2</ele>
        <time>2022-08-24T12:50:05Z</time>
      </trkpt>
      <trkpt lat="48.91927" lon="2.08891">
        <ele>113.2</ele>
        <time>2022-08-24T12:50:10Z</time>
      </trkpt>
      <trkpt lat="48.91926" lon="2.0889">
        <ele>113.2</ele>
        <time>2022-08-24T12:50:16Z</time>
      </trkpt>
      <trkpt lat="48.91925" lon="2.08889">
        <ele>113.7</ele>
        <time>2022-08-24T12:50:27Z</time>
      </trkpt>
      <trkpt lat="48.91922" lon="2.08887">
        <ele>114.3</ele>
        <time>2022-08-24T12:50:32Z</time>
      </trkpt>
      <trkpt lat="48.91916" lon="2.08882">
        <ele>114.7</ele>
        <time>2022-08-24T12:50:38Z</time>
      </trkpt>
      <trkpt lat="48.9191" lon="2.08874">
        <ele>115.4</ele>
        <time>2022-08-24T12:50:44Z</time>
      </trkpt>
      <trkpt lat="48.91904" lon="2.08867">
        <ele>115.6</ele>
        <time>2022-08-24T12:50:49Z</time>
      </trkpt>
      <trkpt lat="48.91897" lon="2.08859">
        <ele>115.4</ele>
        <time>2022-08-24T12:50:55Z</time>
      </trkpt>
      <trkpt lat="48.9189" lon="2.08851">
        <ele>114.9</ele>
        <time>2022-08-24T12:51:01Z</time>
      </trkpt>
      <trkpt lat="48.91885" lon="2.08847">
        <ele>114.5</ele>
        <time>2022-08-24T12:51:06Z</time>
      </trkpt>
      <trkpt lat="48.9188" lon="2.08844">
        <ele>114.2</ele>
        <time>2022-08-24T12:51:11Z</time>
      </trkpt>
      <trkpt lat="48.91877" lon="2.08846">
        <ele>114.3</ele>
        <time>2022-08-24T12:51:16Z</time>
      </trkpt>
      <trkpt lat="48.91872" lon="2.08856">
        <ele>114.5</ele>
        <time>2022-08-24T12:51:22Z</time>
      </trkpt>
      <trkpt lat="48.91867" lon="2.08871">
        <ele>114.5</ele>
        <time>2022-08-24T12:51:28Z</time>
      </trkpt>
      <trkpt lat="48.91862" lon="2.08884">
        <ele>114.4</ele>
        <time>2022-08-24T12:51:33Z</time>
      </trkpt>
      <trkpt lat="48.91859" lon="2.08897">
        <ele>114.3</ele>
        <time>2022-08-24T12:51:38Z</time>
      </trkpt>
      <trkpt lat="48.91856" lon="2.08909">
        <ele>114</ele>
        <time>2022-08-24T12:51:43Z</time>
      </trkpt>
      <trkpt lat="48.91853" lon="2.08921">
        <ele>113.9</ele>
        <time>2022-08-24T12:51:49Z</time>
      </trkpt>
      <trkpt lat="48.91851" lon="2.08934">
        <ele>113.8</ele>
        <time>2022-08-24T12:51:55Z</time>
      </trkpt>
      <trkpt lat="48.91849" lon="2.08945">
        <ele>113.7</ele>
        <time>2022-08-24T12:52:01Z</time>
      </trkpt>
      <trkpt lat="48.91847" lon="2.08955">
        <ele>113.4</ele>
        <time>2022-08-24T12:52:06Z</time>
      </trkpt>
      <trkpt lat="48.91845" lon="2.08969">
        <ele>112.9</ele>
        <time>2022-08-24T12:52:12Z</time>
      </trkpt>
      <trkpt lat="48.91843" lon="2.0898">
        <ele>112.4</ele>
        <time>2022-08-24T12:52:17Z</time>
      </trkpt>
      <trkpt lat="48.9184" lon="2.08994">
        <ele>111.7</ele>
        <time>2022-08-24T12:52:23Z</time>
      </trkpt>
      <trkpt lat="48.91837" lon="2.09004">
        <ele>111.2</ele>
        <time>2022-08-24T12:52:28Z</time>
      </trkpt>
      <trkpt lat="48.91834" lon="2.09017">
        <ele>110.8</ele>
        <time>2022-08-24T12:52:34Z</time>
      </trkpt>
      <trkpt lat="48.91831" lon="2.0903">
        <ele>110.6</ele>
        <time>2022-08-24T12:52:40Z</time>
      </trkpt>
      <trkpt lat="48.91826" lon="2.09044">
        <ele>110.3</ele>
        <time>2022-08-24T12:52:46Z</time>
      </trkpt>
      <trkpt lat="48.91822" lon="2.09056">
        <ele>110.1</ele>
        <time>2022-08-24T12:52:51Z</time>
      </trkpt>
      <trkpt lat="48.91816" lon="2.0907">
        <ele>110.1</ele>
        <time>2022-08-24T12:52:57Z</time>
      </trkpt>
      <trkpt lat="48.9181" lon="2.09081">
        <ele>110.5</ele>
        <time>2022-08-24T12:53:03Z</time>
      </trkpt>
      <trkpt lat="48.91806" lon="2.0909">
        <ele>110.9</ele>
        <time>2022-08-24T12:53:08Z</time>
      </trkpt>
      <trkpt lat="48.91801" lon="2.09102">
        <ele>111.8</ele>
        <time>2022-08-24T12:53:14Z</time>
      </trkpt>
      <trkpt lat="48.91797" lon="2.09113">
        <ele>112.5</ele>
        <time>2022-08-24T12:53:19Z</time>
      </trkpt>
      <trkpt lat="48.91793" lon="2.09127">
        <ele>113.4</ele>
        <time>2022-08-24T12:53:25Z</time>
      </trkpt>
      <trkpt lat="48.91789" lon="2.09139">
        <ele>114.1</ele>
        <time>2022-08-24T12:53:30Z</time>
      </trkpt>
      <trkpt lat="48.91785" lon="2.09152">
        <ele>114.9</ele>
        <time>2022-08-24T12:53:35Z</time>
      </trkpt>
      <trkpt lat="48.9178" lon="2.09167">
        <ele>115.8</ele>
        <time>2022-08-24T12:53:41Z</time>
      </trkpt>
      <trkpt lat="48.91776" lon="2.0918">
        <ele>116.6</ele>
        <time>2022-08-24T12:53:46Z</time>
      </trkpt>
      <trkpt lat="48.91773" lon="2.09194">
        <ele>117.5</ele>
        <time>2022-08-24T12:53:52Z</time>
      </trkpt>
      <trkpt lat="48.91771" lon="2.09206">
        <ele>118.3</ele>
        <time>2022-08-24T12:53:58Z</time>
      </trkpt>
      <trkpt lat="48.91767" lon="2.09214">
        <ele>118.8</ele>
        <time>2022-08-24T12:54:03Z</time>
      </trkpt>
      <trkpt lat="48.91763" lon="2.09226">
        <ele>119.1</ele>
        <time>2022-08-24T12:54:09Z</time>
      </trkpt>
      <trkpt lat="48.91759" lon="2.09238">
        <ele>119.2</ele>
        <time>2022-08-24T12:54:15Z</time>
      </trkpt>
      <trkpt lat="48.91752" lon="2.09243">
        <ele>119</ele>
        <time>2022-08-24T12:54:21Z</time>
      </trkpt>
      <trkpt lat="48.91745" lon="2.0924">
        <ele>118.6</ele>
        <time>2022-08-24T12:54:27Z</time>
      </trkpt>
      <trkpt lat="48.91737" lon="2.09235">
        <ele>118.4</ele>
        <time>2022-08-24T12:54:33Z</time>
      </trkpt>
      <trkpt lat="48.91729" lon="2.0923">
        <ele>118.3</ele>
        <time>2022-08-24T12:54:39Z</time>
      </trkpt>
      <trkpt lat="48.91721" lon="2.09226">
        <ele>118.1</ele>
        <time>2022-08-24T12:54:45Z</time>
      </trkpt>
      <trkpt lat="48.91714" lon="2.09222">
        <ele>117.8</ele>
        <time>2022-08-24T12:54:50Z</time>
      </trkpt>
      <trkpt lat="48.91706" lon="2.09219">
        <ele>117.6</ele>
        <time>2022-08-24T12:54:55Z</time>
      </trkpt>
      <trkpt lat="48.91699" lon="2.09215">
        <ele>117.5</ele>
        <time>2022-08-24T12:55:00Z</time>
      </trkpt>
      <trkpt lat="48.91691" lon="2.09211">
        <ele>117.4</ele>
        <time>2022-08-24T12:55:05Z</time>
      </trkpt>
      <trkpt lat="48.91683" lon="2.09207">
        <ele>117.7</ele>
        <time>2022-08-24T12:55:11Z</time>
      </trkpt>
      <trkpt lat="48.91674" lon="2.09202">
        <ele>118.2</ele>
        <time>2022-08-24T12:55:17Z</time>
      </trkpt>
      <trkpt lat="48.91666" lon="2.09198">
        <ele>118.7</ele>
        <time>2022-08-24T12:55:22Z</time>
      </trkpt>
      <trkpt lat="48.91659" lon="2.09196">
        <ele>119.2</ele>
        <time>2022-08-24T12:55:27Z</time>
      </trkpt>
      <trkpt lat="48.9165" lon="2.09192">
        <ele>119.6</ele>
        <time>2022-08-24T12:55:33Z</time>
      </trkpt>
      <trkpt lat="48.91643" lon="2.09189">
        <ele>119.8</ele>
        <time>2022-08-24T12:55:38Z</time>
      </trkpt>
      <trkpt lat="48.91634" lon="2.09187">
        <ele>120</ele>
        <time>2022-08-24T12:55:44Z</time>
      </trkpt>
      <trkpt lat="48.91625" lon="2.09184">
        <ele>120</ele>
        <time>2022-08-24T12:55:50Z</time>
      </trkpt>
      <trkpt lat="48.91618" lon="2.09182">
        <ele>119.9</ele>
        <time>2022-08-24T12:55:55Z</time>
      </trkpt>
      <trkpt lat="48.91608" lon="2.09178">
        <ele>120</ele>
        <time>2022-08-24T12:56:00Z</time>
      </trkpt>
      <trkpt lat="48.916" lon="2.09173">
        <ele>120</ele>
        <time>2022-08-24T12:56:06Z</time>
      </trkpt>
      <trkpt lat="48.91591" lon="2.09169">
        <ele>119.6</ele>
        <time>2022-08-24T12:56:12Z</time>
      </trkpt>
      <trkpt lat="48.91583" lon="2.09167">
        <ele>119</ele>
        <time>2022-08-24T12:56:17Z</time>
      </trkpt>
      <trkpt lat="48.91572" lon="2.09164">
        <ele>118.1</ele>
        <time>2022-08-24T12:56:23Z</time>
      </trkpt>
      <trkpt lat="48.91563" lon="2.09156">
        <ele>117.7</ele>
        <time>2022-08-24T12:56:29Z</time>
      </trkpt>
      <trkpt lat="48.91556" lon="2.09152">
        <ele>118</ele>
        <time>2022-08-24T12:56:34Z</time>
      </trkpt>
      <trkpt lat="48.91549" lon="2.09149">
        <ele>118.2</ele>
        <time>2022-08-24T12:56:39Z</time>
      </trkpt>
      <trkpt lat="48.91542" lon="2.09145">
        <ele>118</ele>
        <time>2022-08-24T12:56:44Z</time>
      </trkpt>
      <trkpt lat="48.91534" lon="2.09143">
        <ele>118.1</ele>
        <time>2022-08-24T12:56:50Z</time>
      </trkpt>
      <trkpt lat="48.91526" lon="2.0914">
        <ele>118.1</ele>
        <time>2022-08-24T12:56:56Z</time>
      </trkpt>
      <trkpt lat="48.9152" lon="2.09138">
        <ele>118</ele>
        <time>2022-08-24T12:57:02Z</time>
      </trkpt>
      <trkpt lat="48.91515" lon="2.09133">
        <ele>117.9</ele>
        <time>2022-08-24T12:57:07Z</time>
      </trkpt>
      <trkpt lat="48.91506" lon="2.09128">
        <ele>117.9</ele>
        <time>2022-08-24T12:57:13Z</time>
      </trkpt>
      <trkpt lat="48.91499" lon="2.09124">
        <ele>118.1</ele>
        <time>2022-08-24T12:57:19Z</time>
      </trkpt>
      <trkpt lat="48.91494" lon="2.09124">
        <ele>118.3</ele>
        <time>2022-08-24T12:57:24Z</time>
      </trkpt>
      <trkpt lat="48.91487" lon="2.09122">
        <ele>118.6</ele>
        <time>2022-08-24T12:57:30Z</time>
      </trkpt>
      <trkpt lat="48.91477" lon="2.09117">
        <ele>118.5</ele>
        <time>2022-08-24T12:57:35Z</time>
      </trkpt>
      <trkpt lat="48.91469" lon="2.09114">
        <ele>118.3</ele>
        <time>2022-08-24T12:57:40Z</time>
      </trkpt>
      <trkpt lat="48.91459" lon="2.09111">
        <ele>118.2</ele>
        <time>2022-08-24T12:57:46Z</time>
      </trkpt>
      <trkpt lat="48.9145" lon="2.09108">
        <ele>118.1</ele>
        <time>2022-08-24T12:57:52Z</time>
      </trkpt>
      <trkpt lat="48.91445" lon="2.09109">
        <ele>117.9</ele>
        <time>2022-08-24T12:57:57Z</time>
      </trkpt>
      <trkpt lat="48.9144" lon="2.09106">
        <ele>117.7</ele>
        <time>2022-08-24T12:58:02Z</time>
      </trkpt>
      <trkpt lat="48.91433" lon="2.09102">
        <ele>117.4</ele>
        <time>2022-08-24T12:58:08Z</time>
      </trkpt>
      <trkpt lat="48.91427" lon="2.09099">
        <ele>117.1</ele>
        <time>2022-08-24T12:58:13Z</time>
      </trkpt>
      <trkpt lat="48.9142" lon="2.09094">
        <ele>116.4</ele>
        <time>2022-08-24T12:58:19Z</time>
      </trkpt>
      <trkpt lat="48.91413" lon="2.09091">
        <ele>115.9</ele>
        <time>2022-08-24T12:58:24Z</time>
      </trkpt>
      <trkpt lat="48.91406" lon="2.09087">
        <ele>115.2</ele>
        <time>2022-08-24T12:58:30Z</time>
      </trkpt>
      <trkpt lat="48.91399" lon="2.09085">
        <ele>114.5</ele>
        <time>2022-08-24T12:58:35Z</time>
      </trkpt>
      <trkpt lat="48.9139" lon="2.09084">
        <ele>113.6</ele>
        <time>2022-08-24T12:58:41Z</time>
      </trkpt>
      <trkpt lat="48.91381" lon="2.09082">
        <ele>113</ele>
        <time>2022-08-24T12:58:47Z</time>
      </trkpt>
      <trkpt lat="48.91376" lon="2.09078">
        <ele>112.4</ele>
        <time>2022-08-24T12:58:52Z</time>
      </trkpt>
      <trkpt lat="48.91369" lon="2.09074">
        <ele>111.5</ele>
        <time>2022-08-24T12:58:58Z</time>
      </trkpt>
      <trkpt lat="48.9136" lon="2.09069">
        <ele>110.9</ele>
        <time>2022-08-24T12:59:04Z</time>
      </trkpt>
      <trkpt lat="48.91353" lon="2.09066">
        <ele>110.6</ele>
        <time>2022-08-24T12:59:09Z</time>
      </trkpt>
      <trkpt lat="48.91343" lon="2.09063">
        <ele>110.2</ele>
        <time>2022-08-24T12:59:15Z</time>
      </trkpt>
      <trkpt lat="48.91334" lon="2.0906">
        <ele>110.3</ele>
        <time>2022-08-24T12:59:21Z</time>
      </trkpt>
      <trkpt lat="48.91326" lon="2.09057">
        <ele>110.5</ele>
        <time>2022-08-24T12:59:26Z</time>
      </trkpt>
      <trkpt lat="48.91318" lon="2.09054">
        <ele>110.4</ele>
        <time>2022-08-24T12:59:32Z</time>
      </trkpt>
      <trkpt lat="48.9131" lon="2.0905">
        <ele>110.2</ele>
        <time>2022-08-24T12:59:38Z</time>
      </trkpt>
      <trkpt lat="48.91303" lon="2.09046">
        <ele>110.1</ele>
        <time>2022-08-24T12:59:43Z</time>
      </trkpt>
      <trkpt lat="48.91295" lon="2.09041">
        <ele>110.3</ele>
        <time>2022-08-24T12:59:49Z</time>
      </trkpt>
      <trkpt lat="48.91288" lon="2.09037">
        <ele>110.8</ele>
        <time>2022-08-24T12:59:54Z</time>
      </trkpt>
      <trkpt lat="48.91279" lon="2.09033">
        <ele>111</ele>
        <time>2022-08-24T13:00:00Z</time>
      </trkpt>
      <trkpt lat="48.91272" lon="2.0903">
        <ele>111.3</ele>
        <time>2022-08-24T13:00:05Z</time>
      </trkpt>
      <trkpt lat="48.91265" lon="2.09028">
        <ele>111.5</ele>
        <time>2022-08-24T13:00:10Z</time>
      </trkpt>
      <trkpt lat="48.91256" lon="2.09025">
        <ele>111.7</ele>
        <time>2022-08-24T13:00:16Z</time>
      </trkpt>
      <trkpt lat="48.91249" lon="2.09023">
        <ele>111.5</ele>
        <time>2022-08-24T13:00:22Z</time>
      </trkpt>
      <trkpt lat="48.91244" lon="2.09022">
        <ele>111.4</ele>
        <time>2022-08-24T13:00:27Z</time>
      </trkpt>
      <trkpt lat="48.91237" lon="2.0902">
        <ele>111.6</ele>
        <time>2022-08-24T13:00:33Z</time>
      </trkpt>
      <trkpt lat="48.91231" lon="2.09019">
        <ele>112</ele>
        <time>2022-08-24T13:00:38Z</time>
      </trkpt>
      <trkpt lat="48.91224" lon="2.09018">
        <ele>112.4</ele>
        <time>2022-08-24T13:00:43Z</time>
      </trkpt>
      <trkpt lat="48.91218" lon="2.09013">
        <ele>112.7</ele>
        <time>2022-08-24T13:00:49Z</time>
      </trkpt>
      <trkpt lat="48.91211" lon="2.09008">
        <ele>112.4</ele>
        <time>2022-08-24T13:00:54Z</time>
      </trkpt>
      <trkpt lat="48.91202" lon="2.09003">
        <ele>111.8</ele>
        <time>2022-08-24T13:01:00Z</time>
      </trkpt>
      <trkpt lat="48.91195" lon="2.09001">
        <ele>111.5</ele>
        <time>2022-08-24T13:01:05Z</time>
      </trkpt>
      <trkpt lat="48.91188" lon="2.09003">
        <ele>111.2</ele>
        <time>2022-08-24T13:01:10Z</time>
      </trkpt>
      <trkpt lat="48.9118" lon="2.09006">
        <ele>111.1</ele>
        <time>2022-08-24T13:01:16Z</time>
      </trkpt>
      <trkpt lat="48.91173" lon="2.09009">
        <ele>111</ele>
        <time>2022-08-24T13:01:21Z</time>
      </trkpt>
      <trkpt lat="48.91164" lon="2.09014">
        <ele>111.1</ele>
        <time>2022-08-24T13:01:27Z</time>
      </trkpt>
      <trkpt lat="48.91157" lon="2.09018">
        <ele>111.2</ele>
        <time>2022-08-24T13:01:32Z</time>
      </trkpt>
      <trkpt lat="48.9115" lon="2.09023">
        <ele>111.3</ele>
        <time>2022-08-24T13:01:38Z</time>
      </trkpt>
      <trkpt lat="48.91141" lon="2.09027">
        <ele>111.3</ele>
        <time>2022-08-24T13:01:44Z</time>
      </trkpt>
      <trkpt lat="48.91135" lon="2.09033">
        <ele>111.3</ele>
        <time>2022-08-24T13:01:49Z</time>
      </trkpt>
      <trkpt lat="48.9113" lon="2.09042">
        <ele>111.4</ele>
        <time>2022-08-24T13:01:55Z</time>
      </trkpt>
      <trkpt lat="48.91127" lon="2.0905">
        <ele>111.6</ele>
        <time>2022-08-24T13:02:00Z</time>
      </trkpt>
      <trkpt lat="48.91124" lon="2.0906">
        <ele>111.8</ele>
        <time>2022-08-24T13:02:06Z</time>
      </trkpt>
      <trkpt lat="48.91122" lon="2.09067">
        <ele>111.9</ele>
        <time>2022-08-24T13:02:11Z</time>
      </trkpt>
      <trkpt lat="48.91119" lon="2.09079">
        <ele>112</ele>
        <time>2022-08-24T13:02:16Z</time>
      </trkpt>
      <trkpt lat="48.91114" lon="2.09093">
        <ele>112.1</ele>
        <time>2022-08-24T13:02:22Z</time>
      </trkpt>
      <trkpt lat="48.9111" lon="2.09104">
        <ele>112.1</ele>
        <time>2022-08-24T13:02:27Z</time>
      </trkpt>
      <trkpt lat="48.91105" lon="2.09114">
        <ele>112.1</ele>
        <time>2022-08-24T13:02:33Z</time>
      </trkpt>
      <trkpt lat="48.91101" lon="2.09121">
        <ele>112.1</ele>
        <time>2022-08-24T13:02:38Z</time>
      </trkpt>
      <trkpt lat="48.911" lon="2.09125">
        <ele>112.2</ele>
        <time>2022-08-24T13:02:43Z</time>
      </trkpt>
      <trkpt lat="48.91099" lon="2.09128">
        <ele>112.2</ele>
        <time>2022-08-24T13:02:49Z</time>
      </trkpt>
      <trkpt lat="48.91098" lon="2.09127">
        <ele>112.3</ele>
        <time>2022-08-24T13:02:54Z</time>
      </trkpt>
      <trkpt lat="48.91098" lon="2.09126">
        <ele>112.3</ele>
        <time>2022-08-24T13:03:00Z</time>
      </trkpt>
      <trkpt lat="48.91098" lon="2.09125">
        <ele>112.7</ele>
        <time>2022-08-24T13:03:17Z</time>
      </trkpt>
      <trkpt lat="48.91097" lon="2.09126">
        <ele>112.8</ele>
        <time>2022-08-24T13:03:22Z</time>
      </trkpt>
      <trkpt lat="48.91097" lon="2.09127">
        <ele>112.8</ele>
        <time>2022-08-24T13:03:32Z</time>
      </trkpt>
      <trkpt lat="48.91096" lon="2.09127">
        <ele>112.8</ele>
        <time>2022-08-24T13:03:38Z</time>
      </trkpt>
      <trkpt lat="48.91097" lon="2.09128">
        <ele>112.8</ele>
        <time>2022-08-24T13:03:44Z</time>
      </trkpt>
      <trkpt lat="48.91095" lon="2.09133">
        <ele>112.7</ele>
        <time>2022-08-24T13:04:02Z</time>
      </trkpt>
      <trkpt lat="48.91094" lon="2.09142">
        <ele>112.5</ele>
        <time>2022-08-24T13:04:08Z</time>
      </trkpt>
      <trkpt lat="48.91093" lon="2.09149">
        <ele>112.6</ele>
        <time>2022-08-24T13:04:13Z</time>
      </trkpt>
      <trkpt lat="48.9109" lon="2.09161">
        <ele>112.5</ele>
        <time>2022-08-24T13:04:19Z</time>
      </trkpt>
      <trkpt lat="48.91086" lon="2.09172">
        <ele>112.1</ele>
        <time>2022-08-24T13:04:25Z</time>
      </trkpt>
      <trkpt lat="48.91082" lon="2.09182">
        <ele>111.7</ele>
        <time>2022-08-24T13:04:31Z</time>
      </trkpt>
      <trkpt lat="48.9108" lon="2.09191">
        <ele>111.3</ele>
        <time>2022-08-24T13:04:36Z</time>
      </trkpt>
      <trkpt lat="48.91076" lon="2.09202">
        <ele>110.8</ele>
        <time>2022-08-24T13:04:42Z</time>
      </trkpt>
      <trkpt lat="48.91071" lon="2.09213">
        <ele>110.7</ele>
        <time>2022-08-24T13:04:47Z</time>
      </trkpt>
      <trkpt lat="48.91066" lon="2.09225">
        <ele>110.9</ele>
        <time>2022-08-24T13:04:53Z</time>
      </trkpt>
      <trkpt lat="48.91063" lon="2.09234">
        <ele>111.3</ele>
        <time>2022-08-24T13:04:58Z</time>
      </trkpt>
      <trkpt lat="48.91059" lon="2.09244">
        <ele>111.9</ele>
        <time>2022-08-24T13:05:04Z</time>
      </trkpt>
      <trkpt lat="48.91056" lon="2.09251">
        <ele>112</ele>
        <time>2022-08-24T13:05:09Z</time>
      </trkpt>
      <trkpt lat="48.91051" lon="2.09261">
        <ele>112.2</ele>
        <time>2022-08-24T13:05:15Z</time>
      </trkpt>
      <trkpt lat="48.91046" lon="2.09274">
        <ele>112.7</ele>
        <time>2022-08-24T13:05:21Z</time>
      </trkpt>
      <trkpt lat="48.91042" lon="2.09285">
        <ele>113</ele>
        <time>2022-08-24T13:05:26Z</time>
      </trkpt>
      <trkpt lat="48.91036" lon="2.09295">
        <ele>113.4</ele>
        <time>2022-08-24T13:05:32Z</time>
      </trkpt>
      <trkpt lat="48.91032" lon="2.09305">
        <ele>113.7</ele>
        <time>2022-08-24T13:05:38Z</time>
      </trkpt>
      <trkpt lat="48.9103" lon="2.09315">
        <ele>113.8</ele>
        <time>2022-08-24T13:05:43Z</time>
      </trkpt>
      <trkpt lat="48.91026" lon="2.09327">
        <ele>114</ele>
        <time>2022-08-24T13:05:49Z</time>
      </trkpt>
      <trkpt lat="48.91022" lon="2.09335">
        <ele>114.4</ele>
        <time>2022-08-24T13:05:54Z</time>
      </trkpt>
      <trkpt lat="48.91015" lon="2.09346">
        <ele>114.7</ele>
        <time>2022-08-24T13:06:00Z</time>
      </trkpt>
      <trkpt lat="48.9101" lon="2.09358">
        <ele>115</ele>
        <time>2022-08-24T13:06:06Z</time>
      </trkpt>
      <trkpt lat="48.91006" lon="2.09367">
        <ele>115.2</ele>
        <time>2022-08-24T13:06:11Z</time>
      </trkpt>
      <trkpt lat="48.91002" lon="2.09376">
        <ele>115.2</ele>
        <time>2022-08-24T13:06:16Z</time>
      </trkpt>
      <trkpt lat="48.90997" lon="2.0939">
        <ele>115.2</ele>
        <time>2022-08-24T13:06:22Z</time>
      </trkpt>
      <trkpt lat="48.90993" lon="2.09403">
        <ele>115.2</ele>
        <time>2022-08-24T13:06:28Z</time>
      </trkpt>
      <trkpt lat="48.90987" lon="2.09416">
        <ele>115.3</ele>
        <time>2022-08-24T13:06:34Z</time>
      </trkpt>
      <trkpt lat="48.90983" lon="2.09425">
        <ele>115.4</ele>
        <time>2022-08-24T13:06:40Z</time>
      </trkpt>
      <trkpt lat="48.90978" lon="2.09435">
        <ele>115.5</ele>
        <time>2022-08-24T13:06:46Z</time>
      </trkpt>
      <trkpt lat="48.90974" lon="2.09444">
        <ele>115.6</ele>
        <time>2022-08-24T13:06:51Z</time>
      </trkpt>
      <trkpt lat="48.9097" lon="2.09452">
        <ele>115.7</ele>
        <time>2022-08-24T13:06:56Z</time>
      </trkpt>
      <trkpt lat="48.90966" lon="2.09467">
        <ele>116</ele>
        <time>2022-08-24T13:07:02Z</time>
      </trkpt>
      <trkpt lat="48.90963" lon="2.09482">
        <ele>115.9</ele>
        <time>2022-08-24T13:07:08Z</time>
      </trkpt>
      <trkpt lat="48.9096" lon="2.09493">
        <ele>115.9</ele>
        <time>2022-08-24T13:07:13Z</time>
      </trkpt>
      <trkpt lat="48.90957" lon="2.09504">
        <ele>116.1</ele>
        <time>2022-08-24T13:07:19Z</time>
      </trkpt>
      <trkpt lat="48.90953" lon="2.09513">
        <ele>116.1</ele>
        <time>2022-08-24T13:07:25Z</time>
      </trkpt>
      <trkpt lat="48.9095" lon="2.09521">
        <ele>116</ele>
        <time>2022-08-24T13:07:30Z</time>
      </trkpt>
      <trkpt lat="48.90945" lon="2.09533">
        <ele>116.2</ele>
        <time>2022-08-24T13:07:36Z</time>
      </trkpt>
      <trkpt lat="48.90938" lon="2.09547">
        <ele>116.4</ele>
        <time>2022-08-24T13:07:42Z</time>
      </trkpt>
      <trkpt lat="48.90932" lon="2.09557">
        <ele>116.1</ele>
        <time>2022-08-24T13:07:47Z</time>
      </trkpt>
      <trkpt lat="48.90926" lon="2.09569">
        <ele>116</ele>
        <time>2022-08-24T13:07:53Z</time>
      </trkpt>
      <trkpt lat="48.90921" lon="2.09579">
        <ele>116.1</ele>
        <time>2022-08-24T13:07:59Z</time>
      </trkpt>
      <trkpt lat="48.90917" lon="2.09588">
        <ele>116.1</ele>
        <time>2022-08-24T13:08:04Z</time>
      </trkpt>
      <trkpt lat="48.90914" lon="2.09597">
        <ele>116.1</ele>
        <time>2022-08-24T13:08:09Z</time>
      </trkpt>
      <trkpt lat="48.90911" lon="2.09606">
        <ele>116</ele>
        <time>2022-08-24T13:08:14Z</time>
      </trkpt>
      <trkpt lat="48.90908" lon="2.09616">
        <ele>115.8</ele>
        <time>2022-08-24T13:08:20Z</time>
      </trkpt>
      <trkpt lat="48.90905" lon="2.09624">
        <ele>115.6</ele>
        <time>2022-08-24T13:08:26Z</time>
      </trkpt>
      <trkpt lat="48.90902" lon="2.0963">
        <ele>115.4</ele>
        <time>2022-08-24T13:08:31Z</time>
      </trkpt>
      <trkpt lat="48.90898" lon="2.0964">
        <ele>115.1</ele>
        <time>2022-08-24T13:08:36Z</time>
      </trkpt>
      <trkpt lat="48.90894" lon="2.09651">
        <ele>115</ele>
        <time>2022-08-24T13:08:41Z</time>
      </trkpt>
      <trkpt lat="48.9089" lon="2.09666">
        <ele>114.8</ele>
        <time>2022-08-24T13:08:47Z</time>
      </trkpt>
      <trkpt lat="48.90886" lon="2.09676">
        <ele>114.4</ele>
        <time>2022-08-24T13:08:52Z</time>
      </trkpt>
      <trkpt lat="48.9088" lon="2.09682">
        <ele>114.2</ele>
        <time>2022-08-24T13:08:58Z</time>
      </trkpt>
      <trkpt lat="48.90873" lon="2.09682">
        <ele>114.1</ele>
        <time>2022-08-24T13:09:03Z</time>
      </trkpt>
      <trkpt lat="48.90864" lon="2.09683">
        <ele>113.9</ele>
        <time>2022-08-24T13:09:09Z</time>
      </trkpt>
      <trkpt lat="48.90856" lon="2.09683">
        <ele>113.6</ele>
        <time>2022-08-24T13:09:14Z</time>
      </trkpt>
      <trkpt lat="48.90849" lon="2.09683">
        <ele>113.6</ele>
        <time>2022-08-24T13:09:19Z</time>
      </trkpt>
      <trkpt lat="48.9084" lon="2.09684">
        <ele>113.3</ele>
        <time>2022-08-24T13:09:25Z</time>
      </trkpt>
      <trkpt lat="48.9083" lon="2.09686">
        <ele>112.9</ele>
        <time>2022-08-24T13:09:31Z</time>
      </trkpt>
      <trkpt lat="48.90821" lon="2.09688">
        <ele>112.6</ele>
        <time>2022-08-24T13:09:36Z</time>
      </trkpt>
      <trkpt lat="48.90813" lon="2.09689">
        <ele>112.6</ele>
        <time>2022-08-24T13:09:41Z</time>
      </trkpt>
      <trkpt lat="48.90805" lon="2.09689">
        <ele>112.7</ele>
        <time>2022-08-24T13:09:46Z</time>
      </trkpt>
      <trkpt lat="48.90796" lon="2.09688">
        <ele>112.8</ele>
        <time>2022-08-24T13:09:52Z</time>
      </trkpt>
      <trkpt lat="48.90788" lon="2.09688">
        <ele>112.8</ele>
        <time>2022-08-24T13:09:57Z</time>
      </trkpt>
      <trkpt lat="48.90778" lon="2.09687">
        <ele>113.1</ele>
        <time>2022-08-24T13:10:03Z</time>
      </trkpt>
      <trkpt lat="48.90769" lon="2.09687">
        <ele>113.6</ele>
        <time>2022-08-24T13:10:09Z</time>
      </trkpt>
      <trkpt lat="48.90762" lon="2.09686">
        <ele>114</ele>
        <time>2022-08-24T13:10:14Z</time>
      </trkpt>
      <trkpt lat="48.90756" lon="2.09686">
        <ele>114.4</ele>
        <time>2022-08-24T13:10:19Z</time>
      </trkpt>
      <trkpt lat="48.90748" lon="2.09686">
        <ele>114.9</ele>
        <time>2022-08-24T13:10:25Z</time>
      </trkpt>
      <trkpt lat="48.9074" lon="2.09685">
        <ele>115.3</ele>
        <time>2022-08-24T13:10:30Z</time>
      </trkpt>
      <trkpt lat="48.9073" lon="2.09685">
        <ele>115.7</ele>
        <time>2022-08-24T13:10:36Z</time>
      </trkpt>
      <trkpt lat="48.9072" lon="2.09687">
        <ele>116.1</ele>
        <time>2022-08-24T13:10:42Z</time>
      </trkpt>
      <trkpt lat="48.90711" lon="2.09687">
        <ele>116.4</ele>
        <time>2022-08-24T13:10:48Z</time>
      </trkpt>
      <trkpt lat="48.90705" lon="2.09687">
        <ele>116.6</ele>
        <time>2022-08-24T13:10:53Z</time>
      </trkpt>
      <trkpt lat="48.90696" lon="2.09688">
        <ele>116.8</ele>
        <time>2022-08-24T13:10:59Z</time>
      </trkpt>
      <trkpt lat="48.90689" lon="2.09689">
        <ele>116.9</ele>
        <time>2022-08-24T13:11:04Z</time>
      </trkpt>
      <trkpt lat="48.90682" lon="2.0969">
        <ele>117</ele>
        <time>2022-08-24T13:11:09Z</time>
      </trkpt>
      <trkpt lat="48.90673" lon="2.0969">
        <ele>117</ele>
        <time>2022-08-24T13:11:15Z</time>
      </trkpt>
      <trkpt lat="48.90664" lon="2.09691">
        <ele>116.8</ele>
        <time>2022-08-24T13:11:21Z</time>
      </trkpt>
      <trkpt lat="48.90655" lon="2.09692">
        <ele>116.5</ele>
        <time>2022-08-24T13:11:27Z</time>
      </trkpt>
      <trkpt lat="48.90647" lon="2.09692">
        <ele>116.1</ele>
        <time>2022-08-24T13:11:33Z</time>
      </trkpt>
      <trkpt lat="48.9064" lon="2.09694">
        <ele>115.7</ele>
        <time>2022-08-24T13:11:38Z</time>
      </trkpt>
      <trkpt lat="48.90632" lon="2.09695">
        <ele>114.9</ele>
        <time>2022-08-24T13:11:44Z</time>
      </trkpt>
      <trkpt lat="48.90625" lon="2.09696">
        <ele>114.5</ele>
        <time>2022-08-24T13:11:49Z</time>
      </trkpt>
      <trkpt lat="48.90618" lon="2.09696">
        <ele>114.3</ele>
        <time>2022-08-24T13:11:54Z</time>
      </trkpt>
      <trkpt lat="48.90609" lon="2.09697">
        <ele>113.9</ele>
        <time>2022-08-24T13:12:00Z</time>
      </trkpt>
      <trkpt lat="48.906" lon="2.09697">
        <ele>113.7</ele>
        <time>2022-08-24T13:12:06Z</time>
      </trkpt>
      <trkpt lat="48.90593" lon="2.09697">
        <ele>113.7</ele>
        <time>2022-08-24T13:12:11Z</time>
      </trkpt>
      <trkpt lat="48.90584" lon="2.09697">
        <ele>114</ele>
        <time>2022-08-24T13:12:17Z</time>
      </trkpt>
      <trkpt lat="48.90576" lon="2.09696">
        <ele>114.2</ele>
        <time>2022-08-24T13:12:22Z</time>
      </trkpt>
      <trkpt lat="48.90567" lon="2.09694">
        <ele>114.4</ele>
        <time>2022-08-24T13:12:27Z</time>
      </trkpt>
      <trkpt lat="48.90559" lon="2.09695">
        <ele>114.9</ele>
        <time>2022-08-24T13:12:33Z</time>
      </trkpt>
      <trkpt lat="48.90552" lon="2.09695">
        <ele>115.1</ele>
        <time>2022-08-24T13:12:38Z</time>
      </trkpt>
      <trkpt lat="48.90544" lon="2.09694">
        <ele>115.7</ele>
        <time>2022-08-24T13:12:44Z</time>
      </trkpt>
      <trkpt lat="48.90537" lon="2.09694">
        <ele>115.9</ele>
        <time>2022-08-24T13:12:49Z</time>
      </trkpt>
      <trkpt lat="48.9053" lon="2.09695">
        <ele>115.6</ele>
        <time>2022-08-24T13:12:55Z</time>
      </trkpt>
      <trkpt lat="48.90525" lon="2.09695">
        <ele>115.1</ele>
        <time>2022-08-24T13:13:00Z</time>
      </trkpt>
      <trkpt lat="48.90523" lon="2.09696">
        <ele>115</ele>
        <time>2022-08-24T13:13:06Z</time>
      </trkpt>
      <trkpt lat="48.90521" lon="2.09699">
        <ele>115.5</ele>
        <time>2022-08-24T13:13:11Z</time>
      </trkpt>
      <trkpt lat="48.90517" lon="2.09705">
        <ele>115.9</ele>
        <time>2022-08-24T13:13:16Z</time>
      </trkpt>
      <trkpt lat="48.90509" lon="2.09716">
        <ele>116.1</ele>
        <time>2022-08-24T13:13:22Z</time>
      </trkpt>
      <trkpt lat="48.90501" lon="2.09726">
        <ele>116.6</ele>
        <time>2022-08-24T13:13:28Z</time>
      </trkpt>
      <trkpt lat="48.90497" lon="2.09735">
        <ele>116.6</ele>
        <time>2022-08-24T13:13:33Z</time>
      </trkpt>
      <trkpt lat="48.90493" lon="2.09748">
        <ele>115.9</ele>
        <time>2022-08-24T13:13:39Z</time>
      </trkpt>
      <trkpt lat="48.90492" lon="2.09757">
        <ele>115.5</ele>
        <time>2022-08-24T13:13:44Z</time>
      </trkpt>
      <trkpt lat="48.90492" lon="2.09768">
        <ele>115.4</ele>
        <time>2022-08-24T13:13:49Z</time>
      </trkpt>
      <trkpt lat="48.90494" lon="2.09783">
        <ele>115.6</ele>
        <time>2022-08-24T13:13:55Z</time>
      </trkpt>
      <trkpt lat="48.90497" lon="2.09797">
        <ele>115.8</ele>
        <time>2022-08-24T13:14:01Z</time>
      </trkpt>
      <trkpt lat="48.90499" lon="2.09808">
        <ele>116</ele>
        <time>2022-08-24T13:14:06Z</time>
      </trkpt>
      <trkpt lat="48.90502" lon="2.09821">
        <ele>115.9</ele>
        <time>2022-08-24T13:14:12Z</time>
      </trkpt>
      <trkpt lat="48.90504" lon="2.09834">
        <ele>115.9</ele>
        <time>2022-08-24T13:14:18Z</time>
      </trkpt>
      <trkpt lat="48.90505" lon="2.09844">
        <ele>115.6</ele>
        <time>2022-08-24T13:14:23Z</time>
      </trkpt>
      <trkpt lat="48.90507" lon="2.09858">
        <ele>115.4</ele>
        <time>2022-08-24T13:14:29Z</time>
      </trkpt>
      <trkpt lat="48.90508" lon="2.09871">
        <ele>115.3</ele>
        <time>2022-08-24T13:14:34Z</time>
      </trkpt>
      <trkpt lat="48.90509" lon="2.09882">
        <ele>114.8</ele>
        <time>2022-08-24T13:14:39Z</time>
      </trkpt>
      <trkpt lat="48.9051" lon="2.09894">
        <ele>114.5</ele>
        <time>2022-08-24T13:14:45Z</time>
      </trkpt>
      <trkpt lat="48.90511" lon="2.09905">
        <ele>114.2</ele>
        <time>2022-08-24T13:14:50Z</time>
      </trkpt>
      <trkpt lat="48.90513" lon="2.09919">
        <ele>113.9</ele>
        <time>2022-08-24T13:14:56Z</time>
      </trkpt>
      <trkpt lat="48.90514" lon="2.09933">
        <ele>113.5</ele>
        <time>2022-08-24T13:15:02Z</time>
      </trkpt>
      <trkpt lat="48.90516" lon="2.09945">
        <ele>113.2</ele>
        <time>2022-08-24T13:15:08Z</time>
      </trkpt>
      <trkpt lat="48.90517" lon="2.09956">
        <ele>112.9</ele>
        <time>2022-08-24T13:15:13Z</time>
      </trkpt>
      <trkpt lat="48.90517" lon="2.09968">
        <ele>112.4</ele>
        <time>2022-08-24T13:15:19Z</time>
      </trkpt>
      <trkpt lat="48.90518" lon="2.0998">
        <ele>112.2</ele>
        <time>2022-08-24T13:15:24Z</time>
      </trkpt>
      <trkpt lat="48.90519" lon="2.09993">
        <ele>111.9</ele>
        <time>2022-08-24T13:15:30Z</time>
      </trkpt>
      <trkpt lat="48.90521" lon="2.10003">
        <ele>111.7</ele>
        <time>2022-08-24T13:15:35Z</time>
      </trkpt>
      <trkpt lat="48.90523" lon="2.10012">
        <ele>111.1</ele>
        <time>2022-08-24T13:15:41Z</time>
      </trkpt>
      <trkpt lat="48.90524" lon="2.10021">
        <ele>110.5</ele>
        <time>2022-08-24T13:15:46Z</time>
      </trkpt>
      <trkpt lat="48.90524" lon="2.10033">
        <ele>110.3</ele>
        <time>2022-08-24T13:15:51Z</time>
      </trkpt>
      <trkpt lat="48.9052" lon="2.1005">
        <ele>110.2</ele>
        <time>2022-08-24T13:15:57Z</time>
      </trkpt>
      <trkpt lat="48.90514" lon="2.10061">
        <ele>110.4</ele>
        <time>2022-08-24T13:16:03Z</time>
      </trkpt>
      <trkpt lat="48.90508" lon="2.10064">
        <ele>110.5</ele>
        <time>2022-08-24T13:16:08Z</time>
      </trkpt>
      <trkpt lat="48.905" lon="2.10067">
        <ele>110.8</ele>
        <time>2022-08-24T13:16:14Z</time>
      </trkpt>
      <trkpt lat="48.90493" lon="2.10068">
        <ele>111</ele>
        <time>2022-08-24T13:16:19Z</time>
      </trkpt>
      <trkpt lat="48.90482" lon="2.10069">
        <ele>111.7</ele>
        <time>2022-08-24T13:16:25Z</time>
      </trkpt>
      <trkpt lat="48.90473" lon="2.10071">
        <ele>112.6</ele>
        <time>2022-08-24T13:16:30Z</time>
      </trkpt>
      <trkpt lat="48.90463" lon="2.10072">
        <ele>113.7</ele>
        <time>2022-08-24T13:16:36Z</time>
      </trkpt>
      <trkpt lat="48.90455" lon="2.10072">
        <ele>114.4</ele>
        <time>2022-08-24T13:16:41Z</time>
      </trkpt>
      <trkpt lat="48.90446" lon="2.10073">
        <ele>115.3</ele>
        <time>2022-08-24T13:16:47Z</time>
      </trkpt>
      <trkpt lat="48.90436" lon="2.10073">
        <ele>116.1</ele>
        <time>2022-08-24T13:16:53Z</time>
      </trkpt>
      <trkpt lat="48.90428" lon="2.10073">
        <ele>116.7</ele>
        <time>2022-08-24T13:16:58Z</time>
      </trkpt>
      <trkpt lat="48.90421" lon="2.10073">
        <ele>117.5</ele>
        <time>2022-08-24T13:17:03Z</time>
      </trkpt>
      <trkpt lat="48.90412" lon="2.10071">
        <ele>118.1</ele>
        <time>2022-08-24T13:17:08Z</time>
      </trkpt>
      <trkpt lat="48.90403" lon="2.10071">
        <ele>118.6</ele>
        <time>2022-08-24T13:17:14Z</time>
      </trkpt>
      <trkpt lat="48.90393" lon="2.10071">
        <ele>119.1</ele>
        <time>2022-08-24T13:17:20Z</time>
      </trkpt>
      <trkpt lat="48.90385" lon="2.10071">
        <ele>119.7</ele>
        <time>2022-08-24T13:17:26Z</time>
      </trkpt>
      <trkpt lat="48.90375" lon="2.10071">
        <ele>120.1</ele>
        <time>2022-08-24T13:17:32Z</time>
      </trkpt>
      <trkpt lat="48.90367" lon="2.1007">
        <ele>120.4</ele>
        <time>2022-08-24T13:17:37Z</time>
      </trkpt>
      <trkpt lat="48.90359" lon="2.1007">
        <ele>120.8</ele>
        <time>2022-08-24T13:17:42Z</time>
      </trkpt>
      <trkpt lat="48.90349" lon="2.10071">
        <ele>121.3</ele>
        <time>2022-08-24T13:17:48Z</time>
      </trkpt>
      <trkpt lat="48.90341" lon="2.10072">
        <ele>121.5</ele>
        <time>2022-08-24T13:17:54Z</time>
      </trkpt>
      <trkpt lat="48.90335" lon="2.10071">
        <ele>121.5</ele>
        <time>2022-08-24T13:17:59Z</time>
      </trkpt>
      <trkpt lat="48.90326" lon="2.10071">
        <ele>121.4</ele>
        <time>2022-08-24T13:18:05Z</time>
      </trkpt>
      <trkpt lat="48.90317" lon="2.10071">
        <ele>120.9</ele>
        <time>2022-08-24T13:18:11Z</time>
      </trkpt>
      <trkpt lat="48.9031" lon="2.10072">
        <ele>120.6</ele>
        <time>2022-08-24T13:18:16Z</time>
      </trkpt>
      <trkpt lat="48.90301" lon="2.10075">
        <ele>120.5</ele>
        <time>2022-08-24T13:18:22Z</time>
      </trkpt>
      <trkpt lat="48.90295" lon="2.10076">
        <ele>120.8</ele>
        <time>2022-08-24T13:18:27Z</time>
      </trkpt>
      <trkpt lat="48.90288" lon="2.10077">
        <ele>121</ele>
        <time>2022-08-24T13:18:32Z</time>
      </trkpt>
      <trkpt lat="48.9028" lon="2.10076">
        <ele>121.1</ele>
        <time>2022-08-24T13:18:38Z</time>
      </trkpt>
      <trkpt lat="48.90272" lon="2.10075">
        <ele>121</ele>
        <time>2022-08-24T13:18:44Z</time>
      </trkpt>
      <trkpt lat="48.90266" lon="2.10075">
        <ele>121</ele>
        <time>2022-08-24T13:18:49Z</time>
      </trkpt>
      <trkpt lat="48.90259" lon="2.10076">
        <ele>121.2</ele>
        <time>2022-08-24T13:18:54Z</time>
      </trkpt>
      <trkpt lat="48.90251" lon="2.10076">
        <ele>121.6</ele>
        <time>2022-08-24T13:19:00Z</time>
      </trkpt>
      <trkpt lat="48.90241" lon="2.10077">
        <ele>121.8</ele>
        <time>2022-08-24T13:19:06Z</time>
      </trkpt>
      <trkpt lat="48.90233" lon="2.10077">
        <ele>122.1</ele>
        <time>2022-08-24T13:19:11Z</time>
      </trkpt>
      <trkpt lat="48.90223" lon="2.10077">
        <ele>122.4</ele>
        <time>2022-08-24T13:19:17Z</time>
      </trkpt>
      <trkpt lat="48.90215" lon="2.10077">
        <ele>122.5</ele>
        <time>2022-08-24T13:19:23Z</time>
      </trkpt>
      <trkpt lat="48.90208" lon="2.10076">
        <ele>122.5</ele>
        <time>2022-08-24T13:19:28Z</time>
      </trkpt>
      <trkpt lat="48.90202" lon="2.10075">
        <ele>122.7</ele>
        <time>2022-08-24T13:19:34Z</time>
      </trkpt>
      <trkpt lat="48.90196" lon="2.10075">
        <ele>122.9</ele>
        <time>2022-08-24T13:19:39Z</time>
      </trkpt>
      <trkpt lat="48.90188" lon="2.10075">
        <ele>123.2</ele>
        <time>2022-08-24T13:19:45Z</time>
      </trkpt>
      <trkpt lat="48.90182" lon="2.10074">
        <ele>123.2</ele>
        <time>2022-08-24T13:19:50Z</time>
      </trkpt>
      <trkpt lat="48.90175" lon="2.10074">
        <ele>123.3</ele>
        <time>2022-08-24T13:19:55Z</time>
      </trkpt>
      <trkpt lat="48.90167" lon="2.10072">
        <ele>123.4</ele>
        <time>2022-08-24T13:20:00Z</time>
      </trkpt>
      <trkpt lat="48.90159" lon="2.10072">
        <ele>123.4</ele>
        <time>2022-08-24T13:20:05Z</time>
      </trkpt>
      <trkpt lat="48.9015" lon="2.1007">
        <ele>123.6</ele>
        <time>2022-08-24T13:20:11Z</time>
      </trkpt>
      <trkpt lat="48.90142" lon="2.10069">
        <ele>123.8</ele>
        <time>2022-08-24T13:20:17Z</time>
      </trkpt>
      <trkpt lat="48.90134" lon="2.10066">
        <ele>124</ele>
        <time>2022-08-24T13:20:23Z</time>
      </trkpt>
      <trkpt lat="48.90128" lon="2.10062">
        <ele>124.2</ele>
        <time>2022-08-24T13:20:28Z</time>
      </trkpt>
      <trkpt lat="48.90122" lon="2.10058">
        <ele>124.5</ele>
        <time>2022-08-24T13:20:33Z</time>
      </trkpt>
      <trkpt lat="48.90116" lon="2.10055">
        <ele>124.8</ele>
        <time>2022-08-24T13:20:39Z</time>
      </trkpt>
      <trkpt lat="48.90109" lon="2.10051">
        <ele>124.9</ele>
        <time>2022-08-24T13:20:44Z</time>
      </trkpt>
      <trkpt lat="48.90101" lon="2.10048">
        <ele>125</ele>
        <time>2022-08-24T13:20:50Z</time>
      </trkpt>
      <trkpt lat="48.90093" lon="2.10047">
        <ele>125.3</ele>
        <time>2022-08-24T13:20:55Z</time>
      </trkpt>
      <trkpt lat="48.90085" lon="2.10048">
        <ele>125.6</ele>
        <time>2022-08-24T13:21:01Z</time>
      </trkpt>
      <trkpt lat="48.90078" lon="2.10049">
        <ele>125.9</ele>
        <time>2022-08-24T13:21:06Z</time>
      </trkpt>
      <trkpt lat="48.90071" lon="2.1005">
        <ele>126</ele>
        <time>2022-08-24T13:21:11Z</time>
      </trkpt>
      <trkpt lat="48.90062" lon="2.10052">
        <ele>126.2</ele>
        <time>2022-08-24T13:21:17Z</time>
      </trkpt>
      <trkpt lat="48.90056" lon="2.10053">
        <ele>126.4</ele>
        <time>2022-08-24T13:21:22Z</time>
      </trkpt>
      <trkpt lat="48.9005" lon="2.10053">
        <ele>126.5</ele>
        <time>2022-08-24T13:21:28Z</time>
      </trkpt>
      <trkpt lat="48.90044" lon="2.10052">
        <ele>126.6</ele>
        <time>2022-08-24T13:21:33Z</time>
      </trkpt>
      <trkpt lat="48.90037" lon="2.10051">
        <ele>126.7</ele>
        <time>2022-08-24T13:21:39Z</time>
      </trkpt>
      <trkpt lat="48.90032" lon="2.10051">
        <ele>126.6</ele>
        <time>2022-08-24T13:21:45Z</time>
      </trkpt>
      <trkpt lat="48.90027" lon="2.10051">
        <ele>126.4</ele>
        <time>2022-08-24T13:21:50Z</time>
      </trkpt>
      <trkpt lat="48.90022" lon="2.10052">
        <ele>125.9</ele>
        <time>2022-08-24T13:21:55Z</time>
      </trkpt>
      <trkpt lat="48.90015" lon="2.10053">
        <ele>125.5</ele>
        <time>2022-08-24T13:22:01Z</time>
      </trkpt>
      <trkpt lat="48.90009" lon="2.10053">
        <ele>125</ele>
        <time>2022-08-24T13:22:06Z</time>
      </trkpt>
      <trkpt lat="48.9" lon="2.10052">
        <ele>124.3</ele>
        <time>2022-08-24T13:22:12Z</time>
      </trkpt>
      <trkpt lat="48.89991" lon="2.10051">
        <ele>123.7</ele>
        <time>2022-08-24T13:22:18Z</time>
      </trkpt>
      <trkpt lat="48.89984" lon="2.1005">
        <ele>123.4</ele>
        <time>2022-08-24T13:22:23Z</time>
      </trkpt>
      <trkpt lat="48.89979" lon="2.1005">
        <ele>122.9</ele>
        <time>2022-08-24T13:22:28Z</time>
      </trkpt>
      <trkpt lat="48.89973" lon="2.10049">
        <ele>121.9</ele>
        <time>2022-08-24T13:22:34Z</time>
      </trkpt>
      <trkpt lat="48.89965" lon="2.10049">
        <ele>120.9</ele>
        <time>2022-08-24T13:22:39Z</time>
      </trkpt>
      <trkpt lat="48.89956" lon="2.10047">
        <ele>119.7</ele>
        <time>2022-08-24T13:22:45Z</time>
      </trkpt>
      <trkpt lat="48.8995" lon="2.10045">
        <ele>118.7</ele>
        <time>2022-08-24T13:22:50Z</time>
      </trkpt>
      <trkpt lat="48.89943" lon="2.10041">
        <ele>117.8</ele>
        <time>2022-08-24T13:22:55Z</time>
      </trkpt>
      <trkpt lat="48.89935" lon="2.10037">
        <ele>117.2</ele>
        <time>2022-08-24T13:23:01Z</time>
      </trkpt>
      <trkpt lat="48.89929" lon="2.10036">
        <ele>116.9</ele>
        <time>2022-08-24T13:23:06Z</time>
      </trkpt>
      <trkpt lat="48.89925" lon="2.10036">
        <ele>116.8</ele>
        <time>2022-08-24T13:23:11Z</time>
      </trkpt>
      <trkpt lat="48.89924" lon="2.10036">
        <ele>116.9</ele>
        <time>2022-08-24T13:23:16Z</time>
      </trkpt>
      <trkpt lat="48.89924" lon="2.10035">
        <ele>117</ele>
        <time>2022-08-24T13:23:22Z</time>
      </trkpt>
      <trkpt lat="48.89923" lon="2.10034">
        <ele>117.4</ele>
        <time>2022-08-24T13:23:28Z</time>
      </trkpt>
      <trkpt lat="48.89924" lon="2.10034">
        <ele>117.8</ele>
        <time>2022-08-24T13:23:34Z</time>
      </trkpt>
      <trkpt lat="48.89924" lon="2.10033">
        <ele>117.9</ele>
        <time>2022-08-24T13:23:39Z</time>
      </trkpt>
      <trkpt lat="48.89925" lon="2.10033">
        <ele>118.1</ele>
        <time>2022-08-24T13:23:45Z</time>
      </trkpt>
      <trkpt lat="48.89926" lon="2.10033">
        <ele>118.2</ele>
        <time>2022-08-24T13:23:56Z</time>
      </trkpt>
      <trkpt lat="48.89926" lon="2.10032">
        <ele>118.7</ele>
        <time>2022-08-24T13:24:01Z</time>
      </trkpt>
      <trkpt lat="48.89926" lon="2.10031">
        <ele>118.9</ele>
        <time>2022-08-24T13:24:06Z</time>
      </trkpt>
      <trkpt lat="48.89927" lon="2.10031">
        <ele>121</ele>
        <time>2022-08-24T13:25:34Z</time>
      </trkpt>
      <trkpt lat="48.89927" lon="2.10032">
        <ele>121.2</ele>
        <time>2022-08-24T13:25:52Z</time>
      </trkpt>
    </trkseg>
  </trk>
</gpx>